<?xml version='1.0' encoding='UTF-8'?><gpx version="1.1" creator="JPX - https://github.com/jenetics/jpx" xmlns="http://www.topografix.com/GPX/1/1"><trk><trkseg><trkpt lat="43.71475343457127" lon="13.220188651018326"><ele>5.0</ele><time>2026-04-29T14:13:55Z</time></trkpt><trkpt lat="43.714786488880534" lon="13.220288297305606"><ele>5.0</ele><time>2026-04-29T14:13:58Z</time></trkpt><trkpt lat="43.714774451360775" lon="13.220403129736411"><ele>5.0</ele><time>2026-04-29T14:14:00Z</time></trkpt><trkpt lat="43.71475608433776" lon="13.220523039011479"><ele>5.0</ele><time>2026-04-29T14:14:02Z</time></trkpt><trkpt lat="43.714756620914635" lon="13.220610924503678"><ele>5.0</ele><time>2026-04-29T14:14:06Z</time></trkpt><trkpt lat="43.71472741042242" lon="13.220724407551273"><ele>5.0</ele><time>2026-04-29T14:14:10Z</time></trkpt><trkpt lat="43.7147113041145" lon="13.220829591896463"><ele>4.666666666666667</ele><time>2026-04-29T14:14:13Z</time></trkpt><trkpt lat="43.714700317742086" lon="13.220917384062183"><ele>4.333333333333334</ele><time>2026-04-29T14:14:15Z</time></trkpt><trkpt lat="43.7146794148258" lon="13.221024962886418"><ele>4.0</ele><time>2026-04-29T14:14:17Z</time></trkpt><trkpt lat="43.71462577691492" lon="13.221144948653835"><ele>3.666666666666667</ele><time>2026-04-29T14:14:19Z</time></trkpt><trkpt lat="43.71453506424105" lon="13.221260043559274"><ele>3.3333333333333335</ele><time>2026-04-29T14:14:21Z</time></trkpt><trkpt lat="43.714480299978824" lon="13.221321576747762"><ele>3.0</ele><time>2026-04-29T14:14:22Z</time></trkpt><trkpt lat="43.71443266100207" lon="13.2213802448032"><ele>3.666666666666667</ele><time>2026-04-29T14:14:23Z</time></trkpt><trkpt lat="43.7143453535415" lon="13.221497940403637"><ele>4.333333333333334</ele><time>2026-04-29T14:14:25Z</time></trkpt><trkpt lat="43.714297209831265" lon="13.22156120222864"><ele>5.0</ele><time>2026-04-29T14:14:26Z</time></trkpt><trkpt lat="43.71424735729098" lon="13.221629483734716"><ele>5.666666666666667</ele><time>2026-04-29T14:14:27Z</time></trkpt><trkpt lat="43.714202368322375" lon="13.221690963890874"><ele>6.333333333333334</ele><time>2026-04-29T14:14:28Z</time></trkpt><trkpt lat="43.714145862341304" lon="13.221791392505873"><ele>7.0</ele><time>2026-04-29T14:14:30Z</time></trkpt><trkpt lat="43.714022159548236" lon="13.22176340155762"><ele>7.0</ele><time>2026-04-29T14:14:33Z</time></trkpt><trkpt lat="43.71398683398493" lon="13.221688181799031"><ele>7.0</ele><time>2026-04-29T14:14:34Z</time></trkpt><trkpt lat="43.713960066805846" lon="13.221600585616779"><ele>7.0</ele><time>2026-04-29T14:14:35Z</time></trkpt><trkpt lat="43.713920101774484" lon="13.221522706335405"><ele>7.0</ele><time>2026-04-29T14:14:36Z</time></trkpt><trkpt lat="43.7138821817684" lon="13.221439785233049"><ele>7.0</ele><time>2026-04-29T14:14:37Z</time></trkpt><trkpt lat="43.71384187717012" lon="13.2213583427666"><ele>7.0</ele><time>2026-04-29T14:14:38Z</time></trkpt><trkpt lat="43.71380165091223" lon="13.221273222413572"><ele>7.0</ele><time>2026-04-29T14:14:39Z</time></trkpt><trkpt lat="43.713765091333464" lon="13.22118562412335"><ele>6.8</ele><time>2026-04-29T14:14:40Z</time></trkpt><trkpt lat="43.71372739609827" lon="13.221103262151416"><ele>6.6</ele><time>2026-04-29T14:14:41Z</time></trkpt><trkpt lat="43.713663557056044" lon="13.220965430809102"><ele>6.3999999999999995</ele><time>2026-04-29T14:14:43Z</time></trkpt><trkpt lat="43.713603685772426" lon="13.220830481134138"><ele>6.199999999999999</ele><time>2026-04-29T14:14:45Z</time></trkpt><trkpt lat="43.71354018970704" lon="13.220694440489483"><ele>6.0</ele><time>2026-04-29T14:14:47Z</time></trkpt><trkpt lat="43.71348174383362" lon="13.220557554096505"><ele>5.8</ele><time>2026-04-29T14:14:49Z</time></trkpt><trkpt lat="43.71342610818017" lon="13.220426861505498"><ele>5.6</ele><time>2026-04-29T14:14:51Z</time></trkpt><trkpt lat="43.71335668858988" lon="13.220293228800427"><ele>5.4</ele><time>2026-04-29T14:14:53Z</time></trkpt><trkpt lat="43.71331487897924" lon="13.22016982535819"><ele>5.2</ele><time>2026-04-29T14:14:55Z</time></trkpt><trkpt lat="43.71324934919429" lon="13.220072083971235"><ele>5.0</ele><time>2026-04-29T14:14:57Z</time></trkpt><trkpt lat="43.71319722853947" lon="13.219949049583738"><ele>5.0</ele><time>2026-04-29T14:14:59Z</time></trkpt><trkpt lat="43.7131325546288" lon="13.21988150733628"><ele>5.0</ele><time>2026-04-29T14:15:01Z</time></trkpt><trkpt lat="43.71307233683224" lon="13.219794004191863"><ele>5.0</ele><time>2026-04-29T14:15:05Z</time></trkpt><trkpt lat="43.712979359779396" lon="13.219682015214259"><ele>5.0</ele><time>2026-04-29T14:15:07Z</time></trkpt><trkpt lat="43.712912888465375" lon="13.21963044286566"><ele>5.0</ele><time>2026-04-29T14:15:08Z</time></trkpt><trkpt lat="43.71285956301707" lon="13.219555467731338"><ele>5.0</ele><time>2026-04-29T14:15:09Z</time></trkpt><trkpt lat="43.7128019220833" lon="13.219476481642198"><ele>5.166666666666667</ele><time>2026-04-29T14:15:10Z</time></trkpt><trkpt lat="43.71273573255906" lon="13.219400930085007"><ele>5.333333333333334</ele><time>2026-04-29T14:15:11Z</time></trkpt><trkpt lat="43.71267606052548" lon="13.2193193766676"><ele>5.5</ele><time>2026-04-29T14:15:12Z</time></trkpt><trkpt lat="43.7126125381561" lon="13.219240143766562"><ele>5.666666666666667</ele><time>2026-04-29T14:15:13Z</time></trkpt><trkpt lat="43.712543521602626" lon="13.219167336563403"><ele>5.833333333333333</ele><time>2026-04-29T14:15:14Z</time></trkpt><trkpt lat="43.71247569158329" lon="13.219091074171846"><ele>6.0</ele><time>2026-04-29T14:15:15Z</time></trkpt><trkpt lat="43.712415291876184" lon="13.219011022078806"><ele>6.333333333333333</ele><time>2026-04-29T14:15:16Z</time></trkpt><trkpt lat="43.712354819540685" lon="13.21893928119648"><ele>6.666666666666666</ele><time>2026-04-29T14:15:17Z</time></trkpt><trkpt lat="43.712294953695164" lon="13.21886231557725"><ele>7.0</ele><time>2026-04-29T14:15:18Z</time></trkpt><trkpt lat="43.71223561940891" lon="13.21878773828058"><ele>7.333333333333333</ele><time>2026-04-29T14:15:19Z</time></trkpt><trkpt lat="43.7121747612252" lon="13.218719726694058"><ele>7.666666666666666</ele><time>2026-04-29T14:15:20Z</time></trkpt><trkpt lat="43.71211703261082" lon="13.2186461162541"><ele>8.0</ele><time>2026-04-29T14:15:21Z</time></trkpt><trkpt lat="43.71206888473431" lon="13.218557055127022"><ele>7.999999999999999</ele><time>2026-04-29T14:15:22Z</time></trkpt><trkpt lat="43.71201895107767" lon="13.218468230410856"><ele>8.0</ele><time>2026-04-29T14:15:23Z</time></trkpt><trkpt lat="43.711964483459326" lon="13.2183791376396"><ele>8.0</ele><time>2026-04-29T14:15:24Z</time></trkpt><trkpt lat="43.711916871562586" lon="13.21829302859526"><ele>8.0</ele><time>2026-04-29T14:15:25Z</time></trkpt><trkpt lat="43.71187216322661" lon="13.218203539887215"><ele>7.999999999999999</ele><time>2026-04-29T14:15:26Z</time></trkpt><trkpt lat="43.71183127073495" lon="13.218110932502862"><ele>8.0</ele><time>2026-04-29T14:15:27Z</time></trkpt><trkpt lat="43.71179605068153" lon="13.218000380356488"><ele>7.4</ele><time>2026-04-29T14:15:28Z</time></trkpt><trkpt lat="43.71176019406016" lon="13.217879585340876"><ele>6.800000000000001</ele><time>2026-04-29T14:15:29Z</time></trkpt><trkpt lat="43.7117358220254" lon="13.217744929671028"><ele>6.2</ele><time>2026-04-29T14:15:30Z</time></trkpt><trkpt lat="43.71172254864581" lon="13.217609487944387"><ele>5.6</ele><time>2026-04-29T14:15:31Z</time></trkpt><trkpt lat="43.71169017755016" lon="13.2174833550777"><ele>5.0</ele><time>2026-04-29T14:15:32Z</time></trkpt><trkpt lat="43.711647927215935" lon="13.217362054711291"><ele>5.8</ele><time>2026-04-29T14:15:33Z</time></trkpt><trkpt lat="43.71159561222452" lon="13.217245815462219"><ele>6.6</ele><time>2026-04-29T14:15:34Z</time></trkpt><trkpt lat="43.71153445765608" lon="13.21714317636353"><ele>7.4</ele><time>2026-04-29T14:15:35Z</time></trkpt><trkpt lat="43.71146833436552" lon="13.217043231907564"><ele>8.2</ele><time>2026-04-29T14:15:36Z</time></trkpt><trkpt lat="43.71139902137682" lon="13.216945569700226"><ele>9.0</ele><time>2026-04-29T14:15:37Z</time></trkpt><trkpt lat="43.71133155525143" lon="13.216842149565336"><ele>9.0</ele><time>2026-04-29T14:15:38Z</time></trkpt><trkpt lat="43.71125373067336" lon="13.216732633437445"><ele>9.0</ele><time>2026-04-29T14:15:39Z</time></trkpt><trkpt lat="43.71117593743271" lon="13.216618314626455"><ele>9.0</ele><time>2026-04-29T14:15:40Z</time></trkpt><trkpt lat="43.71110357222096" lon="13.216503493121378"><ele>9.0</ele><time>2026-04-29T14:15:41Z</time></trkpt><trkpt lat="43.71103638294779" lon="13.216417187768013"><ele>9.0</ele><time>2026-04-29T14:15:42Z</time></trkpt><trkpt lat="43.71097493489682" lon="13.216332663265684"><ele>8.166666666666666</ele><time>2026-04-29T14:15:43Z</time></trkpt><trkpt lat="43.71091956768423" lon="13.216247483913657"><ele>7.333333333333333</ele><time>2026-04-29T14:15:44Z</time></trkpt><trkpt lat="43.710861077619406" lon="13.2161609516091"><ele>6.5</ele><time>2026-04-29T14:15:45Z</time></trkpt><trkpt lat="43.71080035482361" lon="13.216081197845629"><ele>5.666666666666666</ele><time>2026-04-29T14:15:46Z</time></trkpt><trkpt lat="43.71074042077195" lon="13.21599256082072"><ele>4.833333333333333</ele><time>2026-04-29T14:15:47Z</time></trkpt><trkpt lat="43.71067671864948" lon="13.215893075716085"><ele>4.0</ele><time>2026-04-29T14:15:48Z</time></trkpt><trkpt lat="43.71061314025993" lon="13.215784210044317"><ele>4.0</ele><time>2026-04-29T14:15:49Z</time></trkpt><trkpt lat="43.71055884209875" lon="13.215668297325003"><ele>4.0</ele><time>2026-04-29T14:15:50Z</time></trkpt><trkpt lat="43.71051864445487" lon="13.21555086868354"><ele>4.0</ele><time>2026-04-29T14:15:51Z</time></trkpt><trkpt lat="43.71047360019232" lon="13.215444057255867"><ele>4.0</ele><time>2026-04-29T14:15:52Z</time></trkpt><trkpt lat="43.71043688948465" lon="13.215338192048723"><ele>4.0</ele><time>2026-04-29T14:15:53Z</time></trkpt><trkpt lat="43.71039328867379" lon="13.21523100511946"><ele>4.0</ele><time>2026-04-29T14:15:54Z</time></trkpt><trkpt lat="43.7103495109518" lon="13.215132216114013"><ele>4.0</ele><time>2026-04-29T14:15:55Z</time></trkpt><trkpt lat="43.710306869475886" lon="13.215024293241036"><ele>4.0</ele><time>2026-04-29T14:15:56Z</time></trkpt><trkpt lat="43.7102600156966" lon="13.214909228032884"><ele>4.0</ele><time>2026-04-29T14:15:57Z</time></trkpt><trkpt lat="43.71020442403632" lon="13.214784813623442"><ele>4.0</ele><time>2026-04-29T14:15:58Z</time></trkpt><trkpt lat="43.71014134702916" lon="13.214657894711442"><ele>4.0</ele><time>2026-04-29T14:15:59Z</time></trkpt><trkpt lat="43.71007070570258" lon="13.214538459643084"><ele>4.0</ele><time>2026-04-29T14:16:00Z</time></trkpt><trkpt lat="43.709989812234014" lon="13.21441710413028"><ele>4.0</ele><time>2026-04-29T14:16:01Z</time></trkpt><trkpt lat="43.70989785661413" lon="13.214293470948077"><ele>4.0</ele><time>2026-04-29T14:16:02Z</time></trkpt><trkpt lat="43.70979414706783" lon="13.214175407606652"><ele>4.0</ele><time>2026-04-29T14:16:03Z</time></trkpt><trkpt lat="43.70968079215325" lon="13.214073956069276"><ele>4.0</ele><time>2026-04-29T14:16:04Z</time></trkpt><trkpt lat="43.70956277501394" lon="13.21398760394986"><ele>4.0</ele><time>2026-04-29T14:16:05Z</time></trkpt><trkpt lat="43.709432793548174" lon="13.213903368632046"><ele>4.0</ele><time>2026-04-29T14:16:06Z</time></trkpt><trkpt lat="43.709313768230274" lon="13.213821186372414"><ele>4.0</ele><time>2026-04-29T14:16:07Z</time></trkpt><trkpt lat="43.70920967496919" lon="13.2137508696023"><ele>4.0</ele><time>2026-04-29T14:16:08Z</time></trkpt><trkpt lat="43.70911170826276" lon="13.213683932051698"><ele>4.0</ele><time>2026-04-29T14:16:09Z</time></trkpt><trkpt lat="43.70901927306741" lon="13.213628912048394"><ele>4.0</ele><time>2026-04-29T14:16:10Z</time></trkpt><trkpt lat="43.70892924619965" lon="13.21358376569678"><ele>4.0</ele><time>2026-04-29T14:16:11Z</time></trkpt><trkpt lat="43.70884121540958" lon="13.213529374018815"><ele>4.0</ele><time>2026-04-29T14:16:12Z</time></trkpt><trkpt lat="43.70874186558354" lon="13.213447713243403"><ele>4.0</ele><time>2026-04-29T14:16:13Z</time></trkpt><trkpt lat="43.70864918857199" lon="13.21337786856051"><ele>4.0</ele><time>2026-04-29T14:16:14Z</time></trkpt><trkpt lat="43.70854821849613" lon="13.213324040346773"><ele>4.0</ele><time>2026-04-29T14:16:15Z</time></trkpt><trkpt lat="43.708457006703476" lon="13.213244364524432"><ele>4.0</ele><time>2026-04-29T14:16:16Z</time></trkpt><trkpt lat="43.708360757412024" lon="13.213128451537843"><ele>4.25</ele><time>2026-04-29T14:16:17Z</time></trkpt><trkpt lat="43.70827008265913" lon="13.213005394513162"><ele>4.5</ele><time>2026-04-29T14:16:17.999Z</time></trkpt><trkpt lat="43.70818697116015" lon="13.212882343979024"><ele>4.75</ele><time>2026-04-29T14:16:18.999Z</time></trkpt><trkpt lat="43.708089078590014" lon="13.212743196473447"><ele>5.0</ele><time>2026-04-29T14:16:19.999Z</time></trkpt><trkpt lat="43.707996460442054" lon="13.21260789497783"><ele>5.0</ele><time>2026-04-29T14:16:20.999Z</time></trkpt><trkpt lat="43.707923110358955" lon="13.212488692532146"><ele>5.0</ele><time>2026-04-29T14:16:21.999Z</time></trkpt><trkpt lat="43.707865899113216" lon="13.212388304559996"><ele>5.0</ele><time>2026-04-29T14:16:22.999Z</time></trkpt><trkpt lat="43.70781630836246" lon="13.212312932418529"><ele>5.0</ele><time>2026-04-29T14:16:23.999Z</time></trkpt><trkpt lat="43.70777087779779" lon="13.21222915292777"><ele>5.0</ele><time>2026-04-29T14:16:24.999Z</time></trkpt><trkpt lat="43.70772885685755" lon="13.212137759677114"><ele>5.0</ele><time>2026-04-29T14:16:25.999Z</time></trkpt><trkpt lat="43.70768786807764" lon="13.212038973581002"><ele>4.8</ele><time>2026-04-29T14:16:26.999Z</time></trkpt><trkpt lat="43.70764767197195" lon="13.211941257398662"><ele>4.6</ele><time>2026-04-29T14:16:27.999Z</time></trkpt><trkpt lat="43.70759561289083" lon="13.211839399476455"><ele>4.4</ele><time>2026-04-29T14:16:28.999Z</time></trkpt><trkpt lat="43.707532683378865" lon="13.211731410951057"><ele>4.2</ele><time>2026-04-29T14:16:29.999Z</time></trkpt><trkpt lat="43.70745355140831" lon="13.211630639142374"><ele>4.0</ele><time>2026-04-29T14:16:30.999Z</time></trkpt><trkpt lat="43.70737275679866" lon="13.211537766262545"><ele>4.2</ele><time>2026-04-29T14:16:31.999Z</time></trkpt><trkpt lat="43.70729246091184" lon="13.211449566060722"><ele>4.4</ele><time>2026-04-29T14:16:32.999Z</time></trkpt><trkpt lat="43.70721744802037" lon="13.211370377244414"><ele>4.6</ele><time>2026-04-29T14:16:33.999Z</time></trkpt><trkpt lat="43.70714615071211" lon="13.211299590289576"><ele>4.8</ele><time>2026-04-29T14:16:34.999Z</time></trkpt><trkpt lat="43.70707152576731" lon="13.211236891302862"><ele>5.0</ele><time>2026-04-29T14:16:35.999Z</time></trkpt><trkpt lat="43.70699566085914" lon="13.211181351694579"><ele>5.0</ele><time>2026-04-29T14:16:36.999Z</time></trkpt><trkpt lat="43.70690549436562" lon="13.211130871426034"><ele>5.0</ele><time>2026-04-29T14:16:37.999Z</time></trkpt><trkpt lat="43.70680925995227" lon="13.211090565619998"><ele>5.0</ele><time>2026-04-29T14:16:38.999Z</time></trkpt><trkpt lat="43.70671573975484" lon="13.211038773913673"><ele>5.0</ele><time>2026-04-29T14:16:40Z</time></trkpt><trkpt lat="43.70663883105535" lon="13.21097108735861"><ele>5.0</ele><time>2026-04-29T14:16:41Z</time></trkpt><trkpt lat="43.70656497871251" lon="13.210883123356876"><ele>5.0</ele><time>2026-04-29T14:16:42Z</time></trkpt><trkpt lat="43.706494865471875" lon="13.210794193350907"><ele>5.0</ele><time>2026-04-29T14:16:43Z</time></trkpt><trkpt lat="43.70642528729298" lon="13.210708380015099"><ele>5.0</ele><time>2026-04-29T14:16:44Z</time></trkpt><trkpt lat="43.70635624011155" lon="13.21061802613594"><ele>5.0</ele><time>2026-04-29T14:16:45Z</time></trkpt><trkpt lat="43.70628971728156" lon="13.210530729472762"><ele>5.0</ele><time>2026-04-29T14:16:46Z</time></trkpt><trkpt lat="43.706220883557236" lon="13.210440764623419"><ele>5.142857142857142</ele><time>2026-04-29T14:16:47Z</time></trkpt><trkpt lat="43.70615338230921" lon="13.210359057018637"><ele>5.285714285714286</ele><time>2026-04-29T14:16:48Z</time></trkpt><trkpt lat="43.706099172316506" lon="13.210283533917806"><ele>5.428571428571429</ele><time>2026-04-29T14:16:49Z</time></trkpt><trkpt lat="43.706048624564716" lon="13.210217515632257"><ele>5.571428571428571</ele><time>2026-04-29T14:16:50Z</time></trkpt><trkpt lat="43.705988073057206" lon="13.210148501032142"><ele>5.714285714285714</ele><time>2026-04-29T14:16:51Z</time></trkpt><trkpt lat="43.705937944307856" lon="13.210087267753297"><ele>5.857142857142857</ele><time>2026-04-29T14:16:52Z</time></trkpt><trkpt lat="43.70589303608123" lon="13.210021146878887"><ele>6.0</ele><time>2026-04-29T14:16:53Z</time></trkpt><trkpt lat="43.70584742663442" lon="13.20995560781096"><ele>5.999999999999999</ele><time>2026-04-29T14:16:54Z</time></trkpt><trkpt lat="43.70580469236837" lon="13.209885826171679"><ele>6.0</ele><time>2026-04-29T14:16:55Z</time></trkpt><trkpt lat="43.70576412413749" lon="13.20981275208427"><ele>6.0</ele><time>2026-04-29T14:16:56Z</time></trkpt><trkpt lat="43.70571103542177" lon="13.209744241847224"><ele>6.0</ele><time>2026-04-29T14:16:57Z</time></trkpt><trkpt lat="43.70564764856178" lon="13.209684400953806"><ele>6.0</ele><time>2026-04-29T14:16:58Z</time></trkpt><trkpt lat="43.705574981213424" lon="13.209628889997829"><ele>5.999999999999999</ele><time>2026-04-29T14:16:59Z</time></trkpt><trkpt lat="43.705505304618036" lon="13.209581180764353"><ele>6.0</ele><time>2026-04-29T14:17:00Z</time></trkpt><trkpt lat="43.705438376844505" lon="13.20952198297477"><ele>5.8</ele><time>2026-04-29T14:17:01Z</time></trkpt><trkpt lat="43.705374998427715" lon="13.209449419270307"><ele>5.6</ele><time>2026-04-29T14:17:02Z</time></trkpt><trkpt lat="43.70531140324394" lon="13.209368260778154"><ele>5.4</ele><time>2026-04-29T14:17:03Z</time></trkpt><trkpt lat="43.70525679884464" lon="13.209261323639485"><ele>5.2</ele><time>2026-04-29T14:17:04Z</time></trkpt><trkpt lat="43.705171120951704" lon="13.209185614254475"><ele>5.0</ele><time>2026-04-29T14:17:05Z</time></trkpt><trkpt lat="43.70509780138434" lon="13.209079969985861"><ele>5.0</ele><time>2026-04-29T14:17:06Z</time></trkpt><trkpt lat="43.70500389205278" lon="13.209009615776656"><ele>5.0</ele><time>2026-04-29T14:17:07Z</time></trkpt><trkpt lat="43.70492480812089" lon="13.208938617993534"><ele>5.0</ele><time>2026-04-29T14:17:08Z</time></trkpt><trkpt lat="43.70484709230578" lon="13.208877380533544"><ele>5.0</ele><time>2026-04-29T14:17:09Z</time></trkpt><trkpt lat="43.70476664025558" lon="13.20881275626115"><ele>5.0</ele><time>2026-04-29T14:17:10Z</time></trkpt><trkpt lat="43.70468494278661" lon="13.208764601857283"><ele>5.0</ele><time>2026-04-29T14:17:11Z</time></trkpt><trkpt lat="43.70460364904792" lon="13.20870449146132"><ele>5.0</ele><time>2026-04-29T14:17:12Z</time></trkpt><trkpt lat="43.70452134416452" lon="13.208639171195793"><ele>5.0</ele><time>2026-04-29T14:17:13Z</time></trkpt><trkpt lat="43.704450216836925" lon="13.208557672508691"><ele>5.0</ele><time>2026-04-29T14:17:14Z</time></trkpt><trkpt lat="43.70436950319325" lon="13.20846839155028"><ele>5.0</ele><time>2026-04-29T14:17:15Z</time></trkpt><trkpt lat="43.70429558094941" lon="13.208368285351588"><ele>5.0</ele><time>2026-04-29T14:17:16Z</time></trkpt><trkpt lat="43.70421167915392" lon="13.208300460857506"><ele>5.0</ele><time>2026-04-29T14:17:17Z</time></trkpt><trkpt lat="43.70413657879487" lon="13.20821033239704"><ele>5.0</ele><time>2026-04-29T14:17:18Z</time></trkpt><trkpt lat="43.70405990948776" lon="13.208115168638427"><ele>5.0</ele><time>2026-04-29T14:17:19Z</time></trkpt><trkpt lat="43.703971351049674" lon="13.208019593280797"><ele>5.0</ele><time>2026-04-29T14:17:20Z</time></trkpt><trkpt lat="43.70391959823186" lon="13.20793270967528"><ele>5.0</ele><time>2026-04-29T14:17:21Z</time></trkpt><trkpt lat="43.70388523848788" lon="13.207856028365185"><ele>5.0</ele><time>2026-04-29T14:17:22Z</time></trkpt><trkpt lat="43.70381607881008" lon="13.207763633811195"><ele>5.0</ele><time>2026-04-29T14:17:23Z</time></trkpt><trkpt lat="43.70375310086913" lon="13.207658050366993"><ele>5.0</ele><time>2026-04-29T14:17:24Z</time></trkpt><trkpt lat="43.70374936361584" lon="13.207491898327646"><ele>5.0</ele><time>2026-04-29T14:17:25Z</time></trkpt><trkpt lat="43.70367126319666" lon="13.207367524012694"><ele>5.5</ele><time>2026-04-29T14:17:26Z</time></trkpt><trkpt lat="43.703562269800585" lon="13.20719187804771"><ele>6.0</ele><time>2026-04-29T14:17:29Z</time></trkpt><trkpt lat="43.703474195643054" lon="13.207077093562972"><ele>6.5</ele><time>2026-04-29T14:17:30Z</time></trkpt><trkpt lat="43.70338892841427" lon="13.20697082083998"><ele>7.0</ele><time>2026-04-29T14:17:31Z</time></trkpt><trkpt lat="43.70331366010997" lon="13.206870724722437"><ele>7.000000000000001</ele><time>2026-04-29T14:17:32Z</time></trkpt><trkpt lat="43.70323983835623" lon="13.20677857444056"><ele>7.0</ele><time>2026-04-29T14:17:33Z</time></trkpt><trkpt lat="43.703168879780726" lon="13.206693399601003"><ele>7.0</ele><time>2026-04-29T14:17:34Z</time></trkpt><trkpt lat="43.70310011015878" lon="13.206619491513521"><ele>7.0</ele><time>2026-04-29T14:17:35Z</time></trkpt><trkpt lat="43.70302864380486" lon="13.206564016928123"><ele>7.000000000000001</ele><time>2026-04-29T14:17:36Z</time></trkpt><trkpt lat="43.7029506006724" lon="13.206525732162032"><ele>7.0</ele><time>2026-04-29T14:17:37Z</time></trkpt><trkpt lat="43.70285588575774" lon="13.206486896516846"><ele>6.75</ele><time>2026-04-29T14:17:38Z</time></trkpt><trkpt lat="43.70276117809803" lon="13.206417379031848"><ele>6.5</ele><time>2026-04-29T14:17:39Z</time></trkpt><trkpt lat="43.70265941659293" lon="13.206330009612383"><ele>6.25</ele><time>2026-04-29T14:17:40Z</time></trkpt><trkpt lat="43.70256096399158" lon="13.206221230054455"><ele>6.0</ele><time>2026-04-29T14:17:41Z</time></trkpt><trkpt lat="43.70246456481485" lon="13.206108788968683"><ele>6.0</ele><time>2026-04-29T14:17:42Z</time></trkpt><trkpt lat="43.702364295999814" lon="13.205988757441123"><ele>6.0</ele><time>2026-04-29T14:17:43Z</time></trkpt><trkpt lat="43.70225727240325" lon="13.205864168669155"><ele>6.0</ele><time>2026-04-29T14:17:44Z</time></trkpt><trkpt lat="43.70214638474563" lon="13.205735240514718"><ele>6.0</ele><time>2026-04-29T14:17:45Z</time></trkpt><trkpt lat="43.702043246099066" lon="13.205607870260973"><ele>6.0</ele><time>2026-04-29T14:17:46Z</time></trkpt><trkpt lat="43.70195221022893" lon="13.205485353820848"><ele>6.0</ele><time>2026-04-29T14:17:47Z</time></trkpt><trkpt lat="43.70186737191529" lon="13.20538809555509"><ele>6.0</ele><time>2026-04-29T14:17:48Z</time></trkpt><trkpt lat="43.701781505000106" lon="13.20527640700556"><ele>6.0</ele><time>2026-04-29T14:17:49Z</time></trkpt><trkpt lat="43.70169573056868" lon="13.205156247429095"><ele>6.0</ele><time>2026-04-29T14:17:50Z</time></trkpt><trkpt lat="43.701606970714515" lon="13.20504917463769"><ele>6.0</ele><time>2026-04-29T14:17:51Z</time></trkpt><trkpt lat="43.70151992305002" lon="13.204950804814063"><ele>6.0</ele><time>2026-04-29T14:17:52Z</time></trkpt><trkpt lat="43.70143893485394" lon="13.20484357482792"><ele>6.0</ele><time>2026-04-29T14:17:53Z</time></trkpt><trkpt lat="43.70135996415223" lon="13.204737647740584"><ele>6.0</ele><time>2026-04-29T14:17:54Z</time></trkpt><trkpt lat="43.70128364677077" lon="13.20464800627461"><ele>6.0</ele><time>2026-04-29T14:17:55Z</time></trkpt><trkpt lat="43.70121145324114" lon="13.204541239504259"><ele>6.0</ele><time>2026-04-29T14:17:56Z</time></trkpt><trkpt lat="43.70113792870659" lon="13.204431847872087"><ele>6.0</ele><time>2026-04-29T14:17:57Z</time></trkpt><trkpt lat="43.701070562507844" lon="13.20430994464092"><ele>6.0</ele><time>2026-04-29T14:17:58Z</time></trkpt><trkpt lat="43.70099783975805" lon="13.20418458371089"><ele>6.199999999999999</ele><time>2026-04-29T14:17:59Z</time></trkpt><trkpt lat="43.70092778366318" lon="13.204067128478155"><ele>6.3999999999999995</ele><time>2026-04-29T14:18:00Z</time></trkpt><trkpt lat="43.700867982754836" lon="13.20393245875802"><ele>6.6</ele><time>2026-04-29T14:18:01Z</time></trkpt><trkpt lat="43.700814417195495" lon="13.203804683782254"><ele>6.8</ele><time>2026-04-29T14:18:02Z</time></trkpt><trkpt lat="43.70077168485394" lon="13.203693762375238"><ele>7.0</ele><time>2026-04-29T14:18:03Z</time></trkpt><trkpt lat="43.700735476062135" lon="13.20356925182626"><ele>6.6</ele><time>2026-04-29T14:18:04Z</time></trkpt><trkpt lat="43.7007010297267" lon="13.203448809346085"><ele>6.199999999999999</ele><time>2026-04-29T14:18:05Z</time></trkpt><trkpt lat="43.70068919241488" lon="13.203351657207607"><ele>5.8</ele><time>2026-04-29T14:18:06Z</time></trkpt><trkpt lat="43.700714378523706" lon="13.203218817770152"><ele>5.4</ele><time>2026-04-29T14:18:08.999Z</time></trkpt><trkpt lat="43.70072772575631" lon="13.203041120285318"><ele>5.0</ele><time>2026-04-29T14:18:10.999Z</time></trkpt><trkpt lat="43.700726847257755" lon="13.202940714338787"><ele>5.0</ele><time>2026-04-29T14:18:11.999Z</time></trkpt><trkpt lat="43.70072510909013" lon="13.202815324278601"><ele>5.0</ele><time>2026-04-29T14:18:12.999Z</time></trkpt><trkpt lat="43.7007204820281" lon="13.202691673869502"><ele>5.0</ele><time>2026-04-29T14:18:13.999Z</time></trkpt><trkpt lat="43.70072612718048" lon="13.202579348812913"><ele>5.0</ele><time>2026-04-29T14:18:14.999Z</time></trkpt><trkpt lat="43.700738488909735" lon="13.20244498018096"><ele>5.0</ele><time>2026-04-29T14:18:15.999Z</time></trkpt><trkpt lat="43.700767116360666" lon="13.20231179376377"><ele>5.2</ele><time>2026-04-29T14:18:16.999Z</time></trkpt><trkpt lat="43.70079442836745" lon="13.202167045702703"><ele>5.4</ele><time>2026-04-29T14:18:17.999Z</time></trkpt><trkpt lat="43.70082546137089" lon="13.20202679408226"><ele>5.6</ele><time>2026-04-29T14:18:18.999Z</time></trkpt><trkpt lat="43.70085938301957" lon="13.201876998799245"><ele>5.8</ele><time>2026-04-29T14:18:19.999Z</time></trkpt><trkpt lat="43.70088881909762" lon="13.201723195383636"><ele>6.0</ele><time>2026-04-29T14:18:20.999Z</time></trkpt><trkpt lat="43.700915589311776" lon="13.201568779656746"><ele>5.75</ele><time>2026-04-29T14:18:21.999Z</time></trkpt><trkpt lat="43.70095362490635" lon="13.20138907306836"><ele>5.5</ele><time>2026-04-29T14:18:22.999Z</time></trkpt><trkpt lat="43.700990645078285" lon="13.201216813801791"><ele>5.25</ele><time>2026-04-29T14:18:23.999Z</time></trkpt><trkpt lat="43.70102410945288" lon="13.201051938091892"><ele>5.0</ele><time>2026-04-29T14:18:24.999Z</time></trkpt><trkpt lat="43.70105735184597" lon="13.20089046021952"><ele>5.0</ele><time>2026-04-29T14:18:25.999Z</time></trkpt><trkpt lat="43.70109103030551" lon="13.200726719046854"><ele>5.0</ele><time>2026-04-29T14:18:26.999Z</time></trkpt><trkpt lat="43.70112747295982" lon="13.200546682212549"><ele>5.0</ele><time>2026-04-29T14:18:27.999Z</time></trkpt><trkpt lat="43.7011656912103" lon="13.200347823424137"><ele>5.0</ele><time>2026-04-29T14:18:29Z</time></trkpt><trkpt lat="43.70120718050807" lon="13.20014958650493"><ele>5.0</ele><time>2026-04-29T14:18:30Z</time></trkpt><trkpt lat="43.70125011629062" lon="13.199952900546023"><ele>5.0</ele><time>2026-04-29T14:18:31Z</time></trkpt><trkpt lat="43.701291014342885" lon="13.19974824870474"><ele>5.0</ele><time>2026-04-29T14:18:32Z</time></trkpt><trkpt lat="43.701333430305" lon="13.19953715160703"><ele>5.333333333333334</ele><time>2026-04-29T14:18:33Z</time></trkpt><trkpt lat="43.70137739203636" lon="13.199341748549083"><ele>5.666666666666667</ele><time>2026-04-29T14:18:34Z</time></trkpt><trkpt lat="43.701421491783876" lon="13.199131169899411"><ele>6.0</ele><time>2026-04-29T14:18:35Z</time></trkpt><trkpt lat="43.701468319831356" lon="13.198901185241361"><ele>6.0</ele><time>2026-04-29T14:18:36Z</time></trkpt><trkpt lat="43.70152384885231" lon="13.198639160006898"><ele>6.0</ele><time>2026-04-29T14:18:37Z</time></trkpt><trkpt lat="43.70158354364718" lon="13.198350034315597"><ele>6.0</ele><time>2026-04-29T14:18:38Z</time></trkpt><trkpt lat="43.701644515384736" lon="13.198054723677924"><ele>6.5</ele><time>2026-04-29T14:18:39Z</time></trkpt><trkpt lat="43.701709042230256" lon="13.19774219415832"><ele>7.0</ele><time>2026-04-29T14:18:40Z</time></trkpt><trkpt lat="43.70177374320914" lon="13.197427863750642"><ele>7.5</ele><time>2026-04-29T14:18:41Z</time></trkpt><trkpt lat="43.70182443404534" lon="13.197105815707143"><ele>8.0</ele><time>2026-04-29T14:18:42Z</time></trkpt><trkpt lat="43.70189291609386" lon="13.196785912970196"><ele>9.0</ele><time>2026-04-29T14:18:43Z</time></trkpt><trkpt lat="43.701959540321184" lon="13.196467941602712"><ele>10.0</ele><time>2026-04-29T14:18:44Z</time></trkpt><trkpt lat="43.702028640323185" lon="13.196155325747604"><ele>10.0</ele><time>2026-04-29T14:18:45Z</time></trkpt><trkpt lat="43.70209396559755" lon="13.195861425682505"><ele>10.0</ele><time>2026-04-29T14:18:46Z</time></trkpt><trkpt lat="43.70214391181962" lon="13.195583918452435"><ele>10.0</ele><time>2026-04-29T14:18:47Z</time></trkpt><trkpt lat="43.70217936001971" lon="13.195305166257361"><ele>10.333333333333334</ele><time>2026-04-29T14:18:48Z</time></trkpt><trkpt lat="43.70220180534443" lon="13.195010601655357"><ele>10.666666666666666</ele><time>2026-04-29T14:18:49Z</time></trkpt><trkpt lat="43.702199634961644" lon="13.194714478767555"><ele>11.0</ele><time>2026-04-29T14:18:50Z</time></trkpt><trkpt lat="43.702175607402054" lon="13.194418831340986"><ele>11.333333333333332</ele><time>2026-04-29T14:18:51Z</time></trkpt><trkpt lat="43.702127335060716" lon="13.19413109758709"><ele>11.666666666666666</ele><time>2026-04-29T14:18:52Z</time></trkpt><trkpt lat="43.702055995331015" lon="13.193863893548906"><ele>12.0</ele><time>2026-04-29T14:18:53Z</time></trkpt><trkpt lat="43.701971287789085" lon="13.193606376065357"><ele>12.333333333333332</ele><time>2026-04-29T14:18:54Z</time></trkpt><trkpt lat="43.70186914836113" lon="13.193359432983051"><ele>12.666666666666666</ele><time>2026-04-29T14:18:55Z</time></trkpt><trkpt lat="43.70174752494701" lon="13.193131035106436"><ele>13.0</ele><time>2026-04-29T14:18:56Z</time></trkpt><trkpt lat="43.70161005594575" lon="13.192911319704388"><ele>13.333333333333332</ele><time>2026-04-29T14:18:57Z</time></trkpt><trkpt lat="43.70146213612976" lon="13.192711133927526"><ele>13.666666666666668</ele><time>2026-04-29T14:18:58Z</time></trkpt><trkpt lat="43.7013116577618" lon="13.192543874709962"><ele>14.0</ele><time>2026-04-29T14:18:59Z</time></trkpt><trkpt lat="43.701164261826115" lon="13.192412148848097"><ele>14.0</ele><time>2026-04-29T14:19:00Z</time></trkpt><trkpt lat="43.701023706309385" lon="13.19231041645467"><ele>14.0</ele><time>2026-04-29T14:19:01Z</time></trkpt><trkpt lat="43.700891028028636" lon="13.1922261280062"><ele>14.0</ele><time>2026-04-29T14:19:02Z</time></trkpt><trkpt lat="43.700774022068046" lon="13.192154348608025"><ele>14.0</ele><time>2026-04-29T14:19:03Z</time></trkpt><trkpt lat="43.70066764215654" lon="13.1920908028888"><ele>14.0</ele><time>2026-04-29T14:19:04Z</time></trkpt><trkpt lat="43.700561606714835" lon="13.192024596564929"><ele>14.0</ele><time>2026-04-29T14:19:05Z</time></trkpt><trkpt lat="43.700438391874506" lon="13.191944815155093"><ele>14.0</ele><time>2026-04-29T14:19:06Z</time></trkpt><trkpt lat="43.70030199510543" lon="13.191857408039525"><ele>14.0</ele><time>2026-04-29T14:19:07Z</time></trkpt><trkpt lat="43.700142691151484" lon="13.19176427485707"><ele>14.333333333333334</ele><time>2026-04-29T14:19:08Z</time></trkpt><trkpt lat="43.69997133631215" lon="13.191665595726185"><ele>14.666666666666668</ele><time>2026-04-29T14:19:09Z</time></trkpt><trkpt lat="43.69978664669067" lon="13.191552152793697"><ele>15.0</ele><time>2026-04-29T14:19:10Z</time></trkpt><trkpt lat="43.699574518254984" lon="13.191414590073173"><ele>16.5</ele><time>2026-04-29T14:19:11Z</time></trkpt><trkpt lat="43.69936392976552" lon="13.191281976184452"><ele>18.0</ele><time>2026-04-29T14:19:12Z</time></trkpt><trkpt lat="43.69914595410711" lon="13.191146818603613"><ele>18.0</ele><time>2026-04-29T14:19:13Z</time></trkpt><trkpt lat="43.69892549304185" lon="13.191008502860972"><ele>18.0</ele><time>2026-04-29T14:19:14Z</time></trkpt><trkpt lat="43.698714344591444" lon="13.190873585601262"><ele>18.0</ele><time>2026-04-29T14:19:15Z</time></trkpt><trkpt lat="43.69851857153437" lon="13.190748408092654"><ele>18.0</ele><time>2026-04-29T14:19:16Z</time></trkpt><trkpt lat="43.6983363114782" lon="13.19062411851439"><ele>18.0</ele><time>2026-04-29T14:19:17Z</time></trkpt><trkpt lat="43.69815455659705" lon="13.190493226756049"><ele>18.0</ele><time>2026-04-29T14:19:18Z</time></trkpt><trkpt lat="43.697978266664535" lon="13.190360807094768"><ele>18.0</ele><time>2026-04-29T14:19:19Z</time></trkpt><trkpt lat="43.69782235840622" lon="13.190226491613378"><ele>18.0</ele><time>2026-04-29T14:19:20Z</time></trkpt><trkpt lat="43.69766618854501" lon="13.190090091050305"><ele>18.0</ele><time>2026-04-29T14:19:21Z</time></trkpt><trkpt lat="43.6975248187735" lon="13.189952171945777"><ele>18.0</ele><time>2026-04-29T14:19:22Z</time></trkpt><trkpt lat="43.69738890025969" lon="13.189814033599387"><ele>18.0</ele><time>2026-04-29T14:19:23Z</time></trkpt><trkpt lat="43.69725334973506" lon="13.189675029325814"><ele>18.666666666666668</ele><time>2026-04-29T14:19:24Z</time></trkpt><trkpt lat="43.69712175914007" lon="13.189529942012031"><ele>19.333333333333336</ele><time>2026-04-29T14:19:25Z</time></trkpt><trkpt lat="43.69698495252704" lon="13.189376431742344"><ele>20.0</ele><time>2026-04-29T14:19:26Z</time></trkpt><trkpt lat="43.69686067591578" lon="13.189230429993088"><ele>20.333333333333336</ele><time>2026-04-29T14:19:27Z</time></trkpt><trkpt lat="43.696738507862946" lon="13.189086364408912"><ele>20.666666666666668</ele><time>2026-04-29T14:19:28Z</time></trkpt><trkpt lat="43.69662338754792" lon="13.18894197902452"><ele>21.0</ele><time>2026-04-29T14:19:29Z</time></trkpt><trkpt lat="43.69651221242512" lon="13.188800890469079"><ele>21.333333333333332</ele><time>2026-04-29T14:19:30Z</time></trkpt><trkpt lat="43.69639825074182" lon="13.188652520814676"><ele>21.666666666666664</ele><time>2026-04-29T14:19:31Z</time></trkpt><trkpt lat="43.696285630872616" lon="13.188505712680634"><ele>22.0</ele><time>2026-04-29T14:19:32Z</time></trkpt><trkpt lat="43.696171158499" lon="13.188359697308169"><ele>22.0</ele><time>2026-04-29T14:19:33Z</time></trkpt><trkpt lat="43.69605836714639" lon="13.188207570086094"><ele>22.0</ele><time>2026-04-29T14:19:34Z</time></trkpt><trkpt lat="43.69594817311338" lon="13.188055706058117"><ele>22.0</ele><time>2026-04-29T14:19:35Z</time></trkpt><trkpt lat="43.69583561135113" lon="13.187900484190942"><ele>22.333333333333332</ele><time>2026-04-29T14:19:36Z</time></trkpt><trkpt lat="43.695727576006284" lon="13.187744768228685"><ele>22.666666666666668</ele><time>2026-04-29T14:19:37Z</time></trkpt><trkpt lat="43.69562585963908" lon="13.187587993930876"><ele>23.0</ele><time>2026-04-29T14:19:38Z</time></trkpt><trkpt lat="43.695526403881786" lon="13.187427044113265"><ele>23.333333333333336</ele><time>2026-04-29T14:19:39Z</time></trkpt><trkpt lat="43.6954298121918" lon="13.18726748862698"><ele>23.666666666666668</ele><time>2026-04-29T14:19:40Z</time></trkpt><trkpt lat="43.69532761083929" lon="13.18709607067247"><ele>24.0</ele><time>2026-04-29T14:19:41Z</time></trkpt><trkpt lat="43.69522454781247" lon="13.186914751255598"><ele>24.0</ele><time>2026-04-29T14:19:42Z</time></trkpt><trkpt lat="43.695127695738634" lon="13.186732955487384"><ele>24.0</ele><time>2026-04-29T14:19:43Z</time></trkpt><trkpt lat="43.695031202886874" lon="13.186545411249494"><ele>24.0</ele><time>2026-04-29T14:19:44Z</time></trkpt><trkpt lat="43.694934969492095" lon="13.186355158038216"><ele>24.0</ele><time>2026-04-29T14:19:45Z</time></trkpt><trkpt lat="43.69483769155825" lon="13.18615860443752"><ele>24.0</ele><time>2026-04-29T14:19:46Z</time></trkpt><trkpt lat="43.694735663854345" lon="13.185956977631315"><ele>24.0</ele><time>2026-04-29T14:19:47Z</time></trkpt><trkpt lat="43.694636439790955" lon="13.18576192703901"><ele>24.333333333333336</ele><time>2026-04-29T14:19:48Z</time></trkpt><trkpt lat="43.694539910144925" lon="13.185569829510227"><ele>24.666666666666668</ele><time>2026-04-29T14:19:49Z</time></trkpt><trkpt lat="43.69443624423228" lon="13.185372095711122"><ele>25.0</ele><time>2026-04-29T14:19:50Z</time></trkpt><trkpt lat="43.69434034542713" lon="13.185180433054922"><ele>25.0</ele><time>2026-04-29T14:19:51Z</time></trkpt><trkpt lat="43.69424332041446" lon="13.184981765823192"><ele>25.0</ele><time>2026-04-29T14:19:52Z</time></trkpt><trkpt lat="43.69415105958466" lon="13.184789884857508"><ele>25.0</ele><time>2026-04-29T14:19:53Z</time></trkpt><trkpt lat="43.69405826946236" lon="13.184597024884862"><ele>25.0</ele><time>2026-04-29T14:19:54Z</time></trkpt><trkpt lat="43.693965193294666" lon="13.184410373372934"><ele>25.0</ele><time>2026-04-29T14:19:55Z</time></trkpt><trkpt lat="43.693867201754706" lon="13.184226957866223"><ele>25.0</ele><time>2026-04-29T14:19:56Z</time></trkpt><trkpt lat="43.69376615080821" lon="13.184040967614965"><ele>25.666666666666668</ele><time>2026-04-29T14:19:57Z</time></trkpt><trkpt lat="43.69366837741523" lon="13.183865333891617"><ele>26.333333333333336</ele><time>2026-04-29T14:19:58Z</time></trkpt><trkpt lat="43.693563510074696" lon="13.183686025784203"><ele>27.0</ele><time>2026-04-29T14:19:59Z</time></trkpt><trkpt lat="43.69345348477723" lon="13.183505865185845"><ele>27.0</ele><time>2026-04-29T14:20:00Z</time></trkpt><trkpt lat="43.69334191787757" lon="13.18332808506522"><ele>27.0</ele><time>2026-04-29T14:20:01Z</time></trkpt><trkpt lat="43.69322543978375" lon="13.183146220905327"><ele>27.0</ele><time>2026-04-29T14:20:02Z</time></trkpt><trkpt lat="43.69311155588463" lon="13.182967682619775"><ele>27.666666666666664</ele><time>2026-04-29T14:20:03Z</time></trkpt><trkpt lat="43.69299751419086" lon="13.18278668638529"><ele>28.333333333333332</ele><time>2026-04-29T14:20:04Z</time></trkpt><trkpt lat="43.692872113476554" lon="13.182604544728433"><ele>29.0</ele><time>2026-04-29T14:20:05Z</time></trkpt><trkpt lat="43.69274822404324" lon="13.182439796245433"><ele>29.0</ele><time>2026-04-29T14:20:06Z</time></trkpt><trkpt lat="43.69262842375375" lon="13.18228770697905"><ele>29.0</ele><time>2026-04-29T14:20:07Z</time></trkpt><trkpt lat="43.69249972247223" lon="13.182120935365353"><ele>29.0</ele><time>2026-04-29T14:20:08Z</time></trkpt><trkpt lat="43.692369627821954" lon="13.1819529539964"><ele>29.0</ele><time>2026-04-29T14:20:09Z</time></trkpt><trkpt lat="43.69223374868469" lon="13.181786214237563"><ele>29.0</ele><time>2026-04-29T14:20:10Z</time></trkpt><trkpt lat="43.69210667854269" lon="13.181625676162554"><ele>29.0</ele><time>2026-04-29T14:20:11Z</time></trkpt><trkpt lat="43.69198411278701" lon="13.181477802995614"><ele>28.666666666666664</ele><time>2026-04-29T14:20:12Z</time></trkpt><trkpt lat="43.69186767521684" lon="13.181337234710375"><ele>28.333333333333336</ele><time>2026-04-29T14:20:13Z</time></trkpt><trkpt lat="43.69174369227103" lon="13.181193458483989"><ele>28.0</ele><time>2026-04-29T14:20:14Z</time></trkpt><trkpt lat="43.69162241283191" lon="13.181049274409409"><ele>28.0</ele><time>2026-04-29T14:20:15Z</time></trkpt><trkpt lat="43.691505412784764" lon="13.180910184691195"><ele>28.0</ele><time>2026-04-29T14:20:16Z</time></trkpt><trkpt lat="43.69139337407175" lon="13.180775911938529"><ele>28.0</ele><time>2026-04-29T14:20:17Z</time></trkpt><trkpt lat="43.691276458594245" lon="13.180636234207517"><ele>27.666666666666668</ele><time>2026-04-29T14:20:18Z</time></trkpt><trkpt lat="43.69116108364964" lon="13.180495791583452"><ele>27.333333333333336</ele><time>2026-04-29T14:20:19Z</time></trkpt><trkpt lat="43.691045152080015" lon="13.180353057532596"><ele>27.0</ele><time>2026-04-29T14:20:20Z</time></trkpt><trkpt lat="43.69093047094163" lon="13.180208546336887"><ele>27.666666666666664</ele><time>2026-04-29T14:20:21Z</time></trkpt><trkpt lat="43.69081417250137" lon="13.180068388371327"><ele>28.333333333333332</ele><time>2026-04-29T14:20:22Z</time></trkpt><trkpt lat="43.69070080130385" lon="13.179926587882882"><ele>29.0</ele><time>2026-04-29T14:20:23Z</time></trkpt><trkpt lat="43.69058336718917" lon="13.179786935688925"><ele>27.333333333333332</ele><time>2026-04-29T14:20:24Z</time></trkpt><trkpt lat="43.690461319849994" lon="13.179637120477988"><ele>25.666666666666664</ele><time>2026-04-29T14:20:25Z</time></trkpt><trkpt lat="43.690334082445226" lon="13.179483258144256"><ele>24.0</ele><time>2026-04-29T14:20:26Z</time></trkpt><trkpt lat="43.69020300649278" lon="13.179329112682488"><ele>22.666666666666668</ele><time>2026-04-29T14:20:27Z</time></trkpt><trkpt lat="43.69007519627958" lon="13.179184316539438"><ele>21.333333333333336</ele><time>2026-04-29T14:20:28Z</time></trkpt><trkpt lat="43.689937990579686" lon="13.17904856653533"><ele>20.0</ele><time>2026-04-29T14:20:29Z</time></trkpt><trkpt lat="43.68980187656353" lon="13.178932742511673"><ele>19.0</ele><time>2026-04-29T14:20:30Z</time></trkpt><trkpt lat="43.68966138466938" lon="13.17883612593128"><ele>18.0</ele><time>2026-04-29T14:20:31Z</time></trkpt><trkpt lat="43.68951594173853" lon="13.178754825327873"><ele>17.0</ele><time>2026-04-29T14:20:32Z</time></trkpt><trkpt lat="43.68937302117317" lon="13.17869120659649"><ele>16.75</ele><time>2026-04-29T14:20:33Z</time></trkpt><trkpt lat="43.6892405511357" lon="13.178637330406804"><ele>16.5</ele><time>2026-04-29T14:20:34Z</time></trkpt><trkpt lat="43.689112816830956" lon="13.178608367594798"><ele>16.25</ele><time>2026-04-29T14:20:35Z</time></trkpt><trkpt lat="43.688999344257745" lon="13.178582289600113"><ele>16.0</ele><time>2026-04-29T14:20:36Z</time></trkpt><trkpt lat="43.688898799116615" lon="13.178552649175671"><ele>15.999999999999998</ele><time>2026-04-29T14:20:37Z</time></trkpt><trkpt lat="43.688807380221775" lon="13.178511166041659"><ele>16.0</ele><time>2026-04-29T14:20:38Z</time></trkpt><trkpt lat="43.6887288508591" lon="13.178444450377567"><ele>16.0</ele><time>2026-04-29T14:20:39Z</time></trkpt><trkpt lat="43.68867783826383" lon="13.178359615511598"><ele>16.0</ele><time>2026-04-29T14:20:40Z</time></trkpt><trkpt lat="43.6886507357994" lon="13.178265436845718"><ele>15.999999999999998</ele><time>2026-04-29T14:20:41Z</time></trkpt><trkpt lat="43.688626534843664" lon="13.178127599072395"><ele>16.0</ele><time>2026-04-29T14:20:42Z</time></trkpt><trkpt lat="43.6886009690313" lon="13.178004637119276"><ele>16.25</ele><time>2026-04-29T14:20:43Z</time></trkpt><trkpt lat="43.68856170457593" lon="13.177891299920375"><ele>16.5</ele><time>2026-04-29T14:20:44Z</time></trkpt><trkpt lat="43.68863073957686" lon="13.17780516794558"><ele>16.75</ele><time>2026-04-29T14:20:45Z</time></trkpt><trkpt lat="43.68841393821509" lon="13.177748274703356"><ele>17.0</ele><time>2026-04-29T14:20:46Z</time></trkpt><trkpt lat="43.688292651949006" lon="13.17770215248352"><ele>17.333333333333336</ele><time>2026-04-29T14:20:47Z</time></trkpt><trkpt lat="43.68815703396828" lon="13.177626236089688"><ele>17.666666666666668</ele><time>2026-04-29T14:20:48Z</time></trkpt><trkpt lat="43.688015577167775" lon="13.177532829296279"><ele>18.0</ele><time>2026-04-29T14:20:49Z</time></trkpt><trkpt lat="43.68788087143708" lon="13.177441412608577"><ele>18.0</ele><time>2026-04-29T14:20:50Z</time></trkpt><trkpt lat="43.68776791473098" lon="13.177390210275721"><ele>18.0</ele><time>2026-04-29T14:20:51Z</time></trkpt><trkpt lat="43.68769511333398" lon="13.177284615710917"><ele>18.0</ele><time>2026-04-29T14:20:52Z</time></trkpt><trkpt lat="43.68762993081051" lon="13.177144481062971"><ele>18.0</ele><time>2026-04-29T14:20:53Z</time></trkpt><trkpt lat="43.68755894285159" lon="13.176976599487446"><ele>21.0</ele><time>2026-04-29T14:20:54Z</time></trkpt><trkpt lat="43.68747733847102" lon="13.176782550035279"><ele>24.0</ele><time>2026-04-29T14:20:55Z</time></trkpt><trkpt lat="43.68739177511027" lon="13.176596311347765"><ele>27.0</ele><time>2026-04-29T14:20:56Z</time></trkpt><trkpt lat="43.687303544307554" lon="13.176422864871386"><ele>29.0</ele><time>2026-04-29T14:20:57Z</time></trkpt><trkpt lat="43.68722245289973" lon="13.176281833449407"><ele>31.000000000000004</ele><time>2026-04-29T14:20:58Z</time></trkpt><trkpt lat="43.68714675004881" lon="13.176166000638936"><ele>33.0</ele><time>2026-04-29T14:20:59Z</time></trkpt><trkpt lat="43.68710269277915" lon="13.176057051280953"><ele>35.0</ele><time>2026-04-29T14:21:00Z</time></trkpt><trkpt lat="43.68704015279122" lon="13.175931010395733"><ele>37.0</ele><time>2026-04-29T14:21:02Z</time></trkpt><trkpt lat="43.686989091635546" lon="13.175809544293672"><ele>37.0</ele><time>2026-04-29T14:21:04Z</time></trkpt><trkpt lat="43.68694898194173" lon="13.175697082559987"><ele>37.0</ele><time>2026-04-29T14:21:05Z</time></trkpt><trkpt lat="43.68690571185962" lon="13.175565930769602"><ele>37.0</ele><time>2026-04-29T14:21:06Z</time></trkpt><trkpt lat="43.686858728096084" lon="13.175403271126257"><ele>37.0</ele><time>2026-04-29T14:21:07Z</time></trkpt><trkpt lat="43.686816967264406" lon="13.17522944416928"><ele>36.66666666666667</ele><time>2026-04-29T14:21:08Z</time></trkpt><trkpt lat="43.68677453269887" lon="13.175029400837778"><ele>36.333333333333336</ele><time>2026-04-29T14:21:09Z</time></trkpt><trkpt lat="43.68673371796887" lon="13.174816937126499"><ele>36.0</ele><time>2026-04-29T14:21:10Z</time></trkpt><trkpt lat="43.68669465363177" lon="13.174598433681398"><ele>37.666666666666664</ele><time>2026-04-29T14:21:11Z</time></trkpt><trkpt lat="43.68665460065262" lon="13.174363068153179"><ele>39.33333333333333</ele><time>2026-04-29T14:21:12Z</time></trkpt><trkpt lat="43.6866127742774" lon="13.174115397693848"><ele>41.0</ele><time>2026-04-29T14:21:13Z</time></trkpt><trkpt lat="43.686565763954505" lon="13.17385595301497"><ele>44.666666666666664</ele><time>2026-04-29T14:21:14Z</time></trkpt><trkpt lat="43.686516146318276" lon="13.173595155662873"><ele>48.33333333333333</ele><time>2026-04-29T14:21:15Z</time></trkpt><trkpt lat="43.68644872782753" lon="13.173334450908525"><ele>52.0</ele><time>2026-04-29T14:21:16Z</time></trkpt><trkpt lat="43.68639441084526" lon="13.173063645446204"><ele>55.0</ele><time>2026-04-29T14:21:17Z</time></trkpt><trkpt lat="43.68635595936302" lon="13.172812623747744"><ele>58.0</ele><time>2026-04-29T14:21:18Z</time></trkpt><trkpt lat="43.68629652404208" lon="13.172591087991204"><ele>61.0</ele><time>2026-04-29T14:21:19Z</time></trkpt><trkpt lat="43.68622794476553" lon="13.172375853822436"><ele>61.0</ele><time>2026-04-29T14:21:20Z</time></trkpt><trkpt lat="43.68615799960445" lon="13.172170886067796"><ele>61.0</ele><time>2026-04-29T14:21:21Z</time></trkpt><trkpt lat="43.68610321855675" lon="13.171993600542109"><ele>61.0</ele><time>2026-04-29T14:21:22Z</time></trkpt><trkpt lat="43.68608219662332" lon="13.171795767923186"><ele>61.0</ele><time>2026-04-29T14:21:23Z</time></trkpt><trkpt lat="43.686077494177034" lon="13.171590935338825"><ele>61.5</ele><time>2026-04-29T14:21:24Z</time></trkpt><trkpt lat="43.686094548636014" lon="13.171392331026272"><ele>62.0</ele><time>2026-04-29T14:21:25Z</time></trkpt><trkpt lat="43.68613087312096" lon="13.171222269646854"><ele>62.5</ele><time>2026-04-29T14:21:26Z</time></trkpt><trkpt lat="43.68618357742913" lon="13.17104497141855"><ele>63.0</ele><time>2026-04-29T14:21:27Z</time></trkpt><trkpt lat="43.686251965757904" lon="13.170863292428574"><ele>66.0</ele><time>2026-04-29T14:21:28Z</time></trkpt><trkpt lat="43.68632651824437" lon="13.170686349783596"><ele>69.0</ele><time>2026-04-29T14:21:29Z</time></trkpt><trkpt lat="43.68641643168725" lon="13.170522553975891"><ele>72.0</ele><time>2026-04-29T14:21:30Z</time></trkpt><trkpt lat="43.686488675698065" lon="13.170350143315783"><ele>75.0</ele><time>2026-04-29T14:21:31Z</time></trkpt><trkpt lat="43.68658473992447" lon="13.170203172824056"><ele>75.0</ele><time>2026-04-29T14:21:32Z</time></trkpt><trkpt lat="43.68669326215659" lon="13.170065748467797"><ele>75.0</ele><time>2026-04-29T14:21:33Z</time></trkpt><trkpt lat="43.68680078066309" lon="13.169950837879043"><ele>75.0</ele><time>2026-04-29T14:21:34Z</time></trkpt><trkpt lat="43.6869237998236" lon="13.169850867051876"><ele>75.0</ele><time>2026-04-29T14:21:35Z</time></trkpt><trkpt lat="43.687065776022145" lon="13.169766398383487"><ele>76.66666666666667</ele><time>2026-04-29T14:21:36Z</time></trkpt><trkpt lat="43.687223106074846" lon="13.169696842304502"><ele>78.33333333333334</ele><time>2026-04-29T14:21:37Z</time></trkpt><trkpt lat="43.68736368896721" lon="13.169631217115041"><ele>80.0</ele><time>2026-04-29T14:21:38Z</time></trkpt><trkpt lat="43.68750923739006" lon="13.169549016543462"><ele>80.0</ele><time>2026-04-29T14:21:39Z</time></trkpt><trkpt lat="43.68765816257759" lon="13.169439306226042"><ele>80.0</ele><time>2026-04-29T14:21:40Z</time></trkpt><trkpt lat="43.68778044301978" lon="13.169309388369895"><ele>80.0</ele><time>2026-04-29T14:21:41Z</time></trkpt><trkpt lat="43.68787498399603" lon="13.169161365404946"><ele>80.0</ele><time>2026-04-29T14:21:42Z</time></trkpt><trkpt lat="43.68794373466752" lon="13.168999226764948"><ele>80.0</ele><time>2026-04-29T14:21:43Z</time></trkpt><trkpt lat="43.687998310759795" lon="13.168788485126095"><ele>80.0</ele><time>2026-04-29T14:21:44Z</time></trkpt><trkpt lat="43.68805160151471" lon="13.168569206252485"><ele>80.0</ele><time>2026-04-29T14:21:45Z</time></trkpt><trkpt lat="43.68811163030806" lon="13.16835136429922"><ele>80.0</ele><time>2026-04-29T14:21:46Z</time></trkpt><trkpt lat="43.68817654110866" lon="13.168165267150854"><ele>80.0</ele><time>2026-04-29T14:21:47Z</time></trkpt><trkpt lat="43.6882443055805" lon="13.167996044805573"><ele>80.75</ele><time>2026-04-29T14:21:48Z</time></trkpt><trkpt lat="43.6883131070527" lon="13.16782807125476"><ele>81.5</ele><time>2026-04-29T14:21:49Z</time></trkpt><trkpt lat="43.68836998737103" lon="13.16765402662353"><ele>82.25</ele><time>2026-04-29T14:21:50Z</time></trkpt><trkpt lat="43.688410240747075" lon="13.16748091211132"><ele>83.0</ele><time>2026-04-29T14:21:51Z</time></trkpt><trkpt lat="43.688433207434" lon="13.167332117811698"><ele>83.83333333333334</ele><time>2026-04-29T14:21:52Z</time></trkpt><trkpt lat="43.68845314008879" lon="13.167204710089033"><ele>84.66666666666667</ele><time>2026-04-29T14:21:53Z</time></trkpt><trkpt lat="43.68846972462109" lon="13.167077301368801"><ele>85.5</ele><time>2026-04-29T14:21:54Z</time></trkpt><trkpt lat="43.68848599923628" lon="13.166964006114247"><ele>86.33333333333333</ele><time>2026-04-29T14:21:55Z</time></trkpt><trkpt lat="43.6884971014333" lon="13.166866031745764"><ele>87.16666666666666</ele><time>2026-04-29T14:21:56Z</time></trkpt><trkpt lat="43.68850864525074" lon="13.166763079069637"><ele>88.0</ele><time>2026-04-29T14:21:57Z</time></trkpt><trkpt lat="43.68851961450653" lon="13.166654059151455"><ele>88.80000000000001</ele><time>2026-04-29T14:21:58Z</time></trkpt><trkpt lat="43.688531640634636" lon="13.166527780362571"><ele>89.6</ele><time>2026-04-29T14:21:59Z</time></trkpt><trkpt lat="43.68854495954645" lon="13.166405540829134"><ele>90.4</ele><time>2026-04-29T14:22:00Z</time></trkpt><trkpt lat="43.68856101790543" lon="13.16628225397059"><ele>91.19999999999999</ele><time>2026-04-29T14:22:01Z</time></trkpt><trkpt lat="43.6885804841746" lon="13.166142632005586"><ele>92.0</ele><time>2026-04-29T14:22:02Z</time></trkpt><trkpt lat="43.68859979208973" lon="13.165987574520685"><ele>89.8</ele><time>2026-04-29T14:22:03Z</time></trkpt><trkpt lat="43.688615843805" lon="13.165834532376824"><ele>87.6</ele><time>2026-04-29T14:22:04Z</time></trkpt><trkpt lat="43.688626153713436" lon="13.165694281416997"><ele>85.39999999999999</ele><time>2026-04-29T14:22:05Z</time></trkpt><trkpt lat="43.68863870757091" lon="13.16555155834156"><ele>83.19999999999999</ele><time>2026-04-29T14:22:06Z</time></trkpt><trkpt lat="43.68865289360667" lon="13.165389164885662"><ele>81.0</ele><time>2026-04-29T14:22:07Z</time></trkpt><trkpt lat="43.68866133044951" lon="13.165218456849349"><ele>81.0</ele><time>2026-04-29T14:22:08Z</time></trkpt><trkpt lat="43.688663209877475" lon="13.165048572649418"><ele>81.0</ele><time>2026-04-29T14:22:09Z</time></trkpt><trkpt lat="43.688665349889675" lon="13.164863630901726"><ele>81.0</ele><time>2026-04-29T14:22:10Z</time></trkpt><trkpt lat="43.688672027060996" lon="13.164653999176068"><ele>81.0</ele><time>2026-04-29T14:22:11Z</time></trkpt><trkpt lat="43.688666866447896" lon="13.164471585056315"><ele>82.75</ele><time>2026-04-29T14:22:12Z</time></trkpt><trkpt lat="43.68866521267095" lon="13.16427308837235"><ele>84.5</ele><time>2026-04-29T14:22:13Z</time></trkpt><trkpt lat="43.68867782231981" lon="13.164078130986466"><ele>86.25</ele><time>2026-04-29T14:22:14Z</time></trkpt><trkpt lat="43.68870438045138" lon="13.163891564221446"><ele>88.0</ele><time>2026-04-29T14:22:15Z</time></trkpt><trkpt lat="43.68873900816526" lon="13.163707480972699"><ele>90.66666666666666</ele><time>2026-04-29T14:22:16Z</time></trkpt><trkpt lat="43.68879252622161" lon="13.163521706776582"><ele>93.33333333333333</ele><time>2026-04-29T14:22:17Z</time></trkpt><trkpt lat="43.688863701076905" lon="13.16331471036009"><ele>96.0</ele><time>2026-04-29T14:22:18Z</time></trkpt><trkpt lat="43.68893832894286" lon="13.163109239937658"><ele>99.0</ele><time>2026-04-29T14:22:19Z</time></trkpt><trkpt lat="43.689020230042225" lon="13.162908793698884"><ele>102.0</ele><time>2026-04-29T14:22:20Z</time></trkpt><trkpt lat="43.68909824291799" lon="13.1627099309247"><ele>105.0</ele><time>2026-04-29T14:22:21Z</time></trkpt><trkpt lat="43.689169476655564" lon="13.162530617379526"><ele>105.0</ele><time>2026-04-29T14:22:22Z</time></trkpt><trkpt lat="43.68925573603313" lon="13.162369660745606"><ele>105.0</ele><time>2026-04-29T14:22:23Z</time></trkpt><trkpt lat="43.68930882439006" lon="13.162202825894935"><ele>105.0</ele><time>2026-04-29T14:22:24Z</time></trkpt><trkpt lat="43.68937055952048" lon="13.162065158195121"><ele>105.0</ele><time>2026-04-29T14:22:25Z</time></trkpt><trkpt lat="43.68943366014922" lon="13.161923135839716"><ele>105.2</ele><time>2026-04-29T14:22:26Z</time></trkpt><trkpt lat="43.689485045793475" lon="13.161784070116534"><ele>105.4</ele><time>2026-04-29T14:22:27Z</time></trkpt><trkpt lat="43.689534764306366" lon="13.161646730208547"><ele>105.6</ele><time>2026-04-29T14:22:28Z</time></trkpt><trkpt lat="43.68958618232582" lon="13.161516093735278"><ele>105.8</ele><time>2026-04-29T14:22:29Z</time></trkpt><trkpt lat="43.689636524974745" lon="13.161382142296716"><ele>106.0</ele><time>2026-04-29T14:22:30Z</time></trkpt><trkpt lat="43.689692254614435" lon="13.161240520309414"><ele>107.0</ele><time>2026-04-29T14:22:31Z</time></trkpt><trkpt lat="43.68974448347369" lon="13.161101062756828"><ele>108.0</ele><time>2026-04-29T14:22:32Z</time></trkpt><trkpt lat="43.68979837940594" lon="13.160949760551325"><ele>109.0</ele><time>2026-04-29T14:22:33Z</time></trkpt><trkpt lat="43.68985211974623" lon="13.160791989302705"><ele>110.0</ele><time>2026-04-29T14:22:34Z</time></trkpt><trkpt lat="43.689909658642755" lon="13.160619230699442"><ele>110.5</ele><time>2026-04-29T14:22:35Z</time></trkpt><trkpt lat="43.68997197358743" lon="13.160450681013387"><ele>111.0</ele><time>2026-04-29T14:22:36Z</time></trkpt><trkpt lat="43.69004078576144" lon="13.160284821463136"><ele>111.5</ele><time>2026-04-29T14:22:37Z</time></trkpt><trkpt lat="43.69012435693789" lon="13.160128894960359"><ele>112.0</ele><time>2026-04-29T14:22:38Z</time></trkpt><trkpt lat="43.69022358963888" lon="13.15998530028955"><ele>113.25</ele><time>2026-04-29T14:22:39Z</time></trkpt><trkpt lat="43.690332968378456" lon="13.15985339675646"><ele>114.5</ele><time>2026-04-29T14:22:40Z</time></trkpt><trkpt lat="43.690447443729" lon="13.159717818865731"><ele>115.75</ele><time>2026-04-29T14:22:41Z</time></trkpt><trkpt lat="43.690557494702844" lon="13.159572437217797"><ele>117.0</ele><time>2026-04-29T14:22:42Z</time></trkpt><trkpt lat="43.69067370480302" lon="13.15941462376781"><ele>117.0</ele><time>2026-04-29T14:22:43Z</time></trkpt><trkpt lat="43.69079267397905" lon="13.159245301081263"><ele>117.0</ele><time>2026-04-29T14:22:44Z</time></trkpt><trkpt lat="43.69090507757336" lon="13.159057222678427"><ele>117.0</ele><time>2026-04-29T14:22:45Z</time></trkpt><trkpt lat="43.69099807960667" lon="13.15884817844205"><ele>116.33333333333334</ele><time>2026-04-29T14:22:46Z</time></trkpt><trkpt lat="43.69106877275508" lon="13.158609277056211"><ele>115.66666666666667</ele><time>2026-04-29T14:22:47Z</time></trkpt><trkpt lat="43.69113632348116" lon="13.158357170387777"><ele>115.0</ele><time>2026-04-29T14:22:48Z</time></trkpt><trkpt lat="43.69118708640414" lon="13.158092007781448"><ele>117.66666666666667</ele><time>2026-04-29T14:22:49Z</time></trkpt><trkpt lat="43.69123599176214" lon="13.157821430809626"><ele>120.33333333333334</ele><time>2026-04-29T14:22:50Z</time></trkpt><trkpt lat="43.69127806642004" lon="13.157547624257052"><ele>123.0</ele><time>2026-04-29T14:22:51Z</time></trkpt><trkpt lat="43.69134882592526" lon="13.15728767374249"><ele>124.66666666666666</ele><time>2026-04-29T14:22:52Z</time></trkpt><trkpt lat="43.69142588674168" lon="13.157064338482318"><ele>126.33333333333333</ele><time>2026-04-29T14:22:53Z</time></trkpt><trkpt lat="43.691503894131664" lon="13.156872524886843"><ele>128.0</ele><time>2026-04-29T14:22:54Z</time></trkpt><trkpt lat="43.691580947665365" lon="13.15669478462001"><ele>128.66666666666666</ele><time>2026-04-29T14:22:55Z</time></trkpt><trkpt lat="43.69165805339917" lon="13.156512109422781"><ele>129.33333333333334</ele><time>2026-04-29T14:22:56Z</time></trkpt><trkpt lat="43.69173746161882" lon="13.156315226445754"><ele>130.0</ele><time>2026-04-29T14:22:57Z</time></trkpt><trkpt lat="43.691814587850786" lon="13.156103598190663"><ele>130.0</ele><time>2026-04-29T14:22:58Z</time></trkpt><trkpt lat="43.69189978321594" lon="13.155887902815815"><ele>130.0</ele><time>2026-04-29T14:22:59Z</time></trkpt><trkpt lat="43.69198302797872" lon="13.155665181139103"><ele>130.0</ele><time>2026-04-29T14:23:00Z</time></trkpt><trkpt lat="43.692057582881205" lon="13.155462248877187"><ele>129.0</ele><time>2026-04-29T14:23:01Z</time></trkpt><trkpt lat="43.692140213409104" lon="13.155246356756912"><ele>128.0</ele><time>2026-04-29T14:23:02Z</time></trkpt><trkpt lat="43.69223415115159" lon="13.155025413115249"><ele>127.0</ele><time>2026-04-29T14:23:03Z</time></trkpt><trkpt lat="43.69233643875185" lon="13.154789283293153"><ele>127.0</ele><time>2026-04-29T14:23:04Z</time></trkpt><trkpt lat="43.69244376189057" lon="13.154563372212762"><ele>127.0</ele><time>2026-04-29T14:23:05Z</time></trkpt><trkpt lat="43.69255740396077" lon="13.154326535717768"><ele>127.0</ele><time>2026-04-29T14:23:06Z</time></trkpt><trkpt lat="43.692674351644605" lon="13.154080305906595"><ele>128.66666666666669</ele><time>2026-04-29T14:23:07Z</time></trkpt><trkpt lat="43.69279347051647" lon="13.153825466434826"><ele>130.33333333333334</ele><time>2026-04-29T14:23:08Z</time></trkpt><trkpt lat="43.69291119509829" lon="13.153571313258071"><ele>132.0</ele><time>2026-04-29T14:23:09Z</time></trkpt><trkpt lat="43.69302657019628" lon="13.153328841929579"><ele>133.0</ele><time>2026-04-29T14:23:10Z</time></trkpt><trkpt lat="43.693147025934316" lon="13.153073767026614"><ele>134.0</ele><time>2026-04-29T14:23:11Z</time></trkpt><trkpt lat="43.693259868413584" lon="13.152825090525706"><ele>135.0</ele><time>2026-04-29T14:23:12Z</time></trkpt><trkpt lat="43.693370317834656" lon="13.152593136818355"><ele>135.0</ele><time>2026-04-29T14:23:13Z</time></trkpt><trkpt lat="43.693481650061244" lon="13.152373222419392"><ele>135.0</ele><time>2026-04-29T14:23:14Z</time></trkpt><trkpt lat="43.69356816149676" lon="13.152167421822"><ele>135.0</ele><time>2026-04-29T14:23:15Z</time></trkpt><trkpt lat="43.693649863660795" lon="13.151975345763834"><ele>132.0</ele><time>2026-04-29T14:23:16Z</time></trkpt><trkpt lat="43.69370967295023" lon="13.151793058762"><ele>129.0</ele><time>2026-04-29T14:23:17Z</time></trkpt><trkpt lat="43.69376217341462" lon="13.151582635123594"><ele>126.0</ele><time>2026-04-29T14:23:18Z</time></trkpt><trkpt lat="43.69380841242503" lon="13.151341211353387"><ele>126.0</ele><time>2026-04-29T14:23:19Z</time></trkpt><trkpt lat="43.6938505696229" lon="13.151084852927614"><ele>126.0</ele><time>2026-04-29T14:23:20Z</time></trkpt><trkpt lat="43.69388967590485" lon="13.150803932260645"><ele>126.0</ele><time>2026-04-29T14:23:21Z</time></trkpt><trkpt lat="43.69391925519511" lon="13.150547513084517"><ele>128.0</ele><time>2026-04-29T14:23:22Z</time></trkpt><trkpt lat="43.693948834565354" lon="13.150303642032712"><ele>130.0</ele><time>2026-04-29T14:23:23Z</time></trkpt><trkpt lat="43.693976343291254" lon="13.150064953888512"><ele>132.0</ele><time>2026-04-29T14:23:24Z</time></trkpt><trkpt lat="43.69399512200421" lon="13.149812714569414"><ele>134.33333333333334</ele><time>2026-04-29T14:23:25Z</time></trkpt><trkpt lat="43.6939961163802" lon="13.14956275596802"><ele>136.66666666666669</ele><time>2026-04-29T14:23:26Z</time></trkpt><trkpt lat="43.6939836386677" lon="13.149325243647555"><ele>139.0</ele><time>2026-04-29T14:23:27Z</time></trkpt><trkpt lat="43.693946000269165" lon="13.149083114270896"><ele>142.0</ele><time>2026-04-29T14:23:28Z</time></trkpt><trkpt lat="43.69391306725194" lon="13.148869778960217"><ele>145.0</ele><time>2026-04-29T14:23:29Z</time></trkpt><trkpt lat="43.69388042248668" lon="13.14865466459008"><ele>148.0</ele><time>2026-04-29T14:23:30Z</time></trkpt><trkpt lat="43.69385817178454" lon="13.14845558440121"><ele>148.0</ele><time>2026-04-29T14:23:31Z</time></trkpt><trkpt lat="43.693860075771596" lon="13.148287418353515"><ele>148.0</ele><time>2026-04-29T14:23:32Z</time></trkpt><trkpt lat="43.69389548525273" lon="13.148148899911991"><ele>148.0</ele><time>2026-04-29T14:23:33Z</time></trkpt><trkpt lat="43.69395716152662" lon="13.14804872057006"><ele>148.0</ele><time>2026-04-29T14:23:34Z</time></trkpt><trkpt lat="43.6940311435733" lon="13.147962886186495"><ele>148.0</ele><time>2026-04-29T14:23:35Z</time></trkpt><trkpt lat="43.69414153667366" lon="13.147858078854416"><ele>148.25</ele><time>2026-04-29T14:23:36Z</time></trkpt><trkpt lat="43.69425197691647" lon="13.147763588701318"><ele>148.5</ele><time>2026-04-29T14:23:37Z</time></trkpt><trkpt lat="43.69436172570278" lon="13.147665848168707"><ele>148.75</ele><time>2026-04-29T14:23:38Z</time></trkpt><trkpt lat="43.69449097327304" lon="13.147494829959303"><ele>149.0</ele><time>2026-04-29T14:23:39Z</time></trkpt><trkpt lat="43.69459981980795" lon="13.14735861183728"><ele>149.25</ele><time>2026-04-29T14:23:40Z</time></trkpt><trkpt lat="43.69469973856943" lon="13.147237062366546"><ele>149.5</ele><time>2026-04-29T14:23:41Z</time></trkpt><trkpt lat="43.69480484921461" lon="13.147115424738452"><ele>149.75</ele><time>2026-04-29T14:23:42Z</time></trkpt><trkpt lat="43.69489498292078" lon="13.146998131719837"><ele>150.0</ele><time>2026-04-29T14:23:43Z</time></trkpt><trkpt lat="43.69498039051995" lon="13.146887807739537"><ele>150.0</ele><time>2026-04-29T14:23:44Z</time></trkpt><trkpt lat="43.69507296352634" lon="13.14676077745432"><ele>150.0</ele><time>2026-04-29T14:23:45Z</time></trkpt><trkpt lat="43.69517309660107" lon="13.14662769579149"><ele>150.0</ele><time>2026-04-29T14:23:46Z</time></trkpt><trkpt lat="43.6952770493602" lon="13.14649679403043"><ele>150.0</ele><time>2026-04-29T14:23:47Z</time></trkpt><trkpt lat="43.69537837172814" lon="13.146370972979469"><ele>149.75</ele><time>2026-04-29T14:23:48Z</time></trkpt><trkpt lat="43.69547404145835" lon="13.146245950127327"><ele>149.5</ele><time>2026-04-29T14:23:49Z</time></trkpt><trkpt lat="43.695569771832645" lon="13.146118995920192"><ele>149.25</ele><time>2026-04-29T14:23:50Z</time></trkpt><trkpt lat="43.69565790778079" lon="13.145988900881546"><ele>149.0</ele><time>2026-04-29T14:23:51Z</time></trkpt><trkpt lat="43.695724184599115" lon="13.145861661540692"><ele>149.0</ele><time>2026-04-29T14:23:52Z</time></trkpt><trkpt lat="43.69576927577691" lon="13.145713174809007"><ele>149.0</ele><time>2026-04-29T14:23:53Z</time></trkpt><trkpt lat="43.6958009460086" lon="13.14555614605829"><ele>149.0</ele><time>2026-04-29T14:23:54Z</time></trkpt><trkpt lat="43.69582025311057" lon="13.145404919184056"><ele>149.0</ele><time>2026-04-29T14:23:55Z</time></trkpt><trkpt lat="43.69583406180134" lon="13.145249646632756"><ele>149.0</ele><time>2026-04-29T14:23:56Z</time></trkpt><trkpt lat="43.69583378834975" lon="13.14510655086104"><ele>149.0</ele><time>2026-04-29T14:23:57Z</time></trkpt><trkpt lat="43.69581128085108" lon="13.144982214310428"><ele>149.0</ele><time>2026-04-29T14:23:58Z</time></trkpt><trkpt lat="43.695774960560314" lon="13.14487736072406"><ele>149.0</ele><time>2026-04-29T14:23:59Z</time></trkpt><trkpt lat="43.69574516847923" lon="13.144778482045265"><ele>149.0</ele><time>2026-04-29T14:24:00Z</time></trkpt><trkpt lat="43.695711913022606" lon="13.14464747118227"><ele>149.0</ele><time>2026-04-29T14:24:02Z</time></trkpt><trkpt lat="43.695801918038434" lon="13.144559761055842"><ele>149.0</ele><time>2026-04-29T14:24:04Z</time></trkpt><trkpt lat="43.69587802568514" lon="13.144556654830444"><ele>149.0</ele><time>2026-04-29T14:24:05Z</time></trkpt><trkpt lat="43.69597297450564" lon="13.144558198477217"><ele>149.0</ele><time>2026-04-29T14:24:06Z</time></trkpt><trkpt lat="43.696087724950154" lon="13.144548876585784"><ele>149.0</ele><time>2026-04-29T14:24:07Z</time></trkpt><trkpt lat="43.696218219936505" lon="13.144536511473513"><ele>147.5</ele><time>2026-04-29T14:24:08Z</time></trkpt><trkpt lat="43.69635299950962" lon="13.144538466415566"><ele>146.0</ele><time>2026-04-29T14:24:09Z</time></trkpt><trkpt lat="43.69647100890602" lon="13.144565112660274"><ele>144.5</ele><time>2026-04-29T14:24:10Z</time></trkpt><trkpt lat="43.696588851994484" lon="13.144631286541168"><ele>143.0</ele><time>2026-04-29T14:24:11Z</time></trkpt><trkpt lat="43.6966939346104" lon="13.144752258026974"><ele>143.0</ele><time>2026-04-29T14:24:12Z</time></trkpt><trkpt lat="43.69682257712193" lon="13.14481447071934"><ele>143.0</ele><time>2026-04-29T14:24:13Z</time></trkpt><trkpt lat="43.69695372537225" lon="13.144859905024711"><ele>143.0</ele><time>2026-04-29T14:24:14Z</time></trkpt><trkpt lat="43.69707553799692" lon="13.144855542250637"><ele>143.0</ele><time>2026-04-29T14:24:15Z</time></trkpt><trkpt lat="43.69719480688807" lon="13.144845851457152"><ele>141.75</ele><time>2026-04-29T14:24:16Z</time></trkpt><trkpt lat="43.69730230168084" lon="13.14475268621372"><ele>140.5</ele><time>2026-04-29T14:24:17Z</time></trkpt><trkpt lat="43.69741822049812" lon="13.144643980643215"><ele>139.25</ele><time>2026-04-29T14:24:18Z</time></trkpt><trkpt lat="43.69752898049619" lon="13.144510680490109"><ele>138.0</ele><time>2026-04-29T14:24:19Z</time></trkpt><trkpt lat="43.697638026494346" lon="13.144406366378655"><ele>138.0</ele><time>2026-04-29T14:24:20Z</time></trkpt><trkpt lat="43.69773374836645" lon="13.144294665316224"><ele>138.0</ele><time>2026-04-29T14:24:21Z</time></trkpt><trkpt lat="43.697812781752894" lon="13.144178982584707"><ele>138.0</ele><time>2026-04-29T14:24:22Z</time></trkpt><trkpt lat="43.697898608351096" lon="13.14410185253057"><ele>138.0</ele><time>2026-04-29T14:24:23Z</time></trkpt><trkpt lat="43.69796758382447" lon="13.144045731471858"><ele>138.0</ele><time>2026-04-29T14:24:24Z</time></trkpt><trkpt lat="43.69803932694801" lon="13.144028234142654"><ele>137.6</ele><time>2026-04-29T14:24:25Z</time></trkpt><trkpt lat="43.69812245375789" lon="13.143992445547175"><ele>137.20000000000002</ele><time>2026-04-29T14:24:27Z</time></trkpt><trkpt lat="43.698100804855834" lon="13.143782295838298"><ele>136.8</ele><time>2026-04-29T14:24:28Z</time></trkpt><trkpt lat="43.698082490450325" lon="13.143675189351484"><ele>136.4</ele><time>2026-04-29T14:24:29Z</time></trkpt><trkpt lat="43.69804624975837" lon="13.14354713022722"><ele>136.0</ele><time>2026-04-29T14:24:30Z</time></trkpt><trkpt lat="43.69799887306432" lon="13.143400483123559"><ele>136.0</ele><time>2026-04-29T14:24:31Z</time></trkpt><trkpt lat="43.69795413269583" lon="13.14325007905219"><ele>136.0</ele><time>2026-04-29T14:24:32Z</time></trkpt><trkpt lat="43.69792469762762" lon="13.143120364670477"><ele>136.0</ele><time>2026-04-29T14:24:33Z</time></trkpt><trkpt lat="43.69792181172102" lon="13.143022902494959"><ele>136.0</ele><time>2026-04-29T14:24:34Z</time></trkpt><trkpt lat="43.69793026308164" lon="13.14289749211088"><ele>136.0</ele><time>2026-04-29T14:24:36Z</time></trkpt><trkpt lat="43.69803110260151" lon="13.142838683855128"><ele>135.8</ele><time>2026-04-29T14:24:38Z</time></trkpt><trkpt lat="43.698089334596254" lon="13.142752319277987"><ele>135.6</ele><time>2026-04-29T14:24:39Z</time></trkpt><trkpt lat="43.69812647231685" lon="13.14262604262888"><ele>135.4</ele><time>2026-04-29T14:24:40Z</time></trkpt><trkpt lat="43.698157331207156" lon="13.14250224901183"><ele>135.2</ele><time>2026-04-29T14:24:41Z</time></trkpt><trkpt lat="43.69817342240064" lon="13.142367299253534"><ele>135.0</ele><time>2026-04-29T14:24:42.001Z</time></trkpt><trkpt lat="43.698171804178685" lon="13.142234121678822"><ele>135.0</ele><time>2026-04-29T14:24:43.001Z</time></trkpt><trkpt lat="43.69815737982935" lon="13.142099326515911"><ele>135.0</ele><time>2026-04-29T14:24:44.001Z</time></trkpt><trkpt lat="43.69813196746027" lon="13.1419696745094"><ele>135.0</ele><time>2026-04-29T14:24:45.001Z</time></trkpt><trkpt lat="43.69811570804415" lon="13.141821029046497"><ele>135.0</ele><time>2026-04-29T14:24:46.001Z</time></trkpt><trkpt lat="43.69807484519094" lon="13.141668390493484"><ele>135.0</ele><time>2026-04-29T14:24:47.001Z</time></trkpt><trkpt lat="43.698041361343975" lon="13.141528995262197"><ele>134.6</ele><time>2026-04-29T14:24:48.001Z</time></trkpt><trkpt lat="43.69802554839998" lon="13.14142053609346"><ele>134.2</ele><time>2026-04-29T14:24:49.001Z</time></trkpt><trkpt lat="43.69801900442089" lon="13.141309046818959"><ele>133.8</ele><time>2026-04-29T14:24:50.001Z</time></trkpt><trkpt lat="43.69801179885235" lon="13.141177107245797"><ele>133.4</ele><time>2026-04-29T14:24:51.001Z</time></trkpt><trkpt lat="43.69803903867514" lon="13.141012548850433"><ele>133.0</ele><time>2026-04-29T14:24:52.001Z</time></trkpt><trkpt lat="43.69807700676095" lon="13.140817215191152"><ele>131.5</ele><time>2026-04-29T14:24:53.001Z</time></trkpt><trkpt lat="43.69806691852014" lon="13.14062329474154"><ele>130.0</ele><time>2026-04-29T14:24:54.001Z</time></trkpt><trkpt lat="43.698056867038595" lon="13.140440470468487"><ele>128.5</ele><time>2026-04-29T14:24:55.001Z</time></trkpt><trkpt lat="43.698047236678434" lon="13.140252471866681"><ele>127.0</ele><time>2026-04-29T14:24:56.001Z</time></trkpt><trkpt lat="43.69804398852824" lon="13.140105257829653"><ele>127.00000000000001</ele><time>2026-04-29T14:24:57.001Z</time></trkpt><trkpt lat="43.69804887525724" lon="13.139975919325368"><ele>127.0</ele><time>2026-04-29T14:24:58.001Z</time></trkpt><trkpt lat="43.698055759884326" lon="13.139852082382388"><ele>127.0</ele><time>2026-04-29T14:24:59.001Z</time></trkpt><trkpt lat="43.698090307511094" lon="13.139727153757562"><ele>127.0</ele><time>2026-04-29T14:25:00.001Z</time></trkpt><trkpt lat="43.698133871869935" lon="13.139620661303796"><ele>127.00000000000001</ele><time>2026-04-29T14:25:01.001Z</time></trkpt><trkpt lat="43.69817881367225" lon="13.139530239169856"><ele>127.0</ele><time>2026-04-29T14:25:02.001Z</time></trkpt><trkpt lat="43.69823948802229" lon="13.139433607094084"><ele>126.6</ele><time>2026-04-29T14:25:03.001Z</time></trkpt><trkpt lat="43.69832144984877" lon="13.139350781717809"><ele>126.19999999999999</ele><time>2026-04-29T14:25:04.001Z</time></trkpt><trkpt lat="43.698404048584514" lon="13.139250648269906"><ele>125.8</ele><time>2026-04-29T14:25:05.001Z</time></trkpt><trkpt lat="43.69847396679734" lon="13.139136012791354"><ele>125.4</ele><time>2026-04-29T14:25:06.001Z</time></trkpt><trkpt lat="43.69856165585749" lon="13.139044042151916"><ele>125.0</ele><time>2026-04-29T14:25:07.001Z</time></trkpt><trkpt lat="43.69865818871816" lon="13.138984161812235"><ele>125.0</ele><time>2026-04-29T14:25:08.001Z</time></trkpt><trkpt lat="43.698755566084834" lon="13.13891671222595"><ele>125.0</ele><time>2026-04-29T14:25:09.001Z</time></trkpt><trkpt lat="43.698832203597156" lon="13.138822101549508"><ele>125.0</ele><time>2026-04-29T14:25:10.001Z</time></trkpt><trkpt lat="43.69887139669471" lon="13.138739479500385"><ele>125.0</ele><time>2026-04-29T14:25:11Z</time></trkpt><trkpt lat="43.69888889045809" lon="13.138626984416629"><ele>125.0</ele><time>2026-04-29T14:25:12Z</time></trkpt><trkpt lat="43.69888166048541" lon="13.138498980614767"><ele>124.99999999999999</ele><time>2026-04-29T14:25:13Z</time></trkpt><trkpt lat="43.69889598896513" lon="13.138379363308031"><ele>125.0</ele><time>2026-04-29T14:25:14Z</time></trkpt><trkpt lat="43.69891196606862" lon="13.138258336977941"><ele>125.0</ele><time>2026-04-29T14:25:15Z</time></trkpt><trkpt lat="43.698937566098095" lon="13.13814946396654"><ele>125.0</ele><time>2026-04-29T14:25:16Z</time></trkpt><trkpt lat="43.69898136866743" lon="13.138052672329225"><ele>124.99999999999999</ele><time>2026-04-29T14:25:17Z</time></trkpt><trkpt lat="43.69904570478714" lon="13.137964964125965"><ele>125.0</ele><time>2026-04-29T14:25:18Z</time></trkpt><trkpt lat="43.699124506057245" lon="13.137876123145265"><ele>124.6</ele><time>2026-04-29T14:25:19Z</time></trkpt><trkpt lat="43.69920575064413" lon="13.137785684895023"><ele>124.2</ele><time>2026-04-29T14:25:20Z</time></trkpt><trkpt lat="43.699281538082346" lon="13.137684827045815"><ele>123.80000000000001</ele><time>2026-04-29T14:25:21Z</time></trkpt><trkpt lat="43.6993504867484" lon="13.137597110734756"><ele>123.4</ele><time>2026-04-29T14:25:22Z</time></trkpt><trkpt lat="43.699412784091884" lon="13.137506119583533"><ele>123.0</ele><time>2026-04-29T14:25:23Z</time></trkpt><trkpt lat="43.699480335957155" lon="13.137415707907678"><ele>121.83333333333333</ele><time>2026-04-29T14:25:24Z</time></trkpt><trkpt lat="43.69955478849029" lon="13.137316119549801"><ele>120.66666666666666</ele><time>2026-04-29T14:25:25Z</time></trkpt><trkpt lat="43.69961209095389" lon="13.13722920898911"><ele>119.5</ele><time>2026-04-29T14:25:26Z</time></trkpt><trkpt lat="43.699662404082396" lon="13.137151822400481"><ele>118.33333333333333</ele><time>2026-04-29T14:25:27Z</time></trkpt><trkpt lat="43.69971875238248" lon="13.137089066553042"><ele>117.16666666666666</ele><time>2026-04-29T14:25:28Z</time></trkpt><trkpt lat="43.699759778547985" lon="13.136988505276967"><ele>116.0</ele><time>2026-04-29T14:25:29Z</time></trkpt><trkpt lat="43.69977660127491" lon="13.136852401669824"><ele>116.0</ele><time>2026-04-29T14:25:30Z</time></trkpt><trkpt lat="43.699822612102736" lon="13.136717634999458"><ele>116.0</ele><time>2026-04-29T14:25:31Z</time></trkpt><trkpt lat="43.69983972807642" lon="13.136560053225761"><ele>116.0</ele><time>2026-04-29T14:25:32Z</time></trkpt><trkpt lat="43.69987413281612" lon="13.13641685311962"><ele>116.0</ele><time>2026-04-29T14:25:33Z</time></trkpt><trkpt lat="43.699898744522514" lon="13.136269751487493"><ele>116.0</ele><time>2026-04-29T14:25:34Z</time></trkpt><trkpt lat="43.699926925358874" lon="13.136114017148918"><ele>115.19999999999999</ele><time>2026-04-29T14:25:35Z</time></trkpt><trkpt lat="43.69995608467685" lon="13.135963027580015"><ele>114.39999999999999</ele><time>2026-04-29T14:25:36Z</time></trkpt><trkpt lat="43.69998078762407" lon="13.135827640603887"><ele>113.6</ele><time>2026-04-29T14:25:37Z</time></trkpt><trkpt lat="43.70000137568126" lon="13.135709003441233"><ele>112.8</ele><time>2026-04-29T14:25:38Z</time></trkpt><trkpt lat="43.70001806930177" lon="13.135598536227697"><ele>112.0</ele><time>2026-04-29T14:25:39Z</time></trkpt><trkpt lat="43.70003107578627" lon="13.135476660720522"><ele>112.0</ele><time>2026-04-29T14:25:40Z</time></trkpt><trkpt lat="43.700064891072486" lon="13.135361112507498"><ele>111.99999999999999</ele><time>2026-04-29T14:25:41Z</time></trkpt><trkpt lat="43.70009506056437" lon="13.13522646144481"><ele>111.99999999999999</ele><time>2026-04-29T14:25:42Z</time></trkpt><trkpt lat="43.700116684096756" lon="13.13508345537079"><ele>112.0</ele><time>2026-04-29T14:25:43Z</time></trkpt><trkpt lat="43.70016655896282" lon="13.134935587896386"><ele>112.0</ele><time>2026-04-29T14:25:44Z</time></trkpt><trkpt lat="43.70020763820208" lon="13.134809499521499"><ele>113.19999999999999</ele><time>2026-04-29T14:25:45Z</time></trkpt><trkpt lat="43.7002234211212" lon="13.134714580285694"><ele>114.39999999999999</ele><time>2026-04-29T14:25:46Z</time></trkpt><trkpt lat="43.70023194341236" lon="13.134615377643636"><ele>115.60000000000001</ele><time>2026-04-29T14:25:47Z</time></trkpt><trkpt lat="43.700229989851294" lon="13.134474557537782"><ele>116.80000000000001</ele><time>2026-04-29T14:25:48Z</time></trkpt><trkpt lat="43.70021641090634" lon="13.134328053121553"><ele>118.0</ele><time>2026-04-29T14:25:49Z</time></trkpt><trkpt lat="43.70019088984289" lon="13.134178684146182"><ele>118.83333333333334</ele><time>2026-04-29T14:25:50Z</time></trkpt><trkpt lat="43.700154048881465" lon="13.134018062322099"><ele>119.66666666666667</ele><time>2026-04-29T14:25:51Z</time></trkpt><trkpt lat="43.70012362253845" lon="13.133904483885878"><ele>120.5</ele><time>2026-04-29T14:25:52Z</time></trkpt><trkpt lat="43.70009641009849" lon="13.133811751842192"><ele>121.33333333333334</ele><time>2026-04-29T14:25:53Z</time></trkpt><trkpt lat="43.70005887205035" lon="13.133728390377499"><ele>122.16666666666667</ele><time>2026-04-29T14:25:54Z</time></trkpt><trkpt lat="43.700002360416754" lon="13.133648322154446"><ele>123.0</ele><time>2026-04-29T14:25:55Z</time></trkpt><trkpt lat="43.69992348843543" lon="13.133584777771855"><ele>123.0</ele><time>2026-04-29T14:25:56Z</time></trkpt><trkpt lat="43.6998197587815" lon="13.133495920772775"><ele>123.00000000000001</ele><time>2026-04-29T14:25:57Z</time></trkpt><trkpt lat="43.699707246809915" lon="13.133404500329767"><ele>123.00000000000001</ele><time>2026-04-29T14:25:58Z</time></trkpt><trkpt lat="43.69962930206568" lon="13.133341987317587"><ele>123.0</ele><time>2026-04-29T14:25:59Z</time></trkpt><trkpt lat="43.699583886316006" lon="13.13326691661134"><ele>123.0</ele><time>2026-04-29T14:26:00Z</time></trkpt><trkpt lat="43.69955410474771" lon="13.133181247830437"><ele>125.5</ele><time>2026-04-29T14:26:01Z</time></trkpt><trkpt lat="43.699531498434446" lon="13.133029670697104"><ele>128.0</ele><time>2026-04-29T14:26:02Z</time></trkpt><trkpt lat="43.69951482393638" lon="13.132843639130371"><ele>130.5</ele><time>2026-04-29T14:26:03Z</time></trkpt><trkpt lat="43.699503235153045" lon="13.132662322142595"><ele>133.0</ele><time>2026-04-29T14:26:04Z</time></trkpt><trkpt lat="43.6994906829057" lon="13.132474069853002"><ele>133.83333333333334</ele><time>2026-04-29T14:26:05Z</time></trkpt><trkpt lat="43.699494006790246" lon="13.132323171849379"><ele>134.66666666666669</ele><time>2026-04-29T14:26:06Z</time></trkpt><trkpt lat="43.69950546517852" lon="13.132213233719039"><ele>135.5</ele><time>2026-04-29T14:26:07Z</time></trkpt><trkpt lat="43.699475667479454" lon="13.132072557989767"><ele>136.33333333333334</ele><time>2026-04-29T14:26:09Z</time></trkpt><trkpt lat="43.69944829449793" lon="13.131981215355761"><ele>137.16666666666666</ele><time>2026-04-29T14:26:10Z</time></trkpt><trkpt lat="43.69942742533377" lon="13.131881372171494"><ele>138.0</ele><time>2026-04-29T14:26:11Z</time></trkpt><trkpt lat="43.699360805589414" lon="13.131754455207899"><ele>138.0</ele><time>2026-04-29T14:26:12Z</time></trkpt><trkpt lat="43.699311482879565" lon="13.131663716637947"><ele>138.0</ele><time>2026-04-29T14:26:13Z</time></trkpt><trkpt lat="43.699249225508275" lon="13.131569878061548"><ele>138.0</ele><time>2026-04-29T14:26:14Z</time></trkpt><trkpt lat="43.69916164217259" lon="13.131453561738743"><ele>138.0</ele><time>2026-04-29T14:26:15Z</time></trkpt><trkpt lat="43.699056989415396" lon="13.131327329395456"><ele>138.0</ele><time>2026-04-29T14:26:16Z</time></trkpt><trkpt lat="43.6989507162492" lon="13.131176059482057"><ele>140.20000000000002</ele><time>2026-04-29T14:26:17Z</time></trkpt><trkpt lat="43.69886190485218" lon="13.131022049562047"><ele>142.4</ele><time>2026-04-29T14:26:18Z</time></trkpt><trkpt lat="43.698809183571015" lon="13.130906012067262"><ele>144.60000000000002</ele><time>2026-04-29T14:26:19Z</time></trkpt><trkpt lat="43.69879530387228" lon="13.130812058662265"><ele>146.8</ele><time>2026-04-29T14:26:20Z</time></trkpt><trkpt lat="43.69877535158804" lon="13.130706789070217"><ele>149.0</ele><time>2026-04-29T14:26:21Z</time></trkpt><trkpt lat="43.69875130467572" lon="13.130577789231175"><ele>149.4</ele><time>2026-04-29T14:26:22Z</time></trkpt><trkpt lat="43.69870784470008" lon="13.130456645018384"><ele>149.8</ele><time>2026-04-29T14:26:23Z</time></trkpt><trkpt lat="43.69867311070441" lon="13.130335014854596"><ele>150.2</ele><time>2026-04-29T14:26:24Z</time></trkpt><trkpt lat="43.69860209758937" lon="13.130230919125061"><ele>150.6</ele><time>2026-04-29T14:26:25Z</time></trkpt><trkpt lat="43.69849802227768" lon="13.130147451190885"><ele>151.0</ele><time>2026-04-29T14:26:26Z</time></trkpt><trkpt lat="43.69842896815848" lon="13.13008917384021"><ele>151.2</ele><time>2026-04-29T14:26:27Z</time></trkpt><trkpt lat="43.69835923934455" lon="13.130043433790524"><ele>151.39999999999998</ele><time>2026-04-29T14:26:29Z</time></trkpt><trkpt lat="43.698284282577035" lon="13.129948104111097"><ele>151.6</ele><time>2026-04-29T14:26:57.001Z</time></trkpt><trkpt lat="43.6982249268966" lon="13.129886475807792"><ele>151.79999999999998</ele><time>2026-04-29T14:26:58.001Z</time></trkpt><trkpt lat="43.69815036417881" lon="13.129811687316943"><ele>152.0</ele><time>2026-04-29T14:26:59.001Z</time></trkpt><trkpt lat="43.69806942973127" lon="13.129714610378063"><ele>152.0</ele><time>2026-04-29T14:27:00.001Z</time></trkpt><trkpt lat="43.69798845026886" lon="13.129600029910462"><ele>152.0</ele><time>2026-04-29T14:27:01.001Z</time></trkpt><trkpt lat="43.69790707111001" lon="13.12946672853011"><ele>152.0</ele><time>2026-04-29T14:27:02.001Z</time></trkpt><trkpt lat="43.69783773421862" lon="13.12930633700981"><ele>152.0</ele><time>2026-04-29T14:27:03.001Z</time></trkpt><trkpt lat="43.69777383261945" lon="13.129136639646983"><ele>155.5</ele><time>2026-04-29T14:27:04.001Z</time></trkpt><trkpt lat="43.697707524883825" lon="13.128961609604035"><ele>159.0</ele><time>2026-04-29T14:27:05.001Z</time></trkpt><trkpt lat="43.69763863006476" lon="13.128782933256845"><ele>162.5</ele><time>2026-04-29T14:27:06.001Z</time></trkpt><trkpt lat="43.697568920494085" lon="13.12860701422048"><ele>166.0</ele><time>2026-04-29T14:27:07.001Z</time></trkpt><trkpt lat="43.69749880999927" lon="13.128429925097745"><ele>166.0</ele><time>2026-04-29T14:27:08.001Z</time></trkpt><trkpt lat="43.69742703648211" lon="13.128253868373095"><ele>166.0</ele><time>2026-04-29T14:27:09.001Z</time></trkpt><trkpt lat="43.69735389223252" lon="13.128074328236178"><ele>166.0</ele><time>2026-04-29T14:27:10.001Z</time></trkpt><trkpt lat="43.69728645004936" lon="13.127904114348274"><ele>166.0</ele><time>2026-04-29T14:27:11.001Z</time></trkpt><trkpt lat="43.69722094866276" lon="13.12774180780701"><ele>167.0</ele><time>2026-04-29T14:27:12.001Z</time></trkpt><trkpt lat="43.69716754054866" lon="13.127603816672174"><ele>168.0</ele><time>2026-04-29T14:27:13.001Z</time></trkpt><trkpt lat="43.69712410153239" lon="13.127469552368723"><ele>169.0</ele><time>2026-04-29T14:27:14.001Z</time></trkpt><trkpt lat="43.69708668118273" lon="13.127315610428754"><ele>170.0</ele><time>2026-04-29T14:27:15.001Z</time></trkpt><trkpt lat="43.697056072172124" lon="13.127120604698256"><ele>170.0</ele><time>2026-04-29T14:27:16.001Z</time></trkpt><trkpt lat="43.697031938784654" lon="13.126902008200576"><ele>170.0</ele><time>2026-04-29T14:27:17.001Z</time></trkpt><trkpt lat="43.69700508052014" lon="13.126678328947913"><ele>170.0</ele><time>2026-04-29T14:27:18.001Z</time></trkpt><trkpt lat="43.69697685881327" lon="13.126439988501094"><ele>169.0</ele><time>2026-04-29T14:27:19.001Z</time></trkpt><trkpt lat="43.69695312634131" lon="13.126205132569785"><ele>168.0</ele><time>2026-04-29T14:27:20.001Z</time></trkpt><trkpt lat="43.696933752871956" lon="13.125969558931473"><ele>167.0</ele><time>2026-04-29T14:27:21.001Z</time></trkpt><trkpt lat="43.69691679376564" lon="13.125741960208277"><ele>166.33333333333331</ele><time>2026-04-29T14:27:22.001Z</time></trkpt><trkpt lat="43.696902100267856" lon="13.125509308129217"><ele>165.66666666666666</ele><time>2026-04-29T14:27:23.001Z</time></trkpt><trkpt lat="43.69688373207609" lon="13.125267515682493"><ele>165.0</ele><time>2026-04-29T14:27:24.001Z</time></trkpt><trkpt lat="43.69686347953768" lon="13.125029008602148"><ele>166.33333333333334</ele><time>2026-04-29T14:27:25Z</time></trkpt><trkpt lat="43.696843829554474" lon="13.124804608990898"><ele>167.66666666666669</ele><time>2026-04-29T14:27:26Z</time></trkpt><trkpt lat="43.69682083372133" lon="13.124589008036894"><ele>169.0</ele><time>2026-04-29T14:27:27Z</time></trkpt><trkpt lat="43.69679686568709" lon="13.124386962120363"><ele>169.0</ele><time>2026-04-29T14:27:28Z</time></trkpt><trkpt lat="43.69676244778654" lon="13.124199844224893"><ele>169.0</ele><time>2026-04-29T14:27:29Z</time></trkpt><trkpt lat="43.69671441764285" lon="13.12402324105459"><ele>169.0</ele><time>2026-04-29T14:27:30Z</time></trkpt><trkpt lat="43.69665037208607" lon="13.123868002577467"><ele>169.0</ele><time>2026-04-29T14:27:31Z</time></trkpt><trkpt lat="43.69657103819103" lon="13.123733851086113"><ele>168.75</ele><time>2026-04-29T14:27:32Z</time></trkpt><trkpt lat="43.69647056276395" lon="13.123615485769822"><ele>168.5</ele><time>2026-04-29T14:27:33Z</time></trkpt><trkpt lat="43.696350828679" lon="13.123509789595078"><ele>168.25</ele><time>2026-04-29T14:27:34Z</time></trkpt><trkpt lat="43.69622066782679" lon="13.123404434441534"><ele>168.0</ele><time>2026-04-29T14:27:35Z</time></trkpt><trkpt lat="43.696092288357" lon="13.123292135146889"><ele>170.25</ele><time>2026-04-29T14:27:36Z</time></trkpt><trkpt lat="43.69597771893567" lon="13.123166137570264"><ele>172.5</ele><time>2026-04-29T14:27:37Z</time></trkpt><trkpt lat="43.695870162354325" lon="13.123028169929116"><ele>174.75</ele><time>2026-04-29T14:27:38Z</time></trkpt><trkpt lat="43.69577395068284" lon="13.12287599110241"><ele>177.0</ele><time>2026-04-29T14:27:39Z</time></trkpt><trkpt lat="43.6956857017914" lon="13.122709682778586"><ele>177.0</ele><time>2026-04-29T14:27:40Z</time></trkpt><trkpt lat="43.69559883928604" lon="13.122528345139047"><ele>177.0</ele><time>2026-04-29T14:27:41Z</time></trkpt><trkpt lat="43.695510514468104" lon="13.122341255460693"><ele>177.0</ele><time>2026-04-29T14:27:42Z</time></trkpt><trkpt lat="43.695417893222576" lon="13.122149557818377"><ele>177.5</ele><time>2026-04-29T14:27:43Z</time></trkpt><trkpt lat="43.6953463665224" lon="13.121974438125527"><ele>178.0</ele><time>2026-04-29T14:27:44Z</time></trkpt><trkpt lat="43.69525551824508" lon="13.12182103074648"><ele>178.5</ele><time>2026-04-29T14:27:45Z</time></trkpt><trkpt lat="43.69513168086774" lon="13.121688941586804"><ele>179.0</ele><time>2026-04-29T14:27:46Z</time></trkpt><trkpt lat="43.69500900469856" lon="13.121550962460095"><ele>180.0</ele><time>2026-04-29T14:27:47Z</time></trkpt><trkpt lat="43.69488157652605" lon="13.121424455500925"><ele>181.0</ele><time>2026-04-29T14:27:48Z</time></trkpt><trkpt lat="43.69476221332889" lon="13.121286260764526"><ele>182.0</ele><time>2026-04-29T14:27:49Z</time></trkpt><trkpt lat="43.69465874724695" lon="13.121130419326729"><ele>182.0</ele><time>2026-04-29T14:27:50Z</time></trkpt><trkpt lat="43.69457134533008" lon="13.120957550931257"><ele>182.0</ele><time>2026-04-29T14:27:51Z</time></trkpt><trkpt lat="43.694488128729866" lon="13.120758317042702"><ele>182.0</ele><time>2026-04-29T14:27:52Z</time></trkpt><trkpt lat="43.69441946035784" lon="13.120521480787922"><ele>183.0</ele><time>2026-04-29T14:27:53Z</time></trkpt><trkpt lat="43.69434289415507" lon="13.120289340673034"><ele>184.0</ele><time>2026-04-29T14:27:54Z</time></trkpt><trkpt lat="43.69427054742153" lon="13.120072789948493"><ele>185.0</ele><time>2026-04-29T14:27:55Z</time></trkpt><trkpt lat="43.69418452743509" lon="13.119871557147592"><ele>185.66666666666666</ele><time>2026-04-29T14:27:56Z</time></trkpt><trkpt lat="43.694116366264645" lon="13.119657167836506"><ele>186.33333333333334</ele><time>2026-04-29T14:27:57Z</time></trkpt><trkpt lat="43.694051217707475" lon="13.119455205973702"><ele>187.0</ele><time>2026-04-29T14:27:58Z</time></trkpt><trkpt lat="43.69399326007066" lon="13.119256260721757"><ele>187.66666666666669</ele><time>2026-04-29T14:27:59Z</time></trkpt><trkpt lat="43.69393743183005" lon="13.11904456499023"><ele>188.33333333333334</ele><time>2026-04-29T14:28:00Z</time></trkpt><trkpt lat="43.6938861250135" lon="13.118831982559595"><ele>189.0</ele><time>2026-04-29T14:28:01Z</time></trkpt><trkpt lat="43.69383914425916" lon="13.11861268531246"><ele>189.0</ele><time>2026-04-29T14:28:02Z</time></trkpt><trkpt lat="43.69379529229586" lon="13.118390458095437"><ele>189.0</ele><time>2026-04-29T14:28:03Z</time></trkpt><trkpt lat="43.69375486835282" lon="13.118169015936576"><ele>189.0</ele><time>2026-04-29T14:28:04Z</time></trkpt><trkpt lat="43.693723512840705" lon="13.117952299773007"><ele>188.5</ele><time>2026-04-29T14:28:05Z</time></trkpt><trkpt lat="43.69370288388334" lon="13.117751702490693"><ele>188.0</ele><time>2026-04-29T14:28:06Z</time></trkpt><trkpt lat="43.69369569346318" lon="13.117558303898722"><ele>187.5</ele><time>2026-04-29T14:28:07Z</time></trkpt><trkpt lat="43.69368999629084" lon="13.11735661117358"><ele>187.0</ele><time>2026-04-29T14:28:08Z</time></trkpt><trkpt lat="43.693687106224985" lon="13.11713909207051"><ele>186.33333333333334</ele><time>2026-04-29T14:28:09Z</time></trkpt><trkpt lat="43.69367805678313" lon="13.116920634572384"><ele>185.66666666666666</ele><time>2026-04-29T14:28:10Z</time></trkpt><trkpt lat="43.69365814419239" lon="13.116702461663932"><ele>185.0</ele><time>2026-04-29T14:28:11Z</time></trkpt><trkpt lat="43.69364802759354" lon="13.116484368534563"><ele>185.0</ele><time>2026-04-29T14:28:12Z</time></trkpt><trkpt lat="43.693649409883946" lon="13.116257851732769"><ele>185.0</ele><time>2026-04-29T14:28:13Z</time></trkpt><trkpt lat="43.693663272604745" lon="13.116034081498844"><ele>185.0</ele><time>2026-04-29T14:28:14Z</time></trkpt><trkpt lat="43.693680754391124" lon="13.115823816669025"><ele>185.66666666666666</ele><time>2026-04-29T14:28:15Z</time></trkpt><trkpt lat="43.69370811488988" lon="13.115603362258902"><ele>186.33333333333334</ele><time>2026-04-29T14:28:16Z</time></trkpt><trkpt lat="43.69374756310005" lon="13.1153839858798"><ele>187.0</ele><time>2026-04-29T14:28:17Z</time></trkpt><trkpt lat="43.693805945405735" lon="13.115175306226945"><ele>187.0</ele><time>2026-04-29T14:28:18Z</time></trkpt><trkpt lat="43.69388013227136" lon="13.114974064877055"><ele>187.0</ele><time>2026-04-29T14:28:19Z</time></trkpt><trkpt lat="43.693975843406086" lon="13.114769232418007"><ele>187.0</ele><time>2026-04-29T14:28:20Z</time></trkpt><trkpt lat="43.69408125719741" lon="13.114563871013889"><ele>188.66666666666669</ele><time>2026-04-29T14:28:21Z</time></trkpt><trkpt lat="43.694182541843674" lon="13.114359278946866"><ele>190.33333333333334</ele><time>2026-04-29T14:28:22Z</time></trkpt><trkpt lat="43.694269472315014" lon="13.11416217892449"><ele>192.0</ele><time>2026-04-29T14:28:23Z</time></trkpt><trkpt lat="43.694342056717005" lon="13.113971042176718"><ele>192.66666666666669</ele><time>2026-04-29T14:28:24Z</time></trkpt><trkpt lat="43.694408130836415" lon="13.11377564748197"><ele>193.33333333333334</ele><time>2026-04-29T14:28:25Z</time></trkpt><trkpt lat="43.694469981493484" lon="13.113564389814847"><ele>194.0</ele><time>2026-04-29T14:28:26Z</time></trkpt><trkpt lat="43.694537174216144" lon="13.113339177620638"><ele>194.5</ele><time>2026-04-29T14:28:27Z</time></trkpt><trkpt lat="43.69459494193943" lon="13.113142387185638"><ele>195.0</ele><time>2026-04-29T14:28:28Z</time></trkpt><trkpt lat="43.6946481868076" lon="13.112963470806593"><ele>195.5</ele><time>2026-04-29T14:28:29Z</time></trkpt><trkpt lat="43.69468996975534" lon="13.11279782028649"><ele>196.0</ele><time>2026-04-29T14:28:30Z</time></trkpt><trkpt lat="43.694706730108734" lon="13.11264200710371"><ele>196.0</ele><time>2026-04-29T14:28:31Z</time></trkpt><trkpt lat="43.69469367618092" lon="13.112503819554103"><ele>196.0</ele><time>2026-04-29T14:28:32Z</time></trkpt><trkpt lat="43.694654755979165" lon="13.112376276791068"><ele>196.0</ele><time>2026-04-29T14:28:33Z</time></trkpt><trkpt lat="43.69459294817893" lon="13.112249669055785"><ele>196.0</ele><time>2026-04-29T14:28:34Z</time></trkpt><trkpt lat="43.69450857492723" lon="13.112111261609353"><ele>196.0</ele><time>2026-04-29T14:28:35Z</time></trkpt><trkpt lat="43.69441265834499" lon="13.11196877200066"><ele>196.25</ele><time>2026-04-29T14:28:36Z</time></trkpt><trkpt lat="43.69434066511054" lon="13.11182770998654"><ele>196.5</ele><time>2026-04-29T14:28:37Z</time></trkpt><trkpt lat="43.694304444599446" lon="13.111666824079457"><ele>196.75</ele><time>2026-04-29T14:28:38Z</time></trkpt><trkpt lat="43.69429774535002" lon="13.111482785791933"><ele>197.0</ele><time>2026-04-29T14:28:39Z</time></trkpt><trkpt lat="43.69430549761744" lon="13.111274952482288"><ele>196.33333333333334</ele><time>2026-04-29T14:28:40Z</time></trkpt><trkpt lat="43.69431438947294" lon="13.111050683006765"><ele>195.66666666666669</ele><time>2026-04-29T14:28:41Z</time></trkpt><trkpt lat="43.69432336812333" lon="13.110825849057816"><ele>195.0</ele><time>2026-04-29T14:28:42Z</time></trkpt><trkpt lat="43.694328679515195" lon="13.110596407589078"><ele>196.25</ele><time>2026-04-29T14:28:43Z</time></trkpt><trkpt lat="43.69432953670548" lon="13.110359979651621"><ele>197.5</ele><time>2026-04-29T14:28:44Z</time></trkpt><trkpt lat="43.69432373101273" lon="13.110158805787831"><ele>198.75</ele><time>2026-04-29T14:28:45Z</time></trkpt><trkpt lat="43.694305886303006" lon="13.109999510232246"><ele>200.0</ele><time>2026-04-29T14:28:46Z</time></trkpt><trkpt lat="43.69426960121681" lon="13.109876711913321"><ele>200.75</ele><time>2026-04-29T14:28:47Z</time></trkpt><trkpt lat="43.69420800993225" lon="13.109786458689754"><ele>201.5</ele><time>2026-04-29T14:28:48Z</time></trkpt><trkpt lat="43.69411450997745" lon="13.109712550723158"><ele>202.25</ele><time>2026-04-29T14:28:49Z</time></trkpt><trkpt lat="43.69399065026829" lon="13.109635168233698"><ele>203.0</ele><time>2026-04-29T14:28:50Z</time></trkpt><trkpt lat="43.69386297802713" lon="13.109592114583009"><ele>203.0</ele><time>2026-04-29T14:28:51Z</time></trkpt><trkpt lat="43.69372282241147" lon="13.109523341743678"><ele>203.0</ele><time>2026-04-29T14:28:52Z</time></trkpt><trkpt lat="43.69357190672904" lon="13.10942531896022"><ele>203.0</ele><time>2026-04-29T14:28:53Z</time></trkpt><trkpt lat="43.69340571182216" lon="13.109355903341523"><ele>202.33333333333334</ele><time>2026-04-29T14:28:54.001Z</time></trkpt><trkpt lat="43.693232721612326" lon="13.109265624806293"><ele>201.66666666666669</ele><time>2026-04-29T14:28:55.001Z</time></trkpt><trkpt lat="43.693050450164634" lon="13.109172889227128"><ele>201.0</ele><time>2026-04-29T14:28:56.001Z</time></trkpt><trkpt lat="43.692886972273335" lon="13.109090119312787"><ele>200.66666666666669</ele><time>2026-04-29T14:28:57.001Z</time></trkpt><trkpt lat="43.69274060148917" lon="13.109006686010556"><ele>200.33333333333334</ele><time>2026-04-29T14:28:58.001Z</time></trkpt><trkpt lat="43.692603366530555" lon="13.108906501528532"><ele>200.0</ele><time>2026-04-29T14:28:59.001Z</time></trkpt><trkpt lat="43.692475843746514" lon="13.108783480288567"><ele>200.0</ele><time>2026-04-29T14:29:00.001Z</time></trkpt><trkpt lat="43.69235468299169" lon="13.108627851781609"><ele>200.0</ele><time>2026-04-29T14:29:01.001Z</time></trkpt><trkpt lat="43.69224695272494" lon="13.108429446285577"><ele>200.0</ele><time>2026-04-29T14:29:02.001Z</time></trkpt><trkpt lat="43.69211953060525" lon="13.108258274763513"><ele>199.0</ele><time>2026-04-29T14:29:03.001Z</time></trkpt><trkpt lat="43.6920102083886" lon="13.108090084465692"><ele>198.0</ele><time>2026-04-29T14:29:04.001Z</time></trkpt><trkpt lat="43.69189484888349" lon="13.107910656636903"><ele>197.0</ele><time>2026-04-29T14:29:05.001Z</time></trkpt><trkpt lat="43.69174262708955" lon="13.107752161497496"><ele>197.0</ele><time>2026-04-29T14:29:06.001Z</time></trkpt><trkpt lat="43.69161400326362" lon="13.107611606759297"><ele>197.0</ele><time>2026-04-29T14:29:07.001Z</time></trkpt><trkpt lat="43.691484886963245" lon="13.107481290345307"><ele>197.0</ele><time>2026-04-29T14:29:08.001Z</time></trkpt><trkpt lat="43.69137056835026" lon="13.107361973842178"><ele>196.5</ele><time>2026-04-29T14:29:09.001Z</time></trkpt><trkpt lat="43.69126302269262" lon="13.107258490586371"><ele>196.0</ele><time>2026-04-29T14:29:10.001Z</time></trkpt><trkpt lat="43.69114482628222" lon="13.107157858838896"><ele>195.5</ele><time>2026-04-29T14:29:11.001Z</time></trkpt><trkpt lat="43.69101389162903" lon="13.107063812116758"><ele>195.0</ele><time>2026-04-29T14:29:12.001Z</time></trkpt><trkpt lat="43.69086788786056" lon="13.106982616649121"><ele>193.66666666666666</ele><time>2026-04-29T14:29:13.001Z</time></trkpt><trkpt lat="43.69071851190028" lon="13.106899400405677"><ele>192.33333333333331</ele><time>2026-04-29T14:29:14.001Z</time></trkpt><trkpt lat="43.69057366129542" lon="13.10681721943034"><ele>191.0</ele><time>2026-04-29T14:29:15.001Z</time></trkpt><trkpt lat="43.69042742432228" lon="13.10673441439195"><ele>191.0</ele><time>2026-04-29T14:29:16.001Z</time></trkpt><trkpt lat="43.69027995759149" lon="13.106644213515738"><ele>191.0</ele><time>2026-04-29T14:29:17.001Z</time></trkpt><trkpt lat="43.690144610724104" lon="13.106549824736238"><ele>191.0</ele><time>2026-04-29T14:29:18.001Z</time></trkpt><trkpt lat="43.690007595220266" lon="13.106449435072783"><ele>192.0</ele><time>2026-04-29T14:29:19.001Z</time></trkpt><trkpt lat="43.68986408672411" lon="13.106334704438913"><ele>193.0</ele><time>2026-04-29T14:29:20.001Z</time></trkpt><trkpt lat="43.68971702411216" lon="13.106218534308232"><ele>194.0</ele><time>2026-04-29T14:29:21.001Z</time></trkpt><trkpt lat="43.68958081557132" lon="13.106106815338444"><ele>194.0</ele><time>2026-04-29T14:29:22Z</time></trkpt><trkpt lat="43.68945285755896" lon="13.105990803938457"><ele>194.0</ele><time>2026-04-29T14:29:23Z</time></trkpt><trkpt lat="43.689335886047964" lon="13.105856343650961"><ele>194.0</ele><time>2026-04-29T14:29:24Z</time></trkpt><trkpt lat="43.68924373006467" lon="13.105694909823933"><ele>194.0</ele><time>2026-04-29T14:29:25Z</time></trkpt><trkpt lat="43.68917704711488" lon="13.105502422396132"><ele>194.0</ele><time>2026-04-29T14:29:26Z</time></trkpt><trkpt lat="43.68912766876184" lon="13.105301980545896"><ele>194.0</ele><time>2026-04-29T14:29:27Z</time></trkpt><trkpt lat="43.68908223706132" lon="13.105084867920338"><ele>192.33333333333334</ele><time>2026-04-29T14:29:28Z</time></trkpt><trkpt lat="43.689041302242316" lon="13.10486134256124"><ele>190.66666666666669</ele><time>2026-04-29T14:29:29Z</time></trkpt><trkpt lat="43.688998320990386" lon="13.104646188405619"><ele>189.0</ele><time>2026-04-29T14:29:30Z</time></trkpt><trkpt lat="43.688947864495496" lon="13.104424980227774"><ele>189.0</ele><time>2026-04-29T14:29:31Z</time></trkpt><trkpt lat="43.68890001880415" lon="13.104200330939113"><ele>189.0</ele><time>2026-04-29T14:29:32Z</time></trkpt><trkpt lat="43.688847478379294" lon="13.103964117340684"><ele>189.0</ele><time>2026-04-29T14:29:33Z</time></trkpt><trkpt lat="43.68879140882151" lon="13.10373907215071"><ele>187.66666666666666</ele><time>2026-04-29T14:29:34Z</time></trkpt><trkpt lat="43.688730450218536" lon="13.103520805497034"><ele>186.33333333333331</ele><time>2026-04-29T14:29:35Z</time></trkpt><trkpt lat="43.688670948274954" lon="13.103296690309323"><ele>185.0</ele><time>2026-04-29T14:29:36Z</time></trkpt><trkpt lat="43.68861893832018" lon="13.103079076986294"><ele>186.33333333333331</ele><time>2026-04-29T14:29:37Z</time></trkpt><trkpt lat="43.68857860512751" lon="13.102878738481852"><ele>187.66666666666666</ele><time>2026-04-29T14:29:38Z</time></trkpt><trkpt lat="43.68855798348715" lon="13.102674056158671"><ele>189.0</ele><time>2026-04-29T14:29:39Z</time></trkpt><trkpt lat="43.688546402919464" lon="13.102457869311776"><ele>189.33333333333334</ele><time>2026-04-29T14:29:40Z</time></trkpt><trkpt lat="43.688549935513635" lon="13.102236531058352"><ele>189.66666666666669</ele><time>2026-04-29T14:29:41Z</time></trkpt><trkpt lat="43.68854228826311" lon="13.101991704506519"><ele>190.0</ele><time>2026-04-29T14:29:42Z</time></trkpt><trkpt lat="43.68853017478736" lon="13.101748883880676"><ele>190.33333333333334</ele><time>2026-04-29T14:29:43Z</time></trkpt><trkpt lat="43.68851018106032" lon="13.101519188616054"><ele>190.66666666666666</ele><time>2026-04-29T14:29:44Z</time></trkpt><trkpt lat="43.688466142718205" lon="13.101301293987088"><ele>191.0</ele><time>2026-04-29T14:29:45Z</time></trkpt><trkpt lat="43.688413006000644" lon="13.101077804864172"><ele>191.0</ele><time>2026-04-29T14:29:46Z</time></trkpt><trkpt lat="43.68835536584953" lon="13.100855185695094"><ele>191.0</ele><time>2026-04-29T14:29:47Z</time></trkpt><trkpt lat="43.6882956256473" lon="13.100639597092773"><ele>191.0</ele><time>2026-04-29T14:29:48Z</time></trkpt><trkpt lat="43.68824015408755" lon="13.100412989162182"><ele>192.66666666666666</ele><time>2026-04-29T14:29:49Z</time></trkpt><trkpt lat="43.688190683040226" lon="13.100183231346255"><ele>194.33333333333331</ele><time>2026-04-29T14:29:50Z</time></trkpt><trkpt lat="43.688155587296365" lon="13.099980584628318"><ele>196.0</ele><time>2026-04-29T14:29:51Z</time></trkpt><trkpt lat="43.68813394189579" lon="13.09979613570122"><ele>197.8</ele><time>2026-04-29T14:29:52Z</time></trkpt><trkpt lat="43.68811039954464" lon="13.099626035521375"><ele>199.60000000000002</ele><time>2026-04-29T14:29:53Z</time></trkpt><trkpt lat="43.688086779459354" lon="13.099487402054807"><ele>201.4</ele><time>2026-04-29T14:29:54Z</time></trkpt><trkpt lat="43.688073876468266" lon="13.099374549861984"><ele>203.2</ele><time>2026-04-29T14:29:55Z</time></trkpt><trkpt lat="43.68806555690952" lon="13.099275533213905"><ele>205.0</ele><time>2026-04-29T14:29:56Z</time></trkpt><trkpt lat="43.68804567589504" lon="13.099181386681437"><ele>204.5</ele><time>2026-04-29T14:29:57Z</time></trkpt><trkpt lat="43.68801615013069" lon="13.099054932954129"><ele>204.0</ele><time>2026-04-29T14:29:59Z</time></trkpt><trkpt lat="43.688142377098075" lon="13.09891727424695"><ele>203.5</ele><time>2026-04-29T14:30:00Z</time></trkpt><trkpt lat="43.68818843925724" lon="13.098801929578793"><ele>203.0</ele><time>2026-04-29T14:30:01Z</time></trkpt><trkpt lat="43.68823921496753" lon="13.098674756822975"><ele>203.0</ele><time>2026-04-29T14:30:02Z</time></trkpt><trkpt lat="43.688290761321106" lon="13.09854143230566"><ele>203.0</ele><time>2026-04-29T14:30:03Z</time></trkpt><trkpt lat="43.68834927968564" lon="13.098399184563235"><ele>203.0</ele><time>2026-04-29T14:30:04Z</time></trkpt><trkpt lat="43.688421964882885" lon="13.098245650351576"><ele>203.0</ele><time>2026-04-29T14:30:05Z</time></trkpt><trkpt lat="43.68849867736811" lon="13.098105282051815"><ele>201.5</ele><time>2026-04-29T14:30:06Z</time></trkpt><trkpt lat="43.68857635660244" lon="13.097960710685221"><ele>200.0</ele><time>2026-04-29T14:30:07Z</time></trkpt><trkpt lat="43.688657697348646" lon="13.097800679361113"><ele>198.5</ele><time>2026-04-29T14:30:08Z</time></trkpt><trkpt lat="43.68874698468207" lon="13.097624037733464"><ele>197.0</ele><time>2026-04-29T14:30:09Z</time></trkpt><trkpt lat="43.688841085633214" lon="13.097440847650578"><ele>196.0</ele><time>2026-04-29T14:30:10Z</time></trkpt><trkpt lat="43.688937891862146" lon="13.097251595359504"><ele>195.0</ele><time>2026-04-29T14:30:11Z</time></trkpt><trkpt lat="43.68903559700032" lon="13.097059668947223"><ele>194.0</ele><time>2026-04-29T14:30:12Z</time></trkpt><trkpt lat="43.68913166677054" lon="13.096870151020738"><ele>194.0</ele><time>2026-04-29T14:30:13Z</time></trkpt><trkpt lat="43.68923038186698" lon="13.096681725861712"><ele>194.0</ele><time>2026-04-29T14:30:14Z</time></trkpt><trkpt lat="43.68932989044825" lon="13.096488759626352"><ele>194.0</ele><time>2026-04-29T14:30:15Z</time></trkpt><trkpt lat="43.68942521299568" lon="13.096295012231687"><ele>194.0</ele><time>2026-04-29T14:30:16Z</time></trkpt><trkpt lat="43.68951795125253" lon="13.096109771631719"><ele>194.0</ele><time>2026-04-29T14:30:17Z</time></trkpt><trkpt lat="43.689614709435915" lon="13.09591564608031"><ele>194.0</ele><time>2026-04-29T14:30:18Z</time></trkpt><trkpt lat="43.689714801236235" lon="13.095716559809498"><ele>194.0</ele><time>2026-04-29T14:30:19Z</time></trkpt><trkpt lat="43.68980904616678" lon="13.095528573186034"><ele>194.0</ele><time>2026-04-29T14:30:20Z</time></trkpt><trkpt lat="43.6898979053527" lon="13.095331232810052"><ele>194.0</ele><time>2026-04-29T14:30:21Z</time></trkpt><trkpt lat="43.68998500581075" lon="13.095135893425205"><ele>194.0</ele><time>2026-04-29T14:30:22Z</time></trkpt><trkpt lat="43.69007313498267" lon="13.094939637982726"><ele>194.0</ele><time>2026-04-29T14:30:23Z</time></trkpt><trkpt lat="43.69016333927775" lon="13.094742749343329"><ele>194.0</ele><time>2026-04-29T14:30:24Z</time></trkpt><trkpt lat="43.69025318857587" lon="13.09455100992311"><ele>192.5</ele><time>2026-04-29T14:30:25Z</time></trkpt><trkpt lat="43.69034093446511" lon="13.094367262209223"><ele>191.0</ele><time>2026-04-29T14:30:26Z</time></trkpt><trkpt lat="43.69042260246557" lon="13.094197674877227"><ele>189.5</ele><time>2026-04-29T14:30:27Z</time></trkpt><trkpt lat="43.690503828775206" lon="13.094037065765228"><ele>188.0</ele><time>2026-04-29T14:30:28Z</time></trkpt><trkpt lat="43.6905850632832" lon="13.09387970575498"><ele>188.0</ele><time>2026-04-29T14:30:29Z</time></trkpt><trkpt lat="43.69067359135796" lon="13.093729217307619"><ele>188.0</ele><time>2026-04-29T14:30:30Z</time></trkpt><trkpt lat="43.690770290541636" lon="13.093580873144028"><ele>188.0</ele><time>2026-04-29T14:30:31Z</time></trkpt><trkpt lat="43.69086709951178" lon="13.093437505662214"><ele>188.0</ele><time>2026-04-29T14:30:32Z</time></trkpt><trkpt lat="43.69097191918503" lon="13.093312065014134"><ele>187.4</ele><time>2026-04-29T14:30:33Z</time></trkpt><trkpt lat="43.691077319345695" lon="13.093197180268872"><ele>186.8</ele><time>2026-04-29T14:30:34Z</time></trkpt><trkpt lat="43.69117671350083" lon="13.093100637059605"><ele>186.2</ele><time>2026-04-29T14:30:35Z</time></trkpt><trkpt lat="43.69126226588344" lon="13.093015382470622"><ele>185.6</ele><time>2026-04-29T14:30:36Z</time></trkpt><trkpt lat="43.69133088738801" lon="13.092946601721435"><ele>185.0</ele><time>2026-04-29T14:30:37Z</time></trkpt><trkpt lat="43.69139958005799" lon="13.092918934201656"><ele>185.0</ele><time>2026-04-29T14:30:38Z</time></trkpt><trkpt lat="43.69141393220665" lon="13.09270597912208"><ele>185.0</ele><time>2026-04-29T14:30:40Z</time></trkpt><trkpt lat="43.69140228867759" lon="13.092611669556806"><ele>185.0</ele><time>2026-04-29T14:30:41Z</time></trkpt><trkpt lat="43.69136287110619" lon="13.092492485454601"><ele>185.0</ele><time>2026-04-29T14:30:42Z</time></trkpt><trkpt lat="43.691314658530516" lon="13.092338848047643"><ele>185.0</ele><time>2026-04-29T14:30:43Z</time></trkpt><trkpt lat="43.69126297934975" lon="13.092171430426175"><ele>185.5</ele><time>2026-04-29T14:30:44Z</time></trkpt><trkpt lat="43.69120621851555" lon="13.09200062511895"><ele>186.0</ele><time>2026-04-29T14:30:45Z</time></trkpt><trkpt lat="43.69114348570988" lon="13.091813943633325"><ele>186.5</ele><time>2026-04-29T14:30:46Z</time></trkpt><trkpt lat="43.69107813508903" lon="13.091618230897712"><ele>187.0</ele><time>2026-04-29T14:30:47Z</time></trkpt><trkpt lat="43.69101659359152" lon="13.091429970816908"><ele>188.75</ele><time>2026-04-29T14:30:48Z</time></trkpt><trkpt lat="43.69096425076158" lon="13.091240667239177"><ele>190.5</ele><time>2026-04-29T14:30:49Z</time></trkpt><trkpt lat="43.690924190120604" lon="13.091048291087912"><ele>192.25</ele><time>2026-04-29T14:30:50Z</time></trkpt><trkpt lat="43.69089955518462" lon="13.090867431663145"><ele>194.0</ele><time>2026-04-29T14:30:51Z</time></trkpt><trkpt lat="43.690881311652994" lon="13.090672220304175"><ele>194.5</ele><time>2026-04-29T14:30:52Z</time></trkpt><trkpt lat="43.690869862201176" lon="13.090473248473458"><ele>195.0</ele><time>2026-04-29T14:30:53Z</time></trkpt><trkpt lat="43.690866357485994" lon="13.09028311857332"><ele>195.5</ele><time>2026-04-29T14:30:54Z</time></trkpt><trkpt lat="43.69087542254898" lon="13.090096666800228"><ele>196.0</ele><time>2026-04-29T14:30:55Z</time></trkpt><trkpt lat="43.69088426404167" lon="13.089901101962953"><ele>196.0</ele><time>2026-04-29T14:30:56Z</time></trkpt><trkpt lat="43.69088012016016" lon="13.089703840316439"><ele>196.0</ele><time>2026-04-29T14:30:57Z</time></trkpt><trkpt lat="43.69086579925865" lon="13.089500701685155"><ele>196.0</ele><time>2026-04-29T14:30:58Z</time></trkpt><trkpt lat="43.69084437567965" lon="13.089317493532807"><ele>196.0</ele><time>2026-04-29T14:30:59.001Z</time></trkpt><trkpt lat="43.690819599646666" lon="13.08913915561545"><ele>194.75</ele><time>2026-04-29T14:31:00.001Z</time></trkpt><trkpt lat="43.690778806356064" lon="13.088978778315303"><ele>193.5</ele><time>2026-04-29T14:31:01.001Z</time></trkpt><trkpt lat="43.69071286958981" lon="13.088829480508396"><ele>192.25</ele><time>2026-04-29T14:31:02.001Z</time></trkpt><trkpt lat="43.69063005402255" lon="13.0886733419778"><ele>191.0</ele><time>2026-04-29T14:31:03.001Z</time></trkpt><trkpt lat="43.69055580211563" lon="13.088510184578812"><ele>191.0</ele><time>2026-04-29T14:31:04.001Z</time></trkpt><trkpt lat="43.690501910327185" lon="13.088329194649006"><ele>191.0</ele><time>2026-04-29T14:31:05.001Z</time></trkpt><trkpt lat="43.690474103285666" lon="13.088133983387836"><ele>191.0</ele><time>2026-04-29T14:31:06.001Z</time></trkpt><trkpt lat="43.6904660219771" lon="13.08793129850633"><ele>191.0</ele><time>2026-04-29T14:31:07.001Z</time></trkpt><trkpt lat="43.69046233420706" lon="13.087724722608012"><ele>190.0</ele><time>2026-04-29T14:31:08.001Z</time></trkpt><trkpt lat="43.69045601873386" lon="13.087519613211333"><ele>189.0</ele><time>2026-04-29T14:31:09.001Z</time></trkpt><trkpt lat="43.690440257634236" lon="13.087336586640246"><ele>188.0</ele><time>2026-04-29T14:31:10Z</time></trkpt><trkpt lat="43.690423558908506" lon="13.087164576133231"><ele>187.0</ele><time>2026-04-29T14:31:11Z</time></trkpt><trkpt lat="43.69035392798986" lon="13.087021385077293"><ele>185.25</ele><time>2026-04-29T14:31:12Z</time></trkpt><trkpt lat="43.690278858617994" lon="13.086886589337613"><ele>183.5</ele><time>2026-04-29T14:31:13Z</time></trkpt><trkpt lat="43.690197575202205" lon="13.086746854889919"><ele>181.75</ele><time>2026-04-29T14:31:14Z</time></trkpt><trkpt lat="43.69012930719453" lon="13.086593331544412"><ele>180.0</ele><time>2026-04-29T14:31:15Z</time></trkpt><trkpt lat="43.69006334481235" lon="13.086421712804945"><ele>186.66666666666669</ele><time>2026-04-29T14:31:16Z</time></trkpt><trkpt lat="43.68998382566233" lon="13.086234743623146"><ele>193.33333333333334</ele><time>2026-04-29T14:31:17Z</time></trkpt><trkpt lat="43.68988088579727" lon="13.08604551708782"><ele>200.0</ele><time>2026-04-29T14:31:18Z</time></trkpt><trkpt lat="43.68976564291546" lon="13.085868748072802"><ele>200.33333333333334</ele><time>2026-04-29T14:31:19Z</time></trkpt><trkpt lat="43.68964390083521" lon="13.08571644253505"><ele>200.66666666666669</ele><time>2026-04-29T14:31:20Z</time></trkpt><trkpt lat="43.68951565842911" lon="13.085556674332684"><ele>201.0</ele><time>2026-04-29T14:31:21Z</time></trkpt><trkpt lat="43.68939899359902" lon="13.085410454600504"><ele>201.0</ele><time>2026-04-29T14:31:22Z</time></trkpt><trkpt lat="43.689296726222125" lon="13.085261461821807"><ele>201.0</ele><time>2026-04-29T14:31:23Z</time></trkpt><trkpt lat="43.68920525335511" lon="13.08509492355565"><ele>201.0</ele><time>2026-04-29T14:31:24Z</time></trkpt><trkpt lat="43.68912143660113" lon="13.084904698157416"><ele>200.5</ele><time>2026-04-29T14:31:25Z</time></trkpt><trkpt lat="43.6890500263941" lon="13.084702955776988"><ele>200.0</ele><time>2026-04-29T14:31:26Z</time></trkpt><trkpt lat="43.688985904588556" lon="13.084518606066798"><ele>199.5</ele><time>2026-04-29T14:31:27Z</time></trkpt><trkpt lat="43.688926471132696" lon="13.08434714479492"><ele>199.0</ele><time>2026-04-29T14:31:28Z</time></trkpt><trkpt lat="43.68888633401765" lon="13.084166772821666"><ele>196.25</ele><time>2026-04-29T14:31:29Z</time></trkpt><trkpt lat="43.68887061109321" lon="13.083989036204494"><ele>193.5</ele><time>2026-04-29T14:31:30Z</time></trkpt><trkpt lat="43.68886962600128" lon="13.083836601148612"><ele>190.75</ele><time>2026-04-29T14:31:31Z</time></trkpt><trkpt lat="43.68886528003783" lon="13.083679081209212"><ele>188.0</ele><time>2026-04-29T14:31:32Z</time></trkpt><trkpt lat="43.68883679272908" lon="13.083502447241617"><ele>188.0</ele><time>2026-04-29T14:31:33Z</time></trkpt><trkpt lat="43.688774830083624" lon="13.083332460918744"><ele>188.0</ele><time>2026-04-29T14:31:34Z</time></trkpt><trkpt lat="43.6886808540232" lon="13.083167705370048"><ele>188.0</ele><time>2026-04-29T14:31:35Z</time></trkpt><trkpt lat="43.68855622993463" lon="13.082992386400688"><ele>184.66666666666666</ele><time>2026-04-29T14:31:36Z</time></trkpt><trkpt lat="43.68841340055637" lon="13.082815463677605"><ele>181.33333333333334</ele><time>2026-04-29T14:31:37Z</time></trkpt><trkpt lat="43.688255868782484" lon="13.082638985262106"><ele>178.0</ele><time>2026-04-29T14:31:38Z</time></trkpt><trkpt lat="43.68809386829481" lon="13.082455963536782"><ele>175.33333333333334</ele><time>2026-04-29T14:31:39Z</time></trkpt><trkpt lat="43.68793882709931" lon="13.08226434429538"><ele>172.66666666666666</ele><time>2026-04-29T14:31:40Z</time></trkpt><trkpt lat="43.6877967633395" lon="13.082072335109448"><ele>170.0</ele><time>2026-04-29T14:31:41Z</time></trkpt><trkpt lat="43.687669911656684" lon="13.081884099065487"><ele>170.0</ele><time>2026-04-29T14:31:42Z</time></trkpt><trkpt lat="43.68755847793776" lon="13.081689682036773"><ele>170.0</ele><time>2026-04-29T14:31:43Z</time></trkpt><trkpt lat="43.687447908871114" lon="13.081485332261172"><ele>170.0</ele><time>2026-04-29T14:31:44Z</time></trkpt><trkpt lat="43.68734444882845" lon="13.081281544699083"><ele>168.66666666666666</ele><time>2026-04-29T14:31:45Z</time></trkpt><trkpt lat="43.68724188598626" lon="13.081078475357732"><ele>167.33333333333334</ele><time>2026-04-29T14:31:46Z</time></trkpt><trkpt lat="43.68714090204661" lon="13.080879729832677"><ele>166.0</ele><time>2026-04-29T14:31:47Z</time></trkpt><trkpt lat="43.687042247506554" lon="13.08068856481837"><ele>168.0</ele><time>2026-04-29T14:31:48Z</time></trkpt><trkpt lat="43.68693722556309" lon="13.080487465693869"><ele>170.0</ele><time>2026-04-29T14:31:49Z</time></trkpt><trkpt lat="43.68683176306471" lon="13.080286978443954"><ele>172.0</ele><time>2026-04-29T14:31:50Z</time></trkpt><trkpt lat="43.68672275989211" lon="13.08007397002262"><ele>170.0</ele><time>2026-04-29T14:31:51Z</time></trkpt><trkpt lat="43.686617669958814" lon="13.0798733586804"><ele>168.0</ele><time>2026-04-29T14:31:52Z</time></trkpt><trkpt lat="43.68651488180476" lon="13.079678514684693"><ele>166.0</ele><time>2026-04-29T14:31:53Z</time></trkpt><trkpt lat="43.68641302861246" lon="13.07948367920689"><ele>166.0</ele><time>2026-04-29T14:31:54Z</time></trkpt><trkpt lat="43.68631469229771" lon="13.07930055352298"><ele>166.0</ele><time>2026-04-29T14:31:55Z</time></trkpt><trkpt lat="43.68620910541399" lon="13.079116135898119"><ele>166.0</ele><time>2026-04-29T14:31:56Z</time></trkpt><trkpt lat="43.68609641261793" lon="13.078943758974884"><ele>169.66666666666669</ele><time>2026-04-29T14:31:57Z</time></trkpt><trkpt lat="43.68597436438544" lon="13.078784109371197"><ele>173.33333333333334</ele><time>2026-04-29T14:31:58Z</time></trkpt><trkpt lat="43.685844890821066" lon="13.078612325126363"><ele>177.0</ele><time>2026-04-29T14:31:59Z</time></trkpt><trkpt lat="43.68571180478837" lon="13.078450260542766"><ele>177.0</ele><time>2026-04-29T14:32:00Z</time></trkpt><trkpt lat="43.685590369546055" lon="13.078318436541254"><ele>177.0</ele><time>2026-04-29T14:32:01Z</time></trkpt><trkpt lat="43.685464612059555" lon="13.078220785059917"><ele>177.0</ele><time>2026-04-29T14:32:02Z</time></trkpt><trkpt lat="43.68532202514201" lon="13.078145226747964"><ele>180.66666666666666</ele><time>2026-04-29T14:32:03Z</time></trkpt><trkpt lat="43.6851654644513" lon="13.07809240189048"><ele>184.33333333333331</ele><time>2026-04-29T14:32:04Z</time></trkpt><trkpt lat="43.68499892718934" lon="13.078058160657358"><ele>188.0</ele><time>2026-04-29T14:32:05Z</time></trkpt><trkpt lat="43.68483205798871" lon="13.07802236949268"><ele>188.0</ele><time>2026-04-29T14:32:06Z</time></trkpt><trkpt lat="43.6846639411232" lon="13.077980449937368"><ele>188.0</ele><time>2026-04-29T14:32:07Z</time></trkpt><trkpt lat="43.68449211145117" lon="13.077934383837587"><ele>188.0</ele><time>2026-04-29T14:32:08Z</time></trkpt><trkpt lat="43.68432571641007" lon="13.07789306238259"><ele>189.0</ele><time>2026-04-29T14:32:09Z</time></trkpt><trkpt lat="43.684153519575325" lon="13.077853470681129"><ele>190.0</ele><time>2026-04-29T14:32:10Z</time></trkpt><trkpt lat="43.68397715450233" lon="13.077823353885565"><ele>191.0</ele><time>2026-04-29T14:32:11Z</time></trkpt><trkpt lat="43.68380266022063" lon="13.077797888801149"><ele>191.0</ele><time>2026-04-29T14:32:12Z</time></trkpt><trkpt lat="43.68363766347989" lon="13.077765921692599"><ele>191.0</ele><time>2026-04-29T14:32:13Z</time></trkpt><trkpt lat="43.68346842542156" lon="13.077711334304547"><ele>191.0</ele><time>2026-04-29T14:32:14Z</time></trkpt><trkpt lat="43.683302748684156" lon="13.077653905415493"><ele>192.0</ele><time>2026-04-29T14:32:15Z</time></trkpt><trkpt lat="43.68313512935917" lon="13.077587612151271"><ele>193.0</ele><time>2026-04-29T14:32:16Z</time></trkpt><trkpt lat="43.6829646187598" lon="13.07752094797799"><ele>194.0</ele><time>2026-04-29T14:32:17Z</time></trkpt><trkpt lat="43.682793042001606" lon="13.07745826171746"><ele>192.66666666666669</ele><time>2026-04-29T14:32:18Z</time></trkpt><trkpt lat="43.68261339825724" lon="13.077395921690625"><ele>191.33333333333334</ele><time>2026-04-29T14:32:19Z</time></trkpt><trkpt lat="43.682429726089296" lon="13.077333782346852"><ele>190.0</ele><time>2026-04-29T14:32:20Z</time></trkpt><trkpt lat="43.68224946222466" lon="13.077259286267449"><ele>190.0</ele><time>2026-04-29T14:32:21Z</time></trkpt><trkpt lat="43.68206953027084" lon="13.077166537939634"><ele>190.0</ele><time>2026-04-29T14:32:22Z</time></trkpt><trkpt lat="43.68189183976187" lon="13.077057874003332"><ele>190.0</ele><time>2026-04-29T14:32:23Z</time></trkpt><trkpt lat="43.68172066851554" lon="13.076933196207932"><ele>190.0</ele><time>2026-04-29T14:32:24Z</time></trkpt><trkpt lat="43.68157019115998" lon="13.076801573475317"><ele>190.0</ele><time>2026-04-29T14:32:25Z</time></trkpt><trkpt lat="43.68143956682925" lon="13.076667221835633"><ele>190.0</ele><time>2026-04-29T14:32:26Z</time></trkpt><trkpt lat="43.68130248582477" lon="13.076529926379736"><ele>189.66666666666669</ele><time>2026-04-29T14:32:27Z</time></trkpt><trkpt lat="43.68115077788685" lon="13.07640968316767"><ele>189.33333333333334</ele><time>2026-04-29T14:32:28Z</time></trkpt><trkpt lat="43.68098641073214" lon="13.07629653338441"><ele>189.0</ele><time>2026-04-29T14:32:29Z</time></trkpt><trkpt lat="43.68081256840997" lon="13.076193932053714"><ele>188.33333333333334</ele><time>2026-04-29T14:32:30Z</time></trkpt><trkpt lat="43.680632527457604" lon="13.07609548593661"><ele>187.66666666666669</ele><time>2026-04-29T14:32:31Z</time></trkpt><trkpt lat="43.68045019513238" lon="13.0759984076385"><ele>187.0</ele><time>2026-04-29T14:32:32Z</time></trkpt><trkpt lat="43.68027193058019" lon="13.075903463154383"><ele>187.0</ele><time>2026-04-29T14:32:33Z</time></trkpt><trkpt lat="43.6801031194733" lon="13.075809730734445"><ele>187.0</ele><time>2026-04-29T14:32:34Z</time></trkpt><trkpt lat="43.679932976325944" lon="13.075698879597319"><ele>187.0</ele><time>2026-04-29T14:32:35Z</time></trkpt><trkpt lat="43.67976132542447" lon="13.075562569209833"><ele>186.33333333333334</ele><time>2026-04-29T14:32:36Z</time></trkpt><trkpt lat="43.679596394231886" lon="13.075412932837553"><ele>185.66666666666666</ele><time>2026-04-29T14:32:37Z</time></trkpt><trkpt lat="43.67944775387844" lon="13.075250029906476"><ele>185.0</ele><time>2026-04-29T14:32:38Z</time></trkpt><trkpt lat="43.67932602862974" lon="13.075069395391184"><ele>185.33333333333331</ele><time>2026-04-29T14:32:39Z</time></trkpt><trkpt lat="43.67921186583497" lon="13.07486560196763"><ele>185.66666666666666</ele><time>2026-04-29T14:32:40Z</time></trkpt><trkpt lat="43.679104177943955" lon="13.074661436844131"><ele>186.0</ele><time>2026-04-29T14:32:41Z</time></trkpt><trkpt lat="43.67899745262923" lon="13.074460716463134"><ele>186.0</ele><time>2026-04-29T14:32:42Z</time></trkpt><trkpt lat="43.678892100777425" lon="13.074263971562361"><ele>186.0</ele><time>2026-04-29T14:32:43Z</time></trkpt><trkpt lat="43.67878157642932" lon="13.074067548212936"><ele>186.0</ele><time>2026-04-29T14:32:44Z</time></trkpt><trkpt lat="43.67867599903321" lon="13.073873321841019"><ele>188.0</ele><time>2026-04-29T14:32:45Z</time></trkpt><trkpt lat="43.678563643957894" lon="13.073683709050783"><ele>190.0</ele><time>2026-04-29T14:32:46Z</time></trkpt><trkpt lat="43.67846469304201" lon="13.073515239200676"><ele>192.0</ele><time>2026-04-29T14:32:47Z</time></trkpt><trkpt lat="43.67836368040332" lon="13.073340450961634"><ele>189.66666666666666</ele><time>2026-04-29T14:32:48Z</time></trkpt><trkpt lat="43.6782714454964" lon="13.073149580919615"><ele>187.33333333333331</ele><time>2026-04-29T14:32:49Z</time></trkpt><trkpt lat="43.67818235231464" lon="13.072941637641078"><ele>185.0</ele><time>2026-04-29T14:32:50Z</time></trkpt><trkpt lat="43.67810809576315" lon="13.072739712403482"><ele>185.0</ele><time>2026-04-29T14:32:51Z</time></trkpt><trkpt lat="43.67804681909424" lon="13.07254340419127"><ele>185.0</ele><time>2026-04-29T14:32:52Z</time></trkpt><trkpt lat="43.677989221240836" lon="13.072341566616645"><ele>185.0</ele><time>2026-04-29T14:32:53Z</time></trkpt><trkpt lat="43.677931837179095" lon="13.07212260718934"><ele>185.0</ele><time>2026-04-29T14:32:54Z</time></trkpt><trkpt lat="43.677876306717714" lon="13.071888938090423"><ele>185.0</ele><time>2026-04-29T14:32:55Z</time></trkpt><trkpt lat="43.67781607328167" lon="13.071646861605457"><ele>185.0</ele><time>2026-04-29T14:32:56Z</time></trkpt><trkpt lat="43.67775469546784" lon="13.071408262138641"><ele>185.0</ele><time>2026-04-29T14:32:57Z</time></trkpt><trkpt lat="43.67769303017921" lon="13.071174065334235"><ele>185.0</ele><time>2026-04-29T14:32:58Z</time></trkpt><trkpt lat="43.6776289242919" lon="13.0709445833231"><ele>185.0</ele><time>2026-04-29T14:32:59Z</time></trkpt><trkpt lat="43.67756928384707" lon="13.07071763200933"><ele>184.66666666666666</ele><time>2026-04-29T14:33:00Z</time></trkpt><trkpt lat="43.67750618978895" lon="13.07048715703774"><ele>184.33333333333334</ele><time>2026-04-29T14:33:01Z</time></trkpt><trkpt lat="43.67744280600934" lon="13.070264416395084"><ele>184.0</ele><time>2026-04-29T14:33:02Z</time></trkpt><trkpt lat="43.67737508078793" lon="13.070053189918973"><ele>182.33333333333334</ele><time>2026-04-29T14:33:03Z</time></trkpt><trkpt lat="43.67729536011787" lon="13.069845065667845"><ele>180.66666666666666</ele><time>2026-04-29T14:33:04Z</time></trkpt><trkpt lat="43.67720969690307" lon="13.069648666066957"><ele>179.0</ele><time>2026-04-29T14:33:05Z</time></trkpt><trkpt lat="43.67711480332066" lon="13.069466811575465"><ele>179.0</ele><time>2026-04-29T14:33:06Z</time></trkpt><trkpt lat="43.67701035191861" lon="13.069308986891004"><ele>179.0</ele><time>2026-04-29T14:33:07Z</time></trkpt><trkpt lat="43.676898780936675" lon="13.06915082025847"><ele>179.0</ele><time>2026-04-29T14:33:08Z</time></trkpt><trkpt lat="43.67678093275607" lon="13.068996340569786"><ele>183.66666666666666</ele><time>2026-04-29T14:33:09Z</time></trkpt><trkpt lat="43.676670338820955" lon="13.068829143650692"><ele>188.33333333333331</ele><time>2026-04-29T14:33:10Z</time></trkpt><trkpt lat="43.67657725294549" lon="13.068663994596642"><ele>193.0</ele><time>2026-04-29T14:33:11Z</time></trkpt><trkpt lat="43.67649821458247" lon="13.068490638912117"><ele>193.0</ele><time>2026-04-29T14:33:12Z</time></trkpt><trkpt lat="43.67644738573406" lon="13.068284049138164"><ele>193.0</ele><time>2026-04-29T14:33:13Z</time></trkpt><trkpt lat="43.67639736518943" lon="13.06808077041557"><ele>193.0</ele><time>2026-04-29T14:33:14Z</time></trkpt><trkpt lat="43.676384267194116" lon="13.067886725893567"><ele>192.75</ele><time>2026-04-29T14:33:15Z</time></trkpt><trkpt lat="43.67638568564121" lon="13.067690194649495"><ele>192.5</ele><time>2026-04-29T14:33:16Z</time></trkpt><trkpt lat="43.67638359980637" lon="13.06748588377857"><ele>192.25</ele><time>2026-04-29T14:33:17Z</time></trkpt><trkpt lat="43.67636256299525" lon="13.067302191050128"><ele>192.0</ele><time>2026-04-29T14:33:18Z</time></trkpt><trkpt lat="43.67631410015108" lon="13.067159077804206"><ele>192.0</ele><time>2026-04-29T14:33:19Z</time></trkpt><trkpt lat="43.67623807027442" lon="13.067035738079262"><ele>192.0</ele><time>2026-04-29T14:33:20Z</time></trkpt><trkpt lat="43.67613465914451" lon="13.066900588061175"><ele>192.0</ele><time>2026-04-29T14:33:21Z</time></trkpt><trkpt lat="43.67602622506955" lon="13.066765512741652"><ele>192.0</ele><time>2026-04-29T14:33:22Z</time></trkpt><trkpt lat="43.675913077113" lon="13.066624534374371"><ele>193.25</ele><time>2026-04-29T14:33:23Z</time></trkpt><trkpt lat="43.675796522170806" lon="13.066477774416256"><ele>194.5</ele><time>2026-04-29T14:33:24Z</time></trkpt><trkpt lat="43.67568603307946" lon="13.066367153123243"><ele>195.75</ele><time>2026-04-29T14:33:25Z</time></trkpt><trkpt lat="43.675560779877195" lon="13.066302107539386"><ele>197.0</ele><time>2026-04-29T14:33:26Z</time></trkpt><trkpt lat="43.67542727205349" lon="13.066272328916737"><ele>197.0</ele><time>2026-04-29T14:33:27Z</time></trkpt><trkpt lat="43.675274729261886" lon="13.066272880693266"><ele>197.0</ele><time>2026-04-29T14:33:28Z</time></trkpt><trkpt lat="43.675116559705046" lon="13.066291324866382"><ele>197.0</ele><time>2026-04-29T14:33:29Z</time></trkpt><trkpt lat="43.67495318562819" lon="13.066308005322247"><ele>199.66666666666669</ele><time>2026-04-29T14:33:30Z</time></trkpt><trkpt lat="43.6747966888197" lon="13.066299593089395"><ele>202.33333333333331</ele><time>2026-04-29T14:33:31Z</time></trkpt><trkpt lat="43.674636306795605" lon="13.066269045182864"><ele>205.0</ele><time>2026-04-29T14:33:32Z</time></trkpt><trkpt lat="43.67447823108333" lon="13.066216454578868"><ele>206.0</ele><time>2026-04-29T14:33:33Z</time></trkpt><trkpt lat="43.67433292190033" lon="13.066153452829754"><ele>207.0</ele><time>2026-04-29T14:33:34Z</time></trkpt><trkpt lat="43.6741835996697" lon="13.066081842918836"><ele>208.0</ele><time>2026-04-29T14:33:35Z</time></trkpt><trkpt lat="43.674030014403805" lon="13.066003541190213"><ele>208.0</ele><time>2026-04-29T14:33:36Z</time></trkpt><trkpt lat="43.67387815038721" lon="13.065904011288707"><ele>208.0</ele><time>2026-04-29T14:33:37Z</time></trkpt><trkpt lat="43.67373117464077" lon="13.065778725751336"><ele>208.0</ele><time>2026-04-29T14:33:38Z</time></trkpt><trkpt lat="43.673579081287826" lon="13.06565222319401"><ele>205.0</ele><time>2026-04-29T14:33:39Z</time></trkpt><trkpt lat="43.67341604200885" lon="13.065553297712157"><ele>202.0</ele><time>2026-04-29T14:33:40Z</time></trkpt><trkpt lat="43.67323671633789" lon="13.065475182939107"><ele>199.0</ele><time>2026-04-29T14:33:41Z</time></trkpt><trkpt lat="43.67304716033799" lon="13.065390971914738"><ele>199.0</ele><time>2026-04-29T14:33:42Z</time></trkpt><trkpt lat="43.67285772442614" lon="13.065300124272705"><ele>199.0</ele><time>2026-04-29T14:33:43Z</time></trkpt><trkpt lat="43.67268299159167" lon="13.065207560417251"><ele>199.0</ele><time>2026-04-29T14:33:44Z</time></trkpt><trkpt lat="43.67251530970387" lon="13.065112338940173"><ele>197.33333333333331</ele><time>2026-04-29T14:33:45Z</time></trkpt><trkpt lat="43.6723627369802" lon="13.065020298354849"><ele>195.66666666666669</ele><time>2026-04-29T14:33:46Z</time></trkpt><trkpt lat="43.67221561126386" lon="13.064928233916646"><ele>194.0</ele><time>2026-04-29T14:33:47Z</time></trkpt><trkpt lat="43.67207254780351" lon="13.064821514536238"><ele>197.0</ele><time>2026-04-29T14:33:48Z</time></trkpt><trkpt lat="43.67193021745362" lon="13.064679618486638"><ele>200.0</ele><time>2026-04-29T14:33:49Z</time></trkpt><trkpt lat="43.671789795212106" lon="13.064519158143002"><ele>203.0</ele><time>2026-04-29T14:33:50Z</time></trkpt><trkpt lat="43.67164328844189" lon="13.064351741911933"><ele>203.0</ele><time>2026-04-29T14:33:51Z</time></trkpt><trkpt lat="43.67148948918692" lon="13.064190635837582"><ele>203.0</ele><time>2026-04-29T14:33:52Z</time></trkpt><trkpt lat="43.67134176170845" lon="13.064042345022061"><ele>203.0</ele><time>2026-04-29T14:33:53Z</time></trkpt><trkpt lat="43.67118738454709" lon="13.063888525739273"><ele>202.66666666666669</ele><time>2026-04-29T14:33:54Z</time></trkpt><trkpt lat="43.67102970319956" lon="13.063729683019993"><ele>202.33333333333331</ele><time>2026-04-29T14:33:55Z</time></trkpt><trkpt lat="43.67086998527171" lon="13.063555615424702"><ele>202.0</ele><time>2026-04-29T14:33:56Z</time></trkpt><trkpt lat="43.67071490392675" lon="13.063373345185585"><ele>200.66666666666666</ele><time>2026-04-29T14:33:57Z</time></trkpt><trkpt lat="43.67057044509899" lon="13.063167384735003"><ele>199.33333333333331</ele><time>2026-04-29T14:33:58Z</time></trkpt><trkpt lat="43.67043001602416" lon="13.062944108162815"><ele>198.0</ele><time>2026-04-29T14:33:59Z</time></trkpt><trkpt lat="43.67029459794844" lon="13.062724236192247"><ele>200.66666666666669</ele><time>2026-04-29T14:34:00Z</time></trkpt><trkpt lat="43.67015963076329" lon="13.062511099149287"><ele>203.33333333333334</ele><time>2026-04-29T14:34:01Z</time></trkpt><trkpt lat="43.670023405115764" lon="13.062314442606105"><ele>206.0</ele><time>2026-04-29T14:34:02Z</time></trkpt><trkpt lat="43.66987905047409" lon="13.06212115896464"><ele>206.0</ele><time>2026-04-29T14:34:03Z</time></trkpt><trkpt lat="43.66973121335004" lon="13.06193443173071"><ele>206.0</ele><time>2026-04-29T14:34:04Z</time></trkpt><trkpt lat="43.66958582537593" lon="13.061750369747228"><ele>206.0</ele><time>2026-04-29T14:34:05Z</time></trkpt><trkpt lat="43.66943990744309" lon="13.061572679286346"><ele>208.0</ele><time>2026-04-29T14:34:06Z</time></trkpt><trkpt lat="43.66929062061802" lon="13.061389568266192"><ele>210.0</ele><time>2026-04-29T14:34:07Z</time></trkpt><trkpt lat="43.66915723274223" lon="13.061199706737812"><ele>212.0</ele><time>2026-04-29T14:34:08Z</time></trkpt><trkpt lat="43.66903265595239" lon="13.061011951367114"><ele>212.0</ele><time>2026-04-29T14:34:09Z</time></trkpt><trkpt lat="43.66891758418169" lon="13.060825958247086"><ele>212.0</ele><time>2026-04-29T14:34:10Z</time></trkpt><trkpt lat="43.66880422953954" lon="13.060629258557373"><ele>212.0</ele><time>2026-04-29T14:34:11Z</time></trkpt><trkpt lat="43.6686960602157" lon="13.060442135905564"><ele>212.0</ele><time>2026-04-29T14:34:12Z</time></trkpt><trkpt lat="43.668583154389104" lon="13.060262524144203"><ele>212.0</ele><time>2026-04-29T14:34:13Z</time></trkpt><trkpt lat="43.66846754681659" lon="13.060071722439483"><ele>212.0</ele><time>2026-04-29T14:34:14Z</time></trkpt><trkpt lat="43.66836386443714" lon="13.05983319703904"><ele>212.0</ele><time>2026-04-29T14:34:15Z</time></trkpt><trkpt lat="43.668246367829624" lon="13.059597444500804"><ele>212.0</ele><time>2026-04-29T14:34:16Z</time></trkpt><trkpt lat="43.66813005995316" lon="13.059377421297643"><ele>212.0</ele><time>2026-04-29T14:34:17Z</time></trkpt><trkpt lat="43.66803323977948" lon="13.059164618930913"><ele>209.66666666666669</ele><time>2026-04-29T14:34:18Z</time></trkpt><trkpt lat="43.66793244173167" lon="13.05896946069705"><ele>207.33333333333331</ele><time>2026-04-29T14:34:19Z</time></trkpt><trkpt lat="43.66783519518354" lon="13.058785369354498"><ele>205.0</ele><time>2026-04-29T14:34:20Z</time></trkpt><trkpt lat="43.667739818315674" lon="13.058601018457532"><ele>207.66666666666666</ele><time>2026-04-29T14:34:21Z</time></trkpt><trkpt lat="43.667657133127825" lon="13.058412478881314"><ele>210.33333333333331</ele><time>2026-04-29T14:34:22Z</time></trkpt><trkpt lat="43.66758799947659" lon="13.058227676059442"><ele>213.0</ele><time>2026-04-29T14:34:23Z</time></trkpt><trkpt lat="43.667536248843966" lon="13.058047440512174"><ele>213.0</ele><time>2026-04-29T14:34:24Z</time></trkpt><trkpt lat="43.667506149938006" lon="13.057849793033961"><ele>213.0</ele><time>2026-04-29T14:34:25Z</time></trkpt><trkpt lat="43.66750289755468" lon="13.057627936408858"><ele>213.0</ele><time>2026-04-29T14:34:26Z</time></trkpt><trkpt lat="43.66750507386213" lon="13.05738961730109"><ele>212.0</ele><time>2026-04-29T14:34:27Z</time></trkpt><trkpt lat="43.66749663327267" lon="13.057140671764774"><ele>211.0</ele><time>2026-04-29T14:34:28Z</time></trkpt><trkpt lat="43.66748165845331" lon="13.056887860220357"><ele>210.0</ele><time>2026-04-29T14:34:29Z</time></trkpt><trkpt lat="43.66745661259906" lon="13.056629070367501"><ele>209.33333333333331</ele><time>2026-04-29T14:34:30Z</time></trkpt><trkpt lat="43.66741958163895" lon="13.056387681846259"><ele>208.66666666666666</ele><time>2026-04-29T14:34:31Z</time></trkpt><trkpt lat="43.66736385546608" lon="13.056140267937298"><ele>208.0</ele><time>2026-04-29T14:34:32Z</time></trkpt><trkpt lat="43.66730355139963" lon="13.055888993157398"><ele>206.66666666666666</ele><time>2026-04-29T14:34:33Z</time></trkpt><trkpt lat="43.667239795199926" lon="13.055640795874528"><ele>205.33333333333331</ele><time>2026-04-29T14:34:34Z</time></trkpt><trkpt lat="43.66717385975331" lon="13.055391354524739"><ele>204.0</ele><time>2026-04-29T14:34:35Z</time></trkpt><trkpt lat="43.66711209025822" lon="13.055151618224683"><ele>203.33333333333331</ele><time>2026-04-29T14:34:36Z</time></trkpt><trkpt lat="43.66705159732986" lon="13.054917721609533"><ele>202.66666666666666</ele><time>2026-04-29T14:34:37Z</time></trkpt><trkpt lat="43.666993280431804" lon="13.054689285854103"><ele>202.0</ele><time>2026-04-29T14:34:38Z</time></trkpt><trkpt lat="43.66693900262435" lon="13.054473681036349"><ele>204.33333333333331</ele><time>2026-04-29T14:34:39Z</time></trkpt><trkpt lat="43.66688081165203" lon="13.054254911200482"><ele>206.66666666666669</ele><time>2026-04-29T14:34:40Z</time></trkpt><trkpt lat="43.66682597051786" lon="13.054045680894918"><ele>209.0</ele><time>2026-04-29T14:34:41Z</time></trkpt><trkpt lat="43.6667737043663" lon="13.05384228002751"><ele>209.66666666666669</ele><time>2026-04-29T14:34:42Z</time></trkpt><trkpt lat="43.66672111155519" lon="13.05364244525699"><ele>210.33333333333331</ele><time>2026-04-29T14:34:43Z</time></trkpt><trkpt lat="43.666663423341745" lon="13.053442456101148"><ele>211.0</ele><time>2026-04-29T14:34:44Z</time></trkpt><trkpt lat="43.66660188344462" lon="13.053243825856626"><ele>211.0</ele><time>2026-04-29T14:34:45Z</time></trkpt><trkpt lat="43.66653426470238" lon="13.053043855331158"><ele>211.0</ele><time>2026-04-29T14:34:46Z</time></trkpt><trkpt lat="43.666465967223665" lon="13.052849351625966"><ele>211.0</ele><time>2026-04-29T14:34:47Z</time></trkpt><trkpt lat="43.66640046990682" lon="13.052664904344216"><ele>211.0</ele><time>2026-04-29T14:34:48Z</time></trkpt><trkpt lat="43.66632741095357" lon="13.052480231109305"><ele>211.0</ele><time>2026-04-29T14:34:49Z</time></trkpt><trkpt lat="43.66624198783788" lon="13.05231505501746"><ele>211.0</ele><time>2026-04-29T14:34:50Z</time></trkpt><trkpt lat="43.66613289990971" lon="13.052157048263393"><ele>210.66666666666666</ele><time>2026-04-29T14:34:51Z</time></trkpt><trkpt lat="43.6660095149926" lon="13.052000509397036"><ele>210.33333333333331</ele><time>2026-04-29T14:34:52Z</time></trkpt><trkpt lat="43.6658790567786" lon="13.051838052241708"><ele>210.0</ele><time>2026-04-29T14:34:53Z</time></trkpt><trkpt lat="43.66574811635373" lon="13.051671126397855"><ele>207.33333333333331</ele><time>2026-04-29T14:34:54Z</time></trkpt><trkpt lat="43.66561201542093" lon="13.051493422725997"><ele>204.66666666666666</ele><time>2026-04-29T14:34:55Z</time></trkpt><trkpt lat="43.66547125737285" lon="13.051307921490805"><ele>202.0</ele><time>2026-04-29T14:34:56Z</time></trkpt><trkpt lat="43.66533033447164" lon="13.05112184434758"><ele>202.0</ele><time>2026-04-29T14:34:57Z</time></trkpt><trkpt lat="43.665187727309224" lon="13.050936862869639"><ele>202.0</ele><time>2026-04-29T14:34:58Z</time></trkpt><trkpt lat="43.66504487047668" lon="13.050747217943165"><ele>202.0</ele><time>2026-04-29T14:34:59Z</time></trkpt><trkpt lat="43.664897986275975" lon="13.050543346341472"><ele>200.66666666666666</ele><time>2026-04-29T14:35:00Z</time></trkpt><trkpt lat="43.66474727827773" lon="13.05032533988879"><ele>199.33333333333331</ele><time>2026-04-29T14:35:01Z</time></trkpt><trkpt lat="43.66461398487343" lon="13.050115914311478"><ele>198.0</ele><time>2026-04-29T14:35:02Z</time></trkpt><trkpt lat="43.66448689398172" lon="13.049909104915333"><ele>200.0</ele><time>2026-04-29T14:35:03Z</time></trkpt><trkpt lat="43.66435776192115" lon="13.04969832088093"><ele>202.0</ele><time>2026-04-29T14:35:04Z</time></trkpt><trkpt lat="43.66423446253785" lon="13.04949238896332"><ele>204.0</ele><time>2026-04-29T14:35:05Z</time></trkpt><trkpt lat="43.664118719868505" lon="13.049291824863339"><ele>203.0</ele><time>2026-04-29T14:35:06Z</time></trkpt><trkpt lat="43.664004247665176" lon="13.049079980272715"><ele>202.0</ele><time>2026-04-29T14:35:07Z</time></trkpt><trkpt lat="43.663891847752446" lon="13.048861444267155"><ele>201.0</ele><time>2026-04-29T14:35:08Z</time></trkpt><trkpt lat="43.66378039269445" lon="13.04864150521597"><ele>201.0</ele><time>2026-04-29T14:35:09Z</time></trkpt><trkpt lat="43.66366312526016" lon="13.048451953263303"><ele>201.0</ele><time>2026-04-29T14:35:10Z</time></trkpt><trkpt lat="43.66352599764923" lon="13.048306225312166"><ele>201.0</ele><time>2026-04-29T14:35:11Z</time></trkpt><trkpt lat="43.66336529798269" lon="13.048198163310328"><ele>204.0</ele><time>2026-04-29T14:35:12Z</time></trkpt><trkpt lat="43.66319307755902" lon="13.048123260228197"><ele>207.0</ele><time>2026-04-29T14:35:13Z</time></trkpt><trkpt lat="43.66300876396962" lon="13.048051396436403"><ele>210.0</ele><time>2026-04-29T14:35:14Z</time></trkpt><trkpt lat="43.66283790801812" lon="13.0479969347233"><ele>212.33333333333331</ele><time>2026-04-29T14:35:15Z</time></trkpt><trkpt lat="43.6626683561651" lon="13.047923659675156"><ele>214.66666666666666</ele><time>2026-04-29T14:35:16Z</time></trkpt><trkpt lat="43.662525749396444" lon="13.04781886575188"><ele>217.0</ele><time>2026-04-29T14:35:17Z</time></trkpt><trkpt lat="43.66241307893897" lon="13.047654679566243"><ele>217.0</ele><time>2026-04-29T14:35:18Z</time></trkpt><trkpt lat="43.66228147500145" lon="13.047473145947526"><ele>217.0</ele><time>2026-04-29T14:35:19Z</time></trkpt><trkpt lat="43.66212961363721" lon="13.047278387329344"><ele>217.0</ele><time>2026-04-29T14:35:20Z</time></trkpt><trkpt lat="43.661968102771354" lon="13.04711686434679"><ele>216.66666666666666</ele><time>2026-04-29T14:35:21Z</time></trkpt><trkpt lat="43.661812822960066" lon="13.046926240042348"><ele>216.33333333333331</ele><time>2026-04-29T14:35:22Z</time></trkpt><trkpt lat="43.66165355867605" lon="13.046744253047592"><ele>216.0</ele><time>2026-04-29T14:35:23Z</time></trkpt><trkpt lat="43.661480601954985" lon="13.046583888285928"><ele>216.0</ele><time>2026-04-29T14:35:24Z</time></trkpt><trkpt lat="43.66130948204073" lon="13.04643103607554"><ele>216.0</ele><time>2026-04-29T14:35:25Z</time></trkpt><trkpt lat="43.661146108751005" lon="13.046296069846125"><ele>216.0</ele><time>2026-04-29T14:35:26Z</time></trkpt><trkpt lat="43.660997568285474" lon="13.046154343197584"><ele>216.66666666666669</ele><time>2026-04-29T14:35:27Z</time></trkpt><trkpt lat="43.660839796837145" lon="13.046027036538467"><ele>217.33333333333334</ele><time>2026-04-29T14:35:28Z</time></trkpt><trkpt lat="43.66068202407717" lon="13.04589808704686"><ele>218.0</ele><time>2026-04-29T14:35:29Z</time></trkpt><trkpt lat="43.66053310933907" lon="13.045782285834816"><ele>218.0</ele><time>2026-04-29T14:35:30Z</time></trkpt><trkpt lat="43.660376371389496" lon="13.045682930440126"><ele>218.0</ele><time>2026-04-29T14:35:31Z</time></trkpt><trkpt lat="43.66023245506691" lon="13.045590169269243"><ele>218.0</ele><time>2026-04-29T14:35:32Z</time></trkpt><trkpt lat="43.66008038330881" lon="13.045522413118405"><ele>220.66666666666669</ele><time>2026-04-29T14:35:33Z</time></trkpt><trkpt lat="43.65991988690447" lon="13.045474897269992"><ele>223.33333333333331</ele><time>2026-04-29T14:35:34Z</time></trkpt><trkpt lat="43.65974760738265" lon="13.045467325772766"><ele>226.0</ele><time>2026-04-29T14:35:35Z</time></trkpt><trkpt lat="43.65957121777644" lon="13.045464823981895"><ele>227.0</ele><time>2026-04-29T14:35:36Z</time></trkpt><trkpt lat="43.659389922907806" lon="13.045464011921432"><ele>228.0</ele><time>2026-04-29T14:35:37Z</time></trkpt><trkpt lat="43.65921660680345" lon="13.045444340604838"><ele>229.0</ele><time>2026-04-29T14:35:38Z</time></trkpt><trkpt lat="43.65904549807325" lon="13.045400862546941"><ele>229.0</ele><time>2026-04-29T14:35:39Z</time></trkpt><trkpt lat="43.658885452407695" lon="13.045316271212288"><ele>229.0</ele><time>2026-04-29T14:35:40Z</time></trkpt><trkpt lat="43.65873220279772" lon="13.045255927500504"><ele>229.0</ele><time>2026-04-29T14:35:41Z</time></trkpt><trkpt lat="43.658599003574665" lon="13.045218057701197"><ele>228.75</ele><time>2026-04-29T14:35:42Z</time></trkpt><trkpt lat="43.65848287785897" lon="13.045170109862612"><ele>228.5</ele><time>2026-04-29T14:35:43Z</time></trkpt><trkpt lat="43.65838500272325" lon="13.045101795413027"><ele>228.25</ele><time>2026-04-29T14:35:44Z</time></trkpt><trkpt lat="43.65827419818666" lon="13.045013853263644"><ele>228.0</ele><time>2026-04-29T14:35:45Z</time></trkpt><trkpt lat="43.65816813691832" lon="13.044893404628294"><ele>227.25</ele><time>2026-04-29T14:35:46Z</time></trkpt><trkpt lat="43.65807133593764" lon="13.04476396381737"><ele>226.5</ele><time>2026-04-29T14:35:47Z</time></trkpt><trkpt lat="43.657981568825164" lon="13.044640283130562"><ele>225.75</ele><time>2026-04-29T14:35:48Z</time></trkpt><trkpt lat="43.657902068347305" lon="13.0445355351185"><ele>225.0</ele><time>2026-04-29T14:35:49Z</time></trkpt><trkpt lat="43.65783912873555" lon="13.044453430142772"><ele>225.0</ele><time>2026-04-29T14:35:50Z</time></trkpt><trkpt lat="43.657793928118224" lon="13.044383862348834"><ele>225.0</ele><time>2026-04-29T14:35:51Z</time></trkpt><trkpt lat="43.657759956862854" lon="13.044265051911445"><ele>225.0</ele><time>2026-04-29T14:35:53Z</time></trkpt><trkpt lat="43.65774431132762" lon="13.04415593088133"><ele>225.0</ele><time>2026-04-29T14:36:10Z</time></trkpt><trkpt lat="43.65763120944926" lon="13.044088549034319"><ele>225.0</ele><time>2026-04-29T14:36:12Z</time></trkpt><trkpt lat="43.65756890914466" lon="13.04406696230388"><ele>225.0</ele><time>2026-04-29T14:36:13Z</time></trkpt><trkpt lat="43.65744487048186" lon="13.043999127272667"><ele>222.6</ele><time>2026-04-29T14:36:15Z</time></trkpt><trkpt lat="43.65737083604171" lon="13.043930470613434"><ele>220.2</ele><time>2026-04-29T14:36:16Z</time></trkpt><trkpt lat="43.657295144157544" lon="13.043832907556487"><ele>217.8</ele><time>2026-04-29T14:36:17Z</time></trkpt><trkpt lat="43.65722939333031" lon="13.043748304598475"><ele>215.4</ele><time>2026-04-29T14:36:18Z</time></trkpt><trkpt lat="43.657160392808194" lon="13.043653302668721"><ele>213.0</ele><time>2026-04-29T14:36:19Z</time></trkpt><trkpt lat="43.65708284683246" lon="13.04356295711345"><ele>213.0</ele><time>2026-04-29T14:36:20Z</time></trkpt><trkpt lat="43.65699901549555" lon="13.043480209064441"><ele>213.0</ele><time>2026-04-29T14:36:21Z</time></trkpt><trkpt lat="43.65691221125682" lon="13.043411382118926"><ele>213.0</ele><time>2026-04-29T14:36:22Z</time></trkpt><trkpt lat="43.65680538556579" lon="13.043414440792127"><ele>213.0</ele><time>2026-04-29T14:36:23Z</time></trkpt><trkpt lat="43.65670312644878" lon="13.043418337743756"><ele>213.0</ele><time>2026-04-29T14:36:24Z</time></trkpt><trkpt lat="43.65659597451501" lon="13.043447169225706"><ele>213.4</ele><time>2026-04-29T14:36:25Z</time></trkpt><trkpt lat="43.656492603956465" lon="13.043477166770826"><ele>213.8</ele><time>2026-04-29T14:36:26Z</time></trkpt><trkpt lat="43.6564243196038" lon="13.043602773056172"><ele>214.2</ele><time>2026-04-29T14:36:27Z</time></trkpt><trkpt lat="43.65637519244415" lon="13.04371621562554"><ele>214.6</ele><time>2026-04-29T14:36:28Z</time></trkpt><trkpt lat="43.65636378056344" lon="13.043854845206443"><ele>215.0</ele><time>2026-04-29T14:36:29Z</time></trkpt><trkpt lat="43.65638497079294" lon="13.044005944113595"><ele>216.25</ele><time>2026-04-29T14:36:30Z</time></trkpt><trkpt lat="43.656432218380196" lon="13.044180436133146"><ele>217.5</ele><time>2026-04-29T14:36:31Z</time></trkpt><trkpt lat="43.656496314313195" lon="13.044358373179282"><ele>218.75</ele><time>2026-04-29T14:36:32Z</time></trkpt><trkpt lat="43.656568021013236" lon="13.044539718236775"><ele>220.0</ele><time>2026-04-29T14:36:33Z</time></trkpt><trkpt lat="43.6566271223978" lon="13.04473525874584"><ele>220.0</ele><time>2026-04-29T14:36:34Z</time></trkpt><trkpt lat="43.656673211375825" lon="13.044927042409"><ele>220.0</ele><time>2026-04-29T14:36:35Z</time></trkpt><trkpt lat="43.65669903641394" lon="13.045122798031723"><ele>220.0</ele><time>2026-04-29T14:36:36Z</time></trkpt><trkpt lat="43.65670706867168" lon="13.045316835625444"><ele>220.0</ele><time>2026-04-29T14:36:37Z</time></trkpt><trkpt lat="43.65669248646935" lon="13.045513399617281"><ele>218.66666666666666</ele><time>2026-04-29T14:36:38Z</time></trkpt><trkpt lat="43.65665900795804" lon="13.04572064802053"><ele>217.33333333333331</ele><time>2026-04-29T14:36:39Z</time></trkpt><trkpt lat="43.656609753075976" lon="13.045935532790702"><ele>216.0</ele><time>2026-04-29T14:36:40Z</time></trkpt><trkpt lat="43.65655080581928" lon="13.04614548922529"><ele>216.0</ele><time>2026-04-29T14:36:41Z</time></trkpt><trkpt lat="43.65648650213617" lon="13.046356104615603"><ele>216.0</ele><time>2026-04-29T14:36:42Z</time></trkpt><trkpt lat="43.65643036207382" lon="13.046555094897263"><ele>216.0</ele><time>2026-04-29T14:36:43Z</time></trkpt><trkpt lat="43.656397383661854" lon="13.046747503598262"><ele>216.0</ele><time>2026-04-29T14:36:44Z</time></trkpt><trkpt lat="43.65635566360719" lon="13.04690820782674"><ele>216.0</ele><time>2026-04-29T14:36:45Z</time></trkpt><trkpt lat="43.656297143728665" lon="13.047036207308622"><ele>216.0</ele><time>2026-04-29T14:36:46Z</time></trkpt><trkpt lat="43.65622509140596" lon="13.047164052748567"><ele>216.0</ele><time>2026-04-29T14:36:47Z</time></trkpt><trkpt lat="43.656110557557334" lon="13.047243862210165"><ele>212.5</ele><time>2026-04-29T14:36:48Z</time></trkpt><trkpt lat="43.655988646681834" lon="13.047312868150604"><ele>209.0</ele><time>2026-04-29T14:36:49Z</time></trkpt><trkpt lat="43.65584769280471" lon="13.047328733160358"><ele>205.5</ele><time>2026-04-29T14:36:50Z</time></trkpt><trkpt lat="43.65569719942963" lon="13.047358411059992"><ele>202.0</ele><time>2026-04-29T14:36:51Z</time></trkpt><trkpt lat="43.65554582296618" lon="13.047404275311498"><ele>202.0</ele><time>2026-04-29T14:36:52Z</time></trkpt><trkpt lat="43.65538390100726" lon="13.04742798148978"><ele>202.0</ele><time>2026-04-29T14:36:53Z</time></trkpt><trkpt lat="43.65521912995062" lon="13.047456306745932"><ele>202.0</ele><time>2026-04-29T14:36:54Z</time></trkpt><trkpt lat="43.65505873357793" lon="13.04749409996226"><ele>201.5</ele><time>2026-04-29T14:36:55Z</time></trkpt><trkpt lat="43.65490816668223" lon="13.047523493076953"><ele>201.0</ele><time>2026-04-29T14:36:56Z</time></trkpt><trkpt lat="43.65476700477474" lon="13.04754710799844"><ele>200.5</ele><time>2026-04-29T14:36:57Z</time></trkpt><trkpt lat="43.654634084705854" lon="13.047579117066956"><ele>200.0</ele><time>2026-04-29T14:36:58Z</time></trkpt><trkpt lat="43.654502424908145" lon="13.047606086145638"><ele>200.0</ele><time>2026-04-29T14:36:59Z</time></trkpt><trkpt lat="43.654374488908964" lon="13.047631853947307"><ele>200.0</ele><time>2026-04-29T14:37:00Z</time></trkpt><trkpt lat="43.654246432121695" lon="13.047668331991064"><ele>200.0</ele><time>2026-04-29T14:37:01Z</time></trkpt><trkpt lat="43.65412226941232" lon="13.047703127102768"><ele>200.0</ele><time>2026-04-29T14:37:02Z</time></trkpt><trkpt lat="43.65399685813831" lon="13.047736635760545"><ele>200.0</ele><time>2026-04-29T14:37:03Z</time></trkpt><trkpt lat="43.65387173401572" lon="13.047769920003388"><ele>200.0</ele><time>2026-04-29T14:37:04Z</time></trkpt><trkpt lat="43.65374790478715" lon="13.047803342873006"><ele>200.0</ele><time>2026-04-29T14:37:05Z</time></trkpt><trkpt lat="43.653621290567386" lon="13.047830170281214"><ele>200.0</ele><time>2026-04-29T14:37:06Z</time></trkpt><trkpt lat="43.6534879163913" lon="13.04785781391344"><ele>199.33333333333334</ele><time>2026-04-29T14:37:07Z</time></trkpt><trkpt lat="43.65334121119763" lon="13.047881957833853"><ele>198.66666666666669</ele><time>2026-04-29T14:37:08Z</time></trkpt><trkpt lat="43.65319956002228" lon="13.047886221147042"><ele>198.0</ele><time>2026-04-29T14:37:08.999Z</time></trkpt><trkpt lat="43.65303748206607" lon="13.047902287226924"><ele>198.0</ele><time>2026-04-29T14:37:09.999Z</time></trkpt><trkpt lat="43.65289062663347" lon="13.047896070723514"><ele>198.0</ele><time>2026-04-29T14:37:10.999Z</time></trkpt><trkpt lat="43.652738000003666" lon="13.047891100751277"><ele>198.0</ele><time>2026-04-29T14:37:11.999Z</time></trkpt><trkpt lat="43.65258585445744" lon="13.04788022419422"><ele>195.2</ele><time>2026-04-29T14:37:12.999Z</time></trkpt><trkpt lat="43.65243438310842" lon="13.047876629592134"><ele>192.4</ele><time>2026-04-29T14:37:13.999Z</time></trkpt><trkpt lat="43.652316645403324" lon="13.047874731784727"><ele>189.6</ele><time>2026-04-29T14:37:14.999Z</time></trkpt><trkpt lat="43.65223027371299" lon="13.047872077783154"><ele>186.79999999999998</ele><time>2026-04-29T14:37:15.999Z</time></trkpt><trkpt lat="43.652166252194625" lon="13.047863950074095"><ele>184.0</ele><time>2026-04-29T14:37:17Z</time></trkpt><trkpt lat="43.65209742049464" lon="13.047853643631758"><ele>184.0</ele><time>2026-04-29T14:37:18Z</time></trkpt><trkpt lat="43.65201968597372" lon="13.047839080425929"><ele>184.0</ele><time>2026-04-29T14:37:19Z</time></trkpt><trkpt lat="43.651917426852634" lon="13.04785198999954"><ele>184.0</ele><time>2026-04-29T14:37:20Z</time></trkpt><trkpt lat="43.65182212979848" lon="13.047862085261713"><ele>184.0</ele><time>2026-04-29T14:37:21Z</time></trkpt><trkpt lat="43.6517330727716" lon="13.047866597935727"><ele>184.0</ele><time>2026-04-29T14:37:22Z</time></trkpt><trkpt lat="43.65166192905928" lon="13.047865590214434"><ele>184.0</ele><time>2026-04-29T14:37:23Z</time></trkpt><trkpt lat="43.65156760128094" lon="13.04785828404572"><ele>184.6</ele><time>2026-04-29T14:37:25Z</time></trkpt><trkpt lat="43.651477302808104" lon="13.047844200285244"><ele>185.2</ele><time>2026-04-29T14:37:27Z</time></trkpt><trkpt lat="43.651369360287276" lon="13.047842786391056"><ele>185.79999999999998</ele><time>2026-04-29T14:37:29Z</time></trkpt><trkpt lat="43.65125812471942" lon="13.047839003932491"><ele>186.39999999999998</ele><time>2026-04-29T14:37:31Z</time></trkpt><trkpt lat="43.65114062867915" lon="13.047838597722984"><ele>187.0</ele><time>2026-04-29T14:37:33Z</time></trkpt><trkpt lat="43.65106482633268" lon="13.047840971479818"><ele>188.16666666666669</ele><time>2026-04-29T14:37:34Z</time></trkpt><trkpt lat="43.65098574894751" lon="13.047836845732192"><ele>189.33333333333334</ele><time>2026-04-29T14:37:35Z</time></trkpt><trkpt lat="43.65091052624079" lon="13.047829625668864"><ele>190.5</ele><time>2026-04-29T14:37:36Z</time></trkpt><trkpt lat="43.65083994642275" lon="13.047829337414777"><ele>191.66666666666669</ele><time>2026-04-29T14:37:37Z</time></trkpt><trkpt lat="43.650766622501244" lon="13.047830464356778"><ele>192.83333333333334</ele><time>2026-04-29T14:37:38Z</time></trkpt><trkpt lat="43.65069286968121" lon="13.047823218656005"><ele>194.0</ele><time>2026-04-29T14:37:39Z</time></trkpt><trkpt lat="43.650585852301965" lon="13.047825655017222"><ele>194.0</ele><time>2026-04-29T14:37:41Z</time></trkpt><trkpt lat="43.65054864048634" lon="13.047669364427957"><ele>194.0</ele><time>2026-04-29T14:37:43Z</time></trkpt><trkpt lat="43.65052105045754" lon="13.047561482207401"><ele>194.0</ele><time>2026-04-29T14:37:47Z</time></trkpt><trkpt lat="43.650500675711754" lon="13.04741247215538"><ele>194.0</ele><time>2026-04-29T14:37:49Z</time></trkpt><trkpt lat="43.65045915679107" lon="13.047265631033412"><ele>194.0</ele><time>2026-04-29T14:37:51Z</time></trkpt><trkpt lat="43.65045589386278" lon="13.047153088351488"><ele>193.2</ele><time>2026-04-29T14:37:52Z</time></trkpt><trkpt lat="43.65042709833956" lon="13.047033164608111"><ele>192.39999999999998</ele><time>2026-04-29T14:37:53Z</time></trkpt><trkpt lat="43.650391954884164" lon="13.04691585114786"><ele>191.6</ele><time>2026-04-29T14:37:54Z</time></trkpt><trkpt lat="43.65034899030718" lon="13.046800649708548"><ele>190.8</ele><time>2026-04-29T14:37:55Z</time></trkpt><trkpt lat="43.65032242155816" lon="13.046669304092825"><ele>190.0</ele><time>2026-04-29T14:37:56Z</time></trkpt><trkpt lat="43.65028676879393" lon="13.046542527345924"><ele>190.0</ele><time>2026-04-29T14:37:57Z</time></trkpt><trkpt lat="43.65024616014033" lon="13.046403542158215"><ele>190.0</ele><time>2026-04-29T14:37:58Z</time></trkpt><trkpt lat="43.6502060168526" lon="13.046274468422574"><ele>190.0</ele><time>2026-04-29T14:37:59Z</time></trkpt><trkpt lat="43.650166985424946" lon="13.046157060205086"><ele>190.0</ele><time>2026-04-29T14:38:00Z</time></trkpt><trkpt lat="43.650088870141886" lon="13.04603633756795"><ele>190.0</ele><time>2026-04-29T14:38:01Z</time></trkpt><trkpt lat="43.6500159635685" lon="13.045926719427268"><ele>190.0</ele><time>2026-04-29T14:38:02Z</time></trkpt><trkpt lat="43.64992228338275" lon="13.045826119955457"><ele>190.0</ele><time>2026-04-29T14:38:03Z</time></trkpt><trkpt lat="43.6498293290915" lon="13.0457384125567"><ele>190.0</ele><time>2026-04-29T14:38:04Z</time></trkpt><trkpt lat="43.64973846935706" lon="13.045641345049455"><ele>190.0</ele><time>2026-04-29T14:38:05Z</time></trkpt><trkpt lat="43.649654994140406" lon="13.04554108603289"><ele>188.8</ele><time>2026-04-29T14:38:06Z</time></trkpt><trkpt lat="43.64957179473469" lon="13.045444452054578"><ele>187.6</ele><time>2026-04-29T14:38:07Z</time></trkpt><trkpt lat="43.649488153849674" lon="13.045360238934924"><ele>186.39999999999998</ele><time>2026-04-29T14:38:08Z</time></trkpt><trkpt lat="43.649414347072806" lon="13.045286379303974"><ele>185.2</ele><time>2026-04-29T14:38:09Z</time></trkpt><trkpt lat="43.64932859828" lon="13.045198032447246"><ele>184.0</ele><time>2026-04-29T14:38:10Z</time></trkpt><trkpt lat="43.64926007435915" lon="13.045147861811746"><ele>184.0</ele><time>2026-04-29T14:38:11Z</time></trkpt><trkpt lat="43.64916953701821" lon="13.04517828395488"><ele>184.0</ele><time>2026-04-29T14:38:13Z</time></trkpt><trkpt lat="43.64912686780979" lon="13.045261259234694"><ele>184.0</ele><time>2026-04-29T14:38:14Z</time></trkpt><trkpt lat="43.649075126823064" lon="13.045356961225544"><ele>184.0</ele><time>2026-04-29T14:38:15Z</time></trkpt><trkpt lat="43.6490207503732" lon="13.045478168495073"><ele>184.0</ele><time>2026-04-29T14:38:16Z</time></trkpt><trkpt lat="43.64896519067353" lon="13.045613631394742"><ele>184.0</ele><time>2026-04-29T14:38:17Z</time></trkpt><trkpt lat="43.648917318071" lon="13.045767297931619"><ele>184.0</ele><time>2026-04-29T14:38:18Z</time></trkpt><trkpt lat="43.648871018864774" lon="13.045919778568077"><ele>184.0</ele><time>2026-04-29T14:38:19Z</time></trkpt><trkpt lat="43.64883501189007" lon="13.046101826159507"><ele>184.0</ele><time>2026-04-29T14:38:20Z</time></trkpt><trkpt lat="43.64879392414638" lon="13.046277737162388"><ele>182.0</ele><time>2026-04-29T14:38:21Z</time></trkpt><trkpt lat="43.648747928130966" lon="13.046462861268836"><ele>180.0</ele><time>2026-04-29T14:38:22Z</time></trkpt><trkpt lat="43.648702262395396" lon="13.046650739561082"><ele>178.0</ele><time>2026-04-29T14:38:23Z</time></trkpt><trkpt lat="43.64865187169036" lon="13.046844831936937"><ele>176.0</ele><time>2026-04-29T14:38:24Z</time></trkpt><trkpt lat="43.64858778177279" lon="13.047036181617033"><ele>176.0</ele><time>2026-04-29T14:38:25Z</time></trkpt><trkpt lat="43.64853712020642" lon="13.04722743919276"><ele>176.0</ele><time>2026-04-29T14:38:26Z</time></trkpt><trkpt lat="43.648491780392334" lon="13.047408849404867"><ele>176.0</ele><time>2026-04-29T14:38:27Z</time></trkpt><trkpt lat="43.64845104964029" lon="13.047574126748096"><ele>176.0</ele><time>2026-04-29T14:38:28Z</time></trkpt><trkpt lat="43.64841399075269" lon="13.04770984395305"><ele>175.8</ele><time>2026-04-29T14:38:29Z</time></trkpt><trkpt lat="43.64838612409347" lon="13.04782707134572"><ele>175.60000000000002</ele><time>2026-04-29T14:38:30Z</time></trkpt><trkpt lat="43.6483828248747" lon="13.047954074304053"><ele>175.4</ele><time>2026-04-29T14:38:31Z</time></trkpt><trkpt lat="43.64841141897141" lon="13.048073324552261"><ele>175.2</ele><time>2026-04-29T14:38:32Z</time></trkpt><trkpt lat="43.6484545075243" lon="13.04822944067814"><ele>175.0</ele><time>2026-04-29T14:38:33Z</time></trkpt><trkpt lat="43.6484868589041" lon="13.048389313680657"><ele>174.2</ele><time>2026-04-29T14:38:34Z</time></trkpt><trkpt lat="43.648503718253096" lon="13.04854377009626"><ele>173.4</ele><time>2026-04-29T14:38:35Z</time></trkpt><trkpt lat="43.64853724542531" lon="13.048659267547539"><ele>172.60000000000002</ele><time>2026-04-29T14:38:36Z</time></trkpt><trkpt lat="43.648561715169215" lon="13.048785181927894"><ele>171.8</ele><time>2026-04-29T14:38:37Z</time></trkpt><trkpt lat="43.64859159112957" lon="13.048935776498537"><ele>171.0</ele><time>2026-04-29T14:38:38Z</time></trkpt><trkpt lat="43.64862440488094" lon="13.049069253929968"><ele>170.83333333333334</ele><time>2026-04-29T14:38:39Z</time></trkpt><trkpt lat="43.648650358281046" lon="13.049170006082662"><ele>170.66666666666666</ele><time>2026-04-29T14:38:40Z</time></trkpt><trkpt lat="43.64865042461403" lon="13.049333004120726"><ele>170.5</ele><time>2026-04-29T14:38:42Z</time></trkpt><trkpt lat="43.64862071590278" lon="13.049412998723248"><ele>170.33333333333331</ele><time>2026-04-29T14:38:43Z</time></trkpt><trkpt lat="43.648557451451175" lon="13.049492942455176"><ele>170.16666666666666</ele><time>2026-04-29T14:38:44Z</time></trkpt><trkpt lat="43.648485093596854" lon="13.049584620535432"><ele>170.0</ele><time>2026-04-29T14:38:45Z</time></trkpt><trkpt lat="43.648400226710606" lon="13.049627731966295"><ele>169.0</ele><time>2026-04-29T14:38:46Z</time></trkpt><trkpt lat="43.64833401655479" lon="13.04971404392494"><ele>168.0</ele><time>2026-04-29T14:38:47Z</time></trkpt><trkpt lat="43.648285270715" lon="13.049772845637317"><ele>167.0</ele><time>2026-04-29T14:38:48Z</time></trkpt><trkpt lat="43.64823268941551" lon="13.049835778740439"><ele>166.0</ele><time>2026-04-29T14:38:49Z</time></trkpt><trkpt lat="43.64815188241386" lon="13.049931722792213"><ele>165.0</ele><time>2026-04-29T14:38:51Z</time></trkpt><trkpt lat="43.64807669900365" lon="13.049937456686813"><ele>164.0</ele><time>2026-04-29T14:38:54Z</time></trkpt><trkpt lat="43.64800525794378" lon="13.04992047265926"><ele>164.0</ele><time>2026-04-29T14:38:56Z</time></trkpt><trkpt lat="43.647999688585884" lon="13.049804500438794"><ele>164.0</ele><time>2026-04-29T14:38:58Z</time></trkpt><trkpt lat="43.64795604065616" lon="13.049718546603208"><ele>164.0</ele><time>2026-04-29T14:39:00Z</time></trkpt><trkpt lat="43.647967873361054" lon="13.049614918422188"><ele>164.0</ele><time>2026-04-29T14:39:03Z</time></trkpt><trkpt lat="43.64786545283975" lon="13.049567522694593"><ele>164.0</ele><time>2026-04-29T14:39:04Z</time></trkpt><trkpt lat="43.64780492395709" lon="13.049464018524075"><ele>164.0</ele><time>2026-04-29T14:39:06Z</time></trkpt><trkpt lat="43.6477359490539" lon="13.049346075873071"><ele>162.33333333333331</ele><time>2026-04-29T14:39:08Z</time></trkpt><trkpt lat="43.6476551506147" lon="13.049208657470887"><ele>160.66666666666666</ele><time>2026-04-29T14:39:10Z</time></trkpt><trkpt lat="43.647608834204405" lon="13.049141368259747"><ele>159.0</ele><time>2026-04-29T14:39:10.999Z</time></trkpt><trkpt lat="43.64756404224437" lon="13.049067705006781"><ele>157.33333333333334</ele><time>2026-04-29T14:39:11.999Z</time></trkpt><trkpt lat="43.647520345012644" lon="13.049001216438082"><ele>155.66666666666669</ele><time>2026-04-29T14:39:12.999Z</time></trkpt><trkpt lat="43.64747054663768" lon="13.048936932895339"><ele>154.0</ele><time>2026-04-29T14:39:13.999Z</time></trkpt><trkpt lat="43.6474123055029" lon="13.048861915867365"><ele>153.6</ele><time>2026-04-29T14:39:14.999Z</time></trkpt><trkpt lat="43.647351063193554" lon="13.048785793215664"><ele>153.2</ele><time>2026-04-29T14:39:15.999Z</time></trkpt><trkpt lat="43.64728543031217" lon="13.04870628437629"><ele>152.79999999999998</ele><time>2026-04-29T14:39:16.999Z</time></trkpt><trkpt lat="43.64720329862147" lon="13.048611752865403"><ele>152.4</ele><time>2026-04-29T14:39:17.999Z</time></trkpt><trkpt lat="43.64712186077221" lon="13.048519234651152"><ele>152.0</ele><time>2026-04-29T14:39:18.999Z</time></trkpt><trkpt lat="43.64702808089415" lon="13.04843789632588"><ele>149.2</ele><time>2026-04-29T14:39:19.999Z</time></trkpt><trkpt lat="43.646950693377065" lon="13.048348976193623"><ele>146.39999999999998</ele><time>2026-04-29T14:39:20.999Z</time></trkpt><trkpt lat="43.646872539815746" lon="13.048241296793337"><ele>143.60000000000002</ele><time>2026-04-29T14:39:21.999Z</time></trkpt><trkpt lat="43.64679580142015" lon="13.048144346834185"><ele>140.8</ele><time>2026-04-29T14:39:23Z</time></trkpt><trkpt lat="43.646720495968594" lon="13.048052900512447"><ele>138.0</ele><time>2026-04-29T14:39:24Z</time></trkpt><trkpt lat="43.6466538477583" lon="13.047952451842574"><ele>137.20000000000002</ele><time>2026-04-29T14:39:25Z</time></trkpt><trkpt lat="43.64656334130707" lon="13.047868286357172"><ele>136.4</ele><time>2026-04-29T14:39:26Z</time></trkpt><trkpt lat="43.64647142195806" lon="13.04778873252988"><ele>135.60000000000002</ele><time>2026-04-29T14:39:27Z</time></trkpt><trkpt lat="43.64636891690314" lon="13.047728809012122"><ele>134.8</ele><time>2026-04-29T14:39:28Z</time></trkpt><trkpt lat="43.64627665540342" lon="13.04764121944164"><ele>134.0</ele><time>2026-04-29T14:39:29Z</time></trkpt><trkpt lat="43.64618872469744" lon="13.047555529579093"><ele>130.6</ele><time>2026-04-29T14:39:30Z</time></trkpt><trkpt lat="43.64612076970168" lon="13.047457057658525"><ele>127.2</ele><time>2026-04-29T14:39:31Z</time></trkpt><trkpt lat="43.64605695206345" lon="13.047348209484701"><ele>123.79999999999998</ele><time>2026-04-29T14:39:32Z</time></trkpt><trkpt lat="43.64600731843393" lon="13.047256309563377"><ele>120.39999999999999</ele><time>2026-04-29T14:39:33Z</time></trkpt><trkpt lat="43.64595556662737" lon="13.047168616173709"><ele>117.0</ele><time>2026-04-29T14:39:34Z</time></trkpt><trkpt lat="43.645918799946735" lon="13.047056439430229"><ele>117.0</ele><time>2026-04-29T14:39:35Z</time></trkpt><trkpt lat="43.64586333131357" lon="13.04694116263562"><ele>117.0</ele><time>2026-04-29T14:39:36Z</time></trkpt><trkpt lat="43.64579581482652" lon="13.046800806502894"><ele>117.0</ele><time>2026-04-29T14:39:37Z</time></trkpt><trkpt lat="43.64571249602647" lon="13.046646646771917"><ele>117.0</ele><time>2026-04-29T14:39:38Z</time></trkpt><trkpt lat="43.6456139906566" lon="13.046480765908493"><ele>116.33333333333334</ele><time>2026-04-29T14:39:39Z</time></trkpt><trkpt lat="43.6455004756118" lon="13.046307747774819"><ele>115.66666666666667</ele><time>2026-04-29T14:39:40Z</time></trkpt><trkpt lat="43.645380467083456" lon="13.046143628081014"><ele>115.0</ele><time>2026-04-29T14:39:41Z</time></trkpt><trkpt lat="43.6452517863717" lon="13.046012778814935"><ele>112.0</ele><time>2026-04-29T14:39:42Z</time></trkpt><trkpt lat="43.64512036598429" lon="13.045889093174601"><ele>109.0</ele><time>2026-04-29T14:39:43Z</time></trkpt><trkpt lat="43.64497523797542" lon="13.045792325029508"><ele>106.0</ele><time>2026-04-29T14:39:44Z</time></trkpt><trkpt lat="43.64481035909173" lon="13.045708963155306"><ele>106.0</ele><time>2026-04-29T14:39:45Z</time></trkpt><trkpt lat="43.64465874110005" lon="13.045630557151416"><ele>106.0</ele><time>2026-04-29T14:39:46Z</time></trkpt><trkpt lat="43.6445125314545" lon="13.045543129019782"><ele>106.0</ele><time>2026-04-29T14:39:47Z</time></trkpt><trkpt lat="43.64436640930955" lon="13.045468280821924"><ele>107.66666666666667</ele><time>2026-04-29T14:39:48Z</time></trkpt><trkpt lat="43.6442271811995" lon="13.045379852145528"><ele>109.33333333333334</ele><time>2026-04-29T14:39:49Z</time></trkpt><trkpt lat="43.644094891113504" lon="13.04526157491809"><ele>111.0</ele><time>2026-04-29T14:39:50Z</time></trkpt><trkpt lat="43.643954400243636" lon="13.045158604713361"><ele>111.0</ele><time>2026-04-29T14:39:51Z</time></trkpt><trkpt lat="43.64380813038409" lon="13.045070883021026"><ele>111.0</ele><time>2026-04-29T14:39:52Z</time></trkpt><trkpt lat="43.64367902757347" lon="13.044964125445942"><ele>111.0</ele><time>2026-04-29T14:39:53Z</time></trkpt><trkpt lat="43.64357551805444" lon="13.044857496841608"><ele>111.0</ele><time>2026-04-29T14:39:54Z</time></trkpt><trkpt lat="43.6434906178069" lon="13.044750907165424"><ele>113.25</ele><time>2026-04-29T14:39:55Z</time></trkpt><trkpt lat="43.64340579717463" lon="13.044617184285507"><ele>115.5</ele><time>2026-04-29T14:39:56Z</time></trkpt><trkpt lat="43.64330182602227" lon="13.044503488433392"><ele>117.75</ele><time>2026-04-29T14:39:57Z</time></trkpt><trkpt lat="43.64320570724117" lon="13.044375986047289"><ele>120.0</ele><time>2026-04-29T14:39:58Z</time></trkpt><trkpt lat="43.64310927922972" lon="13.04424169298437"><ele>119.0</ele><time>2026-04-29T14:39:59Z</time></trkpt><trkpt lat="43.64299574314685" lon="13.044112006761686"><ele>118.0</ele><time>2026-04-29T14:40:00Z</time></trkpt><trkpt lat="43.64287523414842" lon="13.043977396376944"><ele>117.0</ele><time>2026-04-29T14:40:01Z</time></trkpt><trkpt lat="43.642739151205554" lon="13.043868768780467"><ele>119.66666666666666</ele><time>2026-04-29T14:40:02Z</time></trkpt><trkpt lat="43.64259012175207" lon="13.043749930291936"><ele>122.33333333333333</ele><time>2026-04-29T14:40:03Z</time></trkpt><trkpt lat="43.64244003565932" lon="13.043633813553944"><ele>125.0</ele><time>2026-04-29T14:40:04Z</time></trkpt><trkpt lat="43.64228373771078" lon="13.043523798819457"><ele>125.0</ele><time>2026-04-29T14:40:05Z</time></trkpt><trkpt lat="43.642120752945175" lon="13.043417627430749"><ele>125.0</ele><time>2026-04-29T14:40:06Z</time></trkpt><trkpt lat="43.64196599600091" lon="13.043314857709527"><ele>125.0</ele><time>2026-04-29T14:40:07Z</time></trkpt><trkpt lat="43.64180931759023" lon="13.043212270233928"><ele>127.0</ele><time>2026-04-29T14:40:08Z</time></trkpt><trkpt lat="43.64167029731819" lon="13.043125825453815"><ele>129.0</ele><time>2026-04-29T14:40:09Z</time></trkpt><trkpt lat="43.641528567480215" lon="13.043058702159044"><ele>131.0</ele><time>2026-04-29T14:40:10Z</time></trkpt><trkpt lat="43.64138901728081" lon="13.04303213238705"><ele>133.0</ele><time>2026-04-29T14:40:11Z</time></trkpt><trkpt lat="43.64124901687698" lon="13.043041882862854"><ele>136.5</ele><time>2026-04-29T14:40:12Z</time></trkpt><trkpt lat="43.64111228201404" lon="13.0430614202727"><ele>140.0</ele><time>2026-04-29T14:40:13Z</time></trkpt><trkpt lat="43.64098550585089" lon="13.043064387366048"><ele>143.5</ele><time>2026-04-29T14:40:14Z</time></trkpt><trkpt lat="43.64087821137553" lon="13.043039000507845"><ele>147.0</ele><time>2026-04-29T14:40:15Z</time></trkpt><trkpt lat="43.64077967403059" lon="13.042983955065937"><ele>147.0</ele><time>2026-04-29T14:40:16Z</time></trkpt><trkpt lat="43.640674884952354" lon="13.042903362345083"><ele>147.0</ele><time>2026-04-29T14:40:17Z</time></trkpt><trkpt lat="43.64055968132306" lon="13.042798068003213"><ele>147.0</ele><time>2026-04-29T14:40:18Z</time></trkpt><trkpt lat="43.640432932038806" lon="13.042668165419142"><ele>147.0</ele><time>2026-04-29T14:40:19Z</time></trkpt><trkpt lat="43.640308538507036" lon="13.042544747185918"><ele>149.75</ele><time>2026-04-29T14:40:20Z</time></trkpt><trkpt lat="43.64018785267033" lon="13.042428502318229"><ele>152.5</ele><time>2026-04-29T14:40:21Z</time></trkpt><trkpt lat="43.64006457222101" lon="13.042321265113042"><ele>155.25</ele><time>2026-04-29T14:40:22Z</time></trkpt><trkpt lat="43.639941213740606" lon="13.042214607609266"><ele>158.0</ele><time>2026-04-29T14:40:23Z</time></trkpt><trkpt lat="43.639813869738376" lon="13.042115734227725"><ele>158.0</ele><time>2026-04-29T14:40:24Z</time></trkpt><trkpt lat="43.63969613221262" lon="13.04201035243245"><ele>158.0</ele><time>2026-04-29T14:40:25Z</time></trkpt><trkpt lat="43.63959445537201" lon="13.041913664267279"><ele>158.0</ele><time>2026-04-29T14:40:26Z</time></trkpt><trkpt lat="43.63952586515142" lon="13.041823230121652"><ele>158.0</ele><time>2026-04-29T14:40:27Z</time></trkpt><trkpt lat="43.63946705890355" lon="13.041752305842264"><ele>158.0</ele><time>2026-04-29T14:40:28Z</time></trkpt><trkpt lat="43.639421936757785" lon="13.04167303823881"><ele>158.8</ele><time>2026-04-29T14:40:29Z</time></trkpt><trkpt lat="43.63939892321093" lon="13.041587392283198"><ele>159.60000000000002</ele><time>2026-04-29T14:40:30Z</time></trkpt><trkpt lat="43.63942535359861" lon="13.041427657899662"><ele>160.39999999999998</ele><time>2026-04-29T14:40:32Z</time></trkpt><trkpt lat="43.639445914478515" lon="13.04129341410016"><ele>161.2</ele><time>2026-04-29T14:40:33Z</time></trkpt><trkpt lat="43.63947360779935" lon="13.04116114510617"><ele>162.0</ele><time>2026-04-29T14:40:34Z</time></trkpt><trkpt lat="43.63948487012432" lon="13.041035192988547"><ele>162.0</ele><time>2026-04-29T14:40:35Z</time></trkpt><trkpt lat="43.6394729877181" lon="13.040929528542666"><ele>162.0</ele><time>2026-04-29T14:40:36Z</time></trkpt><trkpt lat="43.63943797156181" lon="13.040830614441377"><ele>162.0</ele><time>2026-04-29T14:40:37Z</time></trkpt><trkpt lat="43.63938181256426" lon="13.040741324258395"><ele>162.0</ele><time>2026-04-29T14:40:38Z</time></trkpt><trkpt lat="43.639303572442444" lon="13.040658967360667"><ele>162.0</ele><time>2026-04-29T14:40:39Z</time></trkpt><trkpt lat="43.63921847273504" lon="13.04057369374915"><ele>162.0</ele><time>2026-04-29T14:40:40Z</time></trkpt><trkpt lat="43.6391334011228" lon="13.040481628727724"><ele>164.2</ele><time>2026-04-29T14:40:41Z</time></trkpt><trkpt lat="43.639045694766345" lon="13.040379482283454"><ele>166.39999999999998</ele><time>2026-04-29T14:40:42Z</time></trkpt><trkpt lat="43.638957875471704" lon="13.040272121106886"><ele>168.60000000000002</ele><time>2026-04-29T14:40:43Z</time></trkpt><trkpt lat="43.63888334328709" lon="13.04017641981021"><ele>170.8</ele><time>2026-04-29T14:40:44Z</time></trkpt><trkpt lat="43.63882934563972" lon="13.040113171350367"><ele>173.0</ele><time>2026-04-29T14:40:45Z</time></trkpt><trkpt lat="43.63874164754719" lon="13.040085274903515"><ele>173.0</ele><time>2026-04-29T14:40:49Z</time></trkpt><trkpt lat="43.638662879086084" lon="13.04009284366381"><ele>173.0</ele><time>2026-04-29T14:40:51Z</time></trkpt><trkpt lat="43.63856683504624" lon="13.040062784033124"><ele>173.0</ele><time>2026-04-29T14:40:53Z</time></trkpt><trkpt lat="43.63846215548453" lon="13.040014641751092"><ele>173.0</ele><time>2026-04-29T14:40:55Z</time></trkpt><trkpt lat="43.63839497335002" lon="13.040002347950864"><ele>173.0</ele><time>2026-04-29T14:40:56Z</time></trkpt><trkpt lat="43.63833109985904" lon="13.039962122843791"><ele>173.0</ele><time>2026-04-29T14:40:57Z</time></trkpt><trkpt lat="43.63826620167746" lon="13.039914638266517"><ele>173.16666666666666</ele><time>2026-04-29T14:40:58Z</time></trkpt><trkpt lat="43.638199438491164" lon="13.039857018342104"><ele>173.33333333333331</ele><time>2026-04-29T14:40:59Z</time></trkpt><trkpt lat="43.63813337032315" lon="13.039792557526091"><ele>173.5</ele><time>2026-04-29T14:41:00Z</time></trkpt><trkpt lat="43.638062441865934" lon="13.039732091930736"><ele>173.66666666666666</ele><time>2026-04-29T14:41:01Z</time></trkpt><trkpt lat="43.63798585552194" lon="13.039673247189093"><ele>173.83333333333334</ele><time>2026-04-29T14:41:02Z</time></trkpt><trkpt lat="43.63791049482414" lon="13.039612175734952"><ele>174.0</ele><time>2026-04-29T14:41:03Z</time></trkpt><trkpt lat="43.63783658998383" lon="13.039548627037213"><ele>172.66666666666666</ele><time>2026-04-29T14:41:04Z</time></trkpt><trkpt lat="43.63777100463786" lon="13.039470405187819"><ele>171.33333333333334</ele><time>2026-04-29T14:41:05Z</time></trkpt><trkpt lat="43.637717415980426" lon="13.039374432192043"><ele>170.0</ele><time>2026-04-29T14:41:06Z</time></trkpt><trkpt lat="43.637679454427094" lon="13.039263477726076"><ele>168.66666666666669</ele><time>2026-04-29T14:41:07Z</time></trkpt><trkpt lat="43.6376566792829" lon="13.039146411906884"><ele>167.33333333333334</ele><time>2026-04-29T14:41:07.999Z</time></trkpt><trkpt lat="43.63764221289177" lon="13.039036213464353"><ele>166.0</ele><time>2026-04-29T14:41:08.999Z</time></trkpt><trkpt lat="43.6376083026037" lon="13.038920936088154"><ele>164.8</ele><time>2026-04-29T14:41:09.999Z</time></trkpt><trkpt lat="43.63755740681556" lon="13.03880919403661"><ele>163.60000000000002</ele><time>2026-04-29T14:41:10.999Z</time></trkpt><trkpt lat="43.637490855836276" lon="13.038707974277465"><ele>162.4</ele><time>2026-04-29T14:41:11.999Z</time></trkpt><trkpt lat="43.637419119062585" lon="13.038604625142325"><ele>161.2</ele><time>2026-04-29T14:41:12.999Z</time></trkpt><trkpt lat="43.6373430965417" lon="13.038502997024809"><ele>160.0</ele><time>2026-04-29T14:41:13.999Z</time></trkpt><trkpt lat="43.637264248831364" lon="13.038403479641238"><ele>160.0</ele><time>2026-04-29T14:41:14.999Z</time></trkpt><trkpt lat="43.63718124710455" lon="13.038302611595816"><ele>160.0</ele><time>2026-04-29T14:41:15.999Z</time></trkpt><trkpt lat="43.63709715053982" lon="13.038199751326578"><ele>160.0</ele><time>2026-04-29T14:41:16.999Z</time></trkpt><trkpt lat="43.63701703284551" lon="13.038097554252653"><ele>160.0</ele><time>2026-04-29T14:41:17.999Z</time></trkpt><trkpt lat="43.63693712379013" lon="13.037985027038115"><ele>160.0</ele><time>2026-04-29T14:41:18.999Z</time></trkpt><trkpt lat="43.6368571761655" lon="13.037862866740856"><ele>155.75</ele><time>2026-04-29T14:41:19.999Z</time></trkpt><trkpt lat="43.636786762912195" lon="13.037730580001854"><ele>151.5</ele><time>2026-04-29T14:41:20.999Z</time></trkpt><trkpt lat="43.636716340993786" lon="13.037589960340828"><ele>147.25</ele><time>2026-04-29T14:41:21.999Z</time></trkpt><trkpt lat="43.63665206816278" lon="13.03744097511814"><ele>143.0</ele><time>2026-04-29T14:41:22.999Z</time></trkpt><trkpt lat="43.636585458508854" lon="13.037292290062267"><ele>143.0</ele><time>2026-04-29T14:41:23.999Z</time></trkpt><trkpt lat="43.63650990972314" lon="13.037151389776227"><ele>143.0</ele><time>2026-04-29T14:41:24.999Z</time></trkpt><trkpt lat="43.636431316238635" lon="13.037014194080587"><ele>143.0</ele><time>2026-04-29T14:41:25.999Z</time></trkpt><trkpt lat="43.63634596157287" lon="13.036889875306478"><ele>143.0</ele><time>2026-04-29T14:41:26.999Z</time></trkpt><trkpt lat="43.63626111345033" lon="13.036767118264558"><ele>143.0</ele><time>2026-04-29T14:41:27.999Z</time></trkpt><trkpt lat="43.63616980621614" lon="13.036649006147332"><ele>143.0</ele><time>2026-04-29T14:41:29Z</time></trkpt><trkpt lat="43.63608167289499" lon="13.036530445939096"><ele>143.0</ele><time>2026-04-29T14:41:30Z</time></trkpt><trkpt lat="43.63599230567225" lon="13.036412399601787"><ele>143.0</ele><time>2026-04-29T14:41:31Z</time></trkpt><trkpt lat="43.635902958476194" lon="13.036291555954"><ele>143.25</ele><time>2026-04-29T14:41:32Z</time></trkpt><trkpt lat="43.635812696964685" lon="13.036167011500691"><ele>143.5</ele><time>2026-04-29T14:41:33Z</time></trkpt><trkpt lat="43.6357246545462" lon="13.036044197212785"><ele>143.75</ele><time>2026-04-29T14:41:34Z</time></trkpt><trkpt lat="43.635637728532835" lon="13.035924250436164"><ele>144.0</ele><time>2026-04-29T14:41:35Z</time></trkpt><trkpt lat="43.63555611279253" lon="13.035801906153303"><ele>144.0</ele><time>2026-04-29T14:41:36Z</time></trkpt><trkpt lat="43.63548354011545" lon="13.035678192401953"><ele>144.0</ele><time>2026-04-29T14:41:37Z</time></trkpt><trkpt lat="43.63543255125838" lon="13.035539660549778"><ele>144.0</ele><time>2026-04-29T14:41:38Z</time></trkpt><trkpt lat="43.63535501755236" lon="13.035425276125828"><ele>144.0</ele><time>2026-04-29T14:41:39Z</time></trkpt><trkpt lat="43.635246863100456" lon="13.035354137652078"><ele>141.5</ele><time>2026-04-29T14:41:40Z</time></trkpt><trkpt lat="43.635137514429644" lon="13.035285113289152"><ele>139.0</ele><time>2026-04-29T14:41:41Z</time></trkpt><trkpt lat="43.635023005840594" lon="13.035238819030614"><ele>136.5</ele><time>2026-04-29T14:41:42Z</time></trkpt><trkpt lat="43.634911634330976" lon="13.03517498400166"><ele>134.0</ele><time>2026-04-29T14:41:43Z</time></trkpt><trkpt lat="43.634797859012814" lon="13.035129937500685"><ele>134.0</ele><time>2026-04-29T14:41:44Z</time></trkpt><trkpt lat="43.63468061107431" lon="13.035083515970019"><ele>134.0</ele><time>2026-04-29T14:41:45Z</time></trkpt><trkpt lat="43.634561405769276" lon="13.035037551968287"><ele>134.0</ele><time>2026-04-29T14:41:46Z</time></trkpt><trkpt lat="43.63444336941087" lon="13.034995366240038"><ele>134.0</ele><time>2026-04-29T14:41:47Z</time></trkpt><trkpt lat="43.63432193053227" lon="13.034954770962916"><ele>134.0</ele><time>2026-04-29T14:41:48Z</time></trkpt><trkpt lat="43.634202307088245" lon="13.034915306224141"><ele>134.0</ele><time>2026-04-29T14:41:49Z</time></trkpt><trkpt lat="43.634082340168995" lon="13.034875728182016"><ele>134.0</ele><time>2026-04-29T14:41:50Z</time></trkpt><trkpt lat="43.63396995909092" lon="13.034836186894355"><ele>134.0</ele><time>2026-04-29T14:41:51Z</time></trkpt><trkpt lat="43.633862938779664" lon="13.034797748864056"><ele>134.0</ele><time>2026-04-29T14:41:52Z</time></trkpt><trkpt lat="43.63374761473188" lon="13.034756328352405"><ele>134.0</ele><time>2026-04-29T14:41:53Z</time></trkpt><trkpt lat="43.63363144693395" lon="13.034720630282441"><ele>134.0</ele><time>2026-04-29T14:41:54Z</time></trkpt><trkpt lat="43.633513053375026" lon="13.034700674034033"><ele>134.0</ele><time>2026-04-29T14:41:55Z</time></trkpt><trkpt lat="43.63339918904696" lon="13.034685138061679"><ele>131.6</ele><time>2026-04-29T14:41:56Z</time></trkpt><trkpt lat="43.63328625366749" lon="13.034677488483268"><ele>129.2</ele><time>2026-04-29T14:41:57Z</time></trkpt><trkpt lat="43.63317970786255" lon="13.034649309975071"><ele>126.79999999999998</ele><time>2026-04-29T14:41:58Z</time></trkpt><trkpt lat="43.63307223999033" lon="13.034607880135468"><ele>124.39999999999999</ele><time>2026-04-29T14:41:59Z</time></trkpt><trkpt lat="43.63296682143726" lon="13.034552833074489"><ele>122.0</ele><time>2026-04-29T14:42:00Z</time></trkpt><trkpt lat="43.63286481073706" lon="13.034485538194257"><ele>120.19999999999999</ele><time>2026-04-29T14:42:01Z</time></trkpt><trkpt lat="43.63276445879377" lon="13.03441584863877"><ele>118.39999999999999</ele><time>2026-04-29T14:42:02Z</time></trkpt><trkpt lat="43.63267101456788" lon="13.034354241935876"><ele>116.60000000000001</ele><time>2026-04-29T14:42:03Z</time></trkpt><trkpt lat="43.6325674544958" lon="13.03429540216996"><ele>114.80000000000001</ele><time>2026-04-29T14:42:04Z</time></trkpt><trkpt lat="43.63246285571327" lon="13.034229857596904"><ele>113.0</ele><time>2026-04-29T14:42:05Z</time></trkpt><trkpt lat="43.63235805205017" lon="13.034152909563616"><ele>112.5</ele><time>2026-04-29T14:42:06Z</time></trkpt><trkpt lat="43.632256714084896" lon="13.034066096395184"><ele>112.0</ele><time>2026-04-29T14:42:07Z</time></trkpt><trkpt lat="43.63215860494142" lon="13.033969429437487"><ele>111.5</ele><time>2026-04-29T14:42:08Z</time></trkpt><trkpt lat="43.63206230361092" lon="13.033865878509456"><ele>111.0</ele><time>2026-04-29T14:42:09Z</time></trkpt><trkpt lat="43.63196704534126" lon="13.03375990616781"><ele>111.0</ele><time>2026-04-29T14:42:10Z</time></trkpt><trkpt lat="43.63187249478593" lon="13.033661588372569"><ele>111.0</ele><time>2026-04-29T14:42:11Z</time></trkpt><trkpt lat="43.63177663818424" lon="13.033567802020334"><ele>111.0</ele><time>2026-04-29T14:42:12Z</time></trkpt><trkpt lat="43.63167659374136" lon="13.03347303395671"><ele>111.0</ele><time>2026-04-29T14:42:13Z</time></trkpt><trkpt lat="43.63157938322054" lon="13.033371209538272"><ele>113.0</ele><time>2026-04-29T14:42:14Z</time></trkpt><trkpt lat="43.631476154127746" lon="13.03326117923172"><ele>115.0</ele><time>2026-04-29T14:42:15Z</time></trkpt><trkpt lat="43.63136715597722" lon="13.033131625691235"><ele>117.0</ele><time>2026-04-29T14:42:16Z</time></trkpt><trkpt lat="43.63126538562806" lon="13.033020339994945"><ele>119.0</ele><time>2026-04-29T14:42:17Z</time></trkpt><trkpt lat="43.63117505515094" lon="13.03291534270171"><ele>115.75</ele><time>2026-04-29T14:42:18Z</time></trkpt><trkpt lat="43.631081994937375" lon="13.032825846222662"><ele>112.5</ele><time>2026-04-29T14:42:19Z</time></trkpt><trkpt lat="43.63098173373496" lon="13.03272216683797"><ele>109.25</ele><time>2026-04-29T14:42:20Z</time></trkpt><trkpt lat="43.63086893494825" lon="13.032672241878917"><ele>106.0</ele><time>2026-04-29T14:42:21Z</time></trkpt><trkpt lat="43.630765939167546" lon="13.032599113002455"><ele>106.0</ele><time>2026-04-29T14:42:22Z</time></trkpt><trkpt lat="43.63068106132271" lon="13.03251804843454"><ele>106.0</ele><time>2026-04-29T14:42:23Z</time></trkpt><trkpt lat="43.630626020324534" lon="13.032422148786425"><ele>106.0</ele><time>2026-04-29T14:42:24Z</time></trkpt><trkpt lat="43.63058636429945" lon="13.032312172364406"><ele>106.0</ele><time>2026-04-29T14:42:25Z</time></trkpt><trkpt lat="43.630534343677766" lon="13.032187850007094"><ele>106.0</ele><time>2026-04-29T14:42:26Z</time></trkpt><trkpt lat="43.63045111271437" lon="13.032036648028898"><ele>107.5</ele><time>2026-04-29T14:42:27Z</time></trkpt><trkpt lat="43.63037314745629" lon="13.031895974916544"><ele>109.0</ele><time>2026-04-29T14:42:28Z</time></trkpt><trkpt lat="43.63028292964009" lon="13.031779660310061"><ele>110.5</ele><time>2026-04-29T14:42:29Z</time></trkpt><trkpt lat="43.63018977430159" lon="13.031654158604256"><ele>112.0</ele><time>2026-04-29T14:42:30Z</time></trkpt><trkpt lat="43.63009404129071" lon="13.031526600274221"><ele>108.5</ele><time>2026-04-29T14:42:31Z</time></trkpt><trkpt lat="43.62999459940064" lon="13.031409878521588"><ele>105.0</ele><time>2026-04-29T14:42:32Z</time></trkpt><trkpt lat="43.62989330141501" lon="13.031299195254293"><ele>101.5</ele><time>2026-04-29T14:42:33Z</time></trkpt><trkpt lat="43.6297878998441" lon="13.031194528422635"><ele>98.0</ele><time>2026-04-29T14:42:34Z</time></trkpt><trkpt lat="43.629679440529344" lon="13.031086732810595"><ele>98.0</ele><time>2026-04-29T14:42:35Z</time></trkpt><trkpt lat="43.629570331575735" lon="13.030980392874111"><ele>98.0</ele><time>2026-04-29T14:42:36Z</time></trkpt><trkpt lat="43.62947389431159" lon="13.030898780058267"><ele>98.0</ele><time>2026-04-29T14:42:37Z</time></trkpt><trkpt lat="43.62938486810604" lon="13.030830459309342"><ele>98.0</ele><time>2026-04-29T14:42:38Z</time></trkpt><trkpt lat="43.62929059594604" lon="13.030747174837815"><ele>98.5</ele><time>2026-04-29T14:42:39Z</time></trkpt><trkpt lat="43.62921684591629" lon="13.030627437332031"><ele>99.0</ele><time>2026-04-29T14:42:40Z</time></trkpt><trkpt lat="43.62915142744234" lon="13.03052493182418"><ele>99.5</ele><time>2026-04-29T14:42:41Z</time></trkpt><trkpt lat="43.62907410102475" lon="13.030406538655239"><ele>100.0</ele><time>2026-04-29T14:42:42Z</time></trkpt><trkpt lat="43.62897462164358" lon="13.030280372496193"><ele>100.0</ele><time>2026-04-29T14:42:43Z</time></trkpt><trkpt lat="43.628875151757036" lon="13.030129675417946"><ele>100.0</ele><time>2026-04-29T14:42:44Z</time></trkpt><trkpt lat="43.6287787504018" lon="13.029965607858363"><ele>100.0</ele><time>2026-04-29T14:42:45Z</time></trkpt><trkpt lat="43.62868213229442" lon="13.0297915004464"><ele>101.25</ele><time>2026-04-29T14:42:46Z</time></trkpt><trkpt lat="43.62861328140239" lon="13.029629780143514"><ele>102.5</ele><time>2026-04-29T14:42:47Z</time></trkpt><trkpt lat="43.628557946618216" lon="13.029482030266111"><ele>103.75</ele><time>2026-04-29T14:42:48Z</time></trkpt><trkpt lat="43.62851496931299" lon="13.02930564177455"><ele>105.0</ele><time>2026-04-29T14:42:49Z</time></trkpt><trkpt lat="43.62847808730859" lon="13.029101141616602"><ele>105.0</ele><time>2026-04-29T14:42:50Z</time></trkpt><trkpt lat="43.628458272545906" lon="13.028930051199959"><ele>105.0</ele><time>2026-04-29T14:42:51Z</time></trkpt><trkpt lat="43.62843301254664" lon="13.028796886216664"><ele>105.0</ele><time>2026-04-29T14:42:52Z</time></trkpt><trkpt lat="43.62839777808992" lon="13.028679952961843"><ele>105.0</ele><time>2026-04-29T14:42:53Z</time></trkpt><trkpt lat="43.62836068101874" lon="13.028561423962566"><ele>105.0</ele><time>2026-04-29T14:42:54Z</time></trkpt><trkpt lat="43.62826950137475" lon="13.028439149413233"><ele>105.25</ele><time>2026-04-29T14:42:55Z</time></trkpt><trkpt lat="43.62818037058932" lon="13.028282536226621"><ele>105.5</ele><time>2026-04-29T14:42:56Z</time></trkpt><trkpt lat="43.62810500128109" lon="13.028154105664633"><ele>105.75</ele><time>2026-04-29T14:42:57Z</time></trkpt><trkpt lat="43.62803228924023" lon="13.028052225840652"><ele>106.0</ele><time>2026-04-29T14:42:58Z</time></trkpt><trkpt lat="43.62795487608581" lon="13.027957695249434"><ele>106.00000000000001</ele><time>2026-04-29T14:42:59Z</time></trkpt><trkpt lat="43.62788674590445" lon="13.027872074723797"><ele>106.0</ele><time>2026-04-29T14:43:00Z</time></trkpt><trkpt lat="43.627828668010565" lon="13.027796981522854"><ele>106.0</ele><time>2026-04-29T14:43:01Z</time></trkpt><trkpt lat="43.62779826764545" lon="13.027710035892563"><ele>106.0</ele><time>2026-04-29T14:43:02Z</time></trkpt><trkpt lat="43.62782745063023" lon="13.027615981222974"><ele>106.00000000000001</ele><time>2026-04-29T14:43:03Z</time></trkpt><trkpt lat="43.62786081109862" lon="13.027537050800992"><ele>106.0</ele><time>2026-04-29T14:43:04Z</time></trkpt><trkpt lat="43.627917318093544" lon="13.027476346591255"><ele>108.4</ele><time>2026-04-29T14:43:05Z</time></trkpt><trkpt lat="43.62800680761383" lon="13.027427136255787"><ele>110.8</ele><time>2026-04-29T14:43:05.999Z</time></trkpt><trkpt lat="43.628137683598396" lon="13.027349319869753"><ele>113.20000000000002</ele><time>2026-04-29T14:43:06.999Z</time></trkpt><trkpt lat="43.62822740146218" lon="13.02729702766433"><ele>115.60000000000001</ele><time>2026-04-29T14:43:07.999Z</time></trkpt><trkpt lat="43.6283075105447" lon="13.027239357724254"><ele>118.0</ele><time>2026-04-29T14:43:08.999Z</time></trkpt><trkpt lat="43.62837764170792" lon="13.02718226260459"><ele>118.0</ele><time>2026-04-29T14:43:09.999Z</time></trkpt><trkpt lat="43.62844597339516" lon="13.027122951161507"><ele>118.00000000000001</ele><time>2026-04-29T14:43:10.999Z</time></trkpt><trkpt lat="43.62851361791237" lon="13.027046401831004"><ele>118.00000000000001</ele><time>2026-04-29T14:43:11.999Z</time></trkpt><trkpt lat="43.62857510719242" lon="13.02694665813081"><ele>118.0</ele><time>2026-04-29T14:43:12.999Z</time></trkpt><trkpt lat="43.62863142783755" lon="13.026826442673705"><ele>118.0</ele><time>2026-04-29T14:43:13.999Z</time></trkpt><trkpt lat="43.62866623688393" lon="13.026711791454094"><ele>116.80000000000001</ele><time>2026-04-29T14:43:14.999Z</time></trkpt><trkpt lat="43.628691635410384" lon="13.026572661366703"><ele>115.60000000000001</ele><time>2026-04-29T14:43:15.999Z</time></trkpt><trkpt lat="43.62871244085096" lon="13.02643824566697"><ele>114.39999999999999</ele><time>2026-04-29T14:43:16.999Z</time></trkpt><trkpt lat="43.62871802866627" lon="13.026323520998096"><ele>113.19999999999999</ele><time>2026-04-29T14:43:17.999Z</time></trkpt><trkpt lat="43.628708850928774" lon="13.02618502789263"><ele>112.0</ele><time>2026-04-29T14:43:18.999Z</time></trkpt><trkpt lat="43.628697890428775" lon="13.026008908953461"><ele>112.0</ele><time>2026-04-29T14:43:19.999Z</time></trkpt><trkpt lat="43.62868608792864" lon="13.025837096937416"><ele>111.99999999999999</ele><time>2026-04-29T14:43:20.999Z</time></trkpt><trkpt lat="43.628676449697956" lon="13.025725781333803"><ele>111.99999999999999</ele><time>2026-04-29T14:43:21.999Z</time></trkpt><trkpt lat="43.628700026455135" lon="13.025614391164225"><ele>112.0</ele><time>2026-04-29T14:43:22.999Z</time></trkpt><trkpt lat="43.62874341775182" lon="13.025449736670591"><ele>112.0</ele><time>2026-04-29T14:43:23.999Z</time></trkpt><trkpt lat="43.628802222022074" lon="13.025285471780805"><ele>113.0</ele><time>2026-04-29T14:43:24.999Z</time></trkpt><trkpt lat="43.628848364553285" lon="13.025149916172072"><ele>114.0</ele><time>2026-04-29T14:43:25.999Z</time></trkpt><trkpt lat="43.62887359320484" lon="13.025016929452946"><ele>115.0</ele><time>2026-04-29T14:43:26.999Z</time></trkpt><trkpt lat="43.62889471947161" lon="13.024853764516097"><ele>116.0</ele><time>2026-04-29T14:43:27.999Z</time></trkpt><trkpt lat="43.62892602113641" lon="13.02468752540473"><ele>117.0</ele><time>2026-04-29T14:43:28.999Z</time></trkpt><trkpt lat="43.6289665781526" lon="13.024530081139632"><ele>118.0</ele><time>2026-04-29T14:43:29.999Z</time></trkpt><trkpt lat="43.62900502275821" lon="13.024379918791004"><ele>119.0</ele><time>2026-04-29T14:43:30.999Z</time></trkpt><trkpt lat="43.62903753715006" lon="13.024237623965073"><ele>120.0</ele><time>2026-04-29T14:43:31.999Z</time></trkpt><trkpt lat="43.62906744745695" lon="13.024094660275745"><ele>120.75</ele><time>2026-04-29T14:43:32.999Z</time></trkpt><trkpt lat="43.62909897674428" lon="13.023945683676496"><ele>121.5</ele><time>2026-04-29T14:43:33.999Z</time></trkpt><trkpt lat="43.629124462605496" lon="13.023790448840964"><ele>122.25</ele><time>2026-04-29T14:43:35Z</time></trkpt><trkpt lat="43.629149106468795" lon="13.023633418029597"><ele>123.0</ele><time>2026-04-29T14:43:36Z</time></trkpt><trkpt lat="43.62916334693724" lon="13.023427453651673"><ele>124.0</ele><time>2026-04-29T14:43:37Z</time></trkpt><trkpt lat="43.62916756652314" lon="13.023225349603292"><ele>125.0</ele><time>2026-04-29T14:43:38Z</time></trkpt><trkpt lat="43.629161787458976" lon="13.023028209740934"><ele>126.0</ele><time>2026-04-29T14:43:39Z</time></trkpt><trkpt lat="43.62915074911222" lon="13.02284046706587"><ele>127.0</ele><time>2026-04-29T14:43:40Z</time></trkpt><trkpt lat="43.62912656302317" lon="13.022649395958092"><ele>128.0</ele><time>2026-04-29T14:43:41Z</time></trkpt><trkpt lat="43.629099916017935" lon="13.022464787318748"><ele>129.0</ele><time>2026-04-29T14:43:42Z</time></trkpt><trkpt lat="43.62907424077825" lon="13.022280216176553"><ele>130.0</ele><time>2026-04-29T14:43:43Z</time></trkpt><trkpt lat="43.62904599504943" lon="13.02210243657497"><ele>131.0</ele><time>2026-04-29T14:43:44Z</time></trkpt><trkpt lat="43.629012539550295" lon="13.021927809621717"><ele>131.0</ele><time>2026-04-29T14:43:45Z</time></trkpt><trkpt lat="43.628976563612895" lon="13.021768739105873"><ele>131.0</ele><time>2026-04-29T14:43:46Z</time></trkpt><trkpt lat="43.62893427970145" lon="13.021623067501704"><ele>131.0</ele><time>2026-04-29T14:43:47Z</time></trkpt><trkpt lat="43.628875151435054" lon="13.021492890090538"><ele>131.0</ele><time>2026-04-29T14:43:48Z</time></trkpt><trkpt lat="43.628807941813065" lon="13.021376649467621"><ele>131.75</ele><time>2026-04-29T14:43:49Z</time></trkpt><trkpt lat="43.62872910156523" lon="13.021262411853982"><ele>132.5</ele><time>2026-04-29T14:43:50Z</time></trkpt><trkpt lat="43.62863261457002" lon="13.021129807099129"><ele>133.25</ele><time>2026-04-29T14:43:51Z</time></trkpt><trkpt lat="43.62854422116356" lon="13.021012428809847"><ele>134.0</ele><time>2026-04-29T14:43:52Z</time></trkpt><trkpt lat="43.62845484323717" lon="13.020913635785394"><ele>135.66666666666666</ele><time>2026-04-29T14:43:53Z</time></trkpt><trkpt lat="43.62837810315584" lon="13.020830933916042"><ele>137.33333333333331</ele><time>2026-04-29T14:43:54Z</time></trkpt><trkpt lat="43.62829964345631" lon="13.02076608010219"><ele>139.0</ele><time>2026-04-29T14:43:55Z</time></trkpt><trkpt lat="43.62823339089495" lon="13.020712445084234"><ele>140.66666666666666</ele><time>2026-04-29T14:43:56Z</time></trkpt><trkpt lat="43.62815782183961" lon="13.020677036421588"><ele>142.33333333333334</ele><time>2026-04-29T14:43:57Z</time></trkpt><trkpt lat="43.628105949605285" lon="13.020624576720849"><ele>144.0</ele><time>2026-04-29T14:43:58Z</time></trkpt><trkpt lat="43.62804292544922" lon="13.020571884948703"><ele>144.6</ele><time>2026-04-29T14:43:59Z</time></trkpt><trkpt lat="43.62797794802833" lon="13.020514346048564"><ele>145.2</ele><time>2026-04-29T14:44:00Z</time></trkpt><trkpt lat="43.6278848330293" lon="13.020433199115672"><ele>145.79999999999998</ele><time>2026-04-29T14:44:01Z</time></trkpt><trkpt lat="43.627796728152745" lon="13.020347690904291"><ele>146.4</ele><time>2026-04-29T14:44:02Z</time></trkpt><trkpt lat="43.62770888182877" lon="13.020260932706506"><ele>147.0</ele><time>2026-04-29T14:44:03Z</time></trkpt><trkpt lat="43.627625832492065" lon="13.02017904843922"><ele>149.75</ele><time>2026-04-29T14:44:04Z</time></trkpt><trkpt lat="43.62754061610102" lon="13.020088785576078"><ele>152.5</ele><time>2026-04-29T14:44:05Z</time></trkpt><trkpt lat="43.627455463421555" lon="13.019980447355925"><ele>155.25</ele><time>2026-04-29T14:44:06Z</time></trkpt><trkpt lat="43.62735035495326" lon="13.01986877408116"><ele>158.0</ele><time>2026-04-29T14:44:07Z</time></trkpt><trkpt lat="43.62721479498452" lon="13.019752570961113"><ele>159.66666666666666</ele><time>2026-04-29T14:44:08Z</time></trkpt><trkpt lat="43.62707634855991" lon="13.019603486559662"><ele>161.33333333333334</ele><time>2026-04-29T14:44:09Z</time></trkpt><trkpt lat="43.626933900658" lon="13.019423301891658"><ele>163.0</ele><time>2026-04-29T14:44:10Z</time></trkpt><trkpt lat="43.626789292744284" lon="13.01928754630714"><ele>165.0</ele><time>2026-04-29T14:44:11Z</time></trkpt><trkpt lat="43.62666640577542" lon="13.019142985234863"><ele>167.0</ele><time>2026-04-29T14:44:12Z</time></trkpt><trkpt lat="43.626549507250814" lon="13.0190075601383"><ele>169.0</ele><time>2026-04-29T14:44:13Z</time></trkpt><trkpt lat="43.62644973235691" lon="13.018890358445372"><ele>171.0</ele><time>2026-04-29T14:44:14Z</time></trkpt><trkpt lat="43.62636508665528" lon="13.018768044680645"><ele>171.0</ele><time>2026-04-29T14:44:15Z</time></trkpt><trkpt lat="43.62629196402779" lon="13.018635268633652"><ele>171.0</ele><time>2026-04-29T14:44:16Z</time></trkpt><trkpt lat="43.6262189293613" lon="13.018473923063901"><ele>171.0</ele><time>2026-04-29T14:44:17Z</time></trkpt><trkpt lat="43.62613440337197" lon="13.018289473307151"><ele>171.0</ele><time>2026-04-29T14:44:18Z</time></trkpt><trkpt lat="43.62605318507473" lon="13.018113642416727"><ele>175.66666666666666</ele><time>2026-04-29T14:44:19Z</time></trkpt><trkpt lat="43.62597541941915" lon="13.017942731096687"><ele>180.33333333333331</ele><time>2026-04-29T14:44:20Z</time></trkpt><trkpt lat="43.62589200196264" lon="13.017765713963026"><ele>185.0</ele><time>2026-04-29T14:44:21Z</time></trkpt><trkpt lat="43.62580418175381" lon="13.017584028149926"><ele>186.0</ele><time>2026-04-29T14:44:22Z</time></trkpt><trkpt lat="43.625712598441716" lon="13.017400426925517"><ele>187.0</ele><time>2026-04-29T14:44:23Z</time></trkpt><trkpt lat="43.62561806723473" lon="13.017208250662184"><ele>188.0</ele><time>2026-04-29T14:44:24Z</time></trkpt><trkpt lat="43.625519535485786" lon="13.01700332217851"><ele>188.0</ele><time>2026-04-29T14:44:25Z</time></trkpt><trkpt lat="43.62542962320666" lon="13.016818185047027"><ele>188.0</ele><time>2026-04-29T14:44:26Z</time></trkpt><trkpt lat="43.625350070708464" lon="13.016670672586208"><ele>188.0</ele><time>2026-04-29T14:44:27Z</time></trkpt><trkpt lat="43.62527303888271" lon="13.016528540225409"><ele>188.0</ele><time>2026-04-29T14:44:28Z</time></trkpt><trkpt lat="43.62519419364547" lon="13.016370210086867"><ele>191.66666666666666</ele><time>2026-04-29T14:44:29Z</time></trkpt><trkpt lat="43.62510021787199" lon="13.016187925191476"><ele>195.33333333333331</ele><time>2026-04-29T14:44:30Z</time></trkpt><trkpt lat="43.62499784828211" lon="13.016004788907976"><ele>199.0</ele><time>2026-04-29T14:44:31Z</time></trkpt><trkpt lat="43.62491530989356" lon="13.015848836068113"><ele>199.75</ele><time>2026-04-29T14:44:32Z</time></trkpt><trkpt lat="43.62484344546517" lon="13.015714775500136"><ele>200.5</ele><time>2026-04-29T14:44:33Z</time></trkpt><trkpt lat="43.624772508891766" lon="13.015567538467623"><ele>201.25</ele><time>2026-04-29T14:44:34Z</time></trkpt><trkpt lat="43.62470334418713" lon="13.015426843869637"><ele>202.0</ele><time>2026-04-29T14:44:35Z</time></trkpt><trkpt lat="43.62462632964821" lon="13.015272210711922"><ele>202.0</ele><time>2026-04-29T14:44:36Z</time></trkpt><trkpt lat="43.624556580587054" lon="13.015140814352689"><ele>202.0</ele><time>2026-04-29T14:44:37Z</time></trkpt><trkpt lat="43.624495015881664" lon="13.015018097600171"><ele>202.0</ele><time>2026-04-29T14:44:38Z</time></trkpt><trkpt lat="43.62444346973841" lon="13.014921270136142"><ele>202.0</ele><time>2026-04-29T14:44:39Z</time></trkpt><trkpt lat="43.62440277407357" lon="13.014846373302497"><ele>202.0</ele><time>2026-04-29T14:44:40Z</time></trkpt><trkpt lat="43.62435488108345" lon="13.014762283811239"><ele>203.2</ele><time>2026-04-29T14:44:42Z</time></trkpt><trkpt lat="43.624373956343355" lon="13.01460965458932"><ele>204.39999999999998</ele><time>2026-04-29T14:44:45Z</time></trkpt><trkpt lat="43.624384559081214" lon="13.014506798519564"><ele>205.60000000000002</ele><time>2026-04-29T14:44:46Z</time></trkpt><trkpt lat="43.624414554447206" lon="13.014398686141451"><ele>206.8</ele><time>2026-04-29T14:44:47Z</time></trkpt><trkpt lat="43.624434312967445" lon="13.01427921960235"><ele>208.0</ele><time>2026-04-29T14:44:48Z</time></trkpt><trkpt lat="43.62445451043503" lon="13.014147083479772"><ele>207.2</ele><time>2026-04-29T14:44:49Z</time></trkpt><trkpt lat="43.62447383229103" lon="13.014016633158231"><ele>206.4</ele><time>2026-04-29T14:44:50Z</time></trkpt><trkpt lat="43.62448918614002" lon="13.013881866923931"><ele>205.6</ele><time>2026-04-29T14:44:51Z</time></trkpt><trkpt lat="43.624500607424885" lon="13.01374626390899"><ele>204.79999999999998</ele><time>2026-04-29T14:44:52Z</time></trkpt><trkpt lat="43.62450996431351" lon="13.013612337573223"><ele>204.0</ele><time>2026-04-29T14:44:53Z</time></trkpt><trkpt lat="43.62451216064828" lon="13.013475290133364"><ele>204.0</ele><time>2026-04-29T14:44:54Z</time></trkpt><trkpt lat="43.62450671419085" lon="13.01334521860953"><ele>204.0</ele><time>2026-04-29T14:44:55Z</time></trkpt><trkpt lat="43.624492512198465" lon="13.01321815997446"><ele>204.0</ele><time>2026-04-29T14:44:56Z</time></trkpt><trkpt lat="43.624463756684676" lon="13.01308429006812"><ele>204.0</ele><time>2026-04-29T14:44:57Z</time></trkpt><trkpt lat="43.62443053523027" lon="13.012941546023464"><ele>204.0</ele><time>2026-04-29T14:44:58Z</time></trkpt><trkpt lat="43.62439963062243" lon="13.012792669920579"><ele>206.25</ele><time>2026-04-29T14:44:59Z</time></trkpt><trkpt lat="43.62436718683065" lon="13.012636072432972"><ele>208.5</ele><time>2026-04-29T14:44:59.999Z</time></trkpt><trkpt lat="43.624334996105404" lon="13.012473798838212"><ele>210.75</ele><time>2026-04-29T14:45:00.999Z</time></trkpt><trkpt lat="43.62430406876753" lon="13.012303588184881"><ele>213.0</ele><time>2026-04-29T14:45:01.999Z</time></trkpt><trkpt lat="43.62427849560415" lon="13.012126431432037"><ele>213.5</ele><time>2026-04-29T14:45:02.999Z</time></trkpt><trkpt lat="43.62425796309895" lon="13.011945196980577"><ele>214.0</ele><time>2026-04-29T14:45:03.999Z</time></trkpt><trkpt lat="43.6242346035753" lon="13.011755279210144"><ele>214.5</ele><time>2026-04-29T14:45:04.999Z</time></trkpt><trkpt lat="43.62420856081983" lon="13.011561638854591"><ele>215.0</ele><time>2026-04-29T14:45:05.999Z</time></trkpt><trkpt lat="43.624179748474326" lon="13.011360540955824"><ele>215.5</ele><time>2026-04-29T14:45:06.999Z</time></trkpt><trkpt lat="43.62414947454819" lon="13.011157760108896"><ele>216.0</ele><time>2026-04-29T14:45:07.999Z</time></trkpt><trkpt lat="43.62412208490865" lon="13.010958484922828"><ele>216.5</ele><time>2026-04-29T14:45:08.999Z</time></trkpt><trkpt lat="43.62409515529907" lon="13.010760526516883"><ele>217.0</ele><time>2026-04-29T14:45:09.999Z</time></trkpt><trkpt lat="43.62407183816304" lon="13.010547539353723"><ele>217.0</ele><time>2026-04-29T14:45:10.999Z</time></trkpt><trkpt lat="43.62404464243338" lon="13.010337883415911"><ele>217.0</ele><time>2026-04-29T14:45:11.999Z</time></trkpt><trkpt lat="43.62401406687206" lon="13.01012651030892"><ele>217.0</ele><time>2026-04-29T14:45:12.999Z</time></trkpt><trkpt lat="43.62397780971238" lon="13.009906847316559"><ele>217.33333333333331</ele><time>2026-04-29T14:45:13.999Z</time></trkpt><trkpt lat="43.62394051152522" lon="13.009688356172996"><ele>217.66666666666669</ele><time>2026-04-29T14:45:14.999Z</time></trkpt><trkpt lat="43.62389207014781" lon="13.009475381488459"><ele>218.0</ele><time>2026-04-29T14:45:15.999Z</time></trkpt><trkpt lat="43.62383229560449" lon="13.00926219114119"><ele>218.0</ele><time>2026-04-29T14:45:16.999Z</time></trkpt><trkpt lat="43.623764470946284" lon="13.009055282157306"><ele>218.0</ele><time>2026-04-29T14:45:17.999Z</time></trkpt><trkpt lat="43.62370370102673" lon="13.008840085236697"><ele>218.0</ele><time>2026-04-29T14:45:18.999Z</time></trkpt><trkpt lat="43.623653467826564" lon="13.00862682164227"><ele>221.66666666666669</ele><time>2026-04-29T14:45:19.999Z</time></trkpt><trkpt lat="43.623614396055714" lon="13.008406223246766"><ele>225.33333333333331</ele><time>2026-04-29T14:45:20.999Z</time></trkpt><trkpt lat="43.62358972755238" lon="13.008197748437249"><ele>229.0</ele><time>2026-04-29T14:45:21.999Z</time></trkpt><trkpt lat="43.62358078573262" lon="13.007988130100536"><ele>231.33333333333331</ele><time>2026-04-29T14:45:22.999Z</time></trkpt><trkpt lat="43.62357965002883" lon="13.007770957010955"><ele>233.66666666666669</ele><time>2026-04-29T14:45:23.999Z</time></trkpt><trkpt lat="43.62357905497565" lon="13.00755991569738"><ele>236.0</ele><time>2026-04-29T14:45:24.999Z</time></trkpt><trkpt lat="43.62357279904013" lon="13.007351693446084"><ele>236.5</ele><time>2026-04-29T14:45:25.999Z</time></trkpt><trkpt lat="43.623555712671184" lon="13.00715360886217"><ele>237.0</ele><time>2026-04-29T14:45:26.999Z</time></trkpt><trkpt lat="43.62353391214468" lon="13.006953168268197"><ele>237.5</ele><time>2026-04-29T14:45:27.999Z</time></trkpt><trkpt lat="43.623518105324244" lon="13.006748589612625"><ele>238.0</ele><time>2026-04-29T14:45:28.999Z</time></trkpt><trkpt lat="43.62351626969021" lon="13.00655224510072"><ele>238.8</ele><time>2026-04-29T14:45:29.999Z</time></trkpt><trkpt lat="43.62353042414026" lon="13.00637781718654"><ele>239.60000000000002</ele><time>2026-04-29T14:45:30.999Z</time></trkpt><trkpt lat="43.62355423268587" lon="13.006223317422679"><ele>240.39999999999998</ele><time>2026-04-29T14:45:31.999Z</time></trkpt><trkpt lat="43.623583498901446" lon="13.006087671488691"><ele>241.2</ele><time>2026-04-29T14:45:32.999Z</time></trkpt><trkpt lat="43.623609416695274" lon="13.00597154758444"><ele>242.0</ele><time>2026-04-29T14:45:33.999Z</time></trkpt><trkpt lat="43.623631433295564" lon="13.005837437286495"><ele>242.00000000000003</ele><time>2026-04-29T14:45:35.999Z</time></trkpt><trkpt lat="43.623548388080884" lon="13.005789496831508"><ele>242.0</ele><time>2026-04-29T14:45:40Z</time></trkpt><trkpt lat="43.62348601944106" lon="13.005821426658299"><ele>242.0</ele><time>2026-04-29T14:45:42Z</time></trkpt><trkpt lat="43.62341302091755" lon="13.005822162629803"><ele>242.0</ele><time>2026-04-29T14:45:44Z</time></trkpt><trkpt lat="43.62334120549266" lon="13.00586847133235"><ele>242.00000000000003</ele><time>2026-04-29T14:45:46Z</time></trkpt><trkpt lat="43.62324932581923" lon="13.005897760923904"><ele>242.0</ele><time>2026-04-29T14:45:49Z</time></trkpt><trkpt lat="43.62315469600389" lon="13.005948618110835"><ele>242.00000000000003</ele><time>2026-04-29T14:45:51Z</time></trkpt><trkpt lat="43.62304874978289" lon="13.006008741609092"><ele>242.0</ele><time>2026-04-29T14:45:53Z</time></trkpt><trkpt lat="43.62292985697153" lon="13.006080991861017"><ele>242.0</ele><time>2026-04-29T14:45:55Z</time></trkpt><trkpt lat="43.62287040575196" lon="13.006117119908065"><ele>242.0</ele><time>2026-04-29T14:45:56Z</time></trkpt><trkpt lat="43.62280825387579" lon="13.00615505688918"><ele>242.00000000000003</ele><time>2026-04-29T14:45:57Z</time></trkpt><trkpt lat="43.62275261969504" lon="13.006215105410517"><ele>242.0</ele><time>2026-04-29T14:45:58Z</time></trkpt><trkpt lat="43.62268754465405" lon="13.006251113225206"><ele>241.50000000000003</ele><time>2026-04-29T14:45:59Z</time></trkpt><trkpt lat="43.62262286941575" lon="13.006289705712488"><ele>241.0</ele><time>2026-04-29T14:46:00Z</time></trkpt><trkpt lat="43.62255362075872" lon="13.00633804834958"><ele>240.5</ele><time>2026-04-29T14:46:01Z</time></trkpt><trkpt lat="43.62248375869152" lon="13.006393004108611"><ele>240.0</ele><time>2026-04-29T14:46:02Z</time></trkpt><trkpt lat="43.622414298558205" lon="13.006452703146108"><ele>239.50000000000003</ele><time>2026-04-29T14:46:03Z</time></trkpt><trkpt lat="43.62234027700227" lon="13.006517655594605"><ele>239.0</ele><time>2026-04-29T14:46:04Z</time></trkpt><trkpt lat="43.62226628837877" lon="13.006583064042085"><ele>239.00000000000003</ele><time>2026-04-29T14:46:05Z</time></trkpt><trkpt lat="43.622190799490575" lon="13.00665065026661"><ele>239.0</ele><time>2026-04-29T14:46:06Z</time></trkpt><trkpt lat="43.622113896081785" lon="13.006725101675643"><ele>239.0</ele><time>2026-04-29T14:46:07Z</time></trkpt><trkpt lat="43.622027433321776" lon="13.00677990069526"><ele>239.0</ele><time>2026-04-29T14:46:08Z</time></trkpt><trkpt lat="43.62196229107795" lon="13.006864449616579"><ele>239.00000000000003</ele><time>2026-04-29T14:46:09Z</time></trkpt><trkpt lat="43.62188967250873" lon="13.006898506752712"><ele>239.0</ele><time>2026-04-29T14:46:10Z</time></trkpt><trkpt lat="43.62183999409379" lon="13.006957767534052"><ele>237.66666666666669</ele><time>2026-04-29T14:46:11Z</time></trkpt><trkpt lat="43.6217730264732" lon="13.006975431442507"><ele>236.33333333333334</ele><time>2026-04-29T14:46:12Z</time></trkpt><trkpt lat="43.62171320984125" lon="13.007009646067665"><ele>235.0</ele><time>2026-04-29T14:46:13Z</time></trkpt><trkpt lat="43.62156065918369" lon="13.006951788361464"><ele>233.66666666666669</ele><time>2026-04-29T14:46:15Z</time></trkpt><trkpt lat="43.62149351732489" lon="13.006903477181494"><ele>232.33333333333334</ele><time>2026-04-29T14:46:16Z</time></trkpt><trkpt lat="43.6214207611802" lon="13.0068746816982"><ele>231.0</ele><time>2026-04-29T14:46:17Z</time></trkpt><trkpt lat="43.621342778814245" lon="13.006861997877492"><ele>231.0</ele><time>2026-04-29T14:46:18Z</time></trkpt><trkpt lat="43.62126292445526" lon="13.006828902895078"><ele>231.0</ele><time>2026-04-29T14:46:19Z</time></trkpt><trkpt lat="43.62118029554285" lon="13.006793557735943"><ele>231.0</ele><time>2026-04-29T14:46:20Z</time></trkpt><trkpt lat="43.62110144997173" lon="13.006757824540925"><ele>231.0</ele><time>2026-04-29T14:46:21Z</time></trkpt><trkpt lat="43.62102117190073" lon="13.006724775353211"><ele>231.0</ele><time>2026-04-29T14:46:22Z</time></trkpt><trkpt lat="43.62094285792478" lon="13.006694423752133"><ele>231.0</ele><time>2026-04-29T14:46:23Z</time></trkpt><trkpt lat="43.620869527977796" lon="13.006643259055078"><ele>229.5</ele><time>2026-04-29T14:46:24Z</time></trkpt><trkpt lat="43.62078935808273" lon="13.00661171416373"><ele>228.0</ele><time>2026-04-29T14:46:25Z</time></trkpt><trkpt lat="43.620710520889084" lon="13.006582782339615"><ele>226.5</ele><time>2026-04-29T14:46:26Z</time></trkpt><trkpt lat="43.62063028491938" lon="13.006556012712112"><ele>225.0</ele><time>2026-04-29T14:46:27Z</time></trkpt><trkpt lat="43.62054301459695" lon="13.00653173877328"><ele>223.5</ele><time>2026-04-29T14:46:28Z</time></trkpt><trkpt lat="43.62045304653227" lon="13.006530218882828"><ele>222.0</ele><time>2026-04-29T14:46:29Z</time></trkpt><trkpt lat="43.620359898532264" lon="13.006509078771588"><ele>222.6</ele><time>2026-04-29T14:46:30Z</time></trkpt><trkpt lat="43.62026313854249" lon="13.006496253137646"><ele>223.2</ele><time>2026-04-29T14:46:31Z</time></trkpt><trkpt lat="43.62016712528782" lon="13.006490115054879"><ele>223.8</ele><time>2026-04-29T14:46:32Z</time></trkpt><trkpt lat="43.62007042312603" lon="13.006483327712017"><ele>224.4</ele><time>2026-04-29T14:46:33Z</time></trkpt><trkpt lat="43.61997600325687" lon="13.006480962965382"><ele>225.0</ele><time>2026-04-29T14:46:34Z</time></trkpt><trkpt lat="43.61987910365795" lon="13.00648088408377"><ele>225.0</ele><time>2026-04-29T14:46:35Z</time></trkpt><trkpt lat="43.61977916913335" lon="13.006483942295926"><ele>225.0</ele><time>2026-04-29T14:46:36Z</time></trkpt><trkpt lat="43.6196801554962" lon="13.006494134968019"><ele>225.0</ele><time>2026-04-29T14:46:37Z</time></trkpt><trkpt lat="43.61959492475941" lon="13.006499640144625"><ele>225.0</ele><time>2026-04-29T14:46:38Z</time></trkpt><trkpt lat="43.61951052398443" lon="13.006502300768084"><ele>225.0</ele><time>2026-04-29T14:46:39Z</time></trkpt><trkpt lat="43.61944026221689" lon="13.006501579919256"><ele>225.0</ele><time>2026-04-29T14:46:40Z</time></trkpt><trkpt lat="43.619330625562185" lon="13.006511827383767"><ele>225.0</ele><time>2026-04-29T14:46:42Z</time></trkpt><trkpt lat="43.61925913964289" lon="13.006500111969883"><ele>225.0</ele><time>2026-04-29T14:46:44Z</time></trkpt><trkpt lat="43.61919310623568" lon="13.006493217585604"><ele>225.0</ele><time>2026-04-29T14:50:46Z</time></trkpt><trkpt lat="43.61908621375077" lon="13.006493171915178"><ele>225.0</ele><time>2026-04-29T14:54:55.999Z</time></trkpt><trkpt lat="43.618996923457885" lon="13.006440913059889"><ele>225.0</ele><time>2026-04-29T14:54:57.999Z</time></trkpt><trkpt lat="43.618918321225905" lon="13.006324919444086"><ele>225.0</ele><time>2026-04-29T14:54:59.999Z</time></trkpt><trkpt lat="43.618900985868514" lon="13.00623651217569"><ele>225.0</ele><time>2026-04-29T14:55:00.999Z</time></trkpt><trkpt lat="43.618848502542875" lon="13.00618494078624"><ele>225.0</ele><time>2026-04-29T14:55:01.999Z</time></trkpt><trkpt lat="43.61881551384351" lon="13.006099377122087"><ele>225.0</ele><time>2026-04-29T14:55:02.999Z</time></trkpt><trkpt lat="43.61874547247862" lon="13.006046378244626"><ele>225.0</ele><time>2026-04-29T14:55:03.999Z</time></trkpt><trkpt lat="43.61867409571591" lon="13.005976123902517"><ele>225.0</ele><time>2026-04-29T14:55:04.999Z</time></trkpt><trkpt lat="43.618605804633944" lon="13.00590918246767"><ele>225.6</ele><time>2026-04-29T14:55:05.999Z</time></trkpt><trkpt lat="43.61853419013134" lon="13.005852321759056"><ele>226.2</ele><time>2026-04-29T14:55:06.999Z</time></trkpt><trkpt lat="43.618477792623544" lon="13.005769826326679"><ele>226.8</ele><time>2026-04-29T14:55:07.999Z</time></trkpt><trkpt lat="43.61840955450665" lon="13.005696656476756"><ele>227.4</ele><time>2026-04-29T14:55:08.999Z</time></trkpt><trkpt lat="43.61833237935246" lon="13.005612851699512"><ele>228.0</ele><time>2026-04-29T14:55:09.999Z</time></trkpt><trkpt lat="43.618251127208815" lon="13.00552572344898"><ele>226.83333333333334</ele><time>2026-04-29T14:55:10.999Z</time></trkpt><trkpt lat="43.6181705923157" lon="13.005444737771969"><ele>225.66666666666669</ele><time>2026-04-29T14:55:11.999Z</time></trkpt><trkpt lat="43.61809575429063" lon="13.005377263311198"><ele>224.5</ele><time>2026-04-29T14:55:12.999Z</time></trkpt><trkpt lat="43.61801720625749" lon="13.005331912084822"><ele>223.33333333333334</ele><time>2026-04-29T14:55:13.999Z</time></trkpt><trkpt lat="43.6179430981974" lon="13.005278578832188"><ele>222.16666666666669</ele><time>2026-04-29T14:55:14.999Z</time></trkpt><trkpt lat="43.61787205810194" lon="13.005213210057128"><ele>221.0</ele><time>2026-04-29T14:55:15.999Z</time></trkpt><trkpt lat="43.617788330555136" lon="13.005177744474922"><ele>220.0</ele><time>2026-04-29T14:55:16.999Z</time></trkpt><trkpt lat="43.61770246324373" lon="13.005152558659105"><ele>219.00000000000003</ele><time>2026-04-29T14:55:17.999Z</time></trkpt><trkpt lat="43.617614531657054" lon="13.005132972686221"><ele>218.00000000000003</ele><time>2026-04-29T14:55:18.999Z</time></trkpt><trkpt lat="43.617524667822636" lon="13.005117168904391"><ele>217.0</ele><time>2026-04-29T14:55:19.999Z</time></trkpt><trkpt lat="43.617432174649025" lon="13.005101767045225"><ele>216.0</ele><time>2026-04-29T14:55:20.999Z</time></trkpt><trkpt lat="43.61733132597905" lon="13.005086895587906"><ele>216.0</ele><time>2026-04-29T14:55:21.999Z</time></trkpt><trkpt lat="43.61722313183447" lon="13.005076456089384"><ele>216.00000000000003</ele><time>2026-04-29T14:55:22.999Z</time></trkpt><trkpt lat="43.61711747078659" lon="13.005087648852145"><ele>216.00000000000003</ele><time>2026-04-29T14:55:23.999Z</time></trkpt><trkpt lat="43.617014422542496" lon="13.005067269716653"><ele>216.0</ele><time>2026-04-29T14:55:24.999Z</time></trkpt><trkpt lat="43.616911600092195" lon="13.005022431097544"><ele>216.0</ele><time>2026-04-29T14:55:25.999Z</time></trkpt><trkpt lat="43.61680923625861" lon="13.00499002404091"><ele>213.60000000000002</ele><time>2026-04-29T14:55:26.999Z</time></trkpt><trkpt lat="43.61670238844985" lon="13.004965794903967"><ele>211.20000000000002</ele><time>2026-04-29T14:55:27.999Z</time></trkpt><trkpt lat="43.61660132529273" lon="13.004926111696845"><ele>208.8</ele><time>2026-04-29T14:55:28.999Z</time></trkpt><trkpt lat="43.616502348923206" lon="13.004858490302722"><ele>206.39999999999998</ele><time>2026-04-29T14:55:29.999Z</time></trkpt><trkpt lat="43.616402754587675" lon="13.004804746161835"><ele>204.0</ele><time>2026-04-29T14:55:30.999Z</time></trkpt><trkpt lat="43.61630453951233" lon="13.004746938917048"><ele>204.0</ele><time>2026-04-29T14:55:31.999Z</time></trkpt><trkpt lat="43.61619678475482" lon="13.004679447278052"><ele>204.0</ele><time>2026-04-29T14:55:32.999Z</time></trkpt><trkpt lat="43.61608546744137" lon="13.004606671410158"><ele>204.0</ele><time>2026-04-29T14:55:33.999Z</time></trkpt><trkpt lat="43.61596290011031" lon="13.004523672143225"><ele>204.0</ele><time>2026-04-29T14:55:34.999Z</time></trkpt><trkpt lat="43.615816083130234" lon="13.004421751075473"><ele>204.33333333333331</ele><time>2026-04-29T14:55:35.999Z</time></trkpt><trkpt lat="43.615652665899084" lon="13.004306779604253"><ele>204.66666666666666</ele><time>2026-04-29T14:55:36.999Z</time></trkpt><trkpt lat="43.61550772602109" lon="13.004204807615979"><ele>205.0</ele><time>2026-04-29T14:55:37.999Z</time></trkpt><trkpt lat="43.615358165817675" lon="13.00412503205736"><ele>203.33333333333331</ele><time>2026-04-29T14:55:38.999Z</time></trkpt><trkpt lat="43.61520700351054" lon="13.004017557776672"><ele>201.66666666666669</ele><time>2026-04-29T14:55:39.999Z</time></trkpt><trkpt lat="43.61505033103134" lon="13.003900668228262"><ele>200.0</ele><time>2026-04-29T14:55:40.999Z</time></trkpt><trkpt lat="43.6149140304078" lon="13.003795434203857"><ele>200.0</ele><time>2026-04-29T14:55:41.999Z</time></trkpt><trkpt lat="43.614791132003454" lon="13.003711594673206"><ele>200.0</ele><time>2026-04-29T14:55:42.999Z</time></trkpt><trkpt lat="43.61467673062277" lon="13.003626716570315"><ele>200.0</ele><time>2026-04-29T14:55:43.999Z</time></trkpt><trkpt lat="43.614565757005685" lon="13.003548479852418"><ele>200.0</ele><time>2026-04-29T14:55:44.999Z</time></trkpt><trkpt lat="43.61445463293562" lon="13.003474880356704"><ele>200.0</ele><time>2026-04-29T14:55:45.999Z</time></trkpt><trkpt lat="43.61433621069366" lon="13.003388011353364"><ele>200.0</ele><time>2026-04-29T14:55:46.999Z</time></trkpt><trkpt lat="43.61420026894732" lon="13.00329381423943"><ele>200.0</ele><time>2026-04-29T14:55:47.999Z</time></trkpt><trkpt lat="43.614074336039884" lon="13.003189875037087"><ele>200.0</ele><time>2026-04-29T14:55:48.999Z</time></trkpt><trkpt lat="43.61396517968891" lon="13.003107240012985"><ele>199.75</ele><time>2026-04-29T14:55:49.999Z</time></trkpt><trkpt lat="43.6138618417809" lon="13.003029009783042"><ele>199.5</ele><time>2026-04-29T14:55:50.999Z</time></trkpt><trkpt lat="43.61375810580057" lon="13.002950478199207"><ele>199.25</ele><time>2026-04-29T14:55:51.999Z</time></trkpt><trkpt lat="43.613655993128155" lon="13.002873175504076"><ele>199.0</ele><time>2026-04-29T14:55:52.999Z</time></trkpt><trkpt lat="43.61356163242627" lon="13.002801169219424"><ele>198.33333333333331</ele><time>2026-04-29T14:55:53.999Z</time></trkpt><trkpt lat="43.61347986725224" lon="13.002737872392919"><ele>197.66666666666666</ele><time>2026-04-29T14:55:54.999Z</time></trkpt><trkpt lat="43.61340079169009" lon="13.002692585907235"><ele>197.0</ele><time>2026-04-29T14:55:55.999Z</time></trkpt><trkpt lat="43.6133317454983" lon="13.002620108075456"><ele>196.33333333333331</ele><time>2026-04-29T14:55:56.999Z</time></trkpt><trkpt lat="43.61324668817647" lon="13.002574368388418"><ele>195.66666666666666</ele><time>2026-04-29T14:55:57.999Z</time></trkpt><trkpt lat="43.61316886056823" lon="13.002506681670015"><ele>195.0</ele><time>2026-04-29T14:55:58.999Z</time></trkpt><trkpt lat="43.613097416357355" lon="13.002420742232804"><ele>194.16666666666666</ele><time>2026-04-29T14:55:59.999Z</time></trkpt><trkpt lat="43.61301835631252" lon="13.002352956922351"><ele>193.33333333333334</ele><time>2026-04-29T14:56:00.999Z</time></trkpt><trkpt lat="43.61294627518585" lon="13.002294684183996"><ele>192.5</ele><time>2026-04-29T14:56:01.999Z</time></trkpt><trkpt lat="43.61287183891124" lon="13.002238921130479"><ele>191.66666666666669</ele><time>2026-04-29T14:56:02.999Z</time></trkpt><trkpt lat="43.612798391982494" lon="13.00218605013809"><ele>190.83333333333334</ele><time>2026-04-29T14:56:03.999Z</time></trkpt><trkpt lat="43.612714960435305" lon="13.002150820046902"><ele>190.0</ele><time>2026-04-29T14:56:04.999Z</time></trkpt><trkpt lat="43.612643092960006" lon="13.002091040828217"><ele>189.66666666666669</ele><time>2026-04-29T14:56:05.999Z</time></trkpt><trkpt lat="43.612568318246865" lon="13.00203949103501"><ele>189.33333333333334</ele><time>2026-04-29T14:56:06.999Z</time></trkpt><trkpt lat="43.61249743034005" lon="13.001983967125167"><ele>189.0</ele><time>2026-04-29T14:56:07.999Z</time></trkpt><trkpt lat="43.612423056441365" lon="13.001942013063873"><ele>188.66666666666666</ele><time>2026-04-29T14:56:08.999Z</time></trkpt><trkpt lat="43.61235126876681" lon="13.001901955712109"><ele>188.33333333333331</ele><time>2026-04-29T14:56:10Z</time></trkpt><trkpt lat="43.612299708554524" lon="13.001836085715372"><ele>188.0</ele><time>2026-04-29T14:56:11Z</time></trkpt><trkpt lat="43.612271398406584" lon="13.001665285340842"><ele>186.83333333333331</ele><time>2026-04-29T14:56:13Z</time></trkpt><trkpt lat="43.61228213966062" lon="13.001565593757405"><ele>185.66666666666666</ele><time>2026-04-29T14:56:14Z</time></trkpt><trkpt lat="43.61230909537016" lon="13.00146091396242"><ele>184.5</ele><time>2026-04-29T14:56:15Z</time></trkpt><trkpt lat="43.61233266899222" lon="13.001344788731764"><ele>183.33333333333334</ele><time>2026-04-29T14:56:16Z</time></trkpt><trkpt lat="43.61233719929627" lon="13.001217409559391"><ele>182.16666666666669</ele><time>2026-04-29T14:56:17Z</time></trkpt><trkpt lat="43.61231308410118" lon="13.00107604512799"><ele>181.0</ele><time>2026-04-29T14:56:18Z</time></trkpt><trkpt lat="43.612267892577556" lon="13.000930659542517"><ele>180.0</ele><time>2026-04-29T14:56:19Z</time></trkpt><trkpt lat="43.612213303557745" lon="13.000788504517452"><ele>179.0</ele><time>2026-04-29T14:56:20Z</time></trkpt><trkpt lat="43.61215744855106" lon="13.00063331744807"><ele>178.0</ele><time>2026-04-29T14:56:21Z</time></trkpt><trkpt lat="43.61209706897004" lon="13.000475951358574"><ele>177.0</ele><time>2026-04-29T14:56:22Z</time></trkpt><trkpt lat="43.612033437823754" lon="13.00031272736336"><ele>175.5</ele><time>2026-04-29T14:56:23Z</time></trkpt><trkpt lat="43.61196327602272" lon="13.00014014325245"><ele>174.0</ele><time>2026-04-29T14:56:24Z</time></trkpt><trkpt lat="43.611897084568504" lon="12.999968960380217"><ele>172.5</ele><time>2026-04-29T14:56:25Z</time></trkpt><trkpt lat="43.61185343230544" lon="12.999800002618153"><ele>171.0</ele><time>2026-04-29T14:56:26Z</time></trkpt><trkpt lat="43.61180685718757" lon="12.999657878769256"><ele>171.0</ele><time>2026-04-29T14:56:27Z</time></trkpt><trkpt lat="43.61176505743439" lon="12.999533600950926"><ele>171.0</ele><time>2026-04-29T14:56:28Z</time></trkpt><trkpt lat="43.61170167420768" lon="12.999398656778123"><ele>171.0</ele><time>2026-04-29T14:56:29Z</time></trkpt><trkpt lat="43.61165458644112" lon="12.999234939413544"><ele>171.0</ele><time>2026-04-29T14:56:30Z</time></trkpt><trkpt lat="43.611601688396966" lon="12.999094124513746"><ele>168.75</ele><time>2026-04-29T14:56:31Z</time></trkpt><trkpt lat="43.611559610448296" lon="12.998957150240866"><ele>166.5</ele><time>2026-04-29T14:56:32Z</time></trkpt><trkpt lat="43.61149120110415" lon="12.998839044303518"><ele>164.25</ele><time>2026-04-29T14:56:33Z</time></trkpt><trkpt lat="43.611420133597015" lon="12.998696671941207"><ele>162.0</ele><time>2026-04-29T14:56:34Z</time></trkpt><trkpt lat="43.61135069907505" lon="12.99853166787907"><ele>162.0</ele><time>2026-04-29T14:56:35Z</time></trkpt><trkpt lat="43.611263785774774" lon="12.998387109392771"><ele>162.0</ele><time>2026-04-29T14:56:36Z</time></trkpt><trkpt lat="43.61118861734724" lon="12.998262030266647"><ele>162.0</ele><time>2026-04-29T14:56:37Z</time></trkpt><trkpt lat="43.61112137507096" lon="12.998140204118139"><ele>162.0</ele><time>2026-04-29T14:56:38Z</time></trkpt><trkpt lat="43.61107090086755" lon="12.998028577987192"><ele>159.4</ele><time>2026-04-29T14:56:39Z</time></trkpt><trkpt lat="43.61102579021685" lon="12.99790348039083"><ele>156.79999999999998</ele><time>2026-04-29T14:56:40Z</time></trkpt><trkpt lat="43.61099511928873" lon="12.99778055771384"><ele>154.2</ele><time>2026-04-29T14:56:41Z</time></trkpt><trkpt lat="43.610975385617856" lon="12.997652892114973"><ele>151.6</ele><time>2026-04-29T14:56:42Z</time></trkpt><trkpt lat="43.61095676360776" lon="12.997511317687986"><ele>149.0</ele><time>2026-04-29T14:56:43Z</time></trkpt><trkpt lat="43.6109588796148" lon="12.997360844454136"><ele>147.83333333333331</ele><time>2026-04-29T14:56:44Z</time></trkpt><trkpt lat="43.61095551289136" lon="12.99721506290543"><ele>146.66666666666666</ele><time>2026-04-29T14:56:45Z</time></trkpt><trkpt lat="43.610945349531484" lon="12.99708926357063"><ele>145.5</ele><time>2026-04-29T14:56:46Z</time></trkpt><trkpt lat="43.61092685787103" lon="12.996972624842565"><ele>144.33333333333334</ele><time>2026-04-29T14:56:47Z</time></trkpt><trkpt lat="43.610896116695066" lon="12.9968698976688"><ele>143.16666666666669</ele><time>2026-04-29T14:56:48Z</time></trkpt><trkpt lat="43.61084864138978" lon="12.996780650895818"><ele>142.0</ele><time>2026-04-29T14:56:49Z</time></trkpt><trkpt lat="43.61080878101754" lon="12.996683131320562"><ele>143.6</ele><time>2026-04-29T14:56:49.999Z</time></trkpt><trkpt lat="43.61073738858429" lon="12.996615309089321"><ele>145.2</ele><time>2026-04-29T14:56:50.999Z</time></trkpt><trkpt lat="43.61064750765779" lon="12.99655012164666"><ele>146.8</ele><time>2026-04-29T14:56:51.999Z</time></trkpt><trkpt lat="43.61055780527223" lon="12.996500905180332"><ele>148.4</ele><time>2026-04-29T14:56:52.999Z</time></trkpt><trkpt lat="43.61045989419152" lon="12.996450253794317"><ele>150.0</ele><time>2026-04-29T14:56:53.999Z</time></trkpt><trkpt lat="43.610357260993446" lon="12.996397523690545"><ele>150.5</ele><time>2026-04-29T14:56:54.999Z</time></trkpt><trkpt lat="43.61025945297327" lon="12.99634404235368"><ele>151.0</ele><time>2026-04-29T14:56:55.999Z</time></trkpt><trkpt lat="43.6101518437155" lon="12.996276825887145"><ele>151.5</ele><time>2026-04-29T14:56:56.999Z</time></trkpt><trkpt lat="43.61005167084701" lon="12.996210052239107"><ele>152.0</ele><time>2026-04-29T14:56:57.999Z</time></trkpt><trkpt lat="43.60994652077333" lon="12.99613590227718"><ele>152.0</ele><time>2026-04-29T14:56:58.999Z</time></trkpt><trkpt lat="43.60982945016302" lon="12.996052422581263"><ele>152.0</ele><time>2026-04-29T14:56:59.999Z</time></trkpt><trkpt lat="43.60971356597033" lon="12.99595528880789"><ele>152.0</ele><time>2026-04-29T14:57:00.999Z</time></trkpt><trkpt lat="43.60960823696962" lon="12.99585123410404"><ele>152.0</ele><time>2026-04-29T14:57:01.999Z</time></trkpt><trkpt lat="43.60952773293953" lon="12.995756221490677"><ele>154.39999999999998</ele><time>2026-04-29T14:57:02.999Z</time></trkpt><trkpt lat="43.609464294258515" lon="12.995689471649516"><ele>156.79999999999998</ele><time>2026-04-29T14:57:03.999Z</time></trkpt><trkpt lat="43.609420498649015" lon="12.995589331238802"><ele>159.2</ele><time>2026-04-29T14:57:04.999Z</time></trkpt><trkpt lat="43.60937714450751" lon="12.995470555953636"><ele>161.6</ele><time>2026-04-29T14:57:05.999Z</time></trkpt><trkpt lat="43.609331909030004" lon="12.995339363163897"><ele>164.0</ele><time>2026-04-29T14:57:06.999Z</time></trkpt><trkpt lat="43.60930601355087" lon="12.995220224104614"><ele>164.0</ele><time>2026-04-29T14:57:07.999Z</time></trkpt><trkpt lat="43.60928711845533" lon="12.995075800858393"><ele>164.0</ele><time>2026-04-29T14:57:08.999Z</time></trkpt><trkpt lat="43.60927441560012" lon="12.99491544650101"><ele>164.0</ele><time>2026-04-29T14:57:09.999Z</time></trkpt><trkpt lat="43.6092704043414" lon="12.99474382090502"><ele>164.0</ele><time>2026-04-29T14:57:10.999Z</time></trkpt><trkpt lat="43.60926488454479" lon="12.994572313000791"><ele>164.6</ele><time>2026-04-29T14:57:11.999Z</time></trkpt><trkpt lat="43.60926077181531" lon="12.99440952892052"><ele>165.2</ele><time>2026-04-29T14:57:12.999Z</time></trkpt><trkpt lat="43.60927006385364" lon="12.994261537283677"><ele>165.79999999999998</ele><time>2026-04-29T14:57:13.999Z</time></trkpt><trkpt lat="43.60927027669673" lon="12.994127992091904"><ele>166.39999999999998</ele><time>2026-04-29T14:57:14.999Z</time></trkpt><trkpt lat="43.60927045730841" lon="12.994014669979846"><ele>167.0</ele><time>2026-04-29T14:57:15.999Z</time></trkpt><trkpt lat="43.60927165929137" lon="12.993899976306647"><ele>167.0</ele><time>2026-04-29T14:57:16.999Z</time></trkpt><trkpt lat="43.60927279256298" lon="12.993788330080875"><ele>167.0</ele><time>2026-04-29T14:57:17.999Z</time></trkpt><trkpt lat="43.60926507970229" lon="12.993674445554579"><ele>167.0</ele><time>2026-04-29T14:57:18.999Z</time></trkpt><trkpt lat="43.60926552740339" lon="12.993567903326934"><ele>167.0</ele><time>2026-04-29T14:57:19.999Z</time></trkpt><trkpt lat="43.609268821571554" lon="12.993451543956287"><ele>167.0</ele><time>2026-04-29T14:57:20.999Z</time></trkpt><trkpt lat="43.60927052495066" lon="12.993334782401222"><ele>167.0</ele><time>2026-04-29T14:57:21.999Z</time></trkpt><trkpt lat="43.60927054518083" lon="12.993219907086365"><ele>166.0</ele><time>2026-04-29T14:57:22.999Z</time></trkpt><trkpt lat="43.60926811401754" lon="12.993100302620828"><ele>165.0</ele><time>2026-04-29T14:57:23.999Z</time></trkpt><trkpt lat="43.6092645218829" lon="12.992983306042971"><ele>164.0</ele><time>2026-04-29T14:57:24.999Z</time></trkpt><trkpt lat="43.609244401718485" lon="12.992863776125908"><ele>163.0</ele><time>2026-04-29T14:57:25.999Z</time></trkpt><trkpt lat="43.60921353877359" lon="12.992755729374567"><ele>162.0</ele><time>2026-04-29T14:57:26.999Z</time></trkpt><trkpt lat="43.60919326671451" lon="12.99263402919342"><ele>161.0</ele><time>2026-04-29T14:57:27.999Z</time></trkpt><trkpt lat="43.609164256542925" lon="12.992538523793785"><ele>160.8</ele><time>2026-04-29T14:57:28.999Z</time></trkpt><trkpt lat="43.60913252603434" lon="12.992461634166988"><ele>160.60000000000002</ele><time>2026-04-29T14:57:30.999Z</time></trkpt><trkpt lat="43.609203350113766" lon="12.992358999674506"><ele>160.4</ele><time>2026-04-29T14:57:33.999Z</time></trkpt><trkpt lat="43.60934553793852" lon="12.9923540429037"><ele>160.2</ele><time>2026-04-29T14:57:35.999Z</time></trkpt><trkpt lat="43.60944880307854" lon="12.992385121119638"><ele>160.0</ele><time>2026-04-29T14:57:36.999Z</time></trkpt><trkpt lat="43.60954300490996" lon="12.992432261443973"><ele>163.25</ele><time>2026-04-29T14:57:37.999Z</time></trkpt><trkpt lat="43.60965426101776" lon="12.992500070581615"><ele>166.5</ele><time>2026-04-29T14:57:38.999Z</time></trkpt><trkpt lat="43.60977436955381" lon="12.992580272620684"><ele>169.75</ele><time>2026-04-29T14:57:39.999Z</time></trkpt><trkpt lat="43.60990222439488" lon="12.992669915765756"><ele>173.0</ele><time>2026-04-29T14:57:40.999Z</time></trkpt><trkpt lat="43.61001693206156" lon="12.99275310529549"><ele>173.2</ele><time>2026-04-29T14:57:41.999Z</time></trkpt><trkpt lat="43.61011927856128" lon="12.992828201876755"><ele>173.4</ele><time>2026-04-29T14:57:42.999Z</time></trkpt><trkpt lat="43.61020454120208" lon="12.992891273454784"><ele>173.6</ele><time>2026-04-29T14:57:43.999Z</time></trkpt><trkpt lat="43.61028299800514" lon="12.992953292088195"><ele>173.79999999999998</ele><time>2026-04-29T14:57:44.999Z</time></trkpt><trkpt lat="43.61035886374777" lon="12.993021483542861"><ele>174.0</ele><time>2026-04-29T14:57:45.999Z</time></trkpt><trkpt lat="43.61043169519314" lon="12.99309217586404"><ele>176.39999999999998</ele><time>2026-04-29T14:57:46.999Z</time></trkpt><trkpt lat="43.61050431162656" lon="12.993165984803506"><ele>178.8</ele><time>2026-04-29T14:57:47.999Z</time></trkpt><trkpt lat="43.61058697240249" lon="12.99325086321966"><ele>181.2</ele><time>2026-04-29T14:57:48.999Z</time></trkpt><trkpt lat="43.610676107464805" lon="12.993348011101858"><ele>183.60000000000002</ele><time>2026-04-29T14:57:49.999Z</time></trkpt><trkpt lat="43.610759636189314" lon="12.993446696839474"><ele>186.0</ele><time>2026-04-29T14:57:50.999Z</time></trkpt><trkpt lat="43.610842554125064" lon="12.993547029452069"><ele>186.8</ele><time>2026-04-29T14:57:51.999Z</time></trkpt><trkpt lat="43.61091580116119" lon="12.993643334389256"><ele>187.60000000000002</ele><time>2026-04-29T14:57:52.999Z</time></trkpt><trkpt lat="43.61098823696016" lon="12.993739570717995"><ele>188.4</ele><time>2026-04-29T14:57:53.999Z</time></trkpt><trkpt lat="43.61105716007106" lon="12.993836695705532"><ele>189.2</ele><time>2026-04-29T14:57:54.999Z</time></trkpt><trkpt lat="43.611124786625645" lon="12.993934463235261"><ele>190.0</ele><time>2026-04-29T14:57:55.999Z</time></trkpt><trkpt lat="43.6111920988606" lon="12.994039435231517"><ele>189.8</ele><time>2026-04-29T14:57:56.999Z</time></trkpt><trkpt lat="43.61125707604972" lon="12.994151186374546"><ele>189.6</ele><time>2026-04-29T14:57:57.999Z</time></trkpt><trkpt lat="43.611323823368046" lon="12.994265692281585"><ele>189.39999999999998</ele><time>2026-04-29T14:57:58.999Z</time></trkpt><trkpt lat="43.61138866020641" lon="12.994380078736615"><ele>189.2</ele><time>2026-04-29T14:57:59.999Z</time></trkpt><trkpt lat="43.61144967243174" lon="12.994483402669333"><ele>189.0</ele><time>2026-04-29T14:58:00.999Z</time></trkpt><trkpt lat="43.611507795092805" lon="12.994563922295614"><ele>189.0</ele><time>2026-04-29T14:58:01.999Z</time></trkpt><trkpt lat="43.61156791461203" lon="12.9946166461807"><ele>189.0</ele><time>2026-04-29T14:58:02.999Z</time></trkpt><trkpt lat="43.611619171941534" lon="12.994681359043899"><ele>189.0</ele><time>2026-04-29T14:58:03.999Z</time></trkpt><trkpt lat="43.611732839147656" lon="12.99469395804144"><ele>189.0</ele><time>2026-04-29T14:58:05.999Z</time></trkpt><trkpt lat="43.611852477058335" lon="12.99468164284483"><ele>189.0</ele><time>2026-04-29T14:58:07.999Z</time></trkpt><trkpt lat="43.611952386376196" lon="12.9946275774081"><ele>189.79999999999998</ele><time>2026-04-29T14:58:08.999Z</time></trkpt><trkpt lat="43.61205587477735" lon="12.994556681938494"><ele>190.6</ele><time>2026-04-29T14:58:09.999Z</time></trkpt><trkpt lat="43.61214024749615" lon="12.994493860321723"><ele>191.4</ele><time>2026-04-29T14:58:10.999Z</time></trkpt><trkpt lat="43.612232549108285" lon="12.99446439898404"><ele>192.2</ele><time>2026-04-29T14:58:11.999Z</time></trkpt><trkpt lat="43.612323117135254" lon="12.994451135564399"><ele>193.0</ele><time>2026-04-29T14:58:12.999Z</time></trkpt><trkpt lat="43.612402022549766" lon="12.994470047245954"><ele>192.99999999999997</ele><time>2026-04-29T14:58:13.999Z</time></trkpt><trkpt lat="43.61248221306041" lon="12.994459381419729"><ele>193.0</ele><time>2026-04-29T14:58:14.999Z</time></trkpt><trkpt lat="43.61256012432804" lon="12.994476219848794"><ele>193.0</ele><time>2026-04-29T14:58:16Z</time></trkpt><trkpt lat="43.61263915310248" lon="12.994497131701792"><ele>193.0</ele><time>2026-04-29T14:58:17Z</time></trkpt><trkpt lat="43.61271825373899" lon="12.994520324086286"><ele>192.99999999999997</ele><time>2026-04-29T14:58:18Z</time></trkpt><trkpt lat="43.61279413304148" lon="12.994551145859365"><ele>193.0</ele><time>2026-04-29T14:58:19Z</time></trkpt><trkpt lat="43.61287816602151" lon="12.994590157636646"><ele>195.2</ele><time>2026-04-29T14:58:20Z</time></trkpt><trkpt lat="43.61296861574562" lon="12.994639833894738"><ele>197.4</ele><time>2026-04-29T14:58:21Z</time></trkpt><trkpt lat="43.61305608407601" lon="12.994698766995274"><ele>199.6</ele><time>2026-04-29T14:58:22Z</time></trkpt><trkpt lat="43.6131401080295" lon="12.994756823010354"><ele>201.79999999999998</ele><time>2026-04-29T14:58:23Z</time></trkpt><trkpt lat="43.61321608768125" lon="12.994824106688577"><ele>204.0</ele><time>2026-04-29T14:58:24Z</time></trkpt><trkpt lat="43.6132998507284" lon="12.99489835348315"><ele>204.0</ele><time>2026-04-29T14:58:25Z</time></trkpt><trkpt lat="43.61338848284087" lon="12.994988192649947"><ele>204.0</ele><time>2026-04-29T14:58:26Z</time></trkpt><trkpt lat="43.613473766964994" lon="12.99507238271929"><ele>204.0</ele><time>2026-04-29T14:58:27Z</time></trkpt><trkpt lat="43.61355162308959" lon="12.995132989817302"><ele>204.0</ele><time>2026-04-29T14:58:28Z</time></trkpt><trkpt lat="43.61362717159445" lon="12.995175858590663"><ele>204.0</ele><time>2026-04-29T14:58:29Z</time></trkpt><trkpt lat="43.613702777936794" lon="12.995202862277198"><ele>202.79999999999998</ele><time>2026-04-29T14:58:30Z</time></trkpt><trkpt lat="43.61381001139543" lon="12.995219093571828"><ele>201.6</ele><time>2026-04-29T14:58:31Z</time></trkpt><trkpt lat="43.61391511806628" lon="12.995225897436235"><ele>200.4</ele><time>2026-04-29T14:58:32Z</time></trkpt><trkpt lat="43.613995861289794" lon="12.995215086168407"><ele>199.2</ele><time>2026-04-29T14:58:33Z</time></trkpt><trkpt lat="43.61409923462512" lon="12.995188255541747"><ele>198.0</ele><time>2026-04-29T14:58:34Z</time></trkpt><trkpt lat="43.6142401315767" lon="12.995154918616809"><ele>198.0</ele><time>2026-04-29T14:58:35Z</time></trkpt><trkpt lat="43.61437757101128" lon="12.995122948543216"><ele>198.0</ele><time>2026-04-29T14:58:36Z</time></trkpt><trkpt lat="43.61448654002438" lon="12.995101206805135"><ele>198.0</ele><time>2026-04-29T14:58:37Z</time></trkpt><trkpt lat="43.614592106010235" lon="12.995101685299584"><ele>198.0</ele><time>2026-04-29T14:58:38Z</time></trkpt><trkpt lat="43.614710711287024" lon="12.995104979562804"><ele>199.25</ele><time>2026-04-29T14:58:39Z</time></trkpt><trkpt lat="43.614847351776476" lon="12.995114342472393"><ele>200.5</ele><time>2026-04-29T14:58:40Z</time></trkpt><trkpt lat="43.61499936485809" lon="12.995129536613257"><ele>201.75</ele><time>2026-04-29T14:58:41Z</time></trkpt><trkpt lat="43.61514878258609" lon="12.995154029625105"><ele>203.0</ele><time>2026-04-29T14:58:42Z</time></trkpt><trkpt lat="43.615291020409856" lon="12.995184077280594"><ele>204.5</ele><time>2026-04-29T14:58:43Z</time></trkpt><trkpt lat="43.61542694497366" lon="12.995217384523112"><ele>206.0</ele><time>2026-04-29T14:58:44Z</time></trkpt><trkpt lat="43.61556753018177" lon="12.995249574049392"><ele>207.5</ele><time>2026-04-29T14:58:45Z</time></trkpt><trkpt lat="43.61569095839134" lon="12.99528258214674"><ele>209.0</ele><time>2026-04-29T14:58:46Z</time></trkpt><trkpt lat="43.6158048558859" lon="12.995325506126726"><ele>209.0</ele><time>2026-04-29T14:58:47Z</time></trkpt><trkpt lat="43.61591907817954" lon="12.995368331407366"><ele>209.0</ele><time>2026-04-29T14:58:48Z</time></trkpt><trkpt lat="43.616021313026714" lon="12.995411226981386"><ele>209.0</ele><time>2026-04-29T14:58:49Z</time></trkpt><trkpt lat="43.616124988096956" lon="12.99546940091393"><ele>209.0</ele><time>2026-04-29T14:58:50Z</time></trkpt><trkpt lat="43.616229103304526" lon="12.99554216053911"><ele>208.39999999999998</ele><time>2026-04-29T14:58:50.999Z</time></trkpt><trkpt lat="43.616326997910434" lon="12.995615459871765"><ele>207.8</ele><time>2026-04-29T14:58:51.999Z</time></trkpt><trkpt lat="43.61640588448842" lon="12.995676119183589"><ele>207.2</ele><time>2026-04-29T14:58:52.999Z</time></trkpt><trkpt lat="43.61646924025848" lon="12.995717469806175"><ele>206.60000000000002</ele><time>2026-04-29T14:58:53.999Z</time></trkpt><trkpt lat="43.616569495581075" lon="12.995831965507714"><ele>206.0</ele><time>2026-04-29T14:58:55.999Z</time></trkpt><trkpt lat="43.61661904342313" lon="12.995939754966907"><ele>206.0</ele><time>2026-04-29T14:58:56.999Z</time></trkpt><trkpt lat="43.616665700692465" lon="12.996056382428968"><ele>206.0</ele><time>2026-04-29T14:58:57.999Z</time></trkpt><trkpt lat="43.6167203714002" lon="12.99616701944108"><ele>206.0</ele><time>2026-04-29T14:58:58.999Z</time></trkpt><trkpt lat="43.616804559879064" lon="12.996273340869802"><ele>206.0</ele><time>2026-04-29T14:58:59.999Z</time></trkpt><trkpt lat="43.61688142444046" lon="12.996376237309219"><ele>206.0</ele><time>2026-04-29T14:59:00.999Z</time></trkpt><trkpt lat="43.616957705254364" lon="12.99645541649181"><ele>205.8</ele><time>2026-04-29T14:59:01.999Z</time></trkpt><trkpt lat="43.61702732353495" lon="12.99655323258416"><ele>205.60000000000002</ele><time>2026-04-29T14:59:02.999Z</time></trkpt><trkpt lat="43.617101768796815" lon="12.996644525118525"><ele>205.4</ele><time>2026-04-29T14:59:03.999Z</time></trkpt><trkpt lat="43.617178424193874" lon="12.99672815902172"><ele>205.2</ele><time>2026-04-29T14:59:04.999Z</time></trkpt><trkpt lat="43.61725768792095" lon="12.996802489072044"><ele>205.0</ele><time>2026-04-29T14:59:05.999Z</time></trkpt><trkpt lat="43.617342384579885" lon="12.996875155967002"><ele>205.0</ele><time>2026-04-29T14:59:06.999Z</time></trkpt><trkpt lat="43.617428763014715" lon="12.99693973048287"><ele>205.0</ele><time>2026-04-29T14:59:07.999Z</time></trkpt><trkpt lat="43.617511473059544" lon="12.996995394720036"><ele>205.0</ele><time>2026-04-29T14:59:08.999Z</time></trkpt><trkpt lat="43.61760633951992" lon="12.997043534271791"><ele>205.0</ele><time>2026-04-29T14:59:09.999Z</time></trkpt><trkpt lat="43.61769642607095" lon="12.997100878092722"><ele>205.0</ele><time>2026-04-29T14:59:10.999Z</time></trkpt><trkpt lat="43.617789227781905" lon="12.997151926098907"><ele>206.4</ele><time>2026-04-29T14:59:11.999Z</time></trkpt><trkpt lat="43.61788194529331" lon="12.997179786830776"><ele>207.8</ele><time>2026-04-29T14:59:12.999Z</time></trkpt><trkpt lat="43.61798594709963" lon="12.997219776486329"><ele>209.2</ele><time>2026-04-29T14:59:13.999Z</time></trkpt><trkpt lat="43.61809579323673" lon="12.997241822461366"><ele>210.6</ele><time>2026-04-29T14:59:14.999Z</time></trkpt><trkpt lat="43.618214293099044" lon="12.997258527997563"><ele>212.0</ele><time>2026-04-29T14:59:15.999Z</time></trkpt><trkpt lat="43.61831944135752" lon="12.997302336170158"><ele>212.0</ele><time>2026-04-29T14:59:16.999Z</time></trkpt><trkpt lat="43.61840556229126" lon="12.997352174510837"><ele>212.0</ele><time>2026-04-29T14:59:17.999Z</time></trkpt><trkpt lat="43.61848276849943" lon="12.997397823435126"><ele>212.0</ele><time>2026-04-29T14:59:18.999Z</time></trkpt><trkpt lat="43.61854387516359" lon="12.997430035801907"><ele>212.0</ele><time>2026-04-29T14:59:19.999Z</time></trkpt><trkpt lat="43.61863747347837" lon="12.997472787714255"><ele>212.0</ele><time>2026-04-29T14:59:20.999Z</time></trkpt><trkpt lat="43.61874099440289" lon="12.99753489421084"><ele>212.16666666666669</ele><time>2026-04-29T14:59:21.999Z</time></trkpt><trkpt lat="43.61884826902193" lon="12.997591331276665"><ele>212.33333333333334</ele><time>2026-04-29T14:59:22.999Z</time></trkpt><trkpt lat="43.61894382207752" lon="12.997651192073214"><ele>212.5</ele><time>2026-04-29T14:59:23.999Z</time></trkpt><trkpt lat="43.61901323395812" lon="12.997690839813757"><ele>212.66666666666669</ele><time>2026-04-29T14:59:24.999Z</time></trkpt><trkpt lat="43.619073762760436" lon="12.997727332719542"><ele>212.83333333333334</ele><time>2026-04-29T14:59:25.999Z</time></trkpt><trkpt lat="43.619132603360846" lon="12.997765823975861"><ele>213.0</ele><time>2026-04-29T14:59:26.999Z</time></trkpt><trkpt lat="43.61922412573136" lon="12.997841395622826"><ele>213.0</ele><time>2026-04-29T14:59:28.999Z</time></trkpt><trkpt lat="43.61930807674137" lon="12.99792691650707"><ele>213.0</ele><time>2026-04-29T14:59:30.999Z</time></trkpt><trkpt lat="43.6193648282757" lon="12.997983766323001"><ele>213.0</ele><time>2026-04-29T14:59:31.999Z</time></trkpt><trkpt lat="43.61945468522439" lon="12.998060904141813"><ele>213.0</ele><time>2026-04-29T14:59:33.999Z</time></trkpt><trkpt lat="43.61950009328467" lon="12.998146436840521"><ele>213.0</ele><time>2026-04-29T15:00:05.999Z</time></trkpt><trkpt lat="43.61956408325124" lon="12.998249384007691"><ele>214.33333333333334</ele><time>2026-04-29T15:00:07.999Z</time></trkpt><trkpt lat="43.619640924739805" lon="12.998402025059393"><ele>215.66666666666669</ele><time>2026-04-29T15:00:09.999Z</time></trkpt><trkpt lat="43.61968086053577" lon="12.998480879456755"><ele>217.0</ele><time>2026-04-29T15:00:10.999Z</time></trkpt><trkpt lat="43.61971804146527" lon="12.998561618744358"><ele>218.33333333333334</ele><time>2026-04-29T15:00:11.999Z</time></trkpt><trkpt lat="43.61975506292527" lon="12.99863943371184"><ele>219.66666666666669</ele><time>2026-04-29T15:00:12.999Z</time></trkpt><trkpt lat="43.619791559536004" lon="12.998714467195876"><ele>221.0</ele><time>2026-04-29T15:00:13.999Z</time></trkpt><trkpt lat="43.61982555077165" lon="12.998794153722837"><ele>221.00000000000003</ele><time>2026-04-29T15:00:14.999Z</time></trkpt><trkpt lat="43.6198619040816" lon="12.998873563514982"><ele>221.0</ele><time>2026-04-29T15:00:15.999Z</time></trkpt><trkpt lat="43.61990033534191" lon="12.998949218873348"><ele>221.0</ele><time>2026-04-29T15:00:16.999Z</time></trkpt><trkpt lat="43.6199360640386" lon="12.999025330224425"><ele>221.0</ele><time>2026-04-29T15:00:17.999Z</time></trkpt><trkpt lat="43.61996989873453" lon="12.9990991295503"><ele>221.0</ele><time>2026-04-29T15:00:18.999Z</time></trkpt><trkpt lat="43.62000507656096" lon="12.999177258356488"><ele>221.00000000000003</ele><time>2026-04-29T15:00:19.999Z</time></trkpt><trkpt lat="43.620044016897666" lon="12.999256251188678"><ele>221.0</ele><time>2026-04-29T15:00:20.999Z</time></trkpt><trkpt lat="43.62008846270183" lon="12.999343367648125"><ele>221.00000000000003</ele><time>2026-04-29T15:00:22Z</time></trkpt><trkpt lat="43.62013164283949" lon="12.999425981159218"><ele>221.0</ele><time>2026-04-29T15:00:23Z</time></trkpt><trkpt lat="43.620182288035885" lon="12.999487779445264"><ele>221.0</ele><time>2026-04-29T15:00:24Z</time></trkpt><trkpt lat="43.6202477914474" lon="12.999546766077865"><ele>221.0</ele><time>2026-04-29T15:00:25Z</time></trkpt><trkpt lat="43.620304965797764" lon="12.999584381631502"><ele>221.00000000000003</ele><time>2026-04-29T15:00:26Z</time></trkpt><trkpt lat="43.62038341712121" lon="12.999620300213676"><ele>221.0</ele><time>2026-04-29T15:00:27Z</time></trkpt><trkpt lat="43.62050186488787" lon="12.999650124426385"><ele>225.0</ele><time>2026-04-29T15:00:28Z</time></trkpt><trkpt lat="43.62063377203057" lon="12.999686042010746"><ele>229.0</ele><time>2026-04-29T15:00:29Z</time></trkpt><trkpt lat="43.62077195098562" lon="12.999736535243898"><ele>233.0</ele><time>2026-04-29T15:00:30Z</time></trkpt><trkpt lat="43.620944417857025" lon="12.999805585762479"><ele>233.0</ele><time>2026-04-29T15:00:31Z</time></trkpt><trkpt lat="43.6211028187043" lon="12.99990173981883"><ele>233.0</ele><time>2026-04-29T15:00:32Z</time></trkpt><trkpt lat="43.62122406451" lon="13.000010311545848"><ele>233.0</ele><time>2026-04-29T15:00:33Z</time></trkpt><trkpt lat="43.62131305867033" lon="13.000116557903494"><ele>233.0</ele><time>2026-04-29T15:00:34Z</time></trkpt><trkpt lat="43.621392306924186" lon="13.000216544779404"><ele>234.25</ele><time>2026-04-29T15:00:35Z</time></trkpt><trkpt lat="43.62146339479311" lon="13.000307769607929"><ele>235.5</ele><time>2026-04-29T15:00:36Z</time></trkpt><trkpt lat="43.62154013191786" lon="13.000431590041597"><ele>236.75</ele><time>2026-04-29T15:00:37Z</time></trkpt><trkpt lat="43.62164079712803" lon="13.000602290477383"><ele>238.0</ele><time>2026-04-29T15:00:38Z</time></trkpt><trkpt lat="43.62170977359169" lon="13.000789576034459"><ele>238.4</ele><time>2026-04-29T15:00:39Z</time></trkpt><trkpt lat="43.6217750876293" lon="13.000933498114541"><ele>238.8</ele><time>2026-04-29T15:00:40Z</time></trkpt><trkpt lat="43.621824482569" lon="13.00106533029585"><ele>239.2</ele><time>2026-04-29T15:00:41Z</time></trkpt><trkpt lat="43.62185638935001" lon="13.001199858640168"><ele>239.6</ele><time>2026-04-29T15:00:42Z</time></trkpt><trkpt lat="43.62189440046579" lon="13.001316758631289"><ele>240.0</ele><time>2026-04-29T15:00:43Z</time></trkpt><trkpt lat="43.621929058932366" lon="13.001423347625533"><ele>240.0</ele><time>2026-04-29T15:00:44Z</time></trkpt><trkpt lat="43.62197488477727" lon="13.001564281065162"><ele>240.0</ele><time>2026-04-29T15:00:45Z</time></trkpt><trkpt lat="43.6220267065442" lon="13.00171848494656"><ele>240.0</ele><time>2026-04-29T15:00:46Z</time></trkpt><trkpt lat="43.6220839365789" lon="13.001840368877543"><ele>240.0</ele><time>2026-04-29T15:00:47Z</time></trkpt><trkpt lat="43.62212752812039" lon="13.00197989523072"><ele>240.0</ele><time>2026-04-29T15:00:48Z</time></trkpt><trkpt lat="43.622196880970066" lon="13.00215256191709"><ele>240.0</ele><time>2026-04-29T15:00:49Z</time></trkpt><trkpt lat="43.622291205938346" lon="13.002364822789282"><ele>240.0</ele><time>2026-04-29T15:00:50Z</time></trkpt><trkpt lat="43.622414131152105" lon="13.00261256587087"><ele>242.33333333333331</ele><time>2026-04-29T15:00:51Z</time></trkpt><trkpt lat="43.622524179921264" lon="13.002842862868185"><ele>244.66666666666666</ele><time>2026-04-29T15:00:51.999Z</time></trkpt><trkpt lat="43.62264059268505" lon="13.003000154125143"><ele>247.0</ele><time>2026-04-29T15:00:52.999Z</time></trkpt><trkpt lat="43.622728773842184" lon="13.003156876492726"><ele>247.0</ele><time>2026-04-29T15:00:53.999Z</time></trkpt><trkpt lat="43.62280479478255" lon="13.003304644764562"><ele>247.0</ele><time>2026-04-29T15:00:54.999Z</time></trkpt><trkpt lat="43.622871199198784" lon="13.003446987036096"><ele>247.0</ele><time>2026-04-29T15:00:55.999Z</time></trkpt><trkpt lat="43.62294083568841" lon="13.003595037016286"><ele>247.0</ele><time>2026-04-29T15:00:56.999Z</time></trkpt><trkpt lat="43.62299820879577" lon="13.00372666449164"><ele>247.25</ele><time>2026-04-29T15:00:57.999Z</time></trkpt><trkpt lat="43.62304464183007" lon="13.003852507733818"><ele>247.5</ele><time>2026-04-29T15:00:58.999Z</time></trkpt><trkpt lat="43.623088974732035" lon="13.003974254133963"><ele>247.75</ele><time>2026-04-29T15:00:59.999Z</time></trkpt><trkpt lat="43.62313225487073" lon="13.004121082354596"><ele>248.0</ele><time>2026-04-29T15:01:00.999Z</time></trkpt><trkpt lat="43.623185344024975" lon="13.004293438608292"><ele>249.0</ele><time>2026-04-29T15:01:01.999Z</time></trkpt><trkpt lat="43.623240473366586" lon="13.004449806460908"><ele>250.0</ele><time>2026-04-29T15:01:02.999Z</time></trkpt><trkpt lat="43.623284292907535" lon="13.004595633152181"><ele>251.0</ele><time>2026-04-29T15:01:03.999Z</time></trkpt><trkpt lat="43.62333196764483" lon="13.004737870958715"><ele>252.0</ele><time>2026-04-29T15:01:04.999Z</time></trkpt><trkpt lat="43.62337231202387" lon="13.004860164929072"><ele>252.0</ele><time>2026-04-29T15:01:05.999Z</time></trkpt><trkpt lat="43.62340700409195" lon="13.004968500198077"><ele>252.0</ele><time>2026-04-29T15:01:06.999Z</time></trkpt><trkpt lat="43.62344253970429" lon="13.005076421465102"><ele>252.0</ele><time>2026-04-29T15:01:07.999Z</time></trkpt><trkpt lat="43.623471898033486" lon="13.005186549299989"><ele>252.0</ele><time>2026-04-29T15:01:08.999Z</time></trkpt><trkpt lat="43.6234934858421" lon="13.00530233695151"><ele>252.0</ele><time>2026-04-29T15:01:09.999Z</time></trkpt><trkpt lat="43.62349607142998" lon="13.005394946313583"><ele>252.0</ele><time>2026-04-29T15:01:10.999Z</time></trkpt><trkpt lat="43.62349452158014" lon="13.005482137620799"><ele>251.2</ele><time>2026-04-29T15:01:11.999Z</time></trkpt><trkpt lat="43.62346752851286" lon="13.005616177831735"><ele>250.39999999999998</ele><time>2026-04-29T15:01:13.999Z</time></trkpt><trkpt lat="43.62342555134234" lon="13.005716429651079"><ele>249.60000000000002</ele><time>2026-04-29T15:01:15.999Z</time></trkpt><trkpt lat="43.62348600147655" lon="13.005832613367128"><ele>248.8</ele><time>2026-04-29T15:01:20.999Z</time></trkpt><trkpt lat="43.62356753430854" lon="13.005815214677634"><ele>248.0</ele><time>2026-04-29T15:01:22.999Z</time></trkpt><trkpt lat="43.62358185620223" lon="13.005941449217334"><ele>246.8</ele><time>2026-04-29T15:01:26.999Z</time></trkpt><trkpt lat="43.62354400500231" lon="13.006114577197941"><ele>245.60000000000002</ele><time>2026-04-29T15:01:28.999Z</time></trkpt><trkpt lat="43.62352902448354" lon="13.00620382620839"><ele>244.39999999999998</ele><time>2026-04-29T15:01:29.999Z</time></trkpt><trkpt lat="43.62350783831604" lon="13.00634811407039"><ele>243.2</ele><time>2026-04-29T15:01:30.999Z</time></trkpt><trkpt lat="43.623490622262466" lon="13.00653729800802"><ele>242.0</ele><time>2026-04-29T15:01:31.999Z</time></trkpt><trkpt lat="43.623486249693926" lon="13.006698098155612"><ele>241.0</ele><time>2026-04-29T15:01:32.999Z</time></trkpt><trkpt lat="43.623494062558166" lon="13.006864054597719"><ele>240.0</ele><time>2026-04-29T15:01:33.999Z</time></trkpt><trkpt lat="43.6235126377472" lon="13.007048303899671"><ele>239.0</ele><time>2026-04-29T15:01:34.999Z</time></trkpt><trkpt lat="43.62354673124941" lon="13.007216573903044"><ele>238.0</ele><time>2026-04-29T15:01:35.999Z</time></trkpt><trkpt lat="43.62356105435331" lon="13.00739387939328"><ele>237.5</ele><time>2026-04-29T15:01:36.999Z</time></trkpt><trkpt lat="43.623564714142745" lon="13.007567452287518"><ele>237.0</ele><time>2026-04-29T15:01:37.999Z</time></trkpt><trkpt lat="43.6235649832217" lon="13.007748663687762"><ele>236.5</ele><time>2026-04-29T15:01:38.999Z</time></trkpt><trkpt lat="43.623557917069675" lon="13.00793392828023"><ele>236.0</ele><time>2026-04-29T15:01:39.999Z</time></trkpt><trkpt lat="43.62356694846125" lon="13.00812096150179"><ele>236.0</ele><time>2026-04-29T15:01:40.999Z</time></trkpt><trkpt lat="43.623586008018705" lon="13.008316139213647"><ele>236.0</ele><time>2026-04-29T15:01:41.999Z</time></trkpt><trkpt lat="43.62361473344502" lon="13.008510533201907"><ele>236.0</ele><time>2026-04-29T15:01:42.999Z</time></trkpt><trkpt lat="43.62365279267178" lon="13.008703113575974"><ele>236.0</ele><time>2026-04-29T15:01:43.999Z</time></trkpt><trkpt lat="43.62369428544751" lon="13.008894246056437"><ele>231.5</ele><time>2026-04-29T15:01:44.999Z</time></trkpt><trkpt lat="43.62374638389602" lon="13.009075942911707"><ele>227.0</ele><time>2026-04-29T15:01:45.999Z</time></trkpt><trkpt lat="43.62380002897483" lon="13.009258778808809"><ele>222.5</ele><time>2026-04-29T15:01:46.999Z</time></trkpt><trkpt lat="43.623855617778716" lon="13.009442340027293"><ele>218.0</ele><time>2026-04-29T15:01:47.999Z</time></trkpt><trkpt lat="43.62390436589239" lon="13.009621291134724"><ele>218.0</ele><time>2026-04-29T15:01:48.999Z</time></trkpt><trkpt lat="43.62394420077621" lon="13.009806464732288"><ele>218.0</ele><time>2026-04-29T15:01:49.999Z</time></trkpt><trkpt lat="43.62397570785773" lon="13.010004201249103"><ele>218.0</ele><time>2026-04-29T15:01:50.999Z</time></trkpt><trkpt lat="43.62400438954505" lon="13.010214231752192"><ele>218.0</ele><time>2026-04-29T15:01:51.999Z</time></trkpt><trkpt lat="43.62403607171117" lon="13.010429508445254"><ele>217.66666666666669</ele><time>2026-04-29T15:01:52.999Z</time></trkpt><trkpt lat="43.624065005471614" lon="13.010639621885874"><ele>217.33333333333331</ele><time>2026-04-29T15:01:53.999Z</time></trkpt><trkpt lat="43.62409533869853" lon="13.010856640730974"><ele>217.0</ele><time>2026-04-29T15:01:54.999Z</time></trkpt><trkpt lat="43.62412447932016" lon="13.011077710186598"><ele>217.0</ele><time>2026-04-29T15:01:55.999Z</time></trkpt><trkpt lat="43.62415208002196" lon="13.011300485770487"><ele>217.0</ele><time>2026-04-29T15:01:56.999Z</time></trkpt><trkpt lat="43.62418041893623" lon="13.01153049352567"><ele>217.0</ele><time>2026-04-29T15:01:57.999Z</time></trkpt><trkpt lat="43.62421213432417" lon="13.011755114550875"><ele>216.33333333333331</ele><time>2026-04-29T15:01:58.999Z</time></trkpt><trkpt lat="43.62424265646018" lon="13.011977164094702"><ele>215.66666666666669</ele><time>2026-04-29T15:01:59.999Z</time></trkpt><trkpt lat="43.62427286791143" lon="13.012198719094172"><ele>215.0</ele><time>2026-04-29T15:02:00.999Z</time></trkpt><trkpt lat="43.624304411376336" lon="13.012414564879768"><ele>214.33333333333334</ele><time>2026-04-29T15:02:01.999Z</time></trkpt><trkpt lat="43.62434110820159" lon="13.012621398150202"><ele>213.66666666666669</ele><time>2026-04-29T15:02:02.999Z</time></trkpt><trkpt lat="43.624380322801706" lon="13.012820213680987"><ele>213.0</ele><time>2026-04-29T15:02:03.999Z</time></trkpt><trkpt lat="43.62442039204337" lon="13.013020675853689"><ele>213.0</ele><time>2026-04-29T15:02:04.999Z</time></trkpt><trkpt lat="43.62445225468378" lon="13.013201535318995"><ele>213.0</ele><time>2026-04-29T15:02:05.999Z</time></trkpt><trkpt lat="43.62447728267385" lon="13.013369335487715"><ele>213.0</ele><time>2026-04-29T15:02:06.999Z</time></trkpt><trkpt lat="43.624486453807805" lon="13.013520705700127"><ele>213.0</ele><time>2026-04-29T15:02:07.999Z</time></trkpt><trkpt lat="43.6244861272911" lon="13.013663082183804"><ele>213.0</ele><time>2026-04-29T15:02:08.999Z</time></trkpt><trkpt lat="43.624476502206335" lon="13.013802691660361"><ele>213.0</ele><time>2026-04-29T15:02:09.999Z</time></trkpt><trkpt lat="43.62445783833553" lon="13.013942610065156"><ele>213.0</ele><time>2026-04-29T15:02:10.999Z</time></trkpt><trkpt lat="43.624439109623204" lon="13.014083700666575"><ele>213.0</ele><time>2026-04-29T15:02:11.999Z</time></trkpt><trkpt lat="43.62442249271996" lon="13.014230843381826"><ele>213.0</ele><time>2026-04-29T15:02:12.999Z</time></trkpt><trkpt lat="43.624401202824494" lon="13.014368868553277"><ele>212.0</ele><time>2026-04-29T15:02:13.999Z</time></trkpt><trkpt lat="43.624377314236284" lon="13.014491975473286"><ele>211.0</ele><time>2026-04-29T15:02:14.999Z</time></trkpt><trkpt lat="43.62435715693581" lon="13.014591658875988"><ele>210.0</ele><time>2026-04-29T15:02:15.999Z</time></trkpt><trkpt lat="43.6243008756932" lon="13.01471221274398"><ele>209.0</ele><time>2026-04-29T15:02:17.999Z</time></trkpt><trkpt lat="43.62441243029801" lon="13.01490035259473"><ele>208.0</ele><time>2026-04-29T15:02:19.999Z</time></trkpt><trkpt lat="43.62444929500774" lon="13.014974134641461"><ele>206.99999999999997</ele><time>2026-04-29T15:02:20.999Z</time></trkpt><trkpt lat="43.62449169385143" lon="13.015058297620419"><ele>206.0</ele><time>2026-04-29T15:02:21.999Z</time></trkpt><trkpt lat="43.624539156670004" lon="13.015147142959828"><ele>205.0</ele><time>2026-04-29T15:02:22.999Z</time></trkpt><trkpt lat="43.62458844723161" lon="13.015244732908771"><ele>204.0</ele><time>2026-04-29T15:02:23.999Z</time></trkpt><trkpt lat="43.624643518330664" lon="13.01535586177402"><ele>202.99999999999997</ele><time>2026-04-29T15:02:24.999Z</time></trkpt><trkpt lat="43.6247012123315" lon="13.015471869581612"><ele>202.0</ele><time>2026-04-29T15:02:25.999Z</time></trkpt><trkpt lat="43.62476215417904" lon="13.015592810090476"><ele>202.0</ele><time>2026-04-29T15:02:26.999Z</time></trkpt><trkpt lat="43.624827066192736" lon="13.015708519078153"><ele>202.0</ele><time>2026-04-29T15:02:27.999Z</time></trkpt><trkpt lat="43.62489279309178" lon="13.015830523383281"><ele>202.0</ele><time>2026-04-29T15:02:28.999Z</time></trkpt><trkpt lat="43.62495782878447" lon="13.015957495804535"><ele>202.0</ele><time>2026-04-29T15:02:29.999Z</time></trkpt><trkpt lat="43.625024577224586" lon="13.016086133122986"><ele>202.0</ele><time>2026-04-29T15:02:30.999Z</time></trkpt><trkpt lat="43.62509404456053" lon="13.016216603782157"><ele>201.25</ele><time>2026-04-29T15:02:31.999Z</time></trkpt><trkpt lat="43.625165534599994" lon="13.016345111983846"><ele>200.5</ele><time>2026-04-29T15:02:32.999Z</time></trkpt><trkpt lat="43.62523636023001" lon="13.016479887399123"><ele>199.75</ele><time>2026-04-29T15:02:33.999Z</time></trkpt><trkpt lat="43.62530679149864" lon="13.016616528993916"><ele>199.0</ele><time>2026-04-29T15:02:34.999Z</time></trkpt><trkpt lat="43.62537394046406" lon="13.016747731278668"><ele>196.25</ele><time>2026-04-29T15:02:35.999Z</time></trkpt><trkpt lat="43.625443123555456" lon="13.016884333892213"><ele>193.5</ele><time>2026-04-29T15:02:36.999Z</time></trkpt><trkpt lat="43.625517941089484" lon="13.017034965846584"><ele>190.75</ele><time>2026-04-29T15:02:37.999Z</time></trkpt><trkpt lat="43.6255926713661" lon="13.01718744504137"><ele>188.0</ele><time>2026-04-29T15:02:38.999Z</time></trkpt><trkpt lat="43.62565397743762" lon="13.017347088150965"><ele>188.0</ele><time>2026-04-29T15:02:39.999Z</time></trkpt><trkpt lat="43.625734612982605" lon="13.017475764428303"><ele>188.0</ele><time>2026-04-29T15:02:40.999Z</time></trkpt><trkpt lat="43.6258004844144" lon="13.017622031534621"><ele>188.0</ele><time>2026-04-29T15:02:41.999Z</time></trkpt><trkpt lat="43.62586756825182" lon="13.01775915921279"><ele>188.0</ele><time>2026-04-29T15:02:42.999Z</time></trkpt><trkpt lat="43.62593199218505" lon="13.01788901603691"><ele>187.25</ele><time>2026-04-29T15:02:43.999Z</time></trkpt><trkpt lat="43.625990389086205" lon="13.018025463162543"><ele>186.5</ele><time>2026-04-29T15:02:44.999Z</time></trkpt><trkpt lat="43.626051993614915" lon="13.018162107772985"><ele>185.75</ele><time>2026-04-29T15:02:45.999Z</time></trkpt><trkpt lat="43.62611524508115" lon="13.018297712491849"><ele>185.0</ele><time>2026-04-29T15:02:46.999Z</time></trkpt><trkpt lat="43.62617472159255" lon="13.01842701024705"><ele>182.2</ele><time>2026-04-29T15:02:47.999Z</time></trkpt><trkpt lat="43.626234504548805" lon="13.01854865346476"><ele>179.4</ele><time>2026-04-29T15:02:48.999Z</time></trkpt><trkpt lat="43.626297767636004" lon="13.01866895784653"><ele>176.60000000000002</ele><time>2026-04-29T15:02:49.999Z</time></trkpt><trkpt lat="43.626361767543635" lon="13.018788534549294"><ele>173.8</ele><time>2026-04-29T15:02:50.999Z</time></trkpt><trkpt lat="43.62643312767445" lon="13.018902226946619"><ele>171.0</ele><time>2026-04-29T15:02:51.999Z</time></trkpt><trkpt lat="43.62651596519406" lon="13.019007353375049"><ele>171.0</ele><time>2026-04-29T15:02:52.999Z</time></trkpt><trkpt lat="43.62660353525965" lon="13.01910275268412"><ele>171.0</ele><time>2026-04-29T15:02:53.999Z</time></trkpt><trkpt lat="43.62669253616768" lon="13.019199994877868"><ele>171.0</ele><time>2026-04-29T15:02:54.999Z</time></trkpt><trkpt lat="43.6267912689311" lon="13.019305726713041"><ele>171.0</ele><time>2026-04-29T15:02:55.999Z</time></trkpt><trkpt lat="43.62687371936189" lon="13.019407632909894"><ele>171.0</ele><time>2026-04-29T15:02:56.999Z</time></trkpt><trkpt lat="43.62696608525152" lon="13.01951014457598"><ele>171.0</ele><time>2026-04-29T15:02:57.999Z</time></trkpt><trkpt lat="43.627059964506806" lon="13.019611176169697"><ele>171.0</ele><time>2026-04-29T15:02:58.999Z</time></trkpt><trkpt lat="43.62715623645982" lon="13.019711148825348"><ele>171.0</ele><time>2026-04-29T15:02:59.999Z</time></trkpt><trkpt lat="43.62725554336651" lon="13.019814898451543"><ele>169.0</ele><time>2026-04-29T15:03:00.999Z</time></trkpt><trkpt lat="43.62735617822653" lon="13.019920977878837"><ele>167.0</ele><time>2026-04-29T15:03:01.999Z</time></trkpt><trkpt lat="43.62745605061602" lon="13.020027686378421"><ele>165.0</ele><time>2026-04-29T15:03:02.999Z</time></trkpt><trkpt lat="43.627557153456664" lon="13.020131200790267"><ele>163.0</ele><time>2026-04-29T15:03:03.999Z</time></trkpt><trkpt lat="43.62765895071877" lon="13.020232645943109"><ele>161.75</ele><time>2026-04-29T15:03:04.999Z</time></trkpt><trkpt lat="43.62775968344167" lon="13.020330740931115"><ele>160.5</ele><time>2026-04-29T15:03:05.999Z</time></trkpt><trkpt lat="43.627857045366724" lon="13.020425305790146"><ele>159.25</ele><time>2026-04-29T15:03:06.999Z</time></trkpt><trkpt lat="43.627952874398524" lon="13.020516984507067"><ele>158.0</ele><time>2026-04-29T15:03:07.999Z</time></trkpt><trkpt lat="43.62804565112353" lon="13.020596718944036"><ele>155.8</ele><time>2026-04-29T15:03:08.999Z</time></trkpt><trkpt lat="43.62813604148453" lon="13.02067246493297"><ele>153.60000000000002</ele><time>2026-04-29T15:03:09.999Z</time></trkpt><trkpt lat="43.62822183377432" lon="13.020742285307822"><ele>151.39999999999998</ele><time>2026-04-29T15:03:10.999Z</time></trkpt><trkpt lat="43.6283093526751" lon="13.020815806933195"><ele>149.2</ele><time>2026-04-29T15:03:11.999Z</time></trkpt><trkpt lat="43.628394544505355" lon="13.020892197422913"><ele>147.0</ele><time>2026-04-29T15:03:12.999Z</time></trkpt><trkpt lat="43.62848234524227" lon="13.020967224464034"><ele>146.4</ele><time>2026-04-29T15:03:13.999Z</time></trkpt><trkpt lat="43.628559788284754" lon="13.021052868213825"><ele>145.79999999999998</ele><time>2026-04-29T15:03:14.999Z</time></trkpt><trkpt lat="43.628629414576665" lon="13.021146541257664"><ele>145.2</ele><time>2026-04-29T15:03:15.999Z</time></trkpt><trkpt lat="43.628692778999614" lon="13.02124203910047"><ele>144.6</ele><time>2026-04-29T15:03:16.999Z</time></trkpt><trkpt lat="43.62875034933184" lon="13.021336914417267"><ele>144.0</ele><time>2026-04-29T15:03:17.999Z</time></trkpt><trkpt lat="43.62880738246855" lon="13.021428522054721"><ele>142.0</ele><time>2026-04-29T15:03:18.999Z</time></trkpt><trkpt lat="43.62886283252748" lon="13.021516783296102"><ele>140.0</ele><time>2026-04-29T15:03:19.999Z</time></trkpt><trkpt lat="43.628898510693084" lon="13.021630095990231"><ele>138.0</ele><time>2026-04-29T15:03:20.999Z</time></trkpt><trkpt lat="43.62893882334502" lon="13.021744279706056"><ele>136.0</ele><time>2026-04-29T15:03:21.999Z</time></trkpt><trkpt lat="43.628970606036404" lon="13.02186264463459"><ele>134.0</ele><time>2026-04-29T15:03:22.999Z</time></trkpt><trkpt lat="43.629013966050316" lon="13.021979995434867"><ele>133.4</ele><time>2026-04-29T15:03:23.999Z</time></trkpt><trkpt lat="43.629038940495086" lon="13.022113687834327"><ele>132.8</ele><time>2026-04-29T15:03:24.999Z</time></trkpt><trkpt lat="43.62906049814358" lon="13.022250102803703"><ele>132.2</ele><time>2026-04-29T15:03:25.999Z</time></trkpt><trkpt lat="43.629080535977145" lon="13.022394016658346"><ele>131.6</ele><time>2026-04-29T15:03:26.999Z</time></trkpt><trkpt lat="43.62910235393736" lon="13.022559823711306"><ele>131.0</ele><time>2026-04-29T15:03:27.999Z</time></trkpt><trkpt lat="43.629122592827486" lon="13.022738132701706"><ele>130.0</ele><time>2026-04-29T15:03:28.999Z</time></trkpt><trkpt lat="43.62913765476423" lon="13.022910272117077"><ele>129.0</ele><time>2026-04-29T15:03:29.999Z</time></trkpt><trkpt lat="43.629149489171795" lon="13.0230913645027"><ele>128.0</ele><time>2026-04-29T15:03:30.999Z</time></trkpt><trkpt lat="43.62915019095595" lon="13.02326610699892"><ele>127.0</ele><time>2026-04-29T15:03:31.999Z</time></trkpt><trkpt lat="43.629144924649125" lon="13.023436905464395"><ele>126.0</ele><time>2026-04-29T15:03:32.999Z</time></trkpt><trkpt lat="43.629134652337335" lon="13.02360375262894"><ele>125.0</ele><time>2026-04-29T15:03:33.999Z</time></trkpt><trkpt lat="43.62911850689135" lon="13.02377165365421"><ele>124.0</ele><time>2026-04-29T15:03:34.999Z</time></trkpt><trkpt lat="43.62908920305156" lon="13.023946300033552"><ele>123.0</ele><time>2026-04-29T15:03:35.999Z</time></trkpt><trkpt lat="43.6290357266275" lon="13.024125182827262"><ele>122.25</ele><time>2026-04-29T15:03:36.999Z</time></trkpt><trkpt lat="43.62900346518834" lon="13.02431760731637"><ele>121.5</ele><time>2026-04-29T15:03:37.999Z</time></trkpt><trkpt lat="43.62896231981108" lon="13.024483422866853"><ele>120.75</ele><time>2026-04-29T15:03:38.999Z</time></trkpt><trkpt lat="43.62892798760332" lon="13.024637480601514"><ele>120.0</ele><time>2026-04-29T15:03:39.999Z</time></trkpt><trkpt lat="43.62888614988465" lon="13.024785338281983"><ele>120.0</ele><time>2026-04-29T15:03:40.999Z</time></trkpt><trkpt lat="43.62885946467017" lon="13.024933833421393"><ele>120.0</ele><time>2026-04-29T15:03:41.999Z</time></trkpt><trkpt lat="43.628834430622675" lon="13.025086446864126"><ele>120.0</ele><time>2026-04-29T15:03:42.999Z</time></trkpt><trkpt lat="43.628791524959674" lon="13.025225954418222"><ele>120.0</ele><time>2026-04-29T15:03:43.999Z</time></trkpt><trkpt lat="43.62874756171248" lon="13.025366275866343"><ele>120.0</ele><time>2026-04-29T15:03:44.999Z</time></trkpt><trkpt lat="43.62871332820092" lon="13.025525199434071"><ele>119.2</ele><time>2026-04-29T15:03:45.999Z</time></trkpt><trkpt lat="43.62867267390016" lon="13.025646891133475"><ele>118.4</ele><time>2026-04-29T15:03:46.999Z</time></trkpt><trkpt lat="43.62865426428875" lon="13.025758465078521"><ele>117.6</ele><time>2026-04-29T15:03:47.999Z</time></trkpt><trkpt lat="43.62866375469801" lon="13.025882834233705"><ele>116.8</ele><time>2026-04-29T15:03:48.999Z</time></trkpt><trkpt lat="43.62867896893744" lon="13.026037842461474"><ele>116.0</ele><time>2026-04-29T15:03:49.999Z</time></trkpt><trkpt lat="43.628694095432024" lon="13.026189852311928"><ele>116.4</ele><time>2026-04-29T15:03:50.999Z</time></trkpt><trkpt lat="43.628684449416546" lon="13.026326002124918"><ele>116.8</ele><time>2026-04-29T15:03:51.999Z</time></trkpt><trkpt lat="43.62867657867116" lon="13.02646636407473"><ele>117.20000000000002</ele><time>2026-04-29T15:03:52.999Z</time></trkpt><trkpt lat="43.62865407829934" lon="13.026610576320381"><ele>117.60000000000001</ele><time>2026-04-29T15:03:53.999Z</time></trkpt><trkpt lat="43.6286235395681" lon="13.026746580443694"><ele>118.0</ele><time>2026-04-29T15:03:54.999Z</time></trkpt><trkpt lat="43.628580691594294" lon="13.0268627085145"><ele>118.0</ele><time>2026-04-29T15:03:55.999Z</time></trkpt><trkpt lat="43.62854054709377" lon="13.02698027521558"><ele>118.00000000000001</ele><time>2026-04-29T15:03:56.999Z</time></trkpt><trkpt lat="43.62845644493872" lon="13.027052059410352"><ele>118.00000000000001</ele><time>2026-04-29T15:03:57.999Z</time></trkpt><trkpt lat="43.62837170470036" lon="13.027133932446892"><ele>118.0</ele><time>2026-04-29T15:03:58.999Z</time></trkpt><trkpt lat="43.62827380740253" lon="13.027215593420054"><ele>118.0</ele><time>2026-04-29T15:03:59.999Z</time></trkpt><trkpt lat="43.628180398723124" lon="13.027301309626003"><ele>118.0</ele><time>2026-04-29T15:04:00.999Z</time></trkpt><trkpt lat="43.62808144629731" lon="13.027354530594517"><ele>118.00000000000001</ele><time>2026-04-29T15:04:01.999Z</time></trkpt><trkpt lat="43.62799182026033" lon="13.02740660940352"><ele>118.00000000000001</ele><time>2026-04-29T15:04:02.999Z</time></trkpt><trkpt lat="43.627921185973356" lon="13.027448883231699"><ele>118.0</ele><time>2026-04-29T15:04:03.999Z</time></trkpt><trkpt lat="43.627863007141066" lon="13.027494367230338"><ele>118.0</ele><time>2026-04-29T15:04:04.999Z</time></trkpt><trkpt lat="43.627807110600315" lon="13.02762117433618"><ele>116.2</ele><time>2026-04-29T15:04:06.999Z</time></trkpt><trkpt lat="43.62779142703942" lon="13.027707549699498"><ele>114.4</ele><time>2026-04-29T15:04:07.999Z</time></trkpt><trkpt lat="43.627820576662984" lon="13.027831553547538"><ele>112.60000000000001</ele><time>2026-04-29T15:04:08.999Z</time></trkpt><trkpt lat="43.62788667979749" lon="13.027922130876807"><ele>110.80000000000001</ele><time>2026-04-29T15:04:09.999Z</time></trkpt><trkpt lat="43.62795083515205" lon="13.028007784142517"><ele>109.0</ele><time>2026-04-29T15:04:10.999Z</time></trkpt><trkpt lat="43.62804053151282" lon="13.028130151577678"><ele>108.4</ele><time>2026-04-29T15:04:11.999Z</time></trkpt><trkpt lat="43.62812390417884" lon="13.028254954854782"><ele>107.80000000000001</ele><time>2026-04-29T15:04:12.999Z</time></trkpt><trkpt lat="43.62819089447582" lon="13.028357542176765"><ele>107.19999999999999</ele><time>2026-04-29T15:04:13.999Z</time></trkpt><trkpt lat="43.62825715886929" lon="13.028456938985181"><ele>106.6</ele><time>2026-04-29T15:04:14.999Z</time></trkpt><trkpt lat="43.628338634259066" lon="13.02856008386529"><ele>106.0</ele><time>2026-04-29T15:04:15.999Z</time></trkpt><trkpt lat="43.6283898310838" lon="13.028670446058811"><ele>105.8</ele><time>2026-04-29T15:04:16.999Z</time></trkpt><trkpt lat="43.628409782294135" lon="13.028774241809286"><ele>105.6</ele><time>2026-04-29T15:04:17.999Z</time></trkpt><trkpt lat="43.628431799874484" lon="13.028881221860559"><ele>105.4</ele><time>2026-04-29T15:04:18.999Z</time></trkpt><trkpt lat="43.62844829033201" lon="13.029041880838765"><ele>105.2</ele><time>2026-04-29T15:04:19.999Z</time></trkpt><trkpt lat="43.62847287126922" lon="13.029201222754912"><ele>105.0</ele><time>2026-04-29T15:04:20.999Z</time></trkpt><trkpt lat="43.628498216201166" lon="13.02934448353796"><ele>105.4</ele><time>2026-04-29T15:04:21.999Z</time></trkpt><trkpt lat="43.62854869949562" lon="13.029483218653327"><ele>105.8</ele><time>2026-04-29T15:04:22.999Z</time></trkpt><trkpt lat="43.628597188749396" lon="13.029628598436103"><ele>106.19999999999999</ele><time>2026-04-29T15:04:23.999Z</time></trkpt><trkpt lat="43.62865269596747" lon="13.029761101476868"><ele>106.6</ele><time>2026-04-29T15:04:24.999Z</time></trkpt><trkpt lat="43.62871638173294" lon="13.029882770197233"><ele>107.0</ele><time>2026-04-29T15:04:25.999Z</time></trkpt><trkpt lat="43.628783388351785" lon="13.03000302396247"><ele>105.6</ele><time>2026-04-29T15:04:26.999Z</time></trkpt><trkpt lat="43.628851507784105" lon="13.0301164494174"><ele>104.19999999999999</ele><time>2026-04-29T15:04:27.999Z</time></trkpt><trkpt lat="43.62892352342476" lon="13.030227898148246"><ele>102.8</ele><time>2026-04-29T15:04:28.999Z</time></trkpt><trkpt lat="43.628989853721244" lon="13.030333187797035"><ele>101.4</ele><time>2026-04-29T15:04:29.999Z</time></trkpt><trkpt lat="43.62905395478456" lon="13.030428649417166"><ele>100.0</ele><time>2026-04-29T15:04:30.999Z</time></trkpt><trkpt lat="43.62911849900476" lon="13.030529953961215"><ele>100.0</ele><time>2026-04-29T15:04:31.999Z</time></trkpt><trkpt lat="43.62918297159851" lon="13.030635438167216"><ele>100.0</ele><time>2026-04-29T15:04:32.999Z</time></trkpt><trkpt lat="43.629257560997935" lon="13.030730106719824"><ele>100.0</ele><time>2026-04-29T15:04:33.999Z</time></trkpt><trkpt lat="43.62935324588842" lon="13.030821356966886"><ele>100.0</ele><time>2026-04-29T15:04:34.999Z</time></trkpt><trkpt lat="43.629469500322" lon="13.030918042781387"><ele>99.5</ele><time>2026-04-29T15:04:35.999Z</time></trkpt><trkpt lat="43.629594545474426" lon="13.031053553676095"><ele>99.0</ele><time>2026-04-29T15:04:36.999Z</time></trkpt><trkpt lat="43.62971321036459" lon="13.031168849169239"><ele>98.5</ele><time>2026-04-29T15:04:37.999Z</time></trkpt><trkpt lat="43.62980945925648" lon="13.031264160715612"><ele>98.0</ele><time>2026-04-29T15:04:38.999Z</time></trkpt><trkpt lat="43.62991605382675" lon="13.0313557192681"><ele>98.0</ele><time>2026-04-29T15:04:39.999Z</time></trkpt><trkpt lat="43.630013897396935" lon="13.031451017385523"><ele>98.0</ele><time>2026-04-29T15:04:40.999Z</time></trkpt><trkpt lat="43.63010659743556" lon="13.0315588689532"><ele>98.0</ele><time>2026-04-29T15:04:41.999Z</time></trkpt><trkpt lat="43.63019577559529" lon="13.031677308619987"><ele>98.0</ele><time>2026-04-29T15:04:42.999Z</time></trkpt><trkpt lat="43.63028251817242" lon="13.03180521616835"><ele>100.80000000000001</ele><time>2026-04-29T15:04:43.999Z</time></trkpt><trkpt lat="43.63036668192272" lon="13.031925588096144"><ele>103.6</ele><time>2026-04-29T15:04:44.999Z</time></trkpt><trkpt lat="43.63044031982326" lon="13.032037352547315"><ele>106.39999999999999</ele><time>2026-04-29T15:04:45.999Z</time></trkpt><trkpt lat="43.63049473893101" lon="13.032166169428983"><ele>109.19999999999999</ele><time>2026-04-29T15:04:46.999Z</time></trkpt><trkpt lat="43.63056003040769" lon="13.032264413698122"><ele>112.0</ele><time>2026-04-29T15:04:47.999Z</time></trkpt><trkpt lat="43.630600684150714" lon="13.032366235536415"><ele>112.00000000000001</ele><time>2026-04-29T15:04:48.999Z</time></trkpt><trkpt lat="43.63063675803186" lon="13.032454251383488"><ele>112.0</ele><time>2026-04-29T15:04:49.999Z</time></trkpt><trkpt lat="43.630675753222874" lon="13.032525663840417"><ele>112.0</ele><time>2026-04-29T15:04:50.999Z</time></trkpt><trkpt lat="43.63073750034905" lon="13.032588365227584"><ele>112.0</ele><time>2026-04-29T15:04:51.999Z</time></trkpt><trkpt lat="43.63082791476134" lon="13.032656578648826"><ele>112.00000000000001</ele><time>2026-04-29T15:04:52.999Z</time></trkpt><trkpt lat="43.63092142659089" lon="13.032726890159251"><ele>112.0</ele><time>2026-04-29T15:04:53.999Z</time></trkpt><trkpt lat="43.63102801127965" lon="13.032803748422511"><ele>113.75</ele><time>2026-04-29T15:04:54.999Z</time></trkpt><trkpt lat="43.631143207339505" lon="13.032899154104438"><ele>115.5</ele><time>2026-04-29T15:04:55.999Z</time></trkpt><trkpt lat="43.631242690903285" lon="13.033033536066183"><ele>117.25</ele><time>2026-04-29T15:04:56.999Z</time></trkpt><trkpt lat="43.63135383124293" lon="13.033141139452013"><ele>119.0</ele><time>2026-04-29T15:04:57.999Z</time></trkpt><trkpt lat="43.63145440868618" lon="13.033255306060122"><ele>117.0</ele><time>2026-04-29T15:04:58.999Z</time></trkpt><trkpt lat="43.63155539861694" lon="13.033365645798021"><ele>115.0</ele><time>2026-04-29T15:04:59.999Z</time></trkpt><trkpt lat="43.63165077163571" lon="13.03347366414264"><ele>113.0</ele><time>2026-04-29T15:05:00.999Z</time></trkpt><trkpt lat="43.631752056325624" lon="13.03356577143282"><ele>111.0</ele><time>2026-04-29T15:05:01.999Z</time></trkpt><trkpt lat="43.631856036662" lon="13.033666689402432"><ele>111.0</ele><time>2026-04-29T15:05:02.999Z</time></trkpt><trkpt lat="43.63194525732355" lon="13.03375795178811"><ele>111.0</ele><time>2026-04-29T15:05:03.999Z</time></trkpt><trkpt lat="43.6320319624007" lon="13.033850588116005"><ele>111.0</ele><time>2026-04-29T15:05:04.999Z</time></trkpt><trkpt lat="43.632123442464774" lon="13.03394632874489"><ele>111.0</ele><time>2026-04-29T15:05:05.999Z</time></trkpt><trkpt lat="43.63221779212758" lon="13.034042593027467"><ele>111.5</ele><time>2026-04-29T15:05:06.999Z</time></trkpt><trkpt lat="43.63230708521359" lon="13.034140056327006"><ele>112.0</ele><time>2026-04-29T15:05:07.999Z</time></trkpt><trkpt lat="43.63241299690462" lon="13.034214672385962"><ele>112.5</ele><time>2026-04-29T15:05:08.999Z</time></trkpt><trkpt lat="43.632524401482144" lon="13.034291633791742"><ele>113.0</ele><time>2026-04-29T15:05:09.999Z</time></trkpt><trkpt lat="43.63264072992804" lon="13.03436389433111"><ele>113.0</ele><time>2026-04-29T15:05:10.999Z</time></trkpt><trkpt lat="43.632752046302066" lon="13.034426502320853"><ele>113.0</ele><time>2026-04-29T15:05:11.999Z</time></trkpt><trkpt lat="43.632859223955485" lon="13.034500113926585"><ele>113.0</ele><time>2026-04-29T15:05:12.999Z</time></trkpt><trkpt lat="43.632970935615546" lon="13.034565874454511"><ele>113.0</ele><time>2026-04-29T15:05:13.999Z</time></trkpt><trkpt lat="43.63307787120762" lon="13.03462648387813"><ele>115.25</ele><time>2026-04-29T15:05:14.999Z</time></trkpt><trkpt lat="43.63318499594214" lon="13.034671337640097"><ele>117.5</ele><time>2026-04-29T15:05:15.999Z</time></trkpt><trkpt lat="43.63329424332401" lon="13.034701156228929"><ele>119.75</ele><time>2026-04-29T15:05:16.999Z</time></trkpt><trkpt lat="43.63341366780818" lon="13.034721948986043"><ele>122.0</ele><time>2026-04-29T15:05:17.999Z</time></trkpt><trkpt lat="43.63353074107988" lon="13.03473858271281"><ele>125.0</ele><time>2026-04-29T15:05:18.999Z</time></trkpt><trkpt lat="43.63364742112983" lon="13.03475485092553"><ele>128.0</ele><time>2026-04-29T15:05:19.999Z</time></trkpt><trkpt lat="43.63376306072234" lon="13.034786663522041"><ele>131.0</ele><time>2026-04-29T15:05:20.999Z</time></trkpt><trkpt lat="43.63387824978488" lon="13.034829019881082"><ele>134.0</ele><time>2026-04-29T15:05:21.999Z</time></trkpt><trkpt lat="43.633991021070095" lon="13.034873062808606"><ele>134.0</ele><time>2026-04-29T15:05:22.999Z</time></trkpt><trkpt lat="43.63410580779145" lon="13.034915716047557"><ele>134.0</ele><time>2026-04-29T15:05:23.999Z</time></trkpt><trkpt lat="43.63422123985005" lon="13.034955296735832"><ele>134.0</ele><time>2026-04-29T15:05:24.999Z</time></trkpt><trkpt lat="43.63434577039479" lon="13.034995172914597"><ele>134.0</ele><time>2026-04-29T15:05:25.999Z</time></trkpt><trkpt lat="43.63447245563243" lon="13.035037154060161"><ele>134.0</ele><time>2026-04-29T15:05:26.999Z</time></trkpt><trkpt lat="43.63459367751967" lon="13.035082172684428"><ele>134.0</ele><time>2026-04-29T15:05:27.999Z</time></trkpt><trkpt lat="43.63470702309261" lon="13.035126619218547"><ele>134.0</ele><time>2026-04-29T15:05:28.999Z</time></trkpt><trkpt lat="43.634820854009625" lon="13.035171420452643"><ele>134.0</ele><time>2026-04-29T15:05:29.999Z</time></trkpt><trkpt lat="43.63494081011686" lon="13.035217356793632"><ele>134.0</ele><time>2026-04-29T15:05:30.999Z</time></trkpt><trkpt lat="43.635062005269624" lon="13.035265797759074"><ele>134.0</ele><time>2026-04-29T15:05:31.999Z</time></trkpt><trkpt lat="43.635184541132524" lon="13.035319134976085"><ele>134.0</ele><time>2026-04-29T15:05:32.999Z</time></trkpt><trkpt lat="43.63528093730344" lon="13.035383880820499"><ele>134.0</ele><time>2026-04-29T15:05:33.999Z</time></trkpt><trkpt lat="43.6353654210718" lon="13.035470146932594"><ele>134.6</ele><time>2026-04-29T15:05:34.999Z</time></trkpt><trkpt lat="43.635426484566885" lon="13.035602376741803"><ele>135.2</ele><time>2026-04-29T15:05:35.999Z</time></trkpt><trkpt lat="43.63548795825604" lon="13.035732199431205"><ele>135.79999999999998</ele><time>2026-04-29T15:05:36.999Z</time></trkpt><trkpt lat="43.635559276276375" lon="13.035862533891548"><ele>136.4</ele><time>2026-04-29T15:05:37.999Z</time></trkpt><trkpt lat="43.63563644056741" lon="13.035955257712722"><ele>137.0</ele><time>2026-04-29T15:05:38.999Z</time></trkpt><trkpt lat="43.63570873881063" lon="13.036055433856928"><ele>137.0</ele><time>2026-04-29T15:05:39.999Z</time></trkpt><trkpt lat="43.6357961003861" lon="13.036164725637654"><ele>137.0</ele><time>2026-04-29T15:05:40.999Z</time></trkpt><trkpt lat="43.6358946044613" lon="13.03630497168891"><ele>137.0</ele><time>2026-04-29T15:05:41.999Z</time></trkpt><trkpt lat="43.636014561431054" lon="13.036459819518667"><ele>137.0</ele><time>2026-04-29T15:05:42.999Z</time></trkpt><trkpt lat="43.63612218977797" lon="13.036609715875018"><ele>139.0</ele><time>2026-04-29T15:05:43.999Z</time></trkpt><trkpt lat="43.63623216085751" lon="13.036761630060871"><ele>141.0</ele><time>2026-04-29T15:05:44.999Z</time></trkpt><trkpt lat="43.63634303733698" lon="13.036916679580592"><ele>143.0</ele><time>2026-04-29T15:05:45.999Z</time></trkpt><trkpt lat="43.636439884332034" lon="13.037096173635604"><ele>143.0</ele><time>2026-04-29T15:05:46.999Z</time></trkpt><trkpt lat="43.63653610089261" lon="13.03727278275879"><ele>143.0</ele><time>2026-04-29T15:05:47.999Z</time></trkpt><trkpt lat="43.63662603703089" lon="13.037451526157946"><ele>143.0</ele><time>2026-04-29T15:05:48.999Z</time></trkpt><trkpt lat="43.63671718895296" lon="13.037619476678246"><ele>143.0</ele><time>2026-04-29T15:05:49.999Z</time></trkpt><trkpt lat="43.6367887101213" lon="13.037770766952306"><ele>143.0</ele><time>2026-04-29T15:05:50.999Z</time></trkpt><trkpt lat="43.63686645626364" lon="13.03791855166244"><ele>143.0</ele><time>2026-04-29T15:05:51.999Z</time></trkpt><trkpt lat="43.63695266492434" lon="13.038049655271596"><ele>143.0</ele><time>2026-04-29T15:05:52.999Z</time></trkpt><trkpt lat="43.63704251743478" lon="13.03816544123375"><ele>146.5</ele><time>2026-04-29T15:05:53.999Z</time></trkpt><trkpt lat="43.63712462676614" lon="13.038255645760959"><ele>150.0</ele><time>2026-04-29T15:05:54.999Z</time></trkpt><trkpt lat="43.6372007643841" lon="13.038366126045908"><ele>153.5</ele><time>2026-04-29T15:05:55.999Z</time></trkpt><trkpt lat="43.63727979136415" lon="13.038479220355446"><ele>157.0</ele><time>2026-04-29T15:05:56.999Z</time></trkpt><trkpt lat="43.63738109782625" lon="13.038595480124663"><ele>157.75</ele><time>2026-04-29T15:05:57.999Z</time></trkpt><trkpt lat="43.63749375464425" lon="13.038743256002167"><ele>158.5</ele><time>2026-04-29T15:05:58.999Z</time></trkpt><trkpt lat="43.63757173121611" lon="13.038873879996789"><ele>159.25</ele><time>2026-04-29T15:05:59.999Z</time></trkpt><trkpt lat="43.637597462704875" lon="13.039003327284757"><ele>160.0</ele><time>2026-04-29T15:06:00.999Z</time></trkpt><trkpt lat="43.63764433696492" lon="13.039121371810417"><ele>161.2</ele><time>2026-04-29T15:06:01.999Z</time></trkpt><trkpt lat="43.637674046527145" lon="13.039286339946418"><ele>162.4</ele><time>2026-04-29T15:06:02.999Z</time></trkpt><trkpt lat="43.637706791469576" lon="13.039415479358771"><ele>163.60000000000002</ele><time>2026-04-29T15:06:03.999Z</time></trkpt><trkpt lat="43.637763864450605" lon="13.039513742520676"><ele>164.8</ele><time>2026-04-29T15:06:04.999Z</time></trkpt><trkpt lat="43.63784742735956" lon="13.039591716390257"><ele>166.0</ele><time>2026-04-29T15:06:05.999Z</time></trkpt><trkpt lat="43.63796640418958" lon="13.039687952207471"><ele>168.66666666666669</ele><time>2026-04-29T15:06:06.999Z</time></trkpt><trkpt lat="43.63811548891007" lon="13.039800203827841"><ele>171.33333333333334</ele><time>2026-04-29T15:06:07.999Z</time></trkpt><trkpt lat="43.63826198409594" lon="13.039917799899227"><ele>174.0</ele><time>2026-04-29T15:06:08.999Z</time></trkpt><trkpt lat="43.63837786208038" lon="13.040013138990105"><ele>174.16666666666666</ele><time>2026-04-29T15:06:09.999Z</time></trkpt><trkpt lat="43.63846081632803" lon="13.040061020494765"><ele>174.33333333333334</ele><time>2026-04-29T15:06:10.999Z</time></trkpt><trkpt lat="43.63853329240044" lon="13.040090008065993"><ele>174.5</ele><time>2026-04-29T15:06:11.999Z</time></trkpt><trkpt lat="43.638600903502926" lon="13.040108006889525"><ele>174.66666666666669</ele><time>2026-04-29T15:06:12.999Z</time></trkpt><trkpt lat="43.63867372411669" lon="13.040128681943973"><ele>174.83333333333334</ele><time>2026-04-29T15:06:14.999Z</time></trkpt><trkpt lat="43.638738994964065" lon="13.04013936986233"><ele>175.0</ele><time>2026-04-29T15:06:22.999Z</time></trkpt><trkpt lat="43.63884572269008" lon="13.040142303755617"><ele>174.6</ele><time>2026-04-29T15:06:24.999Z</time></trkpt><trkpt lat="43.63889719080612" lon="13.04024084486887"><ele>174.2</ele><time>2026-04-29T15:06:25.999Z</time></trkpt><trkpt lat="43.63898369249461" lon="13.040317310004347"><ele>173.8</ele><time>2026-04-29T15:06:26.999Z</time></trkpt><trkpt lat="43.63905913613735" lon="13.040423281379502"><ele>173.4</ele><time>2026-04-29T15:06:27.999Z</time></trkpt><trkpt lat="43.63914667130004" lon="13.040531576343007"><ele>173.0</ele><time>2026-04-29T15:06:28.999Z</time></trkpt><trkpt lat="43.63924788413117" lon="13.040645529992364"><ele>173.0</ele><time>2026-04-29T15:06:29.999Z</time></trkpt><trkpt lat="43.63933480245078" lon="13.040747012334165"><ele>173.0</ele><time>2026-04-29T15:06:30.999Z</time></trkpt><trkpt lat="43.63940815894295" lon="13.04084827688298"><ele>173.0</ele><time>2026-04-29T15:06:31.999Z</time></trkpt><trkpt lat="43.639459395339586" lon="13.040947945132466"><ele>173.0</ele><time>2026-04-29T15:06:32.999Z</time></trkpt><trkpt lat="43.63947636527339" lon="13.041041369558654"><ele>173.0</ele><time>2026-04-29T15:06:33.999Z</time></trkpt><trkpt lat="43.639445671777935" lon="13.041147052635937"><ele>172.4</ele><time>2026-04-29T15:06:34.999Z</time></trkpt><trkpt lat="43.63944130520567" lon="13.041257185390831"><ele>171.8</ele><time>2026-04-29T15:06:35.999Z</time></trkpt><trkpt lat="43.639401861716216" lon="13.041401363327958"><ele>171.2</ele><time>2026-04-29T15:06:36.999Z</time></trkpt><trkpt lat="43.63938275568362" lon="13.04152403121051"><ele>170.6</ele><time>2026-04-29T15:06:37.999Z</time></trkpt><trkpt lat="43.63937697461988" lon="13.041633525835604"><ele>170.0</ele><time>2026-04-29T15:06:38.999Z</time></trkpt><trkpt lat="43.63941913913872" lon="13.041762382287041"><ele>167.0</ele><time>2026-04-29T15:06:40Z</time></trkpt><trkpt lat="43.6395136025034" lon="13.04185894387688"><ele>164.0</ele><time>2026-04-29T15:06:41Z</time></trkpt><trkpt lat="43.63961091686013" lon="13.04196661875701"><ele>161.0</ele><time>2026-04-29T15:06:42Z</time></trkpt><trkpt lat="43.63972765898838" lon="13.04207038399848"><ele>158.0</ele><time>2026-04-29T15:06:43Z</time></trkpt><trkpt lat="43.639838539930984" lon="13.042167490473611"><ele>158.0</ele><time>2026-04-29T15:06:44Z</time></trkpt><trkpt lat="43.639942585058975" lon="13.042241273231944"><ele>158.0</ele><time>2026-04-29T15:06:45Z</time></trkpt><trkpt lat="43.64004338176504" lon="13.042324863928336"><ele>158.0</ele><time>2026-04-29T15:06:46Z</time></trkpt><trkpt lat="43.64014788511888" lon="13.042407831177865"><ele>158.0</ele><time>2026-04-29T15:06:47Z</time></trkpt><trkpt lat="43.64024373401073" lon="13.042501746925106"><ele>155.25</ele><time>2026-04-29T15:06:48Z</time></trkpt><trkpt lat="43.64033483338687" lon="13.04259689852679"><ele>152.5</ele><time>2026-04-29T15:06:49Z</time></trkpt><trkpt lat="43.64042522282721" lon="13.042695925245853"><ele>149.75</ele><time>2026-04-29T15:06:50Z</time></trkpt><trkpt lat="43.640527894854074" lon="13.042796441870369"><ele>147.0</ele><time>2026-04-29T15:06:51Z</time></trkpt><trkpt lat="43.640632952309545" lon="13.042890351932758"><ele>147.0</ele><time>2026-04-29T15:06:52Z</time></trkpt><trkpt lat="43.640730084626355" lon="13.042977393647265"><ele>147.0</ele><time>2026-04-29T15:06:53Z</time></trkpt><trkpt lat="43.64084284901179" lon="13.043046489047322"><ele>147.0</ele><time>2026-04-29T15:06:54Z</time></trkpt><trkpt lat="43.64093641467626" lon="13.04310419142103"><ele>147.0</ele><time>2026-04-29T15:06:55Z</time></trkpt><trkpt lat="43.64105419775841" lon="13.04311996588077"><ele>143.5</ele><time>2026-04-29T15:06:56Z</time></trkpt><trkpt lat="43.64119686438223" lon="13.043089903182905"><ele>140.0</ele><time>2026-04-29T15:06:57Z</time></trkpt><trkpt lat="43.641345056086614" lon="13.043075019572692"><ele>136.5</ele><time>2026-04-29T15:06:58Z</time></trkpt><trkpt lat="43.641479203305124" lon="13.043088139745903"><ele>133.0</ele><time>2026-04-29T15:06:59Z</time></trkpt><trkpt lat="43.64161243936427" lon="13.043126804634088"><ele>133.0</ele><time>2026-04-29T15:06:59.999Z</time></trkpt><trkpt lat="43.64175962303544" lon="13.043231133833826"><ele>133.0</ele><time>2026-04-29T15:07:00.999Z</time></trkpt><trkpt lat="43.64191130964684" lon="13.043311442395296"><ele>133.0</ele><time>2026-04-29T15:07:01.999Z</time></trkpt><trkpt lat="43.64205084899463" lon="13.043408882097355"><ele>130.33333333333334</ele><time>2026-04-29T15:07:02.999Z</time></trkpt><trkpt lat="43.64218101200942" lon="13.043499930006423"><ele>127.66666666666666</ele><time>2026-04-29T15:07:03.999Z</time></trkpt><trkpt lat="43.64232115896029" lon="13.043585396123637"><ele>125.0</ele><time>2026-04-29T15:07:04.999Z</time></trkpt><trkpt lat="43.642463656009824" lon="13.043676915023804"><ele>125.0</ele><time>2026-04-29T15:07:05.999Z</time></trkpt><trkpt lat="43.64259988606624" lon="13.043774311611635"><ele>125.0</ele><time>2026-04-29T15:07:06.999Z</time></trkpt><trkpt lat="43.642723037126" lon="13.043875611349627"><ele>125.0</ele><time>2026-04-29T15:07:07.999Z</time></trkpt><trkpt lat="43.642831903974226" lon="13.04397706034015"><ele>125.0</ele><time>2026-04-29T15:07:08.999Z</time></trkpt><trkpt lat="43.64293816922288" lon="13.044079168992573"><ele>123.75</ele><time>2026-04-29T15:07:09.999Z</time></trkpt><trkpt lat="43.643039680609874" lon="13.044180693424359"><ele>122.5</ele><time>2026-04-29T15:07:10.999Z</time></trkpt><trkpt lat="43.643134343793136" lon="13.04429027650048"><ele>121.25</ele><time>2026-04-29T15:07:11.999Z</time></trkpt><trkpt lat="43.64322720553909" lon="13.044415009856989"><ele>120.0</ele><time>2026-04-29T15:07:12.999Z</time></trkpt><trkpt lat="43.6433184399493" lon="13.04454264367924"><ele>120.0</ele><time>2026-04-29T15:07:13.999Z</time></trkpt><trkpt lat="43.64340996153606" lon="13.044672579515414"><ele>120.0</ele><time>2026-04-29T15:07:14.999Z</time></trkpt><trkpt lat="43.64349581233605" lon="13.044791955503614"><ele>120.0</ele><time>2026-04-29T15:07:15.999Z</time></trkpt><trkpt lat="43.643585039672985" lon="13.044901021414203"><ele>120.0</ele><time>2026-04-29T15:07:16.999Z</time></trkpt><trkpt lat="43.64369201933536" lon="13.04500292151225"><ele>117.0</ele><time>2026-04-29T15:07:17.999Z</time></trkpt><trkpt lat="43.64381760749579" lon="13.045102241255021"><ele>114.0</ele><time>2026-04-29T15:07:18.999Z</time></trkpt><trkpt lat="43.64396534104714" lon="13.04520345661425"><ele>111.0</ele><time>2026-04-29T15:07:19.999Z</time></trkpt><trkpt lat="43.644098972266356" lon="13.045301431487879"><ele>111.0</ele><time>2026-04-29T15:07:20.999Z</time></trkpt><trkpt lat="43.64422246185125" lon="13.045388653408693"><ele>111.0</ele><time>2026-04-29T15:07:21.999Z</time></trkpt><trkpt lat="43.64435453783476" lon="13.045480213738161"><ele>111.0</ele><time>2026-04-29T15:07:22.999Z</time></trkpt><trkpt lat="43.644500655291544" lon="13.045550298346066"><ele>111.0</ele><time>2026-04-29T15:07:23.999Z</time></trkpt><trkpt lat="43.6446321442555" lon="13.045636835697357"><ele>109.33333333333334</ele><time>2026-04-29T15:07:24.999Z</time></trkpt><trkpt lat="43.644769432192994" lon="13.045714208525013"><ele>107.66666666666667</ele><time>2026-04-29T15:07:25.999Z</time></trkpt><trkpt lat="43.64491389627885" lon="13.045780434986847"><ele>106.0</ele><time>2026-04-29T15:07:26.999Z</time></trkpt><trkpt lat="43.6450521470629" lon="13.04585866124492"><ele>105.25</ele><time>2026-04-29T15:07:27.999Z</time></trkpt><trkpt lat="43.64518282285514" lon="13.045959254001236"><ele>104.5</ele><time>2026-04-29T15:07:28.999Z</time></trkpt><trkpt lat="43.64528770809745" lon="13.046092283074037"><ele>103.75</ele><time>2026-04-29T15:07:29.999Z</time></trkpt><trkpt lat="43.645391482223495" lon="13.046222059682053"><ele>103.0</ele><time>2026-04-29T15:07:30.999Z</time></trkpt><trkpt lat="43.645489874932906" lon="13.046358662227531"><ele>106.0</ele><time>2026-04-29T15:07:31.999Z</time></trkpt><trkpt lat="43.64558275709354" lon="13.046500863732767"><ele>109.0</ele><time>2026-04-29T15:07:32.999Z</time></trkpt><trkpt lat="43.64568250560984" lon="13.046639413523328"><ele>112.0</ele><time>2026-04-29T15:07:33.999Z</time></trkpt><trkpt lat="43.645737052596054" lon="13.046768065779924"><ele>115.0</ele><time>2026-04-29T15:07:34.999Z</time></trkpt><trkpt lat="43.64580167979034" lon="13.046896159815107"><ele>115.5</ele><time>2026-04-29T15:07:35.999Z</time></trkpt><trkpt lat="43.64587799444789" lon="13.047015878833403"><ele>116.0</ele><time>2026-04-29T15:07:36.999Z</time></trkpt><trkpt lat="43.645941403001885" lon="13.047149899479866"><ele>116.5</ele><time>2026-04-29T15:07:37.999Z</time></trkpt><trkpt lat="43.646005652695465" lon="13.047305187581186"><ele>117.0</ele><time>2026-04-29T15:07:38.999Z</time></trkpt><trkpt lat="43.646103060623716" lon="13.047469855292295"><ele>121.25</ele><time>2026-04-29T15:07:39.999Z</time></trkpt><trkpt lat="43.64622467163649" lon="13.047624864447942"><ele>125.5</ele><time>2026-04-29T15:07:40.999Z</time></trkpt><trkpt lat="43.64634015765752" lon="13.047716840103115"><ele>129.75</ele><time>2026-04-29T15:07:41.999Z</time></trkpt><trkpt lat="43.64644595986116" lon="13.047821268278273"><ele>134.0</ele><time>2026-04-29T15:07:42.999Z</time></trkpt><trkpt lat="43.64655332556278" lon="13.047913949511459"><ele>134.0</ele><time>2026-04-29T15:07:43.999Z</time></trkpt><trkpt lat="43.64665515502527" lon="13.047982525576803"><ele>134.0</ele><time>2026-04-29T15:07:44.999Z</time></trkpt><trkpt lat="43.6467355550902" lon="13.04807772246088"><ele>134.0</ele><time>2026-04-29T15:07:45.999Z</time></trkpt><trkpt lat="43.64681213108368" lon="13.048211127568088"><ele>134.0</ele><time>2026-04-29T15:07:46.999Z</time></trkpt><trkpt lat="43.6469066893925" lon="13.048332087231866"><ele>138.5</ele><time>2026-04-29T15:07:47.999Z</time></trkpt><trkpt lat="43.64700725857133" lon="13.048420029553107"><ele>143.0</ele><time>2026-04-29T15:07:48.999Z</time></trkpt><trkpt lat="43.64709738431848" lon="13.048526935077245"><ele>147.5</ele><time>2026-04-29T15:07:49.999Z</time></trkpt><trkpt lat="43.647187373822256" lon="13.048629040695285"><ele>152.0</ele><time>2026-04-29T15:07:50.999Z</time></trkpt><trkpt lat="43.647263223998024" lon="13.048728035703462"><ele>152.0</ele><time>2026-04-29T15:07:51.999Z</time></trkpt><trkpt lat="43.64732908138569" lon="13.048807594355194"><ele>152.0</ele><time>2026-04-29T15:07:52.999Z</time></trkpt><trkpt lat="43.647393642823076" lon="13.048898057380347"><ele>152.0</ele><time>2026-04-29T15:07:53.999Z</time></trkpt><trkpt lat="43.64746914490342" lon="13.04900112813083"><ele>152.0</ele><time>2026-04-29T15:07:54.999Z</time></trkpt><trkpt lat="43.647549458005265" lon="13.049117084201818"><ele>152.0</ele><time>2026-04-29T15:07:55.999Z</time></trkpt><trkpt lat="43.64762624831513" lon="13.049243645655068"><ele>152.4</ele><time>2026-04-29T15:07:56.999Z</time></trkpt><trkpt lat="43.647696181129156" lon="13.049361098442859"><ele>152.79999999999998</ele><time>2026-04-29T15:07:57.999Z</time></trkpt><trkpt lat="43.64777293392493" lon="13.049482408732992"><ele>153.2</ele><time>2026-04-29T15:07:58.999Z</time></trkpt><trkpt lat="43.64783944737374" lon="13.04959968917641"><ele>153.6</ele><time>2026-04-29T15:07:59.999Z</time></trkpt><trkpt lat="43.647883292161104" lon="13.049677870215243"><ele>154.0</ele><time>2026-04-29T15:08:00.999Z</time></trkpt><trkpt lat="43.647914309659825" lon="13.049810707159313"><ele>154.66666666666669</ele><time>2026-04-29T15:08:07.999Z</time></trkpt><trkpt lat="43.64790414522197" lon="13.049979073013766"><ele>155.33333333333334</ele><time>2026-04-29T15:08:09.999Z</time></trkpt><trkpt lat="43.64788769031709" lon="13.05007085470829"><ele>156.0</ele><time>2026-04-29T15:08:10.999Z</time></trkpt><trkpt lat="43.647867058471356" lon="13.050163284347892"><ele>156.66666666666666</ele><time>2026-04-29T15:08:11.999Z</time></trkpt><trkpt lat="43.647825283237474" lon="13.050251761840274"><ele>157.33333333333331</ele><time>2026-04-29T15:08:12.999Z</time></trkpt><trkpt lat="43.64776996790611" lon="13.050342555684834"><ele>158.0</ele><time>2026-04-29T15:08:13.999Z</time></trkpt><trkpt lat="43.64770243980213" lon="13.050436305454234"><ele>158.0</ele><time>2026-04-29T15:08:14.999Z</time></trkpt><trkpt lat="43.647628257947765" lon="13.050528429233736"><ele>158.0</ele><time>2026-04-29T15:08:15.999Z</time></trkpt><trkpt lat="43.64755584112725" lon="13.0506221567481"><ele>158.0</ele><time>2026-04-29T15:08:16.999Z</time></trkpt><trkpt lat="43.64748162463423" lon="13.050718868133421"><ele>158.0</ele><time>2026-04-29T15:08:17.999Z</time></trkpt><trkpt lat="43.64741152307013" lon="13.05081407794325"><ele>158.0</ele><time>2026-04-29T15:08:18.999Z</time></trkpt><trkpt lat="43.64734215051557" lon="13.05091451010159"><ele>158.0</ele><time>2026-04-29T15:08:19.999Z</time></trkpt><trkpt lat="43.64727232324441" lon="13.051027425066861"><ele>158.0</ele><time>2026-04-29T15:08:20.999Z</time></trkpt><trkpt lat="43.64720085564381" lon="13.051140326241404"><ele>158.0</ele><time>2026-04-29T15:08:21.999Z</time></trkpt><trkpt lat="43.64712525639498" lon="13.051259065376627"><ele>158.0</ele><time>2026-04-29T15:08:22.999Z</time></trkpt><trkpt lat="43.64704792527343" lon="13.05137673094374"><ele>158.0</ele><time>2026-04-29T15:08:23.999Z</time></trkpt><trkpt lat="43.646966264522355" lon="13.051498047886417"><ele>157.0</ele><time>2026-04-29T15:08:24.999Z</time></trkpt><trkpt lat="43.646885458200394" lon="13.051624184888857"><ele>156.0</ele><time>2026-04-29T15:08:25.999Z</time></trkpt><trkpt lat="43.64680392125671" lon="13.051748305125635"><ele>155.0</ele><time>2026-04-29T15:08:26.999Z</time></trkpt><trkpt lat="43.64672497884816" lon="13.051881864735753"><ele>154.0</ele><time>2026-04-29T15:08:27.999Z</time></trkpt><trkpt lat="43.646642625921466" lon="13.052005357822827"><ele>154.0</ele><time>2026-04-29T15:08:28.999Z</time></trkpt><trkpt lat="43.64655883676139" lon="13.052131947387407"><ele>154.0</ele><time>2026-04-29T15:08:29.999Z</time></trkpt><trkpt lat="43.64647279602091" lon="13.052258862491493"><ele>154.0</ele><time>2026-04-29T15:08:30.999Z</time></trkpt><trkpt lat="43.64638620876063" lon="13.05238671493804"><ele>154.0</ele><time>2026-04-29T15:08:31.999Z</time></trkpt><trkpt lat="43.64629681265509" lon="13.052515302588002"><ele>152.5</ele><time>2026-04-29T15:08:32.999Z</time></trkpt><trkpt lat="43.646204419347484" lon="13.05264207685642"><ele>151.0</ele><time>2026-04-29T15:08:33.999Z</time></trkpt><trkpt lat="43.64611079269446" lon="13.052770942802763"><ele>149.5</ele><time>2026-04-29T15:08:34.999Z</time></trkpt><trkpt lat="43.646016911071065" lon="13.052899831313487"><ele>148.0</ele><time>2026-04-29T15:08:35.999Z</time></trkpt><trkpt lat="43.64591499778344" lon="13.053028019803183"><ele>147.5</ele><time>2026-04-29T15:08:36.999Z</time></trkpt><trkpt lat="43.645803431526765" lon="13.053147467151874"><ele>147.0</ele><time>2026-04-29T15:08:37.999Z</time></trkpt><trkpt lat="43.645682030394376" lon="13.053261168448765"><ele>146.5</ele><time>2026-04-29T15:08:38.999Z</time></trkpt><trkpt lat="43.64555531286539" lon="13.05336640115959"><ele>146.0</ele><time>2026-04-29T15:08:39.999Z</time></trkpt><trkpt lat="43.64542535022154" lon="13.053465834956087"><ele>146.0</ele><time>2026-04-29T15:08:40.999Z</time></trkpt><trkpt lat="43.64529637071699" lon="13.053559755064303"><ele>146.0</ele><time>2026-04-29T15:08:41.999Z</time></trkpt><trkpt lat="43.64518006952169" lon="13.053645106632926"><ele>146.0</ele><time>2026-04-29T15:08:42.999Z</time></trkpt><trkpt lat="43.645065589899225" lon="13.053726723079272"><ele>146.0</ele><time>2026-04-29T15:08:43.999Z</time></trkpt><trkpt lat="43.644949952061715" lon="13.053807784451806"><ele>145.75</ele><time>2026-04-29T15:08:44.999Z</time></trkpt><trkpt lat="43.64483668485074" lon="13.053885473979616"><ele>145.5</ele><time>2026-04-29T15:08:46Z</time></trkpt><trkpt lat="43.64472854612415" lon="13.05396363241623"><ele>145.25</ele><time>2026-04-29T15:08:47Z</time></trkpt><trkpt lat="43.64461681509556" lon="13.05405157606732"><ele>145.0</ele><time>2026-04-29T15:08:48Z</time></trkpt><trkpt lat="43.644502305741945" lon="13.054148952234915"><ele>144.5</ele><time>2026-04-29T15:08:49Z</time></trkpt><trkpt lat="43.644394752970896" lon="13.054242559332375"><ele>144.0</ele><time>2026-04-29T15:08:50Z</time></trkpt><trkpt lat="43.644290848950384" lon="13.054346437088046"><ele>143.5</ele><time>2026-04-29T15:08:51Z</time></trkpt><trkpt lat="43.64419115933691" lon="13.054458726410274"><ele>143.0</ele><time>2026-04-29T15:08:52Z</time></trkpt><trkpt lat="43.64409337260427" lon="13.054573522640986"><ele>143.0</ele><time>2026-04-29T15:08:53Z</time></trkpt><trkpt lat="43.64399976946538" lon="13.054696523628063"><ele>143.0</ele><time>2026-04-29T15:08:54Z</time></trkpt><trkpt lat="43.64390384520192" lon="13.054823832508397"><ele>143.0</ele><time>2026-04-29T15:08:55Z</time></trkpt><trkpt lat="43.64380956129627" lon="13.054955813482833"><ele>143.0</ele><time>2026-04-29T15:08:56Z</time></trkpt><trkpt lat="43.643716209633475" lon="13.05510099170599"><ele>141.5</ele><time>2026-04-29T15:08:57Z</time></trkpt><trkpt lat="43.64362388644424" lon="13.055247087576461"><ele>140.0</ele><time>2026-04-29T15:08:58Z</time></trkpt><trkpt lat="43.643529564579545" lon="13.05540124949919"><ele>138.5</ele><time>2026-04-29T15:08:59Z</time></trkpt><trkpt lat="43.64343363227889" lon="13.055555616196369"><ele>137.0</ele><time>2026-04-29T15:09:00Z</time></trkpt><trkpt lat="43.64334088185704" lon="13.055704916469468"><ele>135.75</ele><time>2026-04-29T15:09:01Z</time></trkpt><trkpt lat="43.64324948871397" lon="13.055854962090859"><ele>134.5</ele><time>2026-04-29T15:09:01.999Z</time></trkpt><trkpt lat="43.643158081144165" lon="13.056009830855274"><ele>133.25</ele><time>2026-04-29T15:09:02.999Z</time></trkpt><trkpt lat="43.64306791617486" lon="13.056167023612275"><ele>132.0</ele><time>2026-04-29T15:09:03.999Z</time></trkpt><trkpt lat="43.64298075844806" lon="13.056322579229663"><ele>132.0</ele><time>2026-04-29T15:09:04.999Z</time></trkpt><trkpt lat="43.64289557392118" lon="13.056477914483587"><ele>132.0</ele><time>2026-04-29T15:09:05.999Z</time></trkpt><trkpt lat="43.642811089892994" lon="13.056632015370713"><ele>132.0</ele><time>2026-04-29T15:09:06.999Z</time></trkpt><trkpt lat="43.64272918642824" lon="13.05678906276098"><ele>132.0</ele><time>2026-04-29T15:09:07.999Z</time></trkpt><trkpt lat="43.64264807337195" lon="13.056945204004485"><ele>131.0</ele><time>2026-04-29T15:09:08.999Z</time></trkpt><trkpt lat="43.642567962599855" lon="13.057099086771135"><ele>130.0</ele><time>2026-04-29T15:09:09.999Z</time></trkpt><trkpt lat="43.64248828700687" lon="13.057253038185168"><ele>129.0</ele><time>2026-04-29T15:09:10.999Z</time></trkpt><trkpt lat="43.64240670501927" lon="13.05740745964876"><ele>128.0</ele><time>2026-04-29T15:09:11.999Z</time></trkpt><trkpt lat="43.64232437617033" lon="13.057561196390331"><ele>127.25</ele><time>2026-04-29T15:09:12.999Z</time></trkpt><trkpt lat="43.64224295590697" lon="13.057709729779686"><ele>126.5</ele><time>2026-04-29T15:09:13.999Z</time></trkpt><trkpt lat="43.64216283905951" lon="13.057862008062628"><ele>125.75</ele><time>2026-04-29T15:09:14.999Z</time></trkpt><trkpt lat="43.64208389835138" lon="13.058008121558412"><ele>125.0</ele><time>2026-04-29T15:09:15.999Z</time></trkpt><trkpt lat="43.64201565804099" lon="13.058143661939244"><ele>125.0</ele><time>2026-04-29T15:09:16.999Z</time></trkpt><trkpt lat="43.64194668364603" lon="13.058269997610182"><ele>125.0</ele><time>2026-04-29T15:09:17.999Z</time></trkpt><trkpt lat="43.64186827482443" lon="13.058375223037094"><ele>125.0</ele><time>2026-04-29T15:09:18.999Z</time></trkpt><trkpt lat="43.64178374527892" lon="13.058450107458304"><ele>125.0</ele><time>2026-04-29T15:09:19.999Z</time></trkpt><trkpt lat="43.64167176080595" lon="13.058471728590797"><ele>125.0</ele><time>2026-04-29T15:09:21Z</time></trkpt><trkpt lat="43.64155962214578" lon="13.05846824536533"><ele>125.0</ele><time>2026-04-29T15:09:22Z</time></trkpt><trkpt lat="43.64143693932807" lon="13.05843429069508"><ele>125.0</ele><time>2026-04-29T15:09:23Z</time></trkpt><trkpt lat="43.641304820275" lon="13.058394311975505"><ele>125.0</ele><time>2026-04-29T15:09:24Z</time></trkpt><trkpt lat="43.64115780417877" lon="13.058319438521478"><ele>125.0</ele><time>2026-04-29T15:09:25Z</time></trkpt><trkpt lat="43.64102820053721" lon="13.05825902062024"><ele>124.0</ele><time>2026-04-29T15:09:26Z</time></trkpt><trkpt lat="43.64090583848243" lon="13.058230314973823"><ele>123.0</ele><time>2026-04-29T15:09:27Z</time></trkpt><trkpt lat="43.64077531421879" lon="13.058234476298335"><ele>122.0</ele><time>2026-04-29T15:09:28Z</time></trkpt><trkpt lat="43.64063410260014" lon="13.058265887668592"><ele>121.0</ele><time>2026-04-29T15:09:29Z</time></trkpt><trkpt lat="43.64049348603907" lon="13.058315460249975"><ele>121.0</ele><time>2026-04-29T15:09:30Z</time></trkpt><trkpt lat="43.64035712181585" lon="13.05837657168312"><ele>121.0</ele><time>2026-04-29T15:09:31Z</time></trkpt><trkpt lat="43.640232196861405" lon="13.058448309823502"><ele>121.0</ele><time>2026-04-29T15:09:32Z</time></trkpt><trkpt lat="43.64011417224295" lon="13.058531154341495"><ele>121.0</ele><time>2026-04-29T15:09:33Z</time></trkpt><trkpt lat="43.64000237086399" lon="13.058629725966147"><ele>121.25</ele><time>2026-04-29T15:09:34Z</time></trkpt><trkpt lat="43.63989750545401" lon="13.058744617598924"><ele>121.5</ele><time>2026-04-29T15:09:35Z</time></trkpt><trkpt lat="43.63980525915125" lon="13.058872859001337"><ele>121.75</ele><time>2026-04-29T15:09:36Z</time></trkpt><trkpt lat="43.639719212027344" lon="13.059011441648499"><ele>122.0</ele><time>2026-04-29T15:09:37Z</time></trkpt><trkpt lat="43.63962902848224" lon="13.05914453623269"><ele>122.0</ele><time>2026-04-29T15:09:38Z</time></trkpt><trkpt lat="43.639528186606135" lon="13.05925525309063"><ele>122.0</ele><time>2026-04-29T15:09:39Z</time></trkpt><trkpt lat="43.63941025531812" lon="13.059344818562439"><ele>122.0</ele><time>2026-04-29T15:09:40Z</time></trkpt><trkpt lat="43.639292899093874" lon="13.059395102060758"><ele>122.0</ele><time>2026-04-29T15:09:41Z</time></trkpt><trkpt lat="43.63917471544659" lon="13.059415448055718"><ele>119.0</ele><time>2026-04-29T15:09:42Z</time></trkpt><trkpt lat="43.63906818984103" lon="13.059437966004477"><ele>115.99999999999999</ele><time>2026-04-29T15:09:43Z</time></trkpt><trkpt lat="43.63897241140713" lon="13.059479155803425"><ele>112.99999999999999</ele><time>2026-04-29T15:09:44Z</time></trkpt><trkpt lat="43.63887357015815" lon="13.059530659726162"><ele>110.0</ele><time>2026-04-29T15:09:45Z</time></trkpt><trkpt lat="43.638790383788944" lon="13.059608014384334"><ele>107.0</ele><time>2026-04-29T15:09:46Z</time></trkpt><trkpt lat="43.63868303613758" lon="13.059648269619586"><ele>107.0</ele><time>2026-04-29T15:09:47Z</time></trkpt><trkpt lat="43.63870373052956" lon="13.059864814896109"><ele>107.0</ele><time>2026-04-29T15:09:48Z</time></trkpt><trkpt lat="43.63870193921346" lon="13.06002639606741"><ele>107.0</ele><time>2026-04-29T15:09:49Z</time></trkpt><trkpt lat="43.63872133831875" lon="13.06021776629043"><ele>107.0</ele><time>2026-04-29T15:09:50Z</time></trkpt><trkpt lat="43.63875185290118" lon="13.060421739471613"><ele>107.25</ele><time>2026-04-29T15:09:51Z</time></trkpt><trkpt lat="43.638766063992726" lon="13.060626483510116"><ele>107.5</ele><time>2026-04-29T15:09:52Z</time></trkpt><trkpt lat="43.6388084466582" lon="13.060807600004349"><ele>107.75</ele><time>2026-04-29T15:09:53Z</time></trkpt><trkpt lat="43.63883335802668" lon="13.060994722970689"><ele>108.0</ele><time>2026-04-29T15:09:54Z</time></trkpt><trkpt lat="43.63886668359985" lon="13.061190508844659"><ele>108.0</ele><time>2026-04-29T15:09:55Z</time></trkpt><trkpt lat="43.63890222282617" lon="13.061388875355737"><ele>108.0</ele><time>2026-04-29T15:09:56Z</time></trkpt><trkpt lat="43.63893259836282" lon="13.061588412874015"><ele>108.0</ele><time>2026-04-29T15:09:57Z</time></trkpt><trkpt lat="43.638948931826285" lon="13.061788572276294"><ele>108.0</ele><time>2026-04-29T15:09:58Z</time></trkpt><trkpt lat="43.63897987387151" lon="13.061982817333968"><ele>106.25</ele><time>2026-04-29T15:09:59Z</time></trkpt><trkpt lat="43.63901104889598" lon="13.062174896946237"><ele>104.5</ele><time>2026-04-29T15:10:00Z</time></trkpt><trkpt lat="43.63904358581208" lon="13.062370597993436"><ele>102.75</ele><time>2026-04-29T15:10:01Z</time></trkpt><trkpt lat="43.63909078968336" lon="13.06256030678085"><ele>101.0</ele><time>2026-04-29T15:10:02Z</time></trkpt><trkpt lat="43.63912391794274" lon="13.062765876469042"><ele>99.33333333333333</ele><time>2026-04-29T15:10:03Z</time></trkpt><trkpt lat="43.63914858470715" lon="13.06299465285154"><ele>97.66666666666666</ele><time>2026-04-29T15:10:04Z</time></trkpt><trkpt lat="43.63918934640205" lon="13.063240367917015"><ele>96.0</ele><time>2026-04-29T15:10:05Z</time></trkpt><trkpt lat="43.63923152731563" lon="13.063492747185743"><ele>94.0</ele><time>2026-04-29T15:10:06Z</time></trkpt><trkpt lat="43.63927592513457" lon="13.063755399665"><ele>92.0</ele><time>2026-04-29T15:10:07Z</time></trkpt><trkpt lat="43.63932017494519" lon="13.064017176224445"><ele>90.0</ele><time>2026-04-29T15:10:08Z</time></trkpt><trkpt lat="43.63935998902766" lon="13.064255287402352"><ele>88.0</ele><time>2026-04-29T15:10:09Z</time></trkpt><trkpt lat="43.6393895107623" lon="13.064454556284733"><ele>86.0</ele><time>2026-04-29T15:10:10Z</time></trkpt><trkpt lat="43.63940728594335" lon="13.064642618221166"><ele>84.0</ele><time>2026-04-29T15:10:11Z</time></trkpt><trkpt lat="43.63942653831135" lon="13.064812874955253"><ele>82.0</ele><time>2026-04-29T15:10:12Z</time></trkpt><trkpt lat="43.6394184540286" lon="13.064975388647001"><ele>81.0</ele><time>2026-04-29T15:10:13Z</time></trkpt><trkpt lat="43.63939748207731" lon="13.065126501179291"><ele>80.0</ele><time>2026-04-29T15:10:14Z</time></trkpt><trkpt lat="43.6393713336165" lon="13.065283859931576"><ele>79.0</ele><time>2026-04-29T15:10:15Z</time></trkpt><trkpt lat="43.63934965543646" lon="13.065447964126543"><ele>78.0</ele><time>2026-04-29T15:10:16Z</time></trkpt><trkpt lat="43.6393321459183" lon="13.06562006823683"><ele>77.75</ele><time>2026-04-29T15:10:17Z</time></trkpt><trkpt lat="43.63930248821377" lon="13.065810908594358"><ele>77.5</ele><time>2026-04-29T15:10:18Z</time></trkpt><trkpt lat="43.63930976574018" lon="13.065985444406422"><ele>77.25</ele><time>2026-04-29T15:10:19Z</time></trkpt><trkpt lat="43.63933774883792" lon="13.066141482320301"><ele>77.0</ele><time>2026-04-29T15:10:20Z</time></trkpt><trkpt lat="43.63938131231082" lon="13.066284405343728"><ele>77.0</ele><time>2026-04-29T15:10:21Z</time></trkpt><trkpt lat="43.639426302070724" lon="13.066394355837446"><ele>77.0</ele><time>2026-04-29T15:10:22Z</time></trkpt><trkpt lat="43.63946707752457" lon="13.066475227906492"><ele>77.0</ele><time>2026-04-29T15:10:23Z</time></trkpt><trkpt lat="43.63947999572834" lon="13.066608988487866"><ele>77.0</ele><time>2026-04-29T15:10:25Z</time></trkpt><trkpt lat="43.63943974669185" lon="13.066751252535902"><ele>77.0</ele><time>2026-04-29T15:10:27Z</time></trkpt><trkpt lat="43.63936298514494" lon="13.066852422313511"><ele>76.83333333333334</ele><time>2026-04-29T15:10:29Z</time></trkpt><trkpt lat="43.63938077636147" lon="13.067023098797586"><ele>76.66666666666667</ele><time>2026-04-29T15:10:30Z</time></trkpt><trkpt lat="43.63942964017146" lon="13.067104488816174"><ele>76.5</ele><time>2026-04-29T15:10:31Z</time></trkpt><trkpt lat="43.63947660012638" lon="13.067173726456527"><ele>76.33333333333333</ele><time>2026-04-29T15:10:32Z</time></trkpt><trkpt lat="43.63954557932958" lon="13.067228679823408"><ele>76.16666666666666</ele><time>2026-04-29T15:10:33Z</time></trkpt><trkpt lat="43.63962463399952" lon="13.067284354787509"><ele>76.0</ele><time>2026-04-29T15:10:34Z</time></trkpt><trkpt lat="43.63969751921" lon="13.067350050574687"><ele>75.8</ele><time>2026-04-29T15:10:35Z</time></trkpt><trkpt lat="43.63976492319777" lon="13.067445639982195"><ele>75.6</ele><time>2026-04-29T15:10:36Z</time></trkpt><trkpt lat="43.6398207971978" lon="13.06757149229275"><ele>75.4</ele><time>2026-04-29T15:10:37Z</time></trkpt><trkpt lat="43.639859345093384" lon="13.067720776608166"><ele>75.2</ele><time>2026-04-29T15:10:38Z</time></trkpt><trkpt lat="43.63992854078793" lon="13.067848159861708"><ele>75.0</ele><time>2026-04-29T15:10:39Z</time></trkpt><trkpt lat="43.63999410881316" lon="13.067981981227579"><ele>75.0</ele><time>2026-04-29T15:10:40Z</time></trkpt><trkpt lat="43.64006716070484" lon="13.068103468790497"><ele>75.0</ele><time>2026-04-29T15:10:41Z</time></trkpt><trkpt lat="43.64014463898788" lon="13.06821737915629"><ele>75.0</ele><time>2026-04-29T15:10:42Z</time></trkpt><trkpt lat="43.64022378953324" lon="13.068324694627833"><ele>75.0</ele><time>2026-04-29T15:10:43Z</time></trkpt><trkpt lat="43.64030153243792" lon="13.068438704173758"><ele>74.75</ele><time>2026-04-29T15:10:44Z</time></trkpt><trkpt lat="43.64037643416169" lon="13.068564223892537"><ele>74.5</ele><time>2026-04-29T15:10:45Z</time></trkpt><trkpt lat="43.64044994635022" lon="13.06869443164168"><ele>74.25</ele><time>2026-04-29T15:10:46Z</time></trkpt><trkpt lat="43.64052108539662" lon="13.068832496588705"><ele>74.0</ele><time>2026-04-29T15:10:47Z</time></trkpt><trkpt lat="43.64059425072025" lon="13.068976990333296"><ele>73.60000000000001</ele><time>2026-04-29T15:10:48Z</time></trkpt><trkpt lat="43.64065842073437" lon="13.06911535324912"><ele>73.2</ele><time>2026-04-29T15:10:49Z</time></trkpt><trkpt lat="43.640711361905495" lon="13.06924714946951"><ele>72.80000000000001</ele><time>2026-04-29T15:10:50Z</time></trkpt><trkpt lat="43.640761390471106" lon="13.069367230380541"><ele>72.4</ele><time>2026-04-29T15:10:51Z</time></trkpt><trkpt lat="43.64080822409823" lon="13.069477559513203"><ele>72.0</ele><time>2026-04-29T15:10:52.001Z</time></trkpt><trkpt lat="43.64084993782164" lon="13.069586669172335"><ele>72.0</ele><time>2026-04-29T15:10:53.001Z</time></trkpt><trkpt lat="43.64088562280036" lon="13.069690792278035"><ele>72.0</ele><time>2026-04-29T15:10:54.001Z</time></trkpt><trkpt lat="43.64091612924048" lon="13.069792050619911"><ele>72.0</ele><time>2026-04-29T15:10:55.001Z</time></trkpt><trkpt lat="43.640948248868156" lon="13.06988991335346"><ele>72.0</ele><time>2026-04-29T15:10:56.001Z</time></trkpt><trkpt lat="43.64098487440029" lon="13.070001062326952"><ele>72.0</ele><time>2026-04-29T15:10:57.001Z</time></trkpt><trkpt lat="43.641019558600036" lon="13.070100581607704"><ele>72.0</ele><time>2026-04-29T15:10:58.001Z</time></trkpt><trkpt lat="43.64106057654165" lon="13.070221856125617"><ele>72.2</ele><time>2026-04-29T15:10:59.001Z</time></trkpt><trkpt lat="43.64109541159953" lon="13.070347799362965"><ele>72.4</ele><time>2026-04-29T15:11:00.001Z</time></trkpt><trkpt lat="43.641129971129644" lon="13.070467156349794"><ele>72.6</ele><time>2026-04-29T15:11:01.001Z</time></trkpt><trkpt lat="43.64117913038557" lon="13.07060768452471"><ele>72.8</ele><time>2026-04-29T15:11:02.001Z</time></trkpt><trkpt lat="43.64122872023003" lon="13.070745060860162"><ele>73.0</ele><time>2026-04-29T15:11:03.001Z</time></trkpt><trkpt lat="43.64126999176304" lon="13.07088280856331"><ele>73.0</ele><time>2026-04-29T15:11:04.001Z</time></trkpt><trkpt lat="43.64129971062061" lon="13.070991780840078"><ele>73.0</ele><time>2026-04-29T15:11:05.001Z</time></trkpt><trkpt lat="43.64131779788711" lon="13.071085682697056"><ele>73.0</ele><time>2026-04-29T15:11:06Z</time></trkpt><trkpt lat="43.64130929749602" lon="13.071178857117836"><ele>73.0</ele><time>2026-04-29T15:11:07Z</time></trkpt><trkpt lat="43.64120804774579" lon="13.071345106417379"><ele>73.0</ele><time>2026-04-29T15:11:09Z</time></trkpt><trkpt lat="43.64112906988655" lon="13.071462265667254"><ele>72.75</ele><time>2026-04-29T15:11:10Z</time></trkpt><trkpt lat="43.641049688662456" lon="13.071613908047123"><ele>72.5</ele><time>2026-04-29T15:11:11Z</time></trkpt><trkpt lat="43.640947400387965" lon="13.071764209421875"><ele>72.25</ele><time>2026-04-29T15:11:12Z</time></trkpt><trkpt lat="43.640854099309195" lon="13.07193199351272"><ele>72.0</ele><time>2026-04-29T15:11:13Z</time></trkpt><trkpt lat="43.64075895799564" lon="13.072105997966055"><ele>72.0</ele><time>2026-04-29T15:11:14Z</time></trkpt><trkpt lat="43.64065938926616" lon="13.072283352353878"><ele>72.0</ele><time>2026-04-29T15:11:15Z</time></trkpt><trkpt lat="43.64055569277737" lon="13.072465748206568"><ele>72.0</ele><time>2026-04-29T15:11:16Z</time></trkpt><trkpt lat="43.640452931380324" lon="13.072649378984506"><ele>71.0</ele><time>2026-04-29T15:11:17Z</time></trkpt><trkpt lat="43.64035123892928" lon="13.072837184587028"><ele>70.0</ele><time>2026-04-29T15:11:18Z</time></trkpt><trkpt lat="43.6402491194617" lon="13.073021075119527"><ele>69.0</ele><time>2026-04-29T15:11:19Z</time></trkpt><trkpt lat="43.64014544746089" lon="13.0732044755383"><ele>68.66666666666667</ele><time>2026-04-29T15:11:20Z</time></trkpt><trkpt lat="43.64003494504199" lon="13.073392617690503"><ele>68.33333333333334</ele><time>2026-04-29T15:11:21Z</time></trkpt><trkpt lat="43.63992794769053" lon="13.07357989628787"><ele>68.0</ele><time>2026-04-29T15:11:22Z</time></trkpt><trkpt lat="43.63982028062119" lon="13.073769907533162"><ele>68.0</ele><time>2026-04-29T15:11:23Z</time></trkpt><trkpt lat="43.63971394068911" lon="13.07396562935345"><ele>68.0</ele><time>2026-04-29T15:11:24Z</time></trkpt><trkpt lat="43.639612496056074" lon="13.07413811649808"><ele>68.0</ele><time>2026-04-29T15:11:25Z</time></trkpt><trkpt lat="43.63950523898909" lon="13.074317793607504"><ele>66.66666666666667</ele><time>2026-04-29T15:11:26Z</time></trkpt><trkpt lat="43.63939682200374" lon="13.074500297702953"><ele>65.33333333333333</ele><time>2026-04-29T15:11:27Z</time></trkpt><trkpt lat="43.639294155497666" lon="13.074674388368067"><ele>64.0</ele><time>2026-04-29T15:11:28Z</time></trkpt><trkpt lat="43.63919257829802" lon="13.074851009770219"><ele>63.666666666666664</ele><time>2026-04-29T15:11:29Z</time></trkpt><trkpt lat="43.63909337341583" lon="13.075031615248928"><ele>63.33333333333333</ele><time>2026-04-29T15:11:30Z</time></trkpt><trkpt lat="43.638997157127065" lon="13.075211801873316"><ele>63.0</ele><time>2026-04-29T15:11:31Z</time></trkpt><trkpt lat="43.63890759449929" lon="13.075397617977767"><ele>63.0</ele><time>2026-04-29T15:11:32Z</time></trkpt><trkpt lat="43.638835052725675" lon="13.075566773469278"><ele>63.0</ele><time>2026-04-29T15:11:33Z</time></trkpt><trkpt lat="43.63877573365946" lon="13.075753294701071"><ele>63.0</ele><time>2026-04-29T15:11:34Z</time></trkpt><trkpt lat="43.63870081663917" lon="13.075947538969835"><ele>63.0</ele><time>2026-04-29T15:11:35Z</time></trkpt><trkpt lat="43.638644422786804" lon="13.076187902118779"><ele>62.66666666666667</ele><time>2026-04-29T15:11:36Z</time></trkpt><trkpt lat="43.63860084934233" lon="13.076397099208565"><ele>62.333333333333336</ele><time>2026-04-29T15:11:37Z</time></trkpt><trkpt lat="43.638554010536524" lon="13.076631197298438"><ele>62.0</ele><time>2026-04-29T15:11:38Z</time></trkpt><trkpt lat="43.63850814326047" lon="13.076867688520695"><ele>62.0</ele><time>2026-04-29T15:11:39Z</time></trkpt><trkpt lat="43.638458301434994" lon="13.077133531839895"><ele>62.0</ele><time>2026-04-29T15:11:40Z</time></trkpt><trkpt lat="43.63840921558609" lon="13.077396240355618"><ele>62.0</ele><time>2026-04-29T15:11:41Z</time></trkpt><trkpt lat="43.638373710310525" lon="13.077676296438531"><ele>62.333333333333336</ele><time>2026-04-29T15:11:42Z</time></trkpt><trkpt lat="43.638323450175214" lon="13.077939382239654"><ele>62.66666666666667</ele><time>2026-04-29T15:11:43Z</time></trkpt><trkpt lat="43.638273996472094" lon="13.078199749985233"><ele>63.0</ele><time>2026-04-29T15:11:44Z</time></trkpt><trkpt lat="43.638225128999906" lon="13.078461406575123"><ele>63.33333333333333</ele><time>2026-04-29T15:11:45Z</time></trkpt><trkpt lat="43.63817708100069" lon="13.078720938236414"><ele>63.666666666666664</ele><time>2026-04-29T15:11:46Z</time></trkpt><trkpt lat="43.63812917867255" lon="13.078973986940374"><ele>64.0</ele><time>2026-04-29T15:11:47Z</time></trkpt><trkpt lat="43.63808047924149" lon="13.079225148672142"><ele>64.33333333333333</ele><time>2026-04-29T15:11:48Z</time></trkpt><trkpt lat="43.63803177799766" lon="13.079491147894712"><ele>64.66666666666667</ele><time>2026-04-29T15:11:49Z</time></trkpt><trkpt lat="43.637982876834684" lon="13.079751449586718"><ele>65.0</ele><time>2026-04-29T15:11:50Z</time></trkpt><trkpt lat="43.637933449172884" lon="13.079989240336303"><ele>65.0</ele><time>2026-04-29T15:11:51Z</time></trkpt><trkpt lat="43.63788755296615" lon="13.080215490854165"><ele>65.0</ele><time>2026-04-29T15:11:52Z</time></trkpt><trkpt lat="43.63784530167258" lon="13.080438287344325"><ele>65.0</ele><time>2026-04-29T15:11:53Z</time></trkpt><trkpt lat="43.63780190847522" lon="13.080669705940107"><ele>66.25</ele><time>2026-04-29T15:11:54Z</time></trkpt><trkpt lat="43.637760072131194" lon="13.080890397436022"><ele>67.5</ele><time>2026-04-29T15:11:55Z</time></trkpt><trkpt lat="43.63772037315279" lon="13.081092720341672"><ele>68.75</ele><time>2026-04-29T15:11:56Z</time></trkpt><trkpt lat="43.63768859620841" lon="13.081258517317181"><ele>70.0</ele><time>2026-04-29T15:11:57Z</time></trkpt><trkpt lat="43.63766219813665" lon="13.081394645604233"><ele>70.0</ele><time>2026-04-29T15:11:58Z</time></trkpt><trkpt lat="43.63765154912258" lon="13.081504843746337"><ele>70.0</ele><time>2026-04-29T15:11:59Z</time></trkpt><trkpt lat="43.6376218021073" lon="13.081582579579877"><ele>70.0</ele><time>2026-04-29T15:12:00Z</time></trkpt><trkpt lat="43.63771674143632" lon="13.081690868693363"><ele>70.0</ele><time>2026-04-29T15:12:01Z</time></trkpt><trkpt lat="43.6377756252587" lon="13.081759792288528"><ele>70.0</ele><time>2026-04-29T15:12:02Z</time></trkpt><trkpt lat="43.637863775083886" lon="13.08184512570609"><ele>69.75</ele><time>2026-04-29T15:12:03Z</time></trkpt><trkpt lat="43.63796934555072" lon="13.08196205340629"><ele>69.5</ele><time>2026-04-29T15:12:04Z</time></trkpt><trkpt lat="43.638076476694785" lon="13.082065677895388"><ele>69.25</ele><time>2026-04-29T15:12:05Z</time></trkpt><trkpt lat="43.638208103938865" lon="13.082161758355298"><ele>69.0</ele><time>2026-04-29T15:12:06Z</time></trkpt><trkpt lat="43.63833286911737" lon="13.082279190978607"><ele>69.0</ele><time>2026-04-29T15:12:07Z</time></trkpt><trkpt lat="43.63845740296776" lon="13.082388306788351"><ele>69.0</ele><time>2026-04-29T15:12:08Z</time></trkpt><trkpt lat="43.63857788802686" lon="13.082503669424684"><ele>69.0</ele><time>2026-04-29T15:12:09Z</time></trkpt><trkpt lat="43.638701234497745" lon="13.082613666181235"><ele>69.0</ele><time>2026-04-29T15:12:10Z</time></trkpt><trkpt lat="43.63881905319945" lon="13.082729247401483"><ele>68.5</ele><time>2026-04-29T15:12:11Z</time></trkpt><trkpt lat="43.63892588514201" lon="13.082849686687812"><ele>68.0</ele><time>2026-04-29T15:12:12Z</time></trkpt><trkpt lat="43.63901769499232" lon="13.08298063747169"><ele>67.5</ele><time>2026-04-29T15:12:13Z</time></trkpt><trkpt lat="43.63908260848607" lon="13.083142652404288"><ele>67.0</ele><time>2026-04-29T15:12:14Z</time></trkpt><trkpt lat="43.63914951523257" lon="13.08331270837336"><ele>67.0</ele><time>2026-04-29T15:12:15Z</time></trkpt><trkpt lat="43.639213853467155" lon="13.083488602909952"><ele>67.0</ele><time>2026-04-29T15:12:16Z</time></trkpt><trkpt lat="43.63928939030277" lon="13.083638888441605"><ele>67.0</ele><time>2026-04-29T15:12:17Z</time></trkpt><trkpt lat="43.6393356363352" lon="13.0838096395011"><ele>67.0</ele><time>2026-04-29T15:12:18Z</time></trkpt><trkpt lat="43.639396565803295" lon="13.083969942003202"><ele>67.75</ele><time>2026-04-29T15:12:19Z</time></trkpt><trkpt lat="43.63945756639977" lon="13.084126535984693"><ele>68.5</ele><time>2026-04-29T15:12:20Z</time></trkpt><trkpt lat="43.639515491654244" lon="13.084273836725846"><ele>69.25</ele><time>2026-04-29T15:12:21Z</time></trkpt><trkpt lat="43.639568025669725" lon="13.084407427833895"><ele>70.0</ele><time>2026-04-29T15:12:22Z</time></trkpt><trkpt lat="43.63962447904027" lon="13.084534544376272"><ele>69.25</ele><time>2026-04-29T15:12:23Z</time></trkpt><trkpt lat="43.63967250366639" lon="13.084682549166871"><ele>68.5</ele><time>2026-04-29T15:12:24Z</time></trkpt><trkpt lat="43.63969602077155" lon="13.084856554186425"><ele>67.75</ele><time>2026-04-29T15:12:25Z</time></trkpt><trkpt lat="43.63974443099009" lon="13.085024982091047"><ele>67.0</ele><time>2026-04-29T15:12:26Z</time></trkpt><trkpt lat="43.63980584527921" lon="13.08520201945486"><ele>67.0</ele><time>2026-04-29T15:12:27Z</time></trkpt><trkpt lat="43.63986232074755" lon="13.08540686121365"><ele>67.0</ele><time>2026-04-29T15:12:28Z</time></trkpt><trkpt lat="43.63990700189114" lon="13.085613282875812"><ele>67.0</ele><time>2026-04-29T15:12:29Z</time></trkpt><trkpt lat="43.63995671001261" lon="13.085818961010704"><ele>69.33333333333333</ele><time>2026-04-29T15:12:30Z</time></trkpt><trkpt lat="43.64000546028687" lon="13.086035313417351"><ele>71.66666666666667</ele><time>2026-04-29T15:12:31Z</time></trkpt><trkpt lat="43.64005494175051" lon="13.086235250112178"><ele>74.0</ele><time>2026-04-29T15:12:32Z</time></trkpt><trkpt lat="43.64010982287841" lon="13.086429407785387"><ele>76.25</ele><time>2026-04-29T15:12:33Z</time></trkpt><trkpt lat="43.640163435635024" lon="13.086616006329105"><ele>78.5</ele><time>2026-04-29T15:12:34Z</time></trkpt><trkpt lat="43.640211295853" lon="13.086788302951321"><ele>80.75</ele><time>2026-04-29T15:12:35Z</time></trkpt><trkpt lat="43.64025296229787" lon="13.08691989981221"><ele>83.0</ele><time>2026-04-29T15:12:36Z</time></trkpt><trkpt lat="43.64029523335157" lon="13.087026179572748"><ele>83.66666666666667</ele><time>2026-04-29T15:12:37Z</time></trkpt><trkpt lat="43.64033758159868" lon="13.087116285101173"><ele>84.33333333333334</ele><time>2026-04-29T15:12:38Z</time></trkpt><trkpt lat="43.640376115164884" lon="13.087212585462813"><ele>85.0</ele><time>2026-04-29T15:12:39Z</time></trkpt><trkpt lat="43.64041373898401" lon="13.08732475245632"><ele>85.66666666666667</ele><time>2026-04-29T15:12:40Z</time></trkpt><trkpt lat="43.64044986118131" lon="13.08744708361307"><ele>86.33333333333333</ele><time>2026-04-29T15:12:41Z</time></trkpt><trkpt lat="43.64046632995218" lon="13.08757400380046"><ele>87.0</ele><time>2026-04-29T15:12:42Z</time></trkpt><trkpt lat="43.64049703879337" lon="13.087680778071203"><ele>87.83333333333333</ele><time>2026-04-29T15:12:43Z</time></trkpt><trkpt lat="43.640528705315695" lon="13.087782657361558"><ele>88.66666666666667</ele><time>2026-04-29T15:12:44Z</time></trkpt><trkpt lat="43.640567672182975" lon="13.08788488130212"><ele>89.5</ele><time>2026-04-29T15:12:45Z</time></trkpt><trkpt lat="43.64062695326838" lon="13.08798033240083"><ele>90.33333333333334</ele><time>2026-04-29T15:12:46Z</time></trkpt><trkpt lat="43.64066908010947" lon="13.08808385430929"><ele>91.16666666666667</ele><time>2026-04-29T15:12:47Z</time></trkpt><trkpt lat="43.64071183920356" lon="13.088196746391139"><ele>92.0</ele><time>2026-04-29T15:12:48Z</time></trkpt><trkpt lat="43.64073222371234" lon="13.088315111586281"><ele>92.85714285714286</ele><time>2026-04-29T15:12:49Z</time></trkpt><trkpt lat="43.640761272823354" lon="13.088416961052522"><ele>93.71428571428571</ele><time>2026-04-29T15:12:50Z</time></trkpt><trkpt lat="43.640786856835916" lon="13.08851160101053"><ele>94.57142857142857</ele><time>2026-04-29T15:12:51Z</time></trkpt><trkpt lat="43.64080867839401" lon="13.088604340676332"><ele>95.42857142857143</ele><time>2026-04-29T15:12:52Z</time></trkpt><trkpt lat="43.640837883965055" lon="13.088688595767062"><ele>96.28571428571428</ele><time>2026-04-29T15:12:53Z</time></trkpt><trkpt lat="43.64085367282737" lon="13.088774854506463"><ele>97.14285714285714</ele><time>2026-04-29T15:12:54Z</time></trkpt><trkpt lat="43.640851958210966" lon="13.088870807989338"><ele>98.0</ele><time>2026-04-29T15:12:55Z</time></trkpt><trkpt lat="43.640865605630175" lon="13.088965475933108"><ele>98.0</ele><time>2026-04-29T15:12:56Z</time></trkpt><trkpt lat="43.64089563339897" lon="13.089064176055437"><ele>98.0</ele><time>2026-04-29T15:12:57Z</time></trkpt><trkpt lat="43.640902122822794" lon="13.089180911650491"><ele>98.0</ele><time>2026-04-29T15:12:58Z</time></trkpt><trkpt lat="43.64092321515773" lon="13.08931527905672"><ele>98.0</ele><time>2026-04-29T15:12:59Z</time></trkpt><trkpt lat="43.640946352455764" lon="13.089462815464804"><ele>98.0</ele><time>2026-04-29T15:13:00Z</time></trkpt><trkpt lat="43.64096308077495" lon="13.089602354871431"><ele>97.75</ele><time>2026-04-29T15:13:01Z</time></trkpt><trkpt lat="43.640980897615904" lon="13.089744856206892"><ele>97.5</ele><time>2026-04-29T15:13:02Z</time></trkpt><trkpt lat="43.64101245728789" lon="13.08992859318762"><ele>97.25</ele><time>2026-04-29T15:13:03Z</time></trkpt><trkpt lat="43.64104856517546" lon="13.090118248031969"><ele>97.0</ele><time>2026-04-29T15:13:04Z</time></trkpt><trkpt lat="43.64108299490099" lon="13.090297841546654"><ele>97.0</ele><time>2026-04-29T15:13:05Z</time></trkpt><trkpt lat="43.64111590317527" lon="13.090441255868898"><ele>97.0</ele><time>2026-04-29T15:13:06Z</time></trkpt><trkpt lat="43.64115524428893" lon="13.090568801458973"><ele>97.0</ele><time>2026-04-29T15:13:07Z</time></trkpt><trkpt lat="43.641193312764386" lon="13.090676676754095"><ele>97.0</ele><time>2026-04-29T15:13:08Z</time></trkpt><trkpt lat="43.64123833456724" lon="13.090774841127162"><ele>97.0</ele><time>2026-04-29T15:13:09Z</time></trkpt><trkpt lat="43.64129476505364" lon="13.090859676950807"><ele>101.0</ele><time>2026-04-29T15:13:10Z</time></trkpt><trkpt lat="43.641356073351325" lon="13.090984016464208"><ele>105.0</ele><time>2026-04-29T15:13:11Z</time></trkpt><trkpt lat="43.6414504563849" lon="13.091127597529544"><ele>109.0</ele><time>2026-04-29T15:13:12Z</time></trkpt><trkpt lat="43.64153137148636" lon="13.091299360104527"><ele>113.0</ele><time>2026-04-29T15:13:13Z</time></trkpt><trkpt lat="43.64160556651734" lon="13.091475086607712"><ele>112.60000000000001</ele><time>2026-04-29T15:13:14Z</time></trkpt><trkpt lat="43.64168378870835" lon="13.091641769952112"><ele>112.20000000000002</ele><time>2026-04-29T15:13:15Z</time></trkpt><trkpt lat="43.641757586869616" lon="13.091754798135103"><ele>111.8</ele><time>2026-04-29T15:13:16Z</time></trkpt><trkpt lat="43.641807302443546" lon="13.091857767046243"><ele>111.4</ele><time>2026-04-29T15:13:17Z</time></trkpt><trkpt lat="43.641846219989866" lon="13.091969941604185"><ele>111.0</ele><time>2026-04-29T15:13:18Z</time></trkpt><trkpt lat="43.64191040979819" lon="13.09206791246402"><ele>114.4</ele><time>2026-04-29T15:13:19Z</time></trkpt><trkpt lat="43.641969932202166" lon="13.092215820357044"><ele>117.8</ele><time>2026-04-29T15:13:20Z</time></trkpt><trkpt lat="43.6420301644401" lon="13.092343049988218"><ele>121.20000000000002</ele><time>2026-04-29T15:13:21Z</time></trkpt><trkpt lat="43.64207293823893" lon="13.09242160645129"><ele>124.60000000000001</ele><time>2026-04-29T15:13:22Z</time></trkpt><trkpt lat="43.642105984106344" lon="13.092525262280454"><ele>128.0</ele><time>2026-04-29T15:13:23Z</time></trkpt><trkpt lat="43.64215444374918" lon="13.09260759759808"><ele>127.99999999999999</ele><time>2026-04-29T15:13:24Z</time></trkpt><trkpt lat="43.642209888743125" lon="13.092681965507955"><ele>128.0</ele><time>2026-04-29T15:13:25Z</time></trkpt><trkpt lat="43.64228737548608" lon="13.09275164961449"><ele>128.0</ele><time>2026-04-29T15:13:26Z</time></trkpt><trkpt lat="43.642359236873304" lon="13.092812879319267"><ele>128.0</ele><time>2026-04-29T15:13:27Z</time></trkpt><trkpt lat="43.64243997132485" lon="13.09285946877992"><ele>127.99999999999999</ele><time>2026-04-29T15:13:28Z</time></trkpt><trkpt lat="43.64249311582113" lon="13.092936452505036"><ele>128.0</ele><time>2026-04-29T15:13:29Z</time></trkpt><trkpt lat="43.64254636458092" lon="13.092986235120192"><ele>127.99999999999999</ele><time>2026-04-29T15:13:30Z</time></trkpt><trkpt lat="43.64259812031088" lon="13.093036255155054"><ele>128.0</ele><time>2026-04-29T15:13:31Z</time></trkpt><trkpt lat="43.64265691341033" lon="13.093095048174686"><ele>128.0</ele><time>2026-04-29T15:13:32Z</time></trkpt><trkpt lat="43.642717813829584" lon="13.093160443920915"><ele>128.0</ele><time>2026-04-29T15:13:33Z</time></trkpt><trkpt lat="43.64277265687234" lon="13.09323951769843"><ele>127.99999999999999</ele><time>2026-04-29T15:13:34Z</time></trkpt><trkpt lat="43.64280944976763" lon="13.093327679603195"><ele>128.0</ele><time>2026-04-29T15:13:35Z</time></trkpt><trkpt lat="43.64285492993637" lon="13.093441228207773"><ele>129.6</ele><time>2026-04-29T15:13:36Z</time></trkpt><trkpt lat="43.6428958100703" lon="13.09356010730659"><ele>131.20000000000002</ele><time>2026-04-29T15:13:37Z</time></trkpt><trkpt lat="43.64293193790815" lon="13.093683206578108"><ele>132.8</ele><time>2026-04-29T15:13:38Z</time></trkpt><trkpt lat="43.6429573736093" lon="13.093788559414138"><ele>134.4</ele><time>2026-04-29T15:13:39Z</time></trkpt><trkpt lat="43.642981768474186" lon="13.093901658718945"><ele>136.0</ele><time>2026-04-29T15:13:40Z</time></trkpt><trkpt lat="43.643008010579635" lon="13.094032773604296"><ele>136.0</ele><time>2026-04-29T15:13:41Z</time></trkpt><trkpt lat="43.64303238386885" lon="13.094160504922813"><ele>136.0</ele><time>2026-04-29T15:13:42Z</time></trkpt><trkpt lat="43.64305426547679" lon="13.094278614294657"><ele>136.0</ele><time>2026-04-29T15:13:43Z</time></trkpt><trkpt lat="43.64307728759617" lon="13.09440322283875"><ele>136.0</ele><time>2026-04-29T15:13:44Z</time></trkpt><trkpt lat="43.64310206374452" lon="13.094543789592414"><ele>136.0</ele><time>2026-04-29T15:13:45Z</time></trkpt><trkpt lat="43.64312855903509" lon="13.094694571969093"><ele>136.0</ele><time>2026-04-29T15:13:46Z</time></trkpt><trkpt lat="43.64316654410728" lon="13.094825331490384"><ele>136.0</ele><time>2026-04-29T15:13:47Z</time></trkpt><trkpt lat="43.643172321529455" lon="13.094965524583712"><ele>136.0</ele><time>2026-04-29T15:13:48Z</time></trkpt><trkpt lat="43.64320547603338" lon="13.09509358997255"><ele>136.0</ele><time>2026-04-29T15:13:49Z</time></trkpt><trkpt lat="43.64320684324184" lon="13.095224051457823"><ele>136.0</ele><time>2026-04-29T15:13:50Z</time></trkpt><trkpt lat="43.6432239958468" lon="13.095369243629756"><ele>137.0</ele><time>2026-04-29T15:13:51Z</time></trkpt><trkpt lat="43.64325103824664" lon="13.095514465769059"><ele>138.0</ele><time>2026-04-29T15:13:52Z</time></trkpt><trkpt lat="43.64326676170392" lon="13.095667187554541"><ele>139.0</ele><time>2026-04-29T15:13:53Z</time></trkpt><trkpt lat="43.64328300291666" lon="13.09581255541075"><ele>140.0</ele><time>2026-04-29T15:13:54Z</time></trkpt><trkpt lat="43.643301481522236" lon="13.095962691096103"><ele>141.0</ele><time>2026-04-29T15:13:55Z</time></trkpt><trkpt lat="43.64331795897206" lon="13.09610950195872"><ele>141.8</ele><time>2026-04-29T15:13:56Z</time></trkpt><trkpt lat="43.643335898132214" lon="13.096250810481719"><ele>142.6</ele><time>2026-04-29T15:13:57Z</time></trkpt><trkpt lat="43.64335481319505" lon="13.096383197541865"><ele>143.4</ele><time>2026-04-29T15:13:58Z</time></trkpt><trkpt lat="43.64337519192303" lon="13.096514743504535"><ele>144.2</ele><time>2026-04-29T15:13:59Z</time></trkpt><trkpt lat="43.64339830492967" lon="13.096634871767128"><ele>145.0</ele><time>2026-04-29T15:14:00Z</time></trkpt><trkpt lat="43.643419748137546" lon="13.096748917293596"><ele>145.83333333333334</ele><time>2026-04-29T15:14:01Z</time></trkpt><trkpt lat="43.64344036270874" lon="13.096856158817662"><ele>146.66666666666669</ele><time>2026-04-29T15:14:02Z</time></trkpt><trkpt lat="43.64345806451209" lon="13.09695315080255"><ele>147.5</ele><time>2026-04-29T15:14:03Z</time></trkpt><trkpt lat="43.643450760396526" lon="13.097068339761154"><ele>148.33333333333334</ele><time>2026-04-29T15:14:05Z</time></trkpt><trkpt lat="43.64338646120178" lon="13.097118488585158"><ele>149.16666666666666</ele><time>2026-04-29T15:14:07Z</time></trkpt><trkpt lat="43.64328052287466" lon="13.097221511385326"><ele>150.0</ele><time>2026-04-29T15:14:09Z</time></trkpt><trkpt lat="43.64320015125085" lon="13.097290563116381"><ele>150.0</ele><time>2026-04-29T15:14:10Z</time></trkpt><trkpt lat="43.64311626201694" lon="13.097363301250455"><ele>150.0</ele><time>2026-04-29T15:14:11Z</time></trkpt><trkpt lat="43.643026281474675" lon="13.09744291799719"><ele>150.0</ele><time>2026-04-29T15:14:12Z</time></trkpt><trkpt lat="43.642950691755665" lon="13.09752072709779"><ele>150.0</ele><time>2026-04-29T15:14:13Z</time></trkpt><trkpt lat="43.64290745617678" lon="13.097587496713443"><ele>150.0</ele><time>2026-04-29T15:14:14Z</time></trkpt><trkpt lat="43.642930673169616" lon="13.097682643417032"><ele>150.0</ele><time>2026-04-29T15:14:15Z</time></trkpt><trkpt lat="43.642980813301165" lon="13.09781635568609"><ele>150.0</ele><time>2026-04-29T15:14:17Z</time></trkpt><trkpt lat="43.642994582791545" lon="13.097910239967675"><ele>150.0</ele><time>2026-04-29T15:14:18Z</time></trkpt><trkpt lat="43.6430219650782" lon="13.09800251467046"><ele>150.0</ele><time>2026-04-29T15:14:19Z</time></trkpt><trkpt lat="43.64306635973918" lon="13.09808764762385"><ele>150.0</ele><time>2026-04-29T15:14:20Z</time></trkpt><trkpt lat="43.643091478486696" lon="13.098186864058022"><ele>150.0</ele><time>2026-04-29T15:14:21Z</time></trkpt><trkpt lat="43.64312799986887" lon="13.098280981835448"><ele>150.0</ele><time>2026-04-29T15:14:22Z</time></trkpt><trkpt lat="43.64315988865751" lon="13.098382953892774"><ele>150.0</ele><time>2026-04-29T15:14:23Z</time></trkpt><trkpt lat="43.643195839253096" lon="13.098494097658566"><ele>150.0</ele><time>2026-04-29T15:14:24Z</time></trkpt><trkpt lat="43.643231681608256" lon="13.098608552098927"><ele>150.0</ele><time>2026-04-29T15:14:25Z</time></trkpt><trkpt lat="43.64327125488374" lon="13.098722888169414"><ele>150.0</ele><time>2026-04-29T15:14:26Z</time></trkpt><trkpt lat="43.64330711356056" lon="13.098835956785237"><ele>150.0</ele><time>2026-04-29T15:14:27Z</time></trkpt><trkpt lat="43.643353981011714" lon="13.098960403236912"><ele>150.0</ele><time>2026-04-29T15:14:28Z</time></trkpt><trkpt lat="43.643399060037325" lon="13.099068633055209"><ele>150.0</ele><time>2026-04-29T15:14:29Z</time></trkpt><trkpt lat="43.643443157949335" lon="13.099177360402672"><ele>150.0</ele><time>2026-04-29T15:14:30Z</time></trkpt><trkpt lat="43.643490940708986" lon="13.09929628879921"><ele>150.0</ele><time>2026-04-29T15:14:31Z</time></trkpt><trkpt lat="43.64353394825624" lon="13.099406946529701"><ele>150.0</ele><time>2026-04-29T15:14:32Z</time></trkpt><trkpt lat="43.64356785445934" lon="13.099510080235296"><ele>150.5</ele><time>2026-04-29T15:14:33Z</time></trkpt><trkpt lat="43.64359180492522" lon="13.099612859491765"><ele>151.0</ele><time>2026-04-29T15:14:34Z</time></trkpt><trkpt lat="43.64360748128165" lon="13.099725635982605"><ele>151.5</ele><time>2026-04-29T15:14:35Z</time></trkpt><trkpt lat="43.64362615636594" lon="13.099847212489259"><ele>152.0</ele><time>2026-04-29T15:14:36Z</time></trkpt><trkpt lat="43.64364295689691" lon="13.099980285984907"><ele>152.5</ele><time>2026-04-29T15:14:37Z</time></trkpt><trkpt lat="43.64365939221398" lon="13.100113744411189"><ele>153.0</ele><time>2026-04-29T15:14:38Z</time></trkpt><trkpt lat="43.64364639857498" lon="13.100241405744818"><ele>153.20000000000002</ele><time>2026-04-29T15:14:39Z</time></trkpt><trkpt lat="43.643660564495505" lon="13.100361367880213"><ele>153.4</ele><time>2026-04-29T15:14:40Z</time></trkpt><trkpt lat="43.64364514087964" lon="13.100491066725755"><ele>153.60000000000002</ele><time>2026-04-29T15:14:41Z</time></trkpt><trkpt lat="43.64363555205526" lon="13.100626909530105"><ele>153.8</ele><time>2026-04-29T15:14:42Z</time></trkpt><trkpt lat="43.64361643903162" lon="13.100749258886307"><ele>154.0</ele><time>2026-04-29T15:14:43Z</time></trkpt><trkpt lat="43.64358818426947" lon="13.100864050018075"><ele>154.0</ele><time>2026-04-29T15:14:44Z</time></trkpt><trkpt lat="43.64354944045728" lon="13.100953741958289"><ele>154.0</ele><time>2026-04-29T15:14:45Z</time></trkpt><trkpt lat="43.6434815998603" lon="13.100999014782904"><ele>154.0</ele><time>2026-04-29T15:14:46Z</time></trkpt><trkpt lat="43.64340444155032" lon="13.101047641899914"><ele>154.0</ele><time>2026-04-29T15:14:47Z</time></trkpt><trkpt lat="43.643297425137625" lon="13.101121159928756"><ele>154.0</ele><time>2026-04-29T15:14:48Z</time></trkpt><trkpt lat="43.64319962966352" lon="13.101183910348794"><ele>154.0</ele><time>2026-04-29T15:14:49Z</time></trkpt><trkpt lat="43.643122488083485" lon="13.101232453468963"><ele>154.0</ele><time>2026-04-29T15:14:50Z</time></trkpt><trkpt lat="43.64306336166464" lon="13.101269381462052"><ele>154.0</ele><time>2026-04-29T15:14:51Z</time></trkpt><trkpt lat="43.642980492050896" lon="13.101328215602072"><ele>154.0</ele><time>2026-04-29T15:14:53Z</time></trkpt><trkpt lat="43.64307998566474" lon="13.101583029759746"><ele>154.2</ele><time>2026-04-29T15:15:08Z</time></trkpt><trkpt lat="43.64313454823456" lon="13.101674465340725"><ele>154.4</ele><time>2026-04-29T15:15:09Z</time></trkpt><trkpt lat="43.64319796423096" lon="13.101780367554195"><ele>154.6</ele><time>2026-04-29T15:15:10Z</time></trkpt><trkpt lat="43.643267712635264" lon="13.101896154172909"><ele>154.8</ele><time>2026-04-29T15:15:11Z</time></trkpt><trkpt lat="43.6433358231641" lon="13.102005943369996"><ele>155.0</ele><time>2026-04-29T15:15:12Z</time></trkpt><trkpt lat="43.64339985850898" lon="13.102112516054488"><ele>155.0</ele><time>2026-04-29T15:15:13Z</time></trkpt><trkpt lat="43.64347124418168" lon="13.102214800520027"><ele>155.0</ele><time>2026-04-29T15:15:14Z</time></trkpt><trkpt lat="43.64355056614881" lon="13.102323176659048"><ele>155.0</ele><time>2026-04-29T15:15:15Z</time></trkpt><trkpt lat="43.64364164685155" lon="13.102433224930305"><ele>155.0</ele><time>2026-04-29T15:15:16Z</time></trkpt><trkpt lat="43.64374316719872" lon="13.102540089350827"><ele>153.25</ele><time>2026-04-29T15:15:17Z</time></trkpt><trkpt lat="43.64383556752241" lon="13.102639961004613"><ele>151.5</ele><time>2026-04-29T15:15:18Z</time></trkpt><trkpt lat="43.6439255603383" lon="13.102734228755839"><ele>149.75</ele><time>2026-04-29T15:15:19Z</time></trkpt><trkpt lat="43.64401660912302" lon="13.102823503771873"><ele>148.0</ele><time>2026-04-29T15:15:20Z</time></trkpt><trkpt lat="43.64410865578636" lon="13.102913558992777"><ele>148.0</ele><time>2026-04-29T15:15:21Z</time></trkpt><trkpt lat="43.644205200522045" lon="13.103005039216132"><ele>148.0</ele><time>2026-04-29T15:15:22Z</time></trkpt><trkpt lat="43.64430164080874" lon="13.103095823215229"><ele>148.0</ele><time>2026-04-29T15:15:23Z</time></trkpt><trkpt lat="43.64440375838447" lon="13.10320222186734"><ele>148.0</ele><time>2026-04-29T15:15:24Z</time></trkpt><trkpt lat="43.64451138242123" lon="13.103307439779577"><ele>146.6</ele><time>2026-04-29T15:15:25Z</time></trkpt><trkpt lat="43.64461052597675" lon="13.103404316800452"><ele>145.20000000000002</ele><time>2026-04-29T15:15:26Z</time></trkpt><trkpt lat="43.644699540429514" lon="13.103498120225462"><ele>143.8</ele><time>2026-04-29T15:15:27Z</time></trkpt><trkpt lat="43.64478720944393" lon="13.10358824085954"><ele>142.4</ele><time>2026-04-29T15:15:28Z</time></trkpt><trkpt lat="43.64486746316788" lon="13.103680031204632"><ele>141.0</ele><time>2026-04-29T15:15:29Z</time></trkpt><trkpt lat="43.64493983333755" lon="13.103774263566294"><ele>141.0</ele><time>2026-04-29T15:15:30Z</time></trkpt><trkpt lat="43.64500742992957" lon="13.103880079754774"><ele>141.0</ele><time>2026-04-29T15:15:31Z</time></trkpt><trkpt lat="43.64504606861407" lon="13.104007490556207"><ele>141.0</ele><time>2026-04-29T15:15:32Z</time></trkpt><trkpt lat="43.645112648747805" lon="13.104126939721702"><ele>141.0</ele><time>2026-04-29T15:15:33Z</time></trkpt><trkpt lat="43.64516498095678" lon="13.104280371356108"><ele>141.0</ele><time>2026-04-29T15:15:34Z</time></trkpt><trkpt lat="43.645225024171246" lon="13.104422703279255"><ele>142.25</ele><time>2026-04-29T15:15:35Z</time></trkpt><trkpt lat="43.64528338034602" lon="13.104571730364935"><ele>143.5</ele><time>2026-04-29T15:15:36Z</time></trkpt><trkpt lat="43.64534494002307" lon="13.104734137459012"><ele>144.75</ele><time>2026-04-29T15:15:37Z</time></trkpt><trkpt lat="43.64540982184672" lon="13.104907064785204"><ele>146.0</ele><time>2026-04-29T15:15:38Z</time></trkpt><trkpt lat="43.645475933038576" lon="13.105081484906579"><ele>142.25</ele><time>2026-04-29T15:15:39Z</time></trkpt><trkpt lat="43.64553655386961" lon="13.105243868285877"><ele>138.5</ele><time>2026-04-29T15:15:40Z</time></trkpt><trkpt lat="43.645593768028064" lon="13.10539855961171"><ele>134.75</ele><time>2026-04-29T15:15:41Z</time></trkpt><trkpt lat="43.645641150465316" lon="13.10555461311028"><ele>131.0</ele><time>2026-04-29T15:15:42Z</time></trkpt><trkpt lat="43.645682081775874" lon="13.105732650111518"><ele>131.5</ele><time>2026-04-29T15:15:43Z</time></trkpt><trkpt lat="43.64572490988223" lon="13.105927739192559"><ele>132.0</ele><time>2026-04-29T15:15:44Z</time></trkpt><trkpt lat="43.64575881383335" lon="13.106101483808104"><ele>132.5</ele><time>2026-04-29T15:15:45Z</time></trkpt><trkpt lat="43.64578627355876" lon="13.106272232601892"><ele>133.0</ele><time>2026-04-29T15:15:46Z</time></trkpt><trkpt lat="43.645813194754325" lon="13.10644492081346"><ele>132.75</ele><time>2026-04-29T15:15:47Z</time></trkpt><trkpt lat="43.64583484611309" lon="13.10660966971205"><ele>132.5</ele><time>2026-04-29T15:15:48Z</time></trkpt><trkpt lat="43.64585816619343" lon="13.106790790948043"><ele>132.25</ele><time>2026-04-29T15:15:49Z</time></trkpt><trkpt lat="43.64587855170093" lon="13.106974594868339"><ele>132.0</ele><time>2026-04-29T15:15:50Z</time></trkpt><trkpt lat="43.64588794113819" lon="13.107152175459131"><ele>132.0</ele><time>2026-04-29T15:15:51Z</time></trkpt><trkpt lat="43.645892268926325" lon="13.10734132456618"><ele>132.0</ele><time>2026-04-29T15:15:52Z</time></trkpt><trkpt lat="43.64588436520946" lon="13.107526100180328"><ele>132.0</ele><time>2026-04-29T15:15:53Z</time></trkpt><trkpt lat="43.64587068954059" lon="13.107705267793724"><ele>132.0</ele><time>2026-04-29T15:15:54Z</time></trkpt><trkpt lat="43.64585218588939" lon="13.107864707785664"><ele>131.5</ele><time>2026-04-29T15:15:55Z</time></trkpt><trkpt lat="43.64582052970406" lon="13.108025431687528"><ele>131.0</ele><time>2026-04-29T15:15:56Z</time></trkpt><trkpt lat="43.64578688045368" lon="13.10818918935813"><ele>130.5</ele><time>2026-04-29T15:15:57Z</time></trkpt><trkpt lat="43.64574935043995" lon="13.108341016769268"><ele>130.0</ele><time>2026-04-29T15:15:58Z</time></trkpt><trkpt lat="43.64572149306731" lon="13.108494566498141"><ele>130.0</ele><time>2026-04-29T15:15:59Z</time></trkpt><trkpt lat="43.645718804573995" lon="13.108643021176055"><ele>130.0</ele><time>2026-04-29T15:16:00Z</time></trkpt><trkpt lat="43.645737119912276" lon="13.108770081154658"><ele>130.0</ele><time>2026-04-29T15:16:01Z</time></trkpt><trkpt lat="43.64575591096982" lon="13.108919623170022"><ele>130.0</ele><time>2026-04-29T15:16:02Z</time></trkpt><trkpt lat="43.645765746447275" lon="13.10908133506876"><ele>130.0</ele><time>2026-04-29T15:16:03Z</time></trkpt><trkpt lat="43.64579605601404" lon="13.109244304466664"><ele>129.5</ele><time>2026-04-29T15:16:04Z</time></trkpt><trkpt lat="43.6458213485759" lon="13.1094009085402"><ele>129.0</ele><time>2026-04-29T15:16:05Z</time></trkpt><trkpt lat="43.645840751043465" lon="13.10955370665981"><ele>128.5</ele><time>2026-04-29T15:16:06Z</time></trkpt><trkpt lat="43.645874202072406" lon="13.109699625975209"><ele>128.0</ele><time>2026-04-29T15:16:07Z</time></trkpt><trkpt lat="43.64591687367345" lon="13.109857953490113"><ele>127.0</ele><time>2026-04-29T15:16:08Z</time></trkpt><trkpt lat="43.64596569153066" lon="13.110023148914207"><ele>126.0</ele><time>2026-04-29T15:16:09Z</time></trkpt><trkpt lat="43.646009743115215" lon="13.110188016681503"><ele>125.0</ele><time>2026-04-29T15:16:10Z</time></trkpt><trkpt lat="43.64604688790102" lon="13.11033995747779"><ele>124.0</ele><time>2026-04-29T15:16:11Z</time></trkpt><trkpt lat="43.64608063743079" lon="13.110489237320722"><ele>124.0</ele><time>2026-04-29T15:16:12Z</time></trkpt><trkpt lat="43.64609058186384" lon="13.110657599527459"><ele>124.0</ele><time>2026-04-29T15:16:13Z</time></trkpt><trkpt lat="43.64609107441355" lon="13.110833389765094"><ele>124.0</ele><time>2026-04-29T15:16:14Z</time></trkpt><trkpt lat="43.646087233855646" lon="13.11100391935545"><ele>124.0</ele><time>2026-04-29T15:16:15Z</time></trkpt><trkpt lat="43.646083384774755" lon="13.111175432015056"><ele>123.75</ele><time>2026-04-29T15:16:16Z</time></trkpt><trkpt lat="43.64607392176785" lon="13.11133578719194"><ele>123.5</ele><time>2026-04-29T15:16:17Z</time></trkpt><trkpt lat="43.64606670393225" lon="13.111507419777448"><ele>123.25</ele><time>2026-04-29T15:16:18Z</time></trkpt><trkpt lat="43.64606558581344" lon="13.11168795738434"><ele>123.0</ele><time>2026-04-29T15:16:19Z</time></trkpt><trkpt lat="43.6460522521548" lon="13.111847895248026"><ele>123.0</ele><time>2026-04-29T15:16:20Z</time></trkpt><trkpt lat="43.646061135623306" lon="13.111997149637151"><ele>123.0</ele><time>2026-04-29T15:16:21Z</time></trkpt><trkpt lat="43.64609396600037" lon="13.112147013238502"><ele>123.0</ele><time>2026-04-29T15:16:22Z</time></trkpt><trkpt lat="43.64612921660812" lon="13.112295458601116"><ele>123.0</ele><time>2026-04-29T15:16:23Z</time></trkpt><trkpt lat="43.64617250027318" lon="13.112451564309156"><ele>121.2</ele><time>2026-04-29T15:16:24Z</time></trkpt><trkpt lat="43.64620524572346" lon="13.11259630692885"><ele>119.4</ele><time>2026-04-29T15:16:25Z</time></trkpt><trkpt lat="43.64623027187707" lon="13.11273803031423"><ele>117.60000000000001</ele><time>2026-04-29T15:16:26Z</time></trkpt><trkpt lat="43.646248549616146" lon="13.112882888930248"><ele>115.80000000000001</ele><time>2026-04-29T15:16:27Z</time></trkpt><trkpt lat="43.646260179401445" lon="13.113029058712495"><ele>114.0</ele><time>2026-04-29T15:16:28Z</time></trkpt><trkpt lat="43.64624280832169" lon="13.113172558249142"><ele>113.75</ele><time>2026-04-29T15:16:29Z</time></trkpt><trkpt lat="43.64622439387072" lon="13.113317171185608"><ele>113.5</ele><time>2026-04-29T15:16:30Z</time></trkpt><trkpt lat="43.646201490464804" lon="13.113462434360747"><ele>113.25</ele><time>2026-04-29T15:16:31Z</time></trkpt><trkpt lat="43.646179493754715" lon="13.113621132774437"><ele>113.0</ele><time>2026-04-29T15:16:32Z</time></trkpt><trkpt lat="43.64616948578534" lon="13.113788690578378"><ele>113.0</ele><time>2026-04-29T15:16:33Z</time></trkpt><trkpt lat="43.646156289157126" lon="13.113951609965396"><ele>113.0</ele><time>2026-04-29T15:16:34Z</time></trkpt><trkpt lat="43.64614152060078" lon="13.11410912502666"><ele>113.0</ele><time>2026-04-29T15:16:35Z</time></trkpt><trkpt lat="43.646126470750474" lon="13.114273516587742"><ele>113.0</ele><time>2026-04-29T15:16:36Z</time></trkpt><trkpt lat="43.64612289478535" lon="13.114425922361345"><ele>113.0</ele><time>2026-04-29T15:16:37Z</time></trkpt><trkpt lat="43.64610752944618" lon="13.114527299732552"><ele>113.0</ele><time>2026-04-29T15:16:38Z</time></trkpt><trkpt lat="43.64630355997174" lon="13.114659755297355"><ele>113.0</ele><time>2026-04-29T15:16:40Z</time></trkpt><trkpt lat="43.64642339421959" lon="13.114727181904083"><ele>113.0</ele><time>2026-04-29T15:16:41Z</time></trkpt><trkpt lat="43.64649204337611" lon="13.114823874389941"><ele>111.75</ele><time>2026-04-29T15:16:42Z</time></trkpt><trkpt lat="43.64655666430297" lon="13.1149316808331"><ele>110.5</ele><time>2026-04-29T15:16:43Z</time></trkpt><trkpt lat="43.64663808735784" lon="13.11504828957426"><ele>109.25</ele><time>2026-04-29T15:16:44Z</time></trkpt><trkpt lat="43.646708433830405" lon="13.115190770519305"><ele>108.0</ele><time>2026-04-29T15:16:45Z</time></trkpt><trkpt lat="43.64677994935049" lon="13.115326297686353"><ele>108.0</ele><time>2026-04-29T15:16:46Z</time></trkpt><trkpt lat="43.64685391740256" lon="13.115469231578036"><ele>108.0</ele><time>2026-04-29T15:16:47Z</time></trkpt><trkpt lat="43.64692578036828" lon="13.115603228589558"><ele>108.0</ele><time>2026-04-29T15:16:48Z</time></trkpt><trkpt lat="43.647000622331774" lon="13.11573238117203"><ele>108.0</ele><time>2026-04-29T15:16:49Z</time></trkpt><trkpt lat="43.64705887766219" lon="13.115880111904104"><ele>104.5</ele><time>2026-04-29T15:16:50Z</time></trkpt><trkpt lat="43.647135660809795" lon="13.11602408589017"><ele>101.0</ele><time>2026-04-29T15:16:51Z</time></trkpt><trkpt lat="43.647210706884444" lon="13.116168405076868"><ele>97.5</ele><time>2026-04-29T15:16:52Z</time></trkpt><trkpt lat="43.64728721999404" lon="13.11631590878059"><ele>94.0</ele><time>2026-04-29T15:16:53Z</time></trkpt><trkpt lat="43.64736592340026" lon="13.116464074527377"><ele>94.0</ele><time>2026-04-29T15:16:54Z</time></trkpt><trkpt lat="43.64744654138239" lon="13.116614853335069"><ele>94.0</ele><time>2026-04-29T15:16:55Z</time></trkpt><trkpt lat="43.6475296959478" lon="13.116766405530536"><ele>94.0</ele><time>2026-04-29T15:16:56Z</time></trkpt><trkpt lat="43.64760532916503" lon="13.116904249375706"><ele>94.0</ele><time>2026-04-29T15:16:57Z</time></trkpt><trkpt lat="43.64768999184199" lon="13.117020683801362"><ele>94.0</ele><time>2026-04-29T15:16:58Z</time></trkpt><trkpt lat="43.6477561221593" lon="13.117143013526947"><ele>94.0</ele><time>2026-04-29T15:16:59Z</time></trkpt><trkpt lat="43.64782236923052" lon="13.117262758103294"><ele>94.0</ele><time>2026-04-29T15:17:00Z</time></trkpt><trkpt lat="43.64789272957827" lon="13.117384582056207"><ele>94.0</ele><time>2026-04-29T15:17:01Z</time></trkpt><trkpt lat="43.647951559496086" lon="13.117510814818955"><ele>94.0</ele><time>2026-04-29T15:17:02Z</time></trkpt><trkpt lat="43.64797122638043" lon="13.117649528531443"><ele>91.2</ele><time>2026-04-29T15:17:03Z</time></trkpt><trkpt lat="43.64798042412543" lon="13.11779478024737"><ele>88.4</ele><time>2026-04-29T15:17:04Z</time></trkpt><trkpt lat="43.64799578106677" lon="13.117959570169946"><ele>85.6</ele><time>2026-04-29T15:17:05Z</time></trkpt><trkpt lat="43.64801497409684" lon="13.118107768967057"><ele>82.8</ele><time>2026-04-29T15:17:06Z</time></trkpt><trkpt lat="43.64803022281198" lon="13.118261868879317"><ele>80.0</ele><time>2026-04-29T15:17:07Z</time></trkpt><trkpt lat="43.64804784642729" lon="13.118408422031466"><ele>79.75</ele><time>2026-04-29T15:17:08Z</time></trkpt><trkpt lat="43.64807045194608" lon="13.118566947765848"><ele>79.5</ele><time>2026-04-29T15:17:09Z</time></trkpt><trkpt lat="43.648084015049186" lon="13.118731065555448"><ele>79.25</ele><time>2026-04-29T15:17:10Z</time></trkpt><trkpt lat="43.648105449260086" lon="13.11889406079093"><ele>79.0</ele><time>2026-04-29T15:17:11Z</time></trkpt><trkpt lat="43.64812008273353" lon="13.11905017137913"><ele>78.5</ele><time>2026-04-29T15:17:12Z</time></trkpt><trkpt lat="43.648136861630036" lon="13.119195498376097"><ele>78.0</ele><time>2026-04-29T15:17:13Z</time></trkpt><trkpt lat="43.64815433152309" lon="13.119348903902512"><ele>77.5</ele><time>2026-04-29T15:17:14Z</time></trkpt><trkpt lat="43.64817212334616" lon="13.119525364235137"><ele>77.0</ele><time>2026-04-29T15:17:15Z</time></trkpt><trkpt lat="43.64820712757297" lon="13.119721407688642"><ele>76.5</ele><time>2026-04-29T15:17:16Z</time></trkpt><trkpt lat="43.64821835040921" lon="13.119908863657775"><ele>76.0</ele><time>2026-04-29T15:17:17Z</time></trkpt><trkpt lat="43.648200699231474" lon="13.120066334780043"><ele>75.5</ele><time>2026-04-29T15:17:18Z</time></trkpt><trkpt lat="43.648192368199666" lon="13.120218670372605"><ele>75.0</ele><time>2026-04-29T15:17:19Z</time></trkpt><trkpt lat="43.64818713000865" lon="13.12035202550211"><ele>75.0</ele><time>2026-04-29T15:17:20Z</time></trkpt><trkpt lat="43.6482055182937" lon="13.120481884244246"><ele>75.0</ele><time>2026-04-29T15:17:21Z</time></trkpt><trkpt lat="43.64823171206772" lon="13.120607393441487"><ele>75.0</ele><time>2026-04-29T15:17:22Z</time></trkpt><trkpt lat="43.64826586732057" lon="13.120731502821998"><ele>75.0</ele><time>2026-04-29T15:17:23Z</time></trkpt><trkpt lat="43.64835131149723" lon="13.120834157657143"><ele>75.0</ele><time>2026-04-29T15:17:24Z</time></trkpt><trkpt lat="43.648443322765246" lon="13.120951709734234"><ele>74.25</ele><time>2026-04-29T15:17:25Z</time></trkpt><trkpt lat="43.648547711305696" lon="13.121062133428717"><ele>73.5</ele><time>2026-04-29T15:17:26Z</time></trkpt><trkpt lat="43.64864042336481" lon="13.121153543471612"><ele>72.75</ele><time>2026-04-29T15:17:27Z</time></trkpt><trkpt lat="43.6487634994609" lon="13.121235628016832"><ele>72.0</ele><time>2026-04-29T15:17:28Z</time></trkpt><trkpt lat="43.64888753089779" lon="13.121317136418956"><ele>68.75</ele><time>2026-04-29T15:17:29Z</time></trkpt><trkpt lat="43.648992573753375" lon="13.121433284174481"><ele>65.5</ele><time>2026-04-29T15:17:30Z</time></trkpt><trkpt lat="43.649083387242506" lon="13.121545579143685"><ele>62.25</ele><time>2026-04-29T15:17:31Z</time></trkpt><trkpt lat="43.649146421770375" lon="13.1216604892435"><ele>59.0</ele><time>2026-04-29T15:17:32Z</time></trkpt><trkpt lat="43.64919363969362" lon="13.12177480468775"><ele>58.400000000000006</ele><time>2026-04-29T15:17:33Z</time></trkpt><trkpt lat="43.649251087171045" lon="13.121876685851129"><ele>57.800000000000004</ele><time>2026-04-29T15:17:34Z</time></trkpt><trkpt lat="43.64929416009345" lon="13.121995592655017"><ele>57.199999999999996</ele><time>2026-04-29T15:17:35Z</time></trkpt><trkpt lat="43.64935340969375" lon="13.122118421820376"><ele>56.599999999999994</ele><time>2026-04-29T15:17:36Z</time></trkpt><trkpt lat="43.64943580466197" lon="13.122232800241196"><ele>56.0</ele><time>2026-04-29T15:17:37Z</time></trkpt><trkpt lat="43.64953204930212" lon="13.122341564377676"><ele>53.5</ele><time>2026-04-29T15:17:38Z</time></trkpt><trkpt lat="43.64963531262873" lon="13.122455979242583"><ele>51.0</ele><time>2026-04-29T15:17:39Z</time></trkpt><trkpt lat="43.64972245417337" lon="13.122606529500183"><ele>48.5</ele><time>2026-04-29T15:17:40Z</time></trkpt><trkpt lat="43.64982478387788" lon="13.122750688176337"><ele>46.0</ele><time>2026-04-29T15:17:41Z</time></trkpt><trkpt lat="43.649925140699175" lon="13.12287395002741"><ele>46.0</ele><time>2026-04-29T15:17:42Z</time></trkpt><trkpt lat="43.65003827666687" lon="13.122969430926366"><ele>46.0</ele><time>2026-04-29T15:17:43Z</time></trkpt><trkpt lat="43.65014747905511" lon="13.123060134009306"><ele>46.0</ele><time>2026-04-29T15:17:44Z</time></trkpt><trkpt lat="43.65027617158937" lon="13.12316026044302"><ele>46.0</ele><time>2026-04-29T15:17:45Z</time></trkpt><trkpt lat="43.650410618352566" lon="13.123263851713586"><ele>45.199999999999996</ele><time>2026-04-29T15:17:46Z</time></trkpt><trkpt lat="43.65051848869192" lon="13.123345214206994"><ele>44.4</ele><time>2026-04-29T15:17:47Z</time></trkpt><trkpt lat="43.65059341356127" lon="13.123392545114116"><ele>43.6</ele><time>2026-04-29T15:17:48Z</time></trkpt><trkpt lat="43.650662949658106" lon="13.123439928442128"><ele>42.8</ele><time>2026-04-29T15:17:54Z</time></trkpt><trkpt lat="43.65074753175491" lon="13.123503335144157"><ele>42.0</ele><time>2026-04-29T15:17:56Z</time></trkpt><trkpt lat="43.65082868015802" lon="13.123522722141427"><ele>42.0</ele><time>2026-04-29T15:17:57Z</time></trkpt><trkpt lat="43.65092581192818" lon="13.123521198465939"><ele>42.0</ele><time>2026-04-29T15:17:58Z</time></trkpt><trkpt lat="43.65103984288927" lon="13.12353705637786"><ele>42.0</ele><time>2026-04-29T15:17:59Z</time></trkpt><trkpt lat="43.65118101113751" lon="13.123578727611607"><ele>42.0</ele><time>2026-04-29T15:18:00Z</time></trkpt><trkpt lat="43.65131494851068" lon="13.123635571807986"><ele>41.25</ele><time>2026-04-29T15:18:01Z</time></trkpt><trkpt lat="43.65142734210134" lon="13.123704585741072"><ele>40.5</ele><time>2026-04-29T15:18:02Z</time></trkpt><trkpt lat="43.65152868998588" lon="13.123783722579967"><ele>39.75</ele><time>2026-04-29T15:18:03Z</time></trkpt><trkpt lat="43.651616788424676" lon="13.123894687451793"><ele>39.0</ele><time>2026-04-29T15:18:04Z</time></trkpt><trkpt lat="43.651688290452874" lon="13.12403768676055"><ele>39.25</ele><time>2026-04-29T15:18:05Z</time></trkpt><trkpt lat="43.65173440799718" lon="13.124200451012584"><ele>39.5</ele><time>2026-04-29T15:18:06Z</time></trkpt><trkpt lat="43.65176525059733" lon="13.124395944883844"><ele>39.75</ele><time>2026-04-29T15:18:07Z</time></trkpt><trkpt lat="43.651778849550375" lon="13.12462552065302"><ele>40.0</ele><time>2026-04-29T15:18:08Z</time></trkpt><trkpt lat="43.65177295492147" lon="13.124887990213193"><ele>40.333333333333336</ele><time>2026-04-29T15:18:09Z</time></trkpt><trkpt lat="43.651752677079706" lon="13.125155060232789"><ele>40.666666666666664</ele><time>2026-04-29T15:18:10Z</time></trkpt><trkpt lat="43.65177788465081" lon="13.125419382657709"><ele>41.0</ele><time>2026-04-29T15:18:11Z</time></trkpt><trkpt lat="43.65172618642603" lon="13.125679677691602"><ele>40.666666666666664</ele><time>2026-04-29T15:18:12Z</time></trkpt><trkpt lat="43.651717956137986" lon="13.125926997690339"><ele>40.333333333333336</ele><time>2026-04-29T15:18:13Z</time></trkpt><trkpt lat="43.65170306442466" lon="13.12617826895536"><ele>40.0</ele><time>2026-04-29T15:18:14Z</time></trkpt><trkpt lat="43.65168158524019" lon="13.126441463365238"><ele>39.66666666666667</ele><time>2026-04-29T15:18:15Z</time></trkpt><trkpt lat="43.651676412030056" lon="13.1267189374328"><ele>39.333333333333336</ele><time>2026-04-29T15:18:16Z</time></trkpt><trkpt lat="43.65169120438836" lon="13.126997390611368"><ele>39.0</ele><time>2026-04-29T15:18:17Z</time></trkpt><trkpt lat="43.65172205341643" lon="13.127251763143493"><ele>39.0</ele><time>2026-04-29T15:18:18Z</time></trkpt><trkpt lat="43.6517742876429" lon="13.127505663268424"><ele>39.0</ele><time>2026-04-29T15:18:19Z</time></trkpt><trkpt lat="43.65184082000246" lon="13.127756703347307"><ele>39.0</ele><time>2026-04-29T15:18:20Z</time></trkpt><trkpt lat="43.65191988536043" lon="13.128004183179272"><ele>39.0</ele><time>2026-04-29T15:18:21Z</time></trkpt><trkpt lat="43.65200531647478" lon="13.128232400627152"><ele>39.0</ele><time>2026-04-29T15:18:22Z</time></trkpt><trkpt lat="43.65209468157893" lon="13.128450488001489"><ele>39.0</ele><time>2026-04-29T15:18:23Z</time></trkpt><trkpt lat="43.65218683764343" lon="13.128660998448403"><ele>39.0</ele><time>2026-04-29T15:18:24Z</time></trkpt><trkpt lat="43.65227454276027" lon="13.128872547088466"><ele>39.0</ele><time>2026-04-29T15:18:25Z</time></trkpt><trkpt lat="43.65236891319325" lon="13.129091885975523"><ele>39.0</ele><time>2026-04-29T15:18:26Z</time></trkpt><trkpt lat="43.65246857248844" lon="13.129311057881585"><ele>39.0</ele><time>2026-04-29T15:18:27Z</time></trkpt><trkpt lat="43.652569917370485" lon="13.129534609210133"><ele>39.0</ele><time>2026-04-29T15:18:28Z</time></trkpt><trkpt lat="43.652667951603505" lon="13.129759745033924"><ele>39.0</ele><time>2026-04-29T15:18:29Z</time></trkpt><trkpt lat="43.65276858784537" lon="13.12999177837174"><ele>39.333333333333336</ele><time>2026-04-29T15:18:30Z</time></trkpt><trkpt lat="43.65287093762365" lon="13.130232914476657"><ele>39.66666666666667</ele><time>2026-04-29T15:18:31Z</time></trkpt><trkpt lat="43.65296538179191" lon="13.130459257817238"><ele>40.0</ele><time>2026-04-29T15:18:32Z</time></trkpt><trkpt lat="43.653067869489746" lon="13.130691453979914"><ele>39.333333333333336</ele><time>2026-04-29T15:18:33Z</time></trkpt><trkpt lat="43.65317045789151" lon="13.130921966002466"><ele>38.666666666666664</ele><time>2026-04-29T15:18:34Z</time></trkpt><trkpt lat="43.65326198692869" lon="13.131150875208748"><ele>38.0</ele><time>2026-04-29T15:18:35Z</time></trkpt><trkpt lat="43.65333983945075" lon="13.131392677038562"><ele>37.666666666666664</ele><time>2026-04-29T15:18:36Z</time></trkpt><trkpt lat="43.65340956496124" lon="13.131663160709765"><ele>37.333333333333336</ele><time>2026-04-29T15:18:37Z</time></trkpt><trkpt lat="43.6534638776684" lon="13.131937733277743"><ele>37.0</ele><time>2026-04-29T15:18:38Z</time></trkpt><trkpt lat="43.65350252873561" lon="13.132215207938236"><ele>37.333333333333336</ele><time>2026-04-29T15:18:39Z</time></trkpt><trkpt lat="43.65352581856444" lon="13.13249561093708"><ele>37.666666666666664</ele><time>2026-04-29T15:18:40Z</time></trkpt><trkpt lat="43.65353587935956" lon="13.132768024369952"><ele>38.0</ele><time>2026-04-29T15:18:41Z</time></trkpt><trkpt lat="43.653541167594156" lon="13.133039081742258"><ele>38.33333333333333</ele><time>2026-04-29T15:18:42Z</time></trkpt><trkpt lat="43.65354731608131" lon="13.133309247293761"><ele>38.666666666666664</ele><time>2026-04-29T15:18:43Z</time></trkpt><trkpt lat="43.653552430402506" lon="13.13358375152603"><ele>39.0</ele><time>2026-04-29T15:18:44Z</time></trkpt><trkpt lat="43.653559293789" lon="13.13386064539864"><ele>38.666666666666664</ele><time>2026-04-29T15:18:45Z</time></trkpt><trkpt lat="43.65356680864361" lon="13.134137455110187"><ele>38.33333333333333</ele><time>2026-04-29T15:18:46Z</time></trkpt><trkpt lat="43.65357505938233" lon="13.13441408422377"><ele>38.0</ele><time>2026-04-29T15:18:47Z</time></trkpt><trkpt lat="43.653585429803" lon="13.134685477417968"><ele>37.33333333333333</ele><time>2026-04-29T15:18:48Z</time></trkpt><trkpt lat="43.65359617896825" lon="13.134957273161369"><ele>36.666666666666664</ele><time>2026-04-29T15:18:49Z</time></trkpt><trkpt lat="43.65360175396202" lon="13.135231260143764"><ele>36.0</ele><time>2026-04-29T15:18:50Z</time></trkpt><trkpt lat="43.6536095040724" lon="13.135518814720994"><ele>36.0</ele><time>2026-04-29T15:18:51Z</time></trkpt><trkpt lat="43.653617373123325" lon="13.135807448736523"><ele>36.0</ele><time>2026-04-29T15:18:52Z</time></trkpt><trkpt lat="43.65362558194626" lon="13.136099861698675"><ele>36.0</ele><time>2026-04-29T15:18:53Z</time></trkpt><trkpt lat="43.65363730141881" lon="13.136391087030319"><ele>39.333333333333336</ele><time>2026-04-29T15:18:54Z</time></trkpt><trkpt lat="43.65364813796165" lon="13.136676349462746"><ele>42.66666666666667</ele><time>2026-04-29T15:18:55Z</time></trkpt><trkpt lat="43.653658130210474" lon="13.1369697737402"><ele>46.0</ele><time>2026-04-29T15:18:56Z</time></trkpt><trkpt lat="43.65366771671072" lon="13.137259601158796"><ele>47.333333333333336</ele><time>2026-04-29T15:18:57Z</time></trkpt><trkpt lat="43.653676231320645" lon="13.137550025426702"><ele>48.66666666666667</ele><time>2026-04-29T15:18:58Z</time></trkpt><trkpt lat="43.653693380102595" lon="13.137849821957476"><ele>50.0</ele><time>2026-04-29T15:18:59Z</time></trkpt><trkpt lat="43.6537119297396" lon="13.13813732426104"><ele>51.333333333333336</ele><time>2026-04-29T15:19:00Z</time></trkpt><trkpt lat="43.653707593603144" lon="13.138444162528302"><ele>52.66666666666667</ele><time>2026-04-29T15:19:01Z</time></trkpt><trkpt lat="43.653717094214535" lon="13.138746116615259"><ele>54.0</ele><time>2026-04-29T15:19:02Z</time></trkpt><trkpt lat="43.65374302556463" lon="13.139046147470012"><ele>53.66666666666667</ele><time>2026-04-29T15:19:03Z</time></trkpt><trkpt lat="43.653747147631265" lon="13.139351382107584"><ele>53.333333333333336</ele><time>2026-04-29T15:19:04Z</time></trkpt><trkpt lat="43.653752731345314" lon="13.139652293992933"><ele>53.0</ele><time>2026-04-29T15:19:05Z</time></trkpt><trkpt lat="43.65375967383636" lon="13.139938279252757"><ele>51.66666666666667</ele><time>2026-04-29T15:19:06Z</time></trkpt><trkpt lat="43.65375580133259" lon="13.140209324967218"><ele>50.33333333333333</ele><time>2026-04-29T15:19:07Z</time></trkpt><trkpt lat="43.653728838831356" lon="13.140461396866986"><ele>49.0</ele><time>2026-04-29T15:19:08Z</time></trkpt><trkpt lat="43.653676614450845" lon="13.14070818205238"><ele>45.0</ele><time>2026-04-29T15:19:09Z</time></trkpt><trkpt lat="43.65360288671023" lon="13.140943251671803"><ele>41.0</ele><time>2026-04-29T15:19:10Z</time></trkpt><trkpt lat="43.653511937459264" lon="13.141178595115846"><ele>37.0</ele><time>2026-04-29T15:19:11Z</time></trkpt><trkpt lat="43.65340391042814" lon="13.141408563196423"><ele>38.0</ele><time>2026-04-29T15:19:12Z</time></trkpt><trkpt lat="43.65329156673043" lon="13.141626705282894"><ele>39.0</ele><time>2026-04-29T15:19:13Z</time></trkpt><trkpt lat="43.65318653190178" lon="13.141837015512069"><ele>40.0</ele><time>2026-04-29T15:19:14Z</time></trkpt><trkpt lat="43.653088807755154" lon="13.142048747726438"><ele>40.0</ele><time>2026-04-29T15:19:15Z</time></trkpt><trkpt lat="43.652992885503714" lon="13.142266895776869"><ele>40.0</ele><time>2026-04-29T15:19:16Z</time></trkpt><trkpt lat="43.652904761697364" lon="13.142497985828092"><ele>40.0</ele><time>2026-04-29T15:19:17Z</time></trkpt><trkpt lat="43.65282589582716" lon="13.142736589729113"><ele>39.0</ele><time>2026-04-29T15:19:18Z</time></trkpt><trkpt lat="43.652764352703805" lon="13.14298432296233"><ele>38.0</ele><time>2026-04-29T15:19:19Z</time></trkpt><trkpt lat="43.65271374641929" lon="13.143242416759259"><ele>37.0</ele><time>2026-04-29T15:19:20Z</time></trkpt><trkpt lat="43.65267043453805" lon="13.14350842874307"><ele>36.66666666666667</ele><time>2026-04-29T15:19:21Z</time></trkpt><trkpt lat="43.6526340984148" lon="13.143783011338463"><ele>36.333333333333336</ele><time>2026-04-29T15:19:22Z</time></trkpt><trkpt lat="43.65260393144336" lon="13.144056508575463"><ele>36.0</ele><time>2026-04-29T15:19:23Z</time></trkpt><trkpt lat="43.65256864959832" lon="13.144319852160944"><ele>36.0</ele><time>2026-04-29T15:19:24Z</time></trkpt><trkpt lat="43.652530507510846" lon="13.144577607015007"><ele>36.0</ele><time>2026-04-29T15:19:25Z</time></trkpt><trkpt lat="43.65248861502347" lon="13.144852943382526"><ele>36.0</ele><time>2026-04-29T15:19:26Z</time></trkpt><trkpt lat="43.652444144647625" lon="13.14513043133287"><ele>36.666666666666664</ele><time>2026-04-29T15:19:27Z</time></trkpt><trkpt lat="43.65240124639351" lon="13.145390641193819"><ele>37.33333333333333</ele><time>2026-04-29T15:19:28Z</time></trkpt><trkpt lat="43.65235375267624" lon="13.145650947785064"><ele>38.0</ele><time>2026-04-29T15:19:29Z</time></trkpt><trkpt lat="43.652298580424294" lon="13.14591349718363"><ele>38.0</ele><time>2026-04-29T15:19:30Z</time></trkpt><trkpt lat="43.652217777342294" lon="13.146173581985577"><ele>38.0</ele><time>2026-04-29T15:19:31Z</time></trkpt><trkpt lat="43.65217387137177" lon="13.146425816011881"><ele>38.0</ele><time>2026-04-29T15:19:32Z</time></trkpt><trkpt lat="43.652116090060964" lon="13.146657639626818"><ele>37.33333333333333</ele><time>2026-04-29T15:19:33Z</time></trkpt><trkpt lat="43.65205522902085" lon="13.146895234549296"><ele>36.666666666666664</ele><time>2026-04-29T15:19:34Z</time></trkpt><trkpt lat="43.6519902427059" lon="13.1471519800522"><ele>36.0</ele><time>2026-04-29T15:19:35Z</time></trkpt><trkpt lat="43.65193257832862" lon="13.147396454899962"><ele>36.0</ele><time>2026-04-29T15:19:36Z</time></trkpt><trkpt lat="43.6518800805381" lon="13.147617305714487"><ele>36.0</ele><time>2026-04-29T15:19:37Z</time></trkpt><trkpt lat="43.65183214384608" lon="13.147820101598667"><ele>36.0</ele><time>2026-04-29T15:19:38Z</time></trkpt><trkpt lat="43.651797991110676" lon="13.148013994155049"><ele>36.25</ele><time>2026-04-29T15:19:39Z</time></trkpt><trkpt lat="43.65178178416605" lon="13.14821358353025"><ele>36.5</ele><time>2026-04-29T15:19:40Z</time></trkpt><trkpt lat="43.651774905852825" lon="13.148383286972699"><ele>36.75</ele><time>2026-04-29T15:19:41Z</time></trkpt><trkpt lat="43.6517939074268" lon="13.148548453474458"><ele>37.0</ele><time>2026-04-29T15:19:42Z</time></trkpt><trkpt lat="43.65178035673181" lon="13.148687018455322"><ele>37.0</ele><time>2026-04-29T15:19:43Z</time></trkpt><trkpt lat="43.651749931824625" lon="13.148814009763422"><ele>37.0</ele><time>2026-04-29T15:19:44Z</time></trkpt><trkpt lat="43.65169946234097" lon="13.148901517228968"><ele>37.0</ele><time>2026-04-29T15:19:45Z</time></trkpt><trkpt lat="43.65163085022466" lon="13.148970311740728"><ele>37.0</ele><time>2026-04-29T15:19:46Z</time></trkpt><trkpt lat="43.65157319996101" lon="13.149075317305941"><ele>37.0</ele><time>2026-04-29T15:19:47Z</time></trkpt><trkpt lat="43.6515285807634" lon="13.14918699467664"><ele>36.2</ele><time>2026-04-29T15:19:48Z</time></trkpt><trkpt lat="43.651509356747205" lon="13.149304741856179"><ele>35.400000000000006</ele><time>2026-04-29T15:19:49Z</time></trkpt><trkpt lat="43.65154775140491" lon="13.14942565681182"><ele>34.599999999999994</ele><time>2026-04-29T15:19:50Z</time></trkpt><trkpt lat="43.65161102131971" lon="13.149517921431807"><ele>33.8</ele><time>2026-04-29T15:19:51Z</time></trkpt><trkpt lat="43.65171151259223" lon="13.149570237744086"><ele>33.0</ele><time>2026-04-29T15:19:52Z</time></trkpt><trkpt lat="43.651841052280126" lon="13.149539082572863"><ele>33.0</ele><time>2026-04-29T15:19:53Z</time></trkpt><trkpt lat="43.651954325797554" lon="13.14954705729389"><ele>33.0</ele><time>2026-04-29T15:19:54Z</time></trkpt><trkpt lat="43.65207287166822" lon="13.149574804132396"><ele>33.0</ele><time>2026-04-29T15:19:55Z</time></trkpt><trkpt lat="43.65219738290462" lon="13.149643649450997"><ele>33.0</ele><time>2026-04-29T15:19:56Z</time></trkpt><trkpt lat="43.65233594544136" lon="13.14974414033795"><ele>33.0</ele><time>2026-04-29T15:19:57Z</time></trkpt><trkpt lat="43.652478349695826" lon="13.149860171017615"><ele>33.0</ele><time>2026-04-29T15:19:58Z</time></trkpt><trkpt lat="43.65261619579347" lon="13.149981916162785"><ele>33.0</ele><time>2026-04-29T15:19:59Z</time></trkpt><trkpt lat="43.65276432523566" lon="13.150100625555268"><ele>33.0</ele><time>2026-04-29T15:20:00Z</time></trkpt><trkpt lat="43.65290851093031" lon="13.150218637597815"><ele>33.0</ele><time>2026-04-29T15:20:01Z</time></trkpt><trkpt lat="43.65305125939983" lon="13.15033172529965"><ele>33.0</ele><time>2026-04-29T15:20:02Z</time></trkpt><trkpt lat="43.65319826756982" lon="13.150443811578228"><ele>33.0</ele><time>2026-04-29T15:20:03Z</time></trkpt><trkpt lat="43.65334672831127" lon="13.150560765262142"><ele>33.0</ele><time>2026-04-29T15:20:04Z</time></trkpt><trkpt lat="43.65349711634626" lon="13.150681675338227"><ele>33.0</ele><time>2026-04-29T15:20:05Z</time></trkpt><trkpt lat="43.65365258756627" lon="13.150806890756417"><ele>32.333333333333336</ele><time>2026-04-29T15:20:06Z</time></trkpt><trkpt lat="43.65381610129174" lon="13.150942015810594"><ele>31.666666666666668</ele><time>2026-04-29T15:20:07Z</time></trkpt><trkpt lat="43.65398106853769" lon="13.151094379258339"><ele>31.0</ele><time>2026-04-29T15:20:08Z</time></trkpt><trkpt lat="43.65413539175545" lon="13.151267116793386"><ele>31.0</ele><time>2026-04-29T15:20:09Z</time></trkpt><trkpt lat="43.6542719565201" lon="13.151448619443068"><ele>31.0</ele><time>2026-04-29T15:20:10Z</time></trkpt><trkpt lat="43.654411738081414" lon="13.151648328116341"><ele>31.0</ele><time>2026-04-29T15:20:11Z</time></trkpt><trkpt lat="43.65453230644886" lon="13.151861343893255"><ele>32.0</ele><time>2026-04-29T15:20:12Z</time></trkpt><trkpt lat="43.65464742387361" lon="13.152086043269323"><ele>33.0</ele><time>2026-04-29T15:20:13Z</time></trkpt><trkpt lat="43.65477822768352" lon="13.152311370694164"><ele>34.0</ele><time>2026-04-29T15:20:14Z</time></trkpt><trkpt lat="43.654904436793956" lon="13.152538140297278"><ele>34.0</ele><time>2026-04-29T15:20:15Z</time></trkpt><trkpt lat="43.65502610938123" lon="13.152760219020612"><ele>34.0</ele><time>2026-04-29T15:20:16Z</time></trkpt><trkpt lat="43.65514425928024" lon="13.15296937809553"><ele>34.0</ele><time>2026-04-29T15:20:17Z</time></trkpt><trkpt lat="43.65524898941338" lon="13.153163748575507"><ele>34.0</ele><time>2026-04-29T15:20:18Z</time></trkpt><trkpt lat="43.65534816869705" lon="13.153345458853524"><ele>34.0</ele><time>2026-04-29T15:20:19Z</time></trkpt><trkpt lat="43.65544818186523" lon="13.15351438382051"><ele>34.0</ele><time>2026-04-29T15:20:20Z</time></trkpt><trkpt lat="43.65555663838315" lon="13.153685748889512"><ele>34.0</ele><time>2026-04-29T15:20:21Z</time></trkpt><trkpt lat="43.655671437133655" lon="13.153839400005477"><ele>34.0</ele><time>2026-04-29T15:20:22Z</time></trkpt><trkpt lat="43.65579451017438" lon="13.153990613598955"><ele>34.0</ele><time>2026-04-29T15:20:23Z</time></trkpt><trkpt lat="43.65593097593752" lon="13.154139489534208"><ele>31.666666666666668</ele><time>2026-04-29T15:20:24Z</time></trkpt><trkpt lat="43.65607432882202" lon="13.154271478170514"><ele>29.333333333333336</ele><time>2026-04-29T15:20:25Z</time></trkpt><trkpt lat="43.65622581551867" lon="13.154398048184383"><ele>27.0</ele><time>2026-04-29T15:20:26Z</time></trkpt><trkpt lat="43.656390566673885" lon="13.154527420812045"><ele>27.0</ele><time>2026-04-29T15:20:27Z</time></trkpt><trkpt lat="43.65656833990339" lon="13.154674703669054"><ele>27.0</ele><time>2026-04-29T15:20:28Z</time></trkpt><trkpt lat="43.65673134637259" lon="13.15482708754477"><ele>27.0</ele><time>2026-04-29T15:20:29Z</time></trkpt><trkpt lat="43.65687824147666" lon="13.154939978185602"><ele>26.333333333333336</ele><time>2026-04-29T15:20:30Z</time></trkpt><trkpt lat="43.657046167006996" lon="13.155074698792413"><ele>25.666666666666668</ele><time>2026-04-29T15:20:31Z</time></trkpt><trkpt lat="43.657210070338756" lon="13.155214520659252"><ele>25.0</ele><time>2026-04-29T15:20:32Z</time></trkpt><trkpt lat="43.65736263483562" lon="13.155366679038421"><ele>25.0</ele><time>2026-04-29T15:20:33Z</time></trkpt><trkpt lat="43.65752483179006" lon="13.155497128447115"><ele>25.0</ele><time>2026-04-29T15:20:34Z</time></trkpt><trkpt lat="43.65767991971374" lon="13.155617796181062"><ele>25.0</ele><time>2026-04-29T15:20:35Z</time></trkpt><trkpt lat="43.65783721023228" lon="13.155749411555867"><ele>25.333333333333336</ele><time>2026-04-29T15:20:36Z</time></trkpt><trkpt lat="43.657989231643626" lon="13.15588397819308"><ele>25.666666666666664</ele><time>2026-04-29T15:20:37Z</time></trkpt><trkpt lat="43.65814070331656" lon="13.156008920998868"><ele>26.0</ele><time>2026-04-29T15:20:38Z</time></trkpt><trkpt lat="43.65828838466754" lon="13.156130541718596"><ele>26.0</ele><time>2026-04-29T15:20:39Z</time></trkpt><trkpt lat="43.65843620875803" lon="13.156256504683821"><ele>26.0</ele><time>2026-04-29T15:20:40Z</time></trkpt><trkpt lat="43.658586902722234" lon="13.15638402644936"><ele>26.0</ele><time>2026-04-29T15:20:41Z</time></trkpt><trkpt lat="43.65873365610604" lon="13.156509274554782"><ele>25.666666666666664</ele><time>2026-04-29T15:20:42Z</time></trkpt><trkpt lat="43.65887587937662" lon="13.156629416846721"><ele>25.333333333333336</ele><time>2026-04-29T15:20:43Z</time></trkpt><trkpt lat="43.65901989619288" lon="13.156747075218584"><ele>25.0</ele><time>2026-04-29T15:20:44Z</time></trkpt><trkpt lat="43.65916944506203" lon="13.156853819748527"><ele>25.0</ele><time>2026-04-29T15:20:45Z</time></trkpt><trkpt lat="43.659322174337234" lon="13.1569394746522"><ele>25.0</ele><time>2026-04-29T15:20:46Z</time></trkpt><trkpt lat="43.65948637495446" lon="13.156999633299018"><ele>25.0</ele><time>2026-04-29T15:20:47Z</time></trkpt><trkpt lat="43.65965304418482" lon="13.157037613765052"><ele>25.333333333333336</ele><time>2026-04-29T15:20:48Z</time></trkpt><trkpt lat="43.659822604650124" lon="13.157059769793634"><ele>25.666666666666664</ele><time>2026-04-29T15:20:49Z</time></trkpt><trkpt lat="43.65999226674158" lon="13.157058068349286"><ele>26.0</ele><time>2026-04-29T15:20:50Z</time></trkpt><trkpt lat="43.66016153843013" lon="13.157026710768355"><ele>26.0</ele><time>2026-04-29T15:20:51Z</time></trkpt><trkpt lat="43.66033348056985" lon="13.156969009206858"><ele>26.0</ele><time>2026-04-29T15:20:52Z</time></trkpt><trkpt lat="43.660498424122146" lon="13.15688993714243"><ele>26.0</ele><time>2026-04-29T15:20:53Z</time></trkpt><trkpt lat="43.66066695357688" lon="13.15679505356879"><ele>26.0</ele><time>2026-04-29T15:20:54Z</time></trkpt><trkpt lat="43.66083703669521" lon="13.156685478284789"><ele>26.0</ele><time>2026-04-29T15:20:55Z</time></trkpt><trkpt lat="43.66101205435521" lon="13.156582615063499"><ele>26.0</ele><time>2026-04-29T15:20:56Z</time></trkpt><trkpt lat="43.66118814977622" lon="13.156472171747657"><ele>27.0</ele><time>2026-04-29T15:20:57Z</time></trkpt><trkpt lat="43.66136546181096" lon="13.156362461929175"><ele>28.0</ele><time>2026-04-29T15:20:58Z</time></trkpt><trkpt lat="43.6615414153244" lon="13.156255516080662"><ele>29.0</ele><time>2026-04-29T15:20:59Z</time></trkpt><trkpt lat="43.66171937630565" lon="13.15614706316374"><ele>29.0</ele><time>2026-04-29T15:21:00Z</time></trkpt><trkpt lat="43.661898679152074" lon="13.156037491891402"><ele>29.0</ele><time>2026-04-29T15:21:01Z</time></trkpt><trkpt lat="43.66207732811868" lon="13.155926348506286"><ele>29.0</ele><time>2026-04-29T15:21:02Z</time></trkpt><trkpt lat="43.66225463096675" lon="13.155814914458828"><ele>29.0</ele><time>2026-04-29T15:21:03Z</time></trkpt><trkpt lat="43.662429019282946" lon="13.155702933675128"><ele>29.0</ele><time>2026-04-29T15:21:04Z</time></trkpt><trkpt lat="43.662601870669874" lon="13.155591782937769"><ele>29.0</ele><time>2026-04-29T15:21:05Z</time></trkpt><trkpt lat="43.66277263461854" lon="13.155487171027078"><ele>29.666666666666664</ele><time>2026-04-29T15:21:06Z</time></trkpt><trkpt lat="43.66294488057893" lon="13.15538757183712"><ele>30.333333333333336</ele><time>2026-04-29T15:21:07Z</time></trkpt><trkpt lat="43.66311918841879" lon="13.155299553675041"><ele>31.0</ele><time>2026-04-29T15:21:08Z</time></trkpt><trkpt lat="43.6632945903431" lon="13.155232274958053"><ele>31.0</ele><time>2026-04-29T15:21:09Z</time></trkpt><trkpt lat="43.66346292701457" lon="13.15519890454321"><ele>31.0</ele><time>2026-04-29T15:21:10Z</time></trkpt><trkpt lat="43.66362911070921" lon="13.155191670217436"><ele>31.0</ele><time>2026-04-29T15:21:11Z</time></trkpt><trkpt lat="43.66379155768225" lon="13.155203889388025"><ele>32.0</ele><time>2026-04-29T15:21:12Z</time></trkpt><trkpt lat="43.66395499872862" lon="13.155235275966247"><ele>33.0</ele><time>2026-04-29T15:21:13Z</time></trkpt><trkpt lat="43.6641209522171" lon="13.155289886001459"><ele>34.0</ele><time>2026-04-29T15:21:14Z</time></trkpt><trkpt lat="43.6642811136936" lon="13.155362396528922"><ele>34.333333333333336</ele><time>2026-04-29T15:21:15Z</time></trkpt><trkpt lat="43.6644476142803" lon="13.155456628831386"><ele>34.666666666666664</ele><time>2026-04-29T15:21:16Z</time></trkpt><trkpt lat="43.66460566786776" lon="13.15556304946129"><ele>35.0</ele><time>2026-04-29T15:21:17Z</time></trkpt><trkpt lat="43.66477275650791" lon="13.155674852099581"><ele>33.666666666666664</ele><time>2026-04-29T15:21:18Z</time></trkpt><trkpt lat="43.664933973693635" lon="13.155792492551992"><ele>32.333333333333336</ele><time>2026-04-29T15:21:19Z</time></trkpt><trkpt lat="43.66508521909561" lon="13.155906742384587"><ele>31.0</ele><time>2026-04-29T15:21:20Z</time></trkpt><trkpt lat="43.665241616972786" lon="13.156011350310724"><ele>30.0</ele><time>2026-04-29T15:21:21Z</time></trkpt><trkpt lat="43.66540660352599" lon="13.156094562262187"><ele>29.0</ele><time>2026-04-29T15:21:22Z</time></trkpt><trkpt lat="43.66557749401508" lon="13.156163811553133"><ele>28.0</ele><time>2026-04-29T15:21:23Z</time></trkpt><trkpt lat="43.665754837963995" lon="13.156213524390534"><ele>28.0</ele><time>2026-04-29T15:21:24Z</time></trkpt><trkpt lat="43.66591812254517" lon="13.15624127680073"><ele>28.0</ele><time>2026-04-29T15:21:25Z</time></trkpt><trkpt lat="43.66608517750067" lon="13.156253000347952"><ele>28.0</ele><time>2026-04-29T15:21:26Z</time></trkpt><trkpt lat="43.66625235596307" lon="13.156250995115753"><ele>28.666666666666668</ele><time>2026-04-29T15:21:27Z</time></trkpt><trkpt lat="43.66642473342747" lon="13.156235191759578"><ele>29.333333333333336</ele><time>2026-04-29T15:21:28Z</time></trkpt><trkpt lat="43.66659657809461" lon="13.156217319875724"><ele>30.0</ele><time>2026-04-29T15:21:29Z</time></trkpt><trkpt lat="43.6667709859426" lon="13.156201863613987"><ele>29.666666666666664</ele><time>2026-04-29T15:21:30Z</time></trkpt><trkpt lat="43.666944507778034" lon="13.156184934227834"><ele>29.333333333333332</ele><time>2026-04-29T15:21:31Z</time></trkpt><trkpt lat="43.6671275238044" lon="13.156155998664556"><ele>29.0</ele><time>2026-04-29T15:21:32Z</time></trkpt><trkpt lat="43.6673141093514" lon="13.156131958181996"><ele>29.0</ele><time>2026-04-29T15:21:33Z</time></trkpt><trkpt lat="43.667511015670264" lon="13.156108419597032"><ele>29.0</ele><time>2026-04-29T15:21:34Z</time></trkpt><trkpt lat="43.66770899528165" lon="13.156091114229252"><ele>29.0</ele><time>2026-04-29T15:21:35Z</time></trkpt><trkpt lat="43.66790458521616" lon="13.15608740862594"><ele>30.0</ele><time>2026-04-29T15:21:36Z</time></trkpt><trkpt lat="43.66809645015296" lon="13.156113956259738"><ele>31.0</ele><time>2026-04-29T15:21:37Z</time></trkpt><trkpt lat="43.668281933321786" lon="13.156176618638561"><ele>32.0</ele><time>2026-04-29T15:21:38Z</time></trkpt><trkpt lat="43.66846508988574" lon="13.156274568316482"><ele>33.0</ele><time>2026-04-29T15:21:39Z</time></trkpt><trkpt lat="43.668644077305046" lon="13.156402153143793"><ele>34.0</ele><time>2026-04-29T15:21:40Z</time></trkpt><trkpt lat="43.66880424514571" lon="13.156575702463677"><ele>35.0</ele><time>2026-04-29T15:21:41Z</time></trkpt><trkpt lat="43.66895672541548" lon="13.156756535701676"><ele>33.0</ele><time>2026-04-29T15:21:42Z</time></trkpt><trkpt lat="43.669103623367654" lon="13.156962825919868"><ele>31.0</ele><time>2026-04-29T15:21:43Z</time></trkpt><trkpt lat="43.66924603933936" lon="13.157181658189558"><ele>29.0</ele><time>2026-04-29T15:21:44Z</time></trkpt><trkpt lat="43.66938369610417" lon="13.157417443917721"><ele>30.333333333333332</ele><time>2026-04-29T15:21:45Z</time></trkpt><trkpt lat="43.66951482147778" lon="13.15764516729916"><ele>31.666666666666664</ele><time>2026-04-29T15:21:46Z</time></trkpt><trkpt lat="43.66964682631332" lon="13.157870395757415"><ele>33.0</ele><time>2026-04-29T15:21:47Z</time></trkpt><trkpt lat="43.6697854968547" lon="13.158107423962186"><ele>32.666666666666664</ele><time>2026-04-29T15:21:48Z</time></trkpt><trkpt lat="43.66991928530784" lon="13.158333200499964"><ele>32.33333333333333</ele><time>2026-04-29T15:21:49Z</time></trkpt><trkpt lat="43.670053661381" lon="13.158546944733004"><ele>32.0</ele><time>2026-04-29T15:21:50Z</time></trkpt><trkpt lat="43.67018528963774" lon="13.158761962685361"><ele>31.333333333333332</ele><time>2026-04-29T15:21:51Z</time></trkpt><trkpt lat="43.67031207810496" lon="13.158970783215782"><ele>30.666666666666664</ele><time>2026-04-29T15:21:52Z</time></trkpt><trkpt lat="43.670440246842894" lon="13.159181035265823"><ele>30.0</ele><time>2026-04-29T15:21:53Z</time></trkpt><trkpt lat="43.67057179555928" lon="13.159387542005986"><ele>30.0</ele><time>2026-04-29T15:21:54Z</time></trkpt><trkpt lat="43.67070544229705" lon="13.159589123395422"><ele>30.0</ele><time>2026-04-29T15:21:55Z</time></trkpt><trkpt lat="43.67084129238005" lon="13.159781411628142"><ele>30.0</ele><time>2026-04-29T15:21:56Z</time></trkpt><trkpt lat="43.670981765682875" lon="13.159961376288598"><ele>30.333333333333336</ele><time>2026-04-29T15:21:57Z</time></trkpt><trkpt lat="43.67113042538737" lon="13.160125052442343"><ele>30.666666666666668</ele><time>2026-04-29T15:21:58Z</time></trkpt><trkpt lat="43.671287299120905" lon="13.160278099846288"><ele>31.0</ele><time>2026-04-29T15:21:59Z</time></trkpt><trkpt lat="43.67144917427348" lon="13.160423818400185"><ele>31.0</ele><time>2026-04-29T15:22:00Z</time></trkpt><trkpt lat="43.67161327056605" lon="13.160563799306331"><ele>31.0</ele><time>2026-04-29T15:22:01Z</time></trkpt><trkpt lat="43.67177856980593" lon="13.16070004705951"><ele>31.0</ele><time>2026-04-29T15:22:02Z</time></trkpt><trkpt lat="43.67194354099823" lon="13.16083102004161"><ele>29.333333333333336</ele><time>2026-04-29T15:22:03Z</time></trkpt><trkpt lat="43.67210894507398" lon="13.16096053057643"><ele>27.666666666666664</ele><time>2026-04-29T15:22:04Z</time></trkpt><trkpt lat="43.672270856223456" lon="13.161089655284073"><ele>26.0</ele><time>2026-04-29T15:22:05Z</time></trkpt><trkpt lat="43.67243197804461" lon="13.16122079002582"><ele>26.0</ele><time>2026-04-29T15:22:06Z</time></trkpt><trkpt lat="43.67259465656475" lon="13.161349999647296"><ele>26.0</ele><time>2026-04-29T15:22:07Z</time></trkpt><trkpt lat="43.672767182987364" lon="13.161486547652277"><ele>26.0</ele><time>2026-04-29T15:22:08Z</time></trkpt><trkpt lat="43.67295182051364" lon="13.161632218036024"><ele>25.0</ele><time>2026-04-29T15:22:09Z</time></trkpt><trkpt lat="43.67314724625094" lon="13.16178543707682"><ele>24.0</ele><time>2026-04-29T15:22:10Z</time></trkpt><trkpt lat="43.67334999684681" lon="13.161948107712735"><ele>24.0</ele><time>2026-04-29T15:22:11Z</time></trkpt><trkpt lat="43.6735545227347" lon="13.162116492383845"><ele>24.0</ele><time>2026-04-29T15:22:12Z</time></trkpt><trkpt lat="43.673753054716975" lon="13.162278646691773"><ele>22.0</ele><time>2026-04-29T15:22:13Z</time></trkpt><trkpt lat="43.673954702488956" lon="13.162443157510284"><ele>20.0</ele><time>2026-04-29T15:22:14Z</time></trkpt><trkpt lat="43.67416426479518" lon="13.162608813494087"><ele>20.0</ele><time>2026-04-29T15:22:15Z</time></trkpt><trkpt lat="43.674364971645595" lon="13.162767907200724"><ele>20.0</ele><time>2026-04-29T15:22:16Z</time></trkpt><trkpt lat="43.674554139834214" lon="13.162917940176127"><ele>20.0</ele><time>2026-04-29T15:22:17Z</time></trkpt><trkpt lat="43.67473467891069" lon="13.163062253086398"><ele>20.666666666666668</ele><time>2026-04-29T15:22:18Z</time></trkpt><trkpt lat="43.67491473933979" lon="13.163204707131149"><ele>21.333333333333332</ele><time>2026-04-29T15:22:19Z</time></trkpt><trkpt lat="43.675102055942006" lon="13.163355242354434"><ele>22.0</ele><time>2026-04-29T15:22:20Z</time></trkpt><trkpt lat="43.67528489068144" lon="13.163497407533209"><ele>23.333333333333332</ele><time>2026-04-29T15:22:21Z</time></trkpt><trkpt lat="43.675459532168375" lon="13.163632005405633"><ele>24.666666666666664</ele><time>2026-04-29T15:22:22Z</time></trkpt><trkpt lat="43.67562830366316" lon="13.16376308925679"><ele>26.0</ele><time>2026-04-29T15:22:23Z</time></trkpt><trkpt lat="43.67580030067052" lon="13.163908123381578"><ele>25.333333333333332</ele><time>2026-04-29T15:22:24Z</time></trkpt><trkpt lat="43.6759700859569" lon="13.164077770985346"><ele>24.666666666666664</ele><time>2026-04-29T15:22:25Z</time></trkpt><trkpt lat="43.67613716285071" lon="13.1642624700348"><ele>24.0</ele><time>2026-04-29T15:22:26Z</time></trkpt><trkpt lat="43.676286096724056" lon="13.164443253532037"><ele>25.666666666666664</ele><time>2026-04-29T15:22:27Z</time></trkpt><trkpt lat="43.67642918432186" lon="13.164625261283945"><ele>27.333333333333332</ele><time>2026-04-29T15:22:28Z</time></trkpt><trkpt lat="43.67656857350293" lon="13.164819448105057"><ele>29.0</ele><time>2026-04-29T15:22:29Z</time></trkpt><trkpt lat="43.6766990685981" lon="13.165017333862469"><ele>29.0</ele><time>2026-04-29T15:22:30Z</time></trkpt><trkpt lat="43.67682401728141" lon="13.165218005420718"><ele>29.0</ele><time>2026-04-29T15:22:31Z</time></trkpt><trkpt lat="43.67694638870978" lon="13.165422528137611"><ele>29.0</ele><time>2026-04-29T15:22:32Z</time></trkpt><trkpt lat="43.67706882873552" lon="13.165631460324708"><ele>29.0</ele><time>2026-04-29T15:22:33Z</time></trkpt><trkpt lat="43.677203886483454" lon="13.165844558272191"><ele>29.0</ele><time>2026-04-29T15:22:34Z</time></trkpt><trkpt lat="43.677339168033384" lon="13.166056331291268"><ele>29.0</ele><time>2026-04-29T15:22:35Z</time></trkpt><trkpt lat="43.67746604700597" lon="13.166260282263998"><ele>29.0</ele><time>2026-04-29T15:22:36Z</time></trkpt><trkpt lat="43.67758576458566" lon="13.166459717071168"><ele>29.0</ele><time>2026-04-29T15:22:37Z</time></trkpt><trkpt lat="43.67770499484712" lon="13.166659341869076"><ele>29.0</ele><time>2026-04-29T15:22:38Z</time></trkpt><trkpt lat="43.67782546535527" lon="13.16685941735601"><ele>29.333333333333332</ele><time>2026-04-29T15:22:39Z</time></trkpt><trkpt lat="43.677946774912066" lon="13.167056496220962"><ele>29.666666666666664</ele><time>2026-04-29T15:22:40Z</time></trkpt><trkpt lat="43.678075129991356" lon="13.16725103403585"><ele>30.0</ele><time>2026-04-29T15:22:41Z</time></trkpt><trkpt lat="43.67821059631537" lon="13.167451078913507"><ele>30.0</ele><time>2026-04-29T15:22:42Z</time></trkpt><trkpt lat="43.678354565245876" lon="13.167642329180197"><ele>30.0</ele><time>2026-04-29T15:22:43Z</time></trkpt><trkpt lat="43.67850675970367" lon="13.167837410682909"><ele>30.0</ele><time>2026-04-29T15:22:44Z</time></trkpt><trkpt lat="43.67866601025718" lon="13.168024190625413"><ele>31.0</ele><time>2026-04-29T15:22:45Z</time></trkpt><trkpt lat="43.67883233531017" lon="13.168202997185004"><ele>32.0</ele><time>2026-04-29T15:22:46Z</time></trkpt><trkpt lat="43.679000928343186" lon="13.168380349333576"><ele>33.0</ele><time>2026-04-29T15:22:47Z</time></trkpt><trkpt lat="43.67916016525132" lon="13.16858579116602"><ele>33.0</ele><time>2026-04-29T15:22:48Z</time></trkpt><trkpt lat="43.679331077358874" lon="13.168769079055444"><ele>33.0</ele><time>2026-04-29T15:22:49Z</time></trkpt><trkpt lat="43.67950295295741" lon="13.16893107056094"><ele>33.0</ele><time>2026-04-29T15:22:50Z</time></trkpt><trkpt lat="43.679663685411256" lon="13.169111156592132"><ele>31.333333333333336</ele><time>2026-04-29T15:22:51Z</time></trkpt><trkpt lat="43.679821540588115" lon="13.169280694921078"><ele>29.666666666666668</ele><time>2026-04-29T15:22:52Z</time></trkpt><trkpt lat="43.679984033450744" lon="13.169441165307655"><ele>28.0</ele><time>2026-04-29T15:22:53Z</time></trkpt><trkpt lat="43.680152002015504" lon="13.16958717328797"><ele>27.666666666666668</ele><time>2026-04-29T15:22:54Z</time></trkpt><trkpt lat="43.68033120609034" lon="13.169726885826604"><ele>27.333333333333336</ele><time>2026-04-29T15:22:55Z</time></trkpt><trkpt lat="43.68051781449684" lon="13.169858297433747"><ele>27.0</ele><time>2026-04-29T15:22:56Z</time></trkpt><trkpt lat="43.6807032454827" lon="13.169978749848559"><ele>27.0</ele><time>2026-04-29T15:22:57Z</time></trkpt><trkpt lat="43.680891242246425" lon="13.170084331555403"><ele>27.0</ele><time>2026-04-29T15:22:58Z</time></trkpt><trkpt lat="43.68107456060373" lon="13.170186539398339"><ele>27.0</ele><time>2026-04-29T15:22:59Z</time></trkpt><trkpt lat="43.68124802112582" lon="13.170290057417077"><ele>28.666666666666664</ele><time>2026-04-29T15:23:00Z</time></trkpt><trkpt lat="43.68141009647133" lon="13.170395616686003"><ele>30.333333333333332</ele><time>2026-04-29T15:23:01Z</time></trkpt><trkpt lat="43.6815735124169" lon="13.170502578363005"><ele>32.0</ele><time>2026-04-29T15:23:02Z</time></trkpt><trkpt lat="43.68173766985158" lon="13.170609303856368"><ele>31.333333333333332</ele><time>2026-04-29T15:23:03Z</time></trkpt><trkpt lat="43.681894526829225" lon="13.17071948635544"><ele>30.666666666666664</ele><time>2026-04-29T15:23:04Z</time></trkpt><trkpt lat="43.682041803274714" lon="13.170839907146256"><ele>30.0</ele><time>2026-04-29T15:23:05Z</time></trkpt><trkpt lat="43.68218516688597" lon="13.17097456260476"><ele>30.0</ele><time>2026-04-29T15:23:06Z</time></trkpt><trkpt lat="43.68231471171576" lon="13.171112436531565"><ele>30.0</ele><time>2026-04-29T15:23:07Z</time></trkpt><trkpt lat="43.68243908474481" lon="13.171258440505614"><ele>30.0</ele><time>2026-04-29T15:23:08Z</time></trkpt><trkpt lat="43.68256755483792" lon="13.171419427276229"><ele>29.333333333333336</ele><time>2026-04-29T15:23:09Z</time></trkpt><trkpt lat="43.6826911432954" lon="13.171596030402991"><ele>28.666666666666668</ele><time>2026-04-29T15:23:10Z</time></trkpt><trkpt lat="43.68278420793873" lon="13.171801710811653"><ele>28.0</ele><time>2026-04-29T15:23:11Z</time></trkpt><trkpt lat="43.68288154923819" lon="13.17198674296889"><ele>28.0</ele><time>2026-04-29T15:23:12Z</time></trkpt><trkpt lat="43.682984626133944" lon="13.172147666583944"><ele>28.0</ele><time>2026-04-29T15:23:13Z</time></trkpt><trkpt lat="43.68306977572455" lon="13.172316445436488"><ele>28.0</ele><time>2026-04-29T15:23:14Z</time></trkpt><trkpt lat="43.68315455552111" lon="13.172479866278264"><ele>27.333333333333336</ele><time>2026-04-29T15:23:15Z</time></trkpt><trkpt lat="43.68324066462254" lon="13.17264500533741"><ele>26.666666666666664</ele><time>2026-04-29T15:23:16Z</time></trkpt><trkpt lat="43.68333245463542" lon="13.172827182188389"><ele>26.0</ele><time>2026-04-29T15:23:17Z</time></trkpt><trkpt lat="43.68342806645247" lon="13.173018154334619"><ele>25.0</ele><time>2026-04-29T15:23:18Z</time></trkpt><trkpt lat="43.683524562427614" lon="13.173212401190371"><ele>24.0</ele><time>2026-04-29T15:23:19Z</time></trkpt><trkpt lat="43.68362247007592" lon="13.173401031405028"><ele>23.0</ele><time>2026-04-29T15:23:20Z</time></trkpt><trkpt lat="43.68372169042787" lon="13.173588931690032"><ele>23.666666666666668</ele><time>2026-04-29T15:23:21Z</time></trkpt><trkpt lat="43.683818783858285" lon="13.1737755629141"><ele>24.333333333333336</ele><time>2026-04-29T15:23:22Z</time></trkpt><trkpt lat="43.68391253838951" lon="13.173958263029041"><ele>25.0</ele><time>2026-04-29T15:23:23Z</time></trkpt><trkpt lat="43.68400958156052" lon="13.174143479058397"><ele>25.0</ele><time>2026-04-29T15:23:24Z</time></trkpt><trkpt lat="43.68411047224306" lon="13.174331003963838"><ele>25.0</ele><time>2026-04-29T15:23:25Z</time></trkpt><trkpt lat="43.684207330727986" lon="13.174516512191447"><ele>25.0</ele><time>2026-04-29T15:23:26Z</time></trkpt><trkpt lat="43.68429987687089" lon="13.174695202188314"><ele>25.666666666666668</ele><time>2026-04-29T15:23:27Z</time></trkpt><trkpt lat="43.68439346706615" lon="13.174871532051236"><ele>26.333333333333336</ele><time>2026-04-29T15:23:28Z</time></trkpt><trkpt lat="43.684485316867175" lon="13.175046073450153"><ele>27.0</ele><time>2026-04-29T15:23:29Z</time></trkpt><trkpt lat="43.68457230309338" lon="13.17521143444609"><ele>27.0</ele><time>2026-04-29T15:23:30Z</time></trkpt><trkpt lat="43.684655476755324" lon="13.175374352757979"><ele>27.0</ele><time>2026-04-29T15:23:31Z</time></trkpt><trkpt lat="43.684737359930466" lon="13.175537396980122"><ele>27.0</ele><time>2026-04-29T15:23:32Z</time></trkpt><trkpt lat="43.68482468612776" lon="13.175702663830782"><ele>27.0</ele><time>2026-04-29T15:23:33Z</time></trkpt><trkpt lat="43.6849181062407" lon="13.175882050618604"><ele>25.666666666666668</ele><time>2026-04-29T15:23:34Z</time></trkpt><trkpt lat="43.68501134496456" lon="13.176069108474262"><ele>24.333333333333336</ele><time>2026-04-29T15:23:35Z</time></trkpt><trkpt lat="43.68509706084832" lon="13.176252637929155"><ele>23.0</ele><time>2026-04-29T15:23:36Z</time></trkpt><trkpt lat="43.685186784175286" lon="13.176432892388492"><ele>22.0</ele><time>2026-04-29T15:23:37Z</time></trkpt><trkpt lat="43.685275419782165" lon="13.176607244243465"><ele>21.0</ele><time>2026-04-29T15:23:38Z</time></trkpt><trkpt lat="43.68536746941854" lon="13.176781498513249"><ele>20.0</ele><time>2026-04-29T15:23:39Z</time></trkpt><trkpt lat="43.68546011262413" lon="13.176957039593592"><ele>20.0</ele><time>2026-04-29T15:23:40Z</time></trkpt><trkpt lat="43.68554527264151" lon="13.177125950749467"><ele>20.0</ele><time>2026-04-29T15:23:41Z</time></trkpt><trkpt lat="43.685627118199115" lon="13.17729349367054"><ele>20.0</ele><time>2026-04-29T15:23:42Z</time></trkpt><trkpt lat="43.68571131041745" lon="13.177456540873166"><ele>20.0</ele><time>2026-04-29T15:23:43Z</time></trkpt><trkpt lat="43.68579139544254" lon="13.177603604200351"><ele>19.5</ele><time>2026-04-29T15:23:44Z</time></trkpt><trkpt lat="43.68586798279202" lon="13.177748561864021"><ele>19.0</ele><time>2026-04-29T15:23:45Z</time></trkpt><trkpt lat="43.68594090324571" lon="13.177880844515583"><ele>18.5</ele><time>2026-04-29T15:23:46Z</time></trkpt><trkpt lat="43.68601636880045" lon="13.178005909526464"><ele>18.0</ele><time>2026-04-29T15:23:47Z</time></trkpt><trkpt lat="43.68610047029752" lon="13.178130337849977"><ele>17.5</ele><time>2026-04-29T15:23:48Z</time></trkpt><trkpt lat="43.6861917735121" lon="13.178242936476982"><ele>17.0</ele><time>2026-04-29T15:23:49Z</time></trkpt><trkpt lat="43.68629794435283" lon="13.17834997594907"><ele>16.5</ele><time>2026-04-29T15:23:50Z</time></trkpt><trkpt lat="43.68640917979672" lon="13.178449558229975"><ele>16.0</ele><time>2026-04-29T15:23:51Z</time></trkpt><trkpt lat="43.68652754967588" lon="13.178541410382087"><ele>16.0</ele><time>2026-04-29T15:23:52Z</time></trkpt><trkpt lat="43.68665328962226" lon="13.178623769706437"><ele>16.0</ele><time>2026-04-29T15:23:53Z</time></trkpt><trkpt lat="43.6867882653174" lon="13.17869263066115"><ele>16.0</ele><time>2026-04-29T15:23:54Z</time></trkpt><trkpt lat="43.68692272889799" lon="13.178743631408322"><ele>16.0</ele><time>2026-04-29T15:23:55Z</time></trkpt><trkpt lat="43.68705808906383" lon="13.17878416032966"><ele>16.0</ele><time>2026-04-29T15:23:56Z</time></trkpt><trkpt lat="43.68719547847772" lon="13.178817394877921"><ele>16.0</ele><time>2026-04-29T15:23:57Z</time></trkpt><trkpt lat="43.6873377491181" lon="13.17883480401675"><ele>16.0</ele><time>2026-04-29T15:23:58Z</time></trkpt><trkpt lat="43.68748822869796" lon="13.178830029845273"><ele>16.0</ele><time>2026-04-29T15:23:59Z</time></trkpt><trkpt lat="43.687648820173266" lon="13.178806505874578"><ele>16.333333333333332</ele><time>2026-04-29T15:24:00Z</time></trkpt><trkpt lat="43.687814319786284" lon="13.178772558282468"><ele>16.666666666666668</ele><time>2026-04-29T15:24:01Z</time></trkpt><trkpt lat="43.68798138695418" lon="13.178735497172925"><ele>17.0</ele><time>2026-04-29T15:24:02Z</time></trkpt><trkpt lat="43.68814549824412" lon="13.178702127870134"><ele>17.0</ele><time>2026-04-29T15:24:03Z</time></trkpt><trkpt lat="43.68830403315607" lon="13.178673828116557"><ele>17.0</ele><time>2026-04-29T15:24:04Z</time></trkpt><trkpt lat="43.688449852054056" lon="13.178647573717495"><ele>17.0</ele><time>2026-04-29T15:24:05Z</time></trkpt><trkpt lat="43.688624378697426" lon="13.17862688065298"><ele>16.666666666666668</ele><time>2026-04-29T15:24:06Z</time></trkpt><trkpt lat="43.68878903371232" lon="13.178616481416135"><ele>16.333333333333332</ele><time>2026-04-29T15:24:07Z</time></trkpt><trkpt lat="43.68894472974979" lon="13.178609213215896"><ele>16.0</ele><time>2026-04-29T15:24:08Z</time></trkpt><trkpt lat="43.689101768655036" lon="13.178627200197292"><ele>16.0</ele><time>2026-04-29T15:24:09Z</time></trkpt><trkpt lat="43.689246683790046" lon="13.178668220827225"><ele>16.0</ele><time>2026-04-29T15:24:10Z</time></trkpt><trkpt lat="43.68940104481714" lon="13.17872390681294"><ele>16.0</ele><time>2026-04-29T15:24:11Z</time></trkpt><trkpt lat="43.68954372622922" lon="13.178792115473575"><ele>16.25</ele><time>2026-04-29T15:24:12Z</time></trkpt><trkpt lat="43.68968098704751" lon="13.178877563182454"><ele>16.5</ele><time>2026-04-29T15:24:13Z</time></trkpt><trkpt lat="43.68980918235984" lon="13.17897319620755"><ele>16.75</ele><time>2026-04-29T15:24:14Z</time></trkpt><trkpt lat="43.689933031411684" lon="13.17908153877102"><ele>17.0</ele><time>2026-04-29T15:24:15Z</time></trkpt><trkpt lat="43.69003991026369" lon="13.179188365888287"><ele>17.75</ele><time>2026-04-29T15:24:16Z</time></trkpt><trkpt lat="43.69014378693284" lon="13.179294938211449"><ele>18.5</ele><time>2026-04-29T15:24:17Z</time></trkpt><trkpt lat="43.69024428418838" lon="13.17941051126044"><ele>19.25</ele><time>2026-04-29T15:24:18Z</time></trkpt><trkpt lat="43.69034314340303" lon="13.179528709499824"><ele>20.0</ele><time>2026-04-29T15:24:19Z</time></trkpt><trkpt lat="43.69044756817446" lon="13.179657916842102"><ele>21.0</ele><time>2026-04-29T15:24:20Z</time></trkpt><trkpt lat="43.69055457021756" lon="13.179793219324631"><ele>22.0</ele><time>2026-04-29T15:24:21Z</time></trkpt><trkpt lat="43.690659620426416" lon="13.179927071176849"><ele>23.0</ele><time>2026-04-29T15:24:22Z</time></trkpt><trkpt lat="43.69076838640708" lon="13.180060927326872"><ele>24.0</ele><time>2026-04-29T15:24:23Z</time></trkpt><trkpt lat="43.690879624551734" lon="13.1801969784417"><ele>25.0</ele><time>2026-04-29T15:24:24Z</time></trkpt><trkpt lat="43.6909881046447" lon="13.18033017579283"><ele>26.0</ele><time>2026-04-29T15:24:25Z</time></trkpt><trkpt lat="43.691101899007386" lon="13.180463221241757"><ele>27.0</ele><time>2026-04-29T15:24:26Z</time></trkpt><trkpt lat="43.691223280920106" lon="13.180606357632906"><ele>27.333333333333336</ele><time>2026-04-29T15:24:27Z</time></trkpt><trkpt lat="43.691348380171384" lon="13.180762288196139"><ele>27.666666666666668</ele><time>2026-04-29T15:24:28Z</time></trkpt><trkpt lat="43.69146078676415" lon="13.180901457684662"><ele>28.0</ele><time>2026-04-29T15:24:29Z</time></trkpt><trkpt lat="43.69156973907952" lon="13.181036756395217"><ele>28.0</ele><time>2026-04-29T15:24:30Z</time></trkpt><trkpt lat="43.691675931375435" lon="13.181162678754314"><ele>28.0</ele><time>2026-04-29T15:24:31Z</time></trkpt><trkpt lat="43.69177511579441" lon="13.181279941105757"><ele>28.0</ele><time>2026-04-29T15:24:32Z</time></trkpt><trkpt lat="43.69186988555289" lon="13.181395554047874"><ele>28.0</ele><time>2026-04-29T15:24:33Z</time></trkpt><trkpt lat="43.69196034473331" lon="13.181503390449866"><ele>28.25</ele><time>2026-04-29T15:24:34Z</time></trkpt><trkpt lat="43.69205778324627" lon="13.181618255597165"><ele>28.5</ele><time>2026-04-29T15:24:35Z</time></trkpt><trkpt lat="43.69216658633609" lon="13.181752812784367"><ele>28.75</ele><time>2026-04-29T15:24:36Z</time></trkpt><trkpt lat="43.69227672968742" lon="13.181890988363145"><ele>29.0</ele><time>2026-04-29T15:24:37Z</time></trkpt><trkpt lat="43.69237003876242" lon="13.182004939513234"><ele>29.0</ele><time>2026-04-29T15:24:38Z</time></trkpt><trkpt lat="43.692470022666576" lon="13.182135157894436"><ele>29.0</ele><time>2026-04-29T15:24:39Z</time></trkpt><trkpt lat="43.69257892994334" lon="13.182270149334755"><ele>29.0</ele><time>2026-04-29T15:24:40Z</time></trkpt><trkpt lat="43.692689038241646" lon="13.18241444840938"><ele>29.0</ele><time>2026-04-29T15:24:41Z</time></trkpt><trkpt lat="43.69279782750254" lon="13.182564677419995"><ele>29.0</ele><time>2026-04-29T15:24:42Z</time></trkpt><trkpt lat="43.69290365172862" lon="13.182717307145325"><ele>29.0</ele><time>2026-04-29T15:24:43Z</time></trkpt><trkpt lat="43.693006545089645" lon="13.182872950469621"><ele>29.0</ele><time>2026-04-29T15:24:44Z</time></trkpt><trkpt lat="43.69310854328575" lon="13.183029147563646"><ele>28.5</ele><time>2026-04-29T15:24:45Z</time></trkpt><trkpt lat="43.69321052353351" lon="13.183181020927503"><ele>28.0</ele><time>2026-04-29T15:24:46Z</time></trkpt><trkpt lat="43.693310680975685" lon="13.183338401572362"><ele>27.5</ele><time>2026-04-29T15:24:47Z</time></trkpt><trkpt lat="43.69340562879481" lon="13.183491761310629"><ele>27.0</ele><time>2026-04-29T15:24:48Z</time></trkpt><trkpt lat="43.693502936244656" lon="13.183653396372023"><ele>27.333333333333336</ele><time>2026-04-29T15:24:49Z</time></trkpt><trkpt lat="43.69360224214937" lon="13.183822629890885"><ele>27.666666666666668</ele><time>2026-04-29T15:24:50Z</time></trkpt><trkpt lat="43.693693545520134" lon="13.183988083017349"><ele>28.0</ele><time>2026-04-29T15:24:51Z</time></trkpt><trkpt lat="43.693789739016964" lon="13.184162467608225"><ele>27.0</ele><time>2026-04-29T15:24:52Z</time></trkpt><trkpt lat="43.693886031524315" lon="13.184339390241508"><ele>26.0</ele><time>2026-04-29T15:24:53Z</time></trkpt><trkpt lat="43.693978813108096" lon="13.18451844864767"><ele>25.0</ele><time>2026-04-29T15:24:54Z</time></trkpt><trkpt lat="43.694069185913854" lon="13.184700881602462"><ele>24.333333333333336</ele><time>2026-04-29T15:24:55Z</time></trkpt><trkpt lat="43.69415952914521" lon="13.184882774653369"><ele>23.666666666666668</ele><time>2026-04-29T15:24:56Z</time></trkpt><trkpt lat="43.694252642465685" lon="13.185070985434981"><ele>23.0</ele><time>2026-04-29T15:24:57Z</time></trkpt><trkpt lat="43.69434580913144" lon="13.185253875359587"><ele>23.333333333333336</ele><time>2026-04-29T15:24:58Z</time></trkpt><trkpt lat="43.694434478442524" lon="13.185432414911393"><ele>23.666666666666668</ele><time>2026-04-29T15:24:59Z</time></trkpt><trkpt lat="43.694525173031096" lon="13.185618530514231"><ele>24.0</ele><time>2026-04-29T15:25:00Z</time></trkpt><trkpt lat="43.69461557939019" lon="13.185801107807972"><ele>24.0</ele><time>2026-04-29T15:25:01Z</time></trkpt><trkpt lat="43.69470238797165" lon="13.185978360881984"><ele>24.0</ele><time>2026-04-29T15:25:02Z</time></trkpt><trkpt lat="43.69478966568708" lon="13.18616033060889"><ele>24.0</ele><time>2026-04-29T15:25:03Z</time></trkpt><trkpt lat="43.69488130193366" lon="13.18634762705278"><ele>23.333333333333332</ele><time>2026-04-29T15:25:04Z</time></trkpt><trkpt lat="43.694971057230724" lon="13.186527071093513"><ele>22.666666666666664</ele><time>2026-04-29T15:25:05Z</time></trkpt><trkpt lat="43.69506376527779" lon="13.186705166262826"><ele>22.0</ele><time>2026-04-29T15:25:06Z</time></trkpt><trkpt lat="43.695162536786476" lon="13.186889976481735"><ele>22.333333333333332</ele><time>2026-04-29T15:25:07Z</time></trkpt><trkpt lat="43.695268804938266" lon="13.187085262360865"><ele>22.666666666666668</ele><time>2026-04-29T15:25:08Z</time></trkpt><trkpt lat="43.695381859226686" lon="13.187277213334648"><ele>23.0</ele><time>2026-04-29T15:25:09Z</time></trkpt><trkpt lat="43.69550888238831" lon="13.187485233275194"><ele>23.0</ele><time>2026-04-29T15:25:10Z</time></trkpt><trkpt lat="43.695634533082526" lon="13.187671380296035"><ele>23.0</ele><time>2026-04-29T15:25:11Z</time></trkpt><trkpt lat="43.69575036506928" lon="13.187840268225546"><ele>23.0</ele><time>2026-04-29T15:25:12Z</time></trkpt><trkpt lat="43.69586274451864" lon="13.18799942208988"><ele>23.0</ele><time>2026-04-29T15:25:13Z</time></trkpt><trkpt lat="43.69597674824845" lon="13.188159979088569"><ele>23.0</ele><time>2026-04-29T15:25:14Z</time></trkpt><trkpt lat="43.696085751714214" lon="13.188307414935586"><ele>23.0</ele><time>2026-04-29T15:25:15Z</time></trkpt><trkpt lat="43.696195745828604" lon="13.188450047658117"><ele>22.666666666666668</ele><time>2026-04-29T15:25:16Z</time></trkpt><trkpt lat="43.69630867386151" lon="13.188590598263422"><ele>22.333333333333332</ele><time>2026-04-29T15:25:17Z</time></trkpt><trkpt lat="43.69642397008012" lon="13.188731699038872"><ele>22.0</ele><time>2026-04-29T15:25:18Z</time></trkpt><trkpt lat="43.6965400053085" lon="13.188877247385841"><ele>21.666666666666664</ele><time>2026-04-29T15:25:19Z</time></trkpt><trkpt lat="43.69665949830843" lon="13.18902853789061"><ele>21.333333333333332</ele><time>2026-04-29T15:25:20Z</time></trkpt><trkpt lat="43.69678268220963" lon="13.189182063231865"><ele>21.0</ele><time>2026-04-29T15:25:21Z</time></trkpt><trkpt lat="43.69690766457003" lon="13.189333705830473"><ele>20.666666666666668</ele><time>2026-04-29T15:25:22Z</time></trkpt><trkpt lat="43.69703377578155" lon="13.18948286473155"><ele>20.333333333333336</ele><time>2026-04-29T15:25:23Z</time></trkpt><trkpt lat="43.69716054793347" lon="13.18962896000935"><ele>20.0</ele><time>2026-04-29T15:25:24Z</time></trkpt><trkpt lat="43.69728964828762" lon="13.189772001726393"><ele>19.333333333333336</ele><time>2026-04-29T15:25:25Z</time></trkpt><trkpt lat="43.69742022103795" lon="13.189911369669053"><ele>18.666666666666668</ele><time>2026-04-29T15:25:26Z</time></trkpt><trkpt lat="43.69755441183733" lon="13.190042507444362"><ele>18.0</ele><time>2026-04-29T15:25:27Z</time></trkpt><trkpt lat="43.697685776491326" lon="13.190162582813752"><ele>18.0</ele><time>2026-04-29T15:25:28Z</time></trkpt><trkpt lat="43.69781480502637" lon="13.190274023692753"><ele>18.0</ele><time>2026-04-29T15:25:29Z</time></trkpt><trkpt lat="43.69793721992052" lon="13.19037297427019"><ele>18.0</ele><time>2026-04-29T15:25:30Z</time></trkpt><trkpt lat="43.6980481467673" lon="13.190456945866716"><ele>18.0</ele><time>2026-04-29T15:25:31Z</time></trkpt><trkpt lat="43.69816141692815" lon="13.19053653549266"><ele>18.0</ele><time>2026-04-29T15:25:32Z</time></trkpt><trkpt lat="43.6982942284165" lon="13.19062868751265"><ele>18.0</ele><time>2026-04-29T15:25:33Z</time></trkpt><trkpt lat="43.69842023856137" lon="13.190716813484237"><ele>18.0</ele><time>2026-04-29T15:25:34Z</time></trkpt><trkpt lat="43.69855334012197" lon="13.190807870727506"><ele>18.0</ele><time>2026-04-29T15:25:35Z</time></trkpt><trkpt lat="43.698694446665336" lon="13.190892253281795"><ele>18.0</ele><time>2026-04-29T15:25:36Z</time></trkpt><trkpt lat="43.69882505289463" lon="13.19097528851602"><ele>18.0</ele><time>2026-04-29T15:25:37Z</time></trkpt><trkpt lat="43.69895848806648" lon="13.191057491244349"><ele>18.0</ele><time>2026-04-29T15:25:38Z</time></trkpt><trkpt lat="43.699090309424854" lon="13.191141314335022"><ele>18.0</ele><time>2026-04-29T15:25:39Z</time></trkpt><trkpt lat="43.69921344623889" lon="13.191218894941034"><ele>18.0</ele><time>2026-04-29T15:25:40Z</time></trkpt><trkpt lat="43.69933440871822" lon="13.191295963509171"><ele>18.0</ele><time>2026-04-29T15:25:41Z</time></trkpt><trkpt lat="43.699455572196854" lon="13.191374406598243"><ele>18.0</ele><time>2026-04-29T15:25:42Z</time></trkpt><trkpt lat="43.699569700998175" lon="13.1914498322835"><ele>18.0</ele><time>2026-04-29T15:25:43Z</time></trkpt><trkpt lat="43.699689737941995" lon="13.19152835091109"><ele>17.25</ele><time>2026-04-29T15:25:44Z</time></trkpt><trkpt lat="43.699812774684446" lon="13.191607494223353"><ele>16.5</ele><time>2026-04-29T15:25:45Z</time></trkpt><trkpt lat="43.6999338402484" lon="13.19168341294002"><ele>15.75</ele><time>2026-04-29T15:25:46Z</time></trkpt><trkpt lat="43.700054036810606" lon="13.191758636728117"><ele>15.0</ele><time>2026-04-29T15:25:47Z</time></trkpt><trkpt lat="43.700172372325724" lon="13.191836552863437"><ele>14.75</ele><time>2026-04-29T15:25:48Z</time></trkpt><trkpt lat="43.70028556773194" lon="13.191912657351383"><ele>14.5</ele><time>2026-04-29T15:25:49Z</time></trkpt><trkpt lat="43.70040947618734" lon="13.191983103785079"><ele>14.25</ele><time>2026-04-29T15:25:50Z</time></trkpt><trkpt lat="43.70054284121161" lon="13.192055403662076"><ele>14.0</ele><time>2026-04-29T15:25:51Z</time></trkpt><trkpt lat="43.7006839806834" lon="13.19213446907511"><ele>14.0</ele><time>2026-04-29T15:25:52Z</time></trkpt><trkpt lat="43.70083003899352" lon="13.192223119539511"><ele>14.0</ele><time>2026-04-29T15:25:53Z</time></trkpt><trkpt lat="43.7009796973534" lon="13.192320142925338"><ele>14.0</ele><time>2026-04-29T15:25:54Z</time></trkpt><trkpt lat="43.70113227831729" lon="13.19243461441919"><ele>14.0</ele><time>2026-04-29T15:25:55Z</time></trkpt><trkpt lat="43.70128543032239" lon="13.192571763198288"><ele>14.0</ele><time>2026-04-29T15:25:56Z</time></trkpt><trkpt lat="43.701437920094" lon="13.192728896177417"><ele>14.0</ele><time>2026-04-29T15:25:57Z</time></trkpt><trkpt lat="43.70157994494889" lon="13.19290835189359"><ele>14.0</ele><time>2026-04-29T15:25:58Z</time></trkpt><trkpt lat="43.701710589613626" lon="13.193116116616922"><ele>14.0</ele><time>2026-04-29T15:25:59Z</time></trkpt><trkpt lat="43.70182508107251" lon="13.193334357776866"><ele>14.0</ele><time>2026-04-29T15:26:00Z</time></trkpt><trkpt lat="43.701932044850096" lon="13.193567647550383"><ele>14.0</ele><time>2026-04-29T15:26:01Z</time></trkpt><trkpt lat="43.70201947154187" lon="13.193806034151283"><ele>14.0</ele><time>2026-04-29T15:26:02Z</time></trkpt><trkpt lat="43.70209336132358" lon="13.194057242407897"><ele>14.0</ele><time>2026-04-29T15:26:03Z</time></trkpt><trkpt lat="43.70214343689416" lon="13.194312563344413"><ele>13.333333333333334</ele><time>2026-04-29T15:26:04Z</time></trkpt><trkpt lat="43.702158728277844" lon="13.194572919509202"><ele>12.666666666666668</ele><time>2026-04-29T15:26:05Z</time></trkpt><trkpt lat="43.70218903213298" lon="13.194837325850743"><ele>12.0</ele><time>2026-04-29T15:26:06Z</time></trkpt><trkpt lat="43.70217074845454" lon="13.19511584880403"><ele>11.666666666666666</ele><time>2026-04-29T15:26:07Z</time></trkpt><trkpt lat="43.70214503951805" lon="13.195397905910697"><ele>11.333333333333332</ele><time>2026-04-29T15:26:08Z</time></trkpt><trkpt lat="43.702099879492565" lon="13.195675403452853"><ele>11.0</ele><time>2026-04-29T15:26:09Z</time></trkpt><trkpt lat="43.702040138705705" lon="13.195974704309698"><ele>10.666666666666666</ele><time>2026-04-29T15:26:10Z</time></trkpt><trkpt lat="43.70198367852198" lon="13.196278981727772"><ele>10.333333333333334</ele><time>2026-04-29T15:26:11Z</time></trkpt><trkpt lat="43.7019160175944" lon="13.196538166281218"><ele>10.0</ele><time>2026-04-29T15:26:12Z</time></trkpt><trkpt lat="43.70186781966722" lon="13.196792361866045"><ele>9.333333333333334</ele><time>2026-04-29T15:26:13Z</time></trkpt><trkpt lat="43.701815842794076" lon="13.197072741546211"><ele>8.666666666666666</ele><time>2026-04-29T15:26:14Z</time></trkpt><trkpt lat="43.701766213590766" lon="13.197352058840606"><ele>8.0</ele><time>2026-04-29T15:26:15Z</time></trkpt><trkpt lat="43.701709832387266" lon="13.197645965785396"><ele>7.666666666666666</ele><time>2026-04-29T15:26:16Z</time></trkpt><trkpt lat="43.701648883083834" lon="13.197929550119389"><ele>7.333333333333334</ele><time>2026-04-29T15:26:17Z</time></trkpt><trkpt lat="43.70158654968597" lon="13.198222092619227"><ele>7.0</ele><time>2026-04-29T15:26:18Z</time></trkpt><trkpt lat="43.701523458355695" lon="13.198522196521703"><ele>6.666666666666667</ele><time>2026-04-29T15:26:19Z</time></trkpt><trkpt lat="43.701460712107334" lon="13.198816892837888"><ele>6.333333333333334</ele><time>2026-04-29T15:26:20Z</time></trkpt><trkpt lat="43.70140654178361" lon="13.199088521422006"><ele>6.0</ele><time>2026-04-29T15:26:21Z</time></trkpt><trkpt lat="43.70135438749454" lon="13.199342452606082"><ele>6.0</ele><time>2026-04-29T15:26:22Z</time></trkpt><trkpt lat="43.70130326003546" lon="13.199599279904277"><ele>6.0</ele><time>2026-04-29T15:26:23Z</time></trkpt><trkpt lat="43.70125073557815" lon="13.19984072800797"><ele>6.0</ele><time>2026-04-29T15:26:24Z</time></trkpt><trkpt lat="43.70120203334201" lon="13.200073634708074"><ele>5.666666666666667</ele><time>2026-04-29T15:26:25Z</time></trkpt><trkpt lat="43.70115317652154" lon="13.200286557596947"><ele>5.333333333333334</ele><time>2026-04-29T15:26:26Z</time></trkpt><trkpt lat="43.70111100692542" lon="13.200499314039797"><ele>5.0</ele><time>2026-04-29T15:26:27Z</time></trkpt><trkpt lat="43.70106581711583" lon="13.200721496876792"><ele>5.0</ele><time>2026-04-29T15:26:28Z</time></trkpt><trkpt lat="43.70102645846646" lon="13.200936749816858"><ele>5.0</ele><time>2026-04-29T15:26:29Z</time></trkpt><trkpt lat="43.700990899317084" lon="13.201130578455325"><ele>5.0</ele><time>2026-04-29T15:26:30Z</time></trkpt><trkpt lat="43.70095419465313" lon="13.201321401338427"><ele>5.0</ele><time>2026-04-29T15:26:31Z</time></trkpt><trkpt lat="43.70090141689806" lon="13.201501063980617"><ele>5.2</ele><time>2026-04-29T15:26:32Z</time></trkpt><trkpt lat="43.70086965655608" lon="13.201658998395969"><ele>5.4</ele><time>2026-04-29T15:26:33Z</time></trkpt><trkpt lat="43.70085725734436" lon="13.201797815881354"><ele>5.6</ele><time>2026-04-29T15:26:34Z</time></trkpt><trkpt lat="43.700829108889195" lon="13.201914933537122"><ele>5.8</ele><time>2026-04-29T15:26:35Z</time></trkpt><trkpt lat="43.7007986501749" lon="13.202036485099608"><ele>6.0</ele><time>2026-04-29T15:26:36Z</time></trkpt><trkpt lat="43.70077081962511" lon="13.20216032562438"><ele>6.0</ele><time>2026-04-29T15:26:37Z</time></trkpt><trkpt lat="43.70074602231194" lon="13.202247959640765"><ele>6.0</ele><time>2026-04-29T15:26:38Z</time></trkpt><trkpt lat="43.70069978539537" lon="13.20237983231812"><ele>6.0</ele><time>2026-04-29T15:26:40Z</time></trkpt><trkpt lat="43.700636389434145" lon="13.202514367142987"><ele>6.0</ele><time>2026-04-29T15:26:42Z</time></trkpt><trkpt lat="43.700588701500244" lon="13.202588308323593"><ele>6.0</ele><time>2026-04-29T15:26:43Z</time></trkpt><trkpt lat="43.700534240736566" lon="13.202669694786314"><ele>6.0</ele><time>2026-04-29T15:26:44Z</time></trkpt><trkpt lat="43.700455756517535" lon="13.202744368290965"><ele>5.833333333333333</ele><time>2026-04-29T15:26:45Z</time></trkpt><trkpt lat="43.70041025787819" lon="13.202830262031872"><ele>5.666666666666667</ele><time>2026-04-29T15:26:46Z</time></trkpt><trkpt lat="43.70035928776057" lon="13.202897368313117"><ele>5.5</ele><time>2026-04-29T15:26:47Z</time></trkpt><trkpt lat="43.700305401962495" lon="13.203016977119272"><ele>5.333333333333334</ele><time>2026-04-29T15:26:49Z</time></trkpt><trkpt lat="43.700300948754816" lon="13.203112045955027"><ele>5.166666666666667</ele><time>2026-04-29T15:26:51Z</time></trkpt><trkpt lat="43.70027713963082" lon="13.203202364937722"><ele>5.0</ele><time>2026-04-29T15:26:53Z</time></trkpt><trkpt lat="43.7003362134503" lon="13.203256882889733"><ele>5.0</ele><time>2026-04-29T15:26:54Z</time></trkpt><trkpt lat="43.70037166731076" lon="13.203330260113818"><ele>5.0</ele><time>2026-04-29T15:26:56Z</time></trkpt><trkpt lat="43.700430813496936" lon="13.203387336134266"><ele>5.0</ele><time>2026-04-29T15:26:58Z</time></trkpt><trkpt lat="43.700528601714026" lon="13.203412009841719"><ele>5.0</ele><time>2026-04-29T15:27:00Z</time></trkpt><trkpt lat="43.70063073899883" lon="13.203425582703005"><ele>5.0</ele><time>2026-04-29T15:27:02Z</time></trkpt><trkpt lat="43.70067197715573" lon="13.203608176373228"><ele>5.0</ele><time>2026-04-29T15:27:03Z</time></trkpt><trkpt lat="43.700711239588585" lon="13.20367716607576"><ele>5.0</ele><time>2026-04-29T15:27:04Z</time></trkpt><trkpt lat="43.70075224523003" lon="13.203758161605922"><ele>5.0</ele><time>2026-04-29T15:27:05Z</time></trkpt><trkpt lat="43.70078817028141" lon="13.203845695891385"><ele>5.0</ele><time>2026-04-29T15:27:06Z</time></trkpt><trkpt lat="43.70081698060233" lon="13.203926688214372"><ele>5.0</ele><time>2026-04-29T15:27:07Z</time></trkpt><trkpt lat="43.700871015601365" lon="13.204064509039487"><ele>5.0</ele><time>2026-04-29T15:27:09Z</time></trkpt><trkpt lat="43.700938049384035" lon="13.204193578514502"><ele>5.166666666666667</ele><time>2026-04-29T15:27:11Z</time></trkpt><trkpt lat="43.70100825704086" lon="13.20429980083655"><ele>5.333333333333334</ele><time>2026-04-29T15:27:13Z</time></trkpt><trkpt lat="43.701076679435424" lon="13.204411327282992"><ele>5.5</ele><time>2026-04-29T15:27:15Z</time></trkpt><trkpt lat="43.70112192511658" lon="13.204478748121442"><ele>5.666666666666667</ele><time>2026-04-29T15:27:16Z</time></trkpt><trkpt lat="43.701167225135066" lon="13.204539430143866"><ele>5.833333333333333</ele><time>2026-04-29T15:27:17Z</time></trkpt><trkpt lat="43.701220376718005" lon="13.204598386639098"><ele>6.0</ele><time>2026-04-29T15:27:18Z</time></trkpt><trkpt lat="43.70130603002358" lon="13.204699384250633"><ele>6.0</ele><time>2026-04-29T15:27:20Z</time></trkpt><trkpt lat="43.701398114310564" lon="13.204810423122328"><ele>6.0</ele><time>2026-04-29T15:27:22Z</time></trkpt><trkpt lat="43.701489785292345" lon="13.204930981466674"><ele>6.0</ele><time>2026-04-29T15:27:24Z</time></trkpt><trkpt lat="43.7015756061721" lon="13.205039085753251"><ele>6.0</ele><time>2026-04-29T15:27:26Z</time></trkpt><trkpt lat="43.70165896795311" lon="13.20513802151607"><ele>6.0</ele><time>2026-04-29T15:27:28Z</time></trkpt><trkpt lat="43.7017491831662" lon="13.205257263854744"><ele>6.0</ele><time>2026-04-29T15:27:30Z</time></trkpt><trkpt lat="43.70180275346142" lon="13.20532648560118"><ele>6.0</ele><time>2026-04-29T15:27:31Z</time></trkpt><trkpt lat="43.70185969742883" lon="13.205398520148078"><ele>6.0</ele><time>2026-04-29T15:27:32Z</time></trkpt><trkpt lat="43.70192085700193" lon="13.205475388053907"><ele>6.0</ele><time>2026-04-29T15:27:33Z</time></trkpt><trkpt lat="43.70198239714603" lon="13.205550434701118"><ele>6.0</ele><time>2026-04-29T15:27:34Z</time></trkpt><trkpt lat="43.70204861132943" lon="13.20562624577175"><ele>6.0</ele><time>2026-04-29T15:27:35Z</time></trkpt><trkpt lat="43.70211379285615" lon="13.205709535412495"><ele>6.0</ele><time>2026-04-29T15:27:36Z</time></trkpt><trkpt lat="43.70217982386852" lon="13.205796701769996"><ele>6.0</ele><time>2026-04-29T15:27:37Z</time></trkpt><trkpt lat="43.70224747948712" lon="13.205883963628684"><ele>6.0</ele><time>2026-04-29T15:27:38Z</time></trkpt><trkpt lat="43.702321983764016" lon="13.205971294961158"><ele>6.0</ele><time>2026-04-29T15:27:39Z</time></trkpt><trkpt lat="43.70239339176805" lon="13.206056684596097"><ele>6.0</ele><time>2026-04-29T15:27:40Z</time></trkpt><trkpt lat="43.70246873107571" lon="13.20614065417992"><ele>6.0</ele><time>2026-04-29T15:27:41Z</time></trkpt><trkpt lat="43.70253768148402" lon="13.20622941428139"><ele>6.0</ele><time>2026-04-29T15:27:42Z</time></trkpt><trkpt lat="43.70259230678569" lon="13.206306830938681"><ele>6.0</ele><time>2026-04-29T15:27:43Z</time></trkpt><trkpt lat="43.70263884310153" lon="13.206370906968818"><ele>6.0</ele><time>2026-04-29T15:27:44Z</time></trkpt><trkpt lat="43.70270729353295" lon="13.206462138778914"><ele>6.0</ele><time>2026-04-29T15:27:46Z</time></trkpt><trkpt lat="43.702770867373985" lon="13.206555034402063"><ele>6.166666666666667</ele><time>2026-04-29T15:27:48Z</time></trkpt><trkpt lat="43.702817982809826" lon="13.206707559918108"><ele>6.333333333333334</ele><time>2026-04-29T15:27:50Z</time></trkpt><trkpt lat="43.70283502467517" lon="13.206796857571991"><ele>6.5</ele><time>2026-04-29T15:27:51Z</time></trkpt><trkpt lat="43.70285841367483" lon="13.20689660972287"><ele>6.666666666666667</ele><time>2026-04-29T15:27:52Z</time></trkpt><trkpt lat="43.702898561967054" lon="13.206995083300356"><ele>6.833333333333334</ele><time>2026-04-29T15:27:53Z</time></trkpt><trkpt lat="43.7029654131783" lon="13.207096060621822"><ele>7.0</ele><time>2026-04-29T15:27:54Z</time></trkpt><trkpt lat="43.70304693004658" lon="13.20719842061561"><ele>7.0</ele><time>2026-04-29T15:27:55Z</time></trkpt><trkpt lat="43.70313549176817" lon="13.207311428907346"><ele>7.0</ele><time>2026-04-29T15:27:56Z</time></trkpt><trkpt lat="43.70322874600326" lon="13.207424021484632"><ele>7.0</ele><time>2026-04-29T15:27:57Z</time></trkpt><trkpt lat="43.703317723909336" lon="13.20753444418834"><ele>7.0</ele><time>2026-04-29T15:27:58Z</time></trkpt><trkpt lat="43.70340048926458" lon="13.20763687998438"><ele>6.75</ele><time>2026-04-29T15:27:59Z</time></trkpt><trkpt lat="43.70348737035855" lon="13.207735059135645"><ele>6.5</ele><time>2026-04-29T15:28:00Z</time></trkpt><trkpt lat="43.70357969318064" lon="13.207824204081556"><ele>6.25</ele><time>2026-04-29T15:28:01Z</time></trkpt><trkpt lat="43.7036843253161" lon="13.207908658712192"><ele>6.0</ele><time>2026-04-29T15:28:02Z</time></trkpt><trkpt lat="43.70378303427221" lon="13.207979960284003"><ele>5.8</ele><time>2026-04-29T15:28:03Z</time></trkpt><trkpt lat="43.70385705592498" lon="13.208036025184642"><ele>5.6</ele><time>2026-04-29T15:28:04Z</time></trkpt><trkpt lat="43.703935881444664" lon="13.208099771890836"><ele>5.4</ele><time>2026-04-29T15:28:05Z</time></trkpt><trkpt lat="43.70401329646971" lon="13.208170339602585"><ele>5.2</ele><time>2026-04-29T15:28:06Z</time></trkpt><trkpt lat="43.70409645140301" lon="13.208250183505552"><ele>5.0</ele><time>2026-04-29T15:28:07Z</time></trkpt><trkpt lat="43.70417402677343" lon="13.208331071383878"><ele>5.0</ele><time>2026-04-29T15:28:08Z</time></trkpt><trkpt lat="43.70425402817813" lon="13.20841502933514"><ele>5.0</ele><time>2026-04-29T15:28:09Z</time></trkpt><trkpt lat="43.70433174836473" lon="13.208494706297445"><ele>5.0</ele><time>2026-04-29T15:28:10Z</time></trkpt><trkpt lat="43.70440155775062" lon="13.208543702449846"><ele>5.0</ele><time>2026-04-29T15:28:11Z</time></trkpt><trkpt lat="43.70450324637569" lon="13.208635235309151"><ele>5.0</ele><time>2026-04-29T15:28:12Z</time></trkpt><trkpt lat="43.704561487117175" lon="13.208715118798734"><ele>5.0</ele><time>2026-04-29T15:28:13Z</time></trkpt><trkpt lat="43.70465820368863" lon="13.20881535333333"><ele>5.0</ele><time>2026-04-29T15:28:14Z</time></trkpt><trkpt lat="43.704759788097405" lon="13.2088803589895"><ele>5.0</ele><time>2026-04-29T15:28:15Z</time></trkpt><trkpt lat="43.70485289198492" lon="13.208936687476951"><ele>5.0</ele><time>2026-04-29T15:28:16Z</time></trkpt><trkpt lat="43.704927496133976" lon="13.208989248782219"><ele>5.0</ele><time>2026-04-29T15:28:17Z</time></trkpt><trkpt lat="43.704993306526475" lon="13.209043163028761"><ele>5.0</ele><time>2026-04-29T15:28:18Z</time></trkpt><trkpt lat="43.70505078150939" lon="13.209090404563625"><ele>5.0</ele><time>2026-04-29T15:28:19Z</time></trkpt><trkpt lat="43.705106536982434" lon="13.209145497313482"><ele>5.0</ele><time>2026-04-29T15:28:20Z</time></trkpt><trkpt lat="43.70518802423337" lon="13.209241586995791"><ele>5.0</ele><time>2026-04-29T15:28:22Z</time></trkpt><trkpt lat="43.7052579889881" lon="13.209328161322905"><ele>5.0</ele><time>2026-04-29T15:28:24Z</time></trkpt><trkpt lat="43.70533438846544" lon="13.209438208398264"><ele>5.0</ele><time>2026-04-29T15:28:26Z</time></trkpt><trkpt lat="43.705386510499665" lon="13.209527249150188"><ele>5.0</ele><time>2026-04-29T15:28:28Z</time></trkpt><trkpt lat="43.70543651994877" lon="13.209623578386298"><ele>5.0</ele><time>2026-04-29T15:28:33Z</time></trkpt><trkpt lat="43.70547475597522" lon="13.209749994402749"><ele>5.0</ele><time>2026-04-29T15:28:35Z</time></trkpt><trkpt lat="43.70549635585197" lon="13.20983395650628"><ele>5.0</ele><time>2026-04-29T15:28:36Z</time></trkpt><trkpt lat="43.705528185237235" lon="13.209913188441202"><ele>5.0</ele><time>2026-04-29T15:28:37Z</time></trkpt><trkpt lat="43.705575327347525" lon="13.209982887780102"><ele>5.0</ele><time>2026-04-29T15:28:38Z</time></trkpt><trkpt lat="43.70563352288082" lon="13.210033678367315"><ele>5.166666666666667</ele><time>2026-04-29T15:28:39Z</time></trkpt><trkpt lat="43.70570169303496" lon="13.210070719211108"><ele>5.333333333333334</ele><time>2026-04-29T15:28:40Z</time></trkpt><trkpt lat="43.705773815527664" lon="13.210117307300385"><ele>5.5</ele><time>2026-04-29T15:28:41Z</time></trkpt><trkpt lat="43.70585024105204" lon="13.210182132196818"><ele>5.666666666666667</ele><time>2026-04-29T15:28:42Z</time></trkpt><trkpt lat="43.705919920191874" lon="13.210252936128759"><ele>5.833333333333333</ele><time>2026-04-29T15:28:43Z</time></trkpt><trkpt lat="43.70598997328003" lon="13.210335714251222"><ele>6.0</ele><time>2026-04-29T15:28:44Z</time></trkpt><trkpt lat="43.70606232495141" lon="13.21041752367451"><ele>6.199999999999999</ele><time>2026-04-29T15:28:45Z</time></trkpt><trkpt lat="43.7061304044114" lon="13.210494060370849"><ele>6.3999999999999995</ele><time>2026-04-29T15:28:46Z</time></trkpt><trkpt lat="43.70619433779085" lon="13.210564700908439"><ele>6.6</ele><time>2026-04-29T15:28:47Z</time></trkpt><trkpt lat="43.706269443511815" lon="13.210654394055428"><ele>6.8</ele><time>2026-04-29T15:28:48Z</time></trkpt><trkpt lat="43.70634598664519" lon="13.210744822366923"><ele>7.0</ele><time>2026-04-29T15:28:49Z</time></trkpt><trkpt lat="43.70642765015751" lon="13.210841990169582"><ele>6.666666666666667</ele><time>2026-04-29T15:28:50Z</time></trkpt><trkpt lat="43.70649962953895" lon="13.210939791885705"><ele>6.333333333333334</ele><time>2026-04-29T15:28:51Z</time></trkpt><trkpt lat="43.70656617032883" lon="13.211028236086515"><ele>6.0</ele><time>2026-04-29T15:28:52Z</time></trkpt><trkpt lat="43.706617637833" lon="13.211110752471377"><ele>5.666666666666667</ele><time>2026-04-29T15:28:53Z</time></trkpt><trkpt lat="43.706662244105374" lon="13.211181778816625"><ele>5.333333333333334</ele><time>2026-04-29T15:28:54Z</time></trkpt><trkpt lat="43.70670816079093" lon="13.211245558627274"><ele>5.0</ele><time>2026-04-29T15:28:58Z</time></trkpt><trkpt lat="43.70677668510109" lon="13.211369541252425"><ele>4.8</ele><time>2026-04-29T15:29:01Z</time></trkpt><trkpt lat="43.706849577815774" lon="13.211525136926038"><ele>4.6</ele><time>2026-04-29T15:29:03Z</time></trkpt><trkpt lat="43.70690317072032" lon="13.211621606775617"><ele>4.4</ele><time>2026-04-29T15:29:04Z</time></trkpt><trkpt lat="43.70696655450108" lon="13.211719838355993"><ele>4.2</ele><time>2026-04-29T15:29:05Z</time></trkpt><trkpt lat="43.70704627230957" lon="13.211822400198564"><ele>4.0</ele><time>2026-04-29T15:29:06Z</time></trkpt><trkpt lat="43.707133093392244" lon="13.21193050621665"><ele>4.0</ele><time>2026-04-29T15:29:07Z</time></trkpt><trkpt lat="43.707220102352494" lon="13.212021776892211"><ele>4.0</ele><time>2026-04-29T15:29:08Z</time></trkpt><trkpt lat="43.707309254201085" lon="13.21210921457151"><ele>4.0</ele><time>2026-04-29T15:29:09Z</time></trkpt><trkpt lat="43.70739396087606" lon="13.212185468713438"><ele>4.0</ele><time>2026-04-29T15:29:10Z</time></trkpt><trkpt lat="43.70747664457425" lon="13.212252180294733"><ele>4.0</ele><time>2026-04-29T15:29:11Z</time></trkpt><trkpt lat="43.70755692068124" lon="13.212327886624536"><ele>3.833333333333333</ele><time>2026-04-29T15:29:12Z</time></trkpt><trkpt lat="43.70763931567215" lon="13.212401165295978"><ele>3.6666666666666665</ele><time>2026-04-29T15:29:13Z</time></trkpt><trkpt lat="43.707708631771645" lon="13.212466870205539"><ele>3.5</ele><time>2026-04-29T15:29:14Z</time></trkpt><trkpt lat="43.707770691927976" lon="13.212531475919729"><ele>3.333333333333333</ele><time>2026-04-29T15:29:15Z</time></trkpt><trkpt lat="43.70782142902195" lon="13.212586294107474"><ele>3.1666666666666665</ele><time>2026-04-29T15:29:16Z</time></trkpt><trkpt lat="43.70787366958583" lon="13.212645365795048"><ele>3.0</ele><time>2026-04-29T15:29:17Z</time></trkpt><trkpt lat="43.70793031153404" lon="13.212711303527357"><ele>3.3333333333333335</ele><time>2026-04-29T15:29:18Z</time></trkpt><trkpt lat="43.70798756711268" lon="13.212784775911235"><ele>3.666666666666667</ele><time>2026-04-29T15:29:19Z</time></trkpt><trkpt lat="43.7080500804329" lon="13.212862848913836"><ele>4.0</ele><time>2026-04-29T15:29:20Z</time></trkpt><trkpt lat="43.70811825367859" lon="13.212940307863937"><ele>4.333333333333334</ele><time>2026-04-29T15:29:21Z</time></trkpt><trkpt lat="43.708176365884384" lon="13.213015846979465"><ele>4.666666666666667</ele><time>2026-04-29T15:29:22Z</time></trkpt><trkpt lat="43.70824769148742" lon="13.213108851065227"><ele>5.0</ele><time>2026-04-29T15:29:23Z</time></trkpt><trkpt lat="43.708323772586255" lon="13.213200093154331"><ele>5.0</ele><time>2026-04-29T15:29:24Z</time></trkpt><trkpt lat="43.70839400573156" lon="13.213288304207525"><ele>5.0</ele><time>2026-04-29T15:29:25Z</time></trkpt><trkpt lat="43.70845867250158" lon="13.213376431810243"><ele>5.0</ele><time>2026-04-29T15:29:26Z</time></trkpt><trkpt lat="43.70852276941551" lon="13.213471188767198"><ele>5.0</ele><time>2026-04-29T15:29:27Z</time></trkpt><trkpt lat="43.70858494216696" lon="13.213575125258885"><ele>5.0</ele><time>2026-04-29T15:29:28Z</time></trkpt><trkpt lat="43.70864395983473" lon="13.213689637782938"><ele>4.8</ele><time>2026-04-29T15:29:29Z</time></trkpt><trkpt lat="43.708701129263694" lon="13.213803070774597"><ele>4.6</ele><time>2026-04-29T15:29:30Z</time></trkpt><trkpt lat="43.70875377974903" lon="13.21391114564068"><ele>4.4</ele><time>2026-04-29T15:29:31Z</time></trkpt><trkpt lat="43.70880629202811" lon="13.214029121071345"><ele>4.2</ele><time>2026-04-29T15:29:32Z</time></trkpt><trkpt lat="43.708860772042094" lon="13.21414624302412"><ele>4.0</ele><time>2026-04-29T15:29:33Z</time></trkpt><trkpt lat="43.708913341669444" lon="13.214273967776933"><ele>4.0</ele><time>2026-04-29T15:29:34Z</time></trkpt><trkpt lat="43.70896603166786" lon="13.214406671918137"><ele>4.0</ele><time>2026-04-29T15:29:35Z</time></trkpt><trkpt lat="43.7090169944719" lon="13.214539233118403"><ele>4.0</ele><time>2026-04-29T15:29:35.999Z</time></trkpt><trkpt lat="43.70907053906373" lon="13.214672241355103"><ele>4.0</ele><time>2026-04-29T15:29:36.999Z</time></trkpt><trkpt lat="43.70912543008702" lon="13.214805685239655"><ele>4.0</ele><time>2026-04-29T15:29:37.999Z</time></trkpt><trkpt lat="43.70917926384324" lon="13.214936782637986"><ele>4.0</ele><time>2026-04-29T15:29:38.999Z</time></trkpt><trkpt lat="43.70922994511213" lon="13.215060454177186"><ele>4.0</ele><time>2026-04-29T15:29:39.999Z</time></trkpt><trkpt lat="43.70928276185473" lon="13.215186085016457"><ele>4.0</ele><time>2026-04-29T15:29:40.999Z</time></trkpt><trkpt lat="43.709339531109094" lon="13.215314614325097"><ele>4.0</ele><time>2026-04-29T15:29:41.999Z</time></trkpt><trkpt lat="43.709395907195734" lon="13.215440832294702"><ele>4.0</ele><time>2026-04-29T15:29:42.999Z</time></trkpt><trkpt lat="43.70945103821108" lon="13.215565054431062"><ele>4.0</ele><time>2026-04-29T15:29:44Z</time></trkpt><trkpt lat="43.70950856795557" lon="13.215681362609775"><ele>4.0</ele><time>2026-04-29T15:29:45Z</time></trkpt><trkpt lat="43.70956941170424" lon="13.215795550796186"><ele>4.0</ele><time>2026-04-29T15:29:46Z</time></trkpt><trkpt lat="43.709632046966384" lon="13.215900248940075"><ele>4.0</ele><time>2026-04-29T15:29:47Z</time></trkpt><trkpt lat="43.709691858292246" lon="13.215995042009148"><ele>4.0</ele><time>2026-04-29T15:29:48Z</time></trkpt><trkpt lat="43.70974988669459" lon="13.216087912948383"><ele>3.9999999999999996</ele><time>2026-04-29T15:29:49Z</time></trkpt><trkpt lat="43.70979811249493" lon="13.216172384773847"><ele>4.0</ele><time>2026-04-29T15:29:50Z</time></trkpt><trkpt lat="43.70984786952348" lon="13.21625485788147"><ele>4.0</ele><time>2026-04-29T15:29:51Z</time></trkpt><trkpt lat="43.70989949458741" lon="13.216339592844202"><ele>4.0</ele><time>2026-04-29T15:29:52Z</time></trkpt><trkpt lat="43.709951720048075" lon="13.216430986173643"><ele>3.9999999999999996</ele><time>2026-04-29T15:29:53Z</time></trkpt><trkpt lat="43.710006079583486" lon="13.21652263846936"><ele>4.0</ele><time>2026-04-29T15:29:54Z</time></trkpt><trkpt lat="43.71005772503882" lon="13.216621595586922"><ele>4.4</ele><time>2026-04-29T15:29:55Z</time></trkpt><trkpt lat="43.710110472820276" lon="13.216721026528198"><ele>4.800000000000001</ele><time>2026-04-29T15:29:56Z</time></trkpt><trkpt lat="43.71017009177559" lon="13.216818021741265"><ele>5.199999999999999</ele><time>2026-04-29T15:29:57Z</time></trkpt><trkpt lat="43.71023027585546" lon="13.216915381548812"><ele>5.6</ele><time>2026-04-29T15:29:58Z</time></trkpt><trkpt lat="43.710299075177" lon="13.217030261019937"><ele>6.0</ele><time>2026-04-29T15:29:59Z</time></trkpt><trkpt lat="43.71037426324469" lon="13.217151742736485"><ele>6.0</ele><time>2026-04-29T15:30:00Z</time></trkpt><trkpt lat="43.710455845177016" lon="13.217279820609413"><ele>6.0</ele><time>2026-04-29T15:30:01Z</time></trkpt><trkpt lat="43.710538109106075" lon="13.217413521364513"><ele>6.0</ele><time>2026-04-29T15:30:02Z</time></trkpt><trkpt lat="43.710619025540566" lon="13.21754472354021"><ele>6.0</ele><time>2026-04-29T15:30:03Z</time></trkpt><trkpt lat="43.71070277917886" lon="13.217675398222921"><ele>5.8</ele><time>2026-04-29T15:30:04Z</time></trkpt><trkpt lat="43.71077933360018" lon="13.21779822895736"><ele>5.6</ele><time>2026-04-29T15:30:05Z</time></trkpt><trkpt lat="43.71085087181213" lon="13.217914096472917"><ele>5.4</ele><time>2026-04-29T15:30:06Z</time></trkpt><trkpt lat="43.710916995418614" lon="13.218025840797429"><ele>5.2</ele><time>2026-04-29T15:30:07Z</time></trkpt><trkpt lat="43.710983697788116" lon="13.218135572840268"><ele>5.0</ele><time>2026-04-29T15:30:08Z</time></trkpt><trkpt lat="43.71104916625832" lon="13.218241615562725"><ele>5.166666666666667</ele><time>2026-04-29T15:30:09Z</time></trkpt><trkpt lat="43.71111614476728" lon="13.218343859321434"><ele>5.333333333333334</ele><time>2026-04-29T15:30:10Z</time></trkpt><trkpt lat="43.711179570910474" lon="13.218437184002305"><ele>5.5</ele><time>2026-04-29T15:30:11Z</time></trkpt><trkpt lat="43.711233123951715" lon="13.218518372985441"><ele>5.666666666666667</ele><time>2026-04-29T15:30:12Z</time></trkpt><trkpt lat="43.71129070586025" lon="13.21860612787111"><ele>5.833333333333333</ele><time>2026-04-29T15:30:13Z</time></trkpt><trkpt lat="43.711351744649924" lon="13.218697230157828"><ele>6.0</ele><time>2026-04-29T15:30:14Z</time></trkpt><trkpt lat="43.711408816602756" lon="13.218791219777088"><ele>6.0</ele><time>2026-04-29T15:30:15Z</time></trkpt><trkpt lat="43.71147352391718" lon="13.21888804432207"><ele>6.0</ele><time>2026-04-29T15:30:16Z</time></trkpt><trkpt lat="43.71153513195783" lon="13.218987034504933"><ele>6.0</ele><time>2026-04-29T15:30:17Z</time></trkpt><trkpt lat="43.711601160851664" lon="13.219091426673238"><ele>6.0</ele><time>2026-04-29T15:30:18Z</time></trkpt><trkpt lat="43.7116649456335" lon="13.219191131131696"><ele>6.0</ele><time>2026-04-29T15:30:19Z</time></trkpt><trkpt lat="43.7117300433171" lon="13.21929733596967"><ele>6.0</ele><time>2026-04-29T15:30:20Z</time></trkpt><trkpt lat="43.71179620205008" lon="13.21940357245796"><ele>6.0</ele><time>2026-04-29T15:30:21Z</time></trkpt><trkpt lat="43.71186437969107" lon="13.21950925792864"><ele>6.0</ele><time>2026-04-29T15:30:22Z</time></trkpt><trkpt lat="43.71192541481574" lon="13.219590253298346"><ele>6.0</ele><time>2026-04-29T15:30:23Z</time></trkpt><trkpt lat="43.71198620892067" lon="13.219691890564368"><ele>6.0</ele><time>2026-04-29T15:30:24Z</time></trkpt><trkpt lat="43.71204487303255" lon="13.219800453048924"><ele>5.833333333333333</ele><time>2026-04-29T15:30:25Z</time></trkpt><trkpt lat="43.71211343994429" lon="13.219910087209845"><ele>5.666666666666667</ele><time>2026-04-29T15:30:26Z</time></trkpt><trkpt lat="43.71217398886421" lon="13.220016405546277"><ele>5.5</ele><time>2026-04-29T15:30:27Z</time></trkpt><trkpt lat="43.71223118711185" lon="13.220118832729998"><ele>5.333333333333334</ele><time>2026-04-29T15:30:28Z</time></trkpt><trkpt lat="43.71228581590831" lon="13.22018464369433"><ele>5.166666666666667</ele><time>2026-04-29T15:30:30Z</time></trkpt><trkpt lat="43.712323313617006" lon="13.220281476647916"><ele>5.0</ele><time>2026-04-29T15:31:16Z</time></trkpt><trkpt lat="43.71238290483407" lon="13.220370012176032"><ele>5.0</ele><time>2026-04-29T15:31:18Z</time></trkpt><trkpt lat="43.712424913223586" lon="13.220500571751032"><ele>5.0</ele><time>2026-04-29T15:31:20Z</time></trkpt><trkpt lat="43.71248015283577" lon="13.220588311522466"><ele>5.0</ele><time>2026-04-29T15:31:22Z</time></trkpt><trkpt lat="43.71252337535065" lon="13.22065696300028"><ele>5.0</ele><time>2026-04-29T15:31:24Z</time></trkpt><trkpt lat="43.71263785990479" lon="13.220546168364832"><ele>5.0</ele><time>2026-04-29T15:31:25Z</time></trkpt><trkpt lat="43.71271055196135" lon="13.220446456507034"><ele>5.0</ele><time>2026-04-29T15:31:27Z</time></trkpt><trkpt lat="43.71278391537839" lon="13.220350121307726"><ele>5.0</ele><time>2026-04-29T15:31:28.999Z</time></trkpt><trkpt lat="43.71286452805691" lon="13.220258952568825"><ele>5.0</ele><time>2026-04-29T15:31:30.999Z</time></trkpt><trkpt lat="43.71293329850509" lon="13.220187101084882"><ele>5.0</ele><time>2026-04-29T15:31:32.999Z</time></trkpt><trkpt lat="43.712996072599125" lon="13.220126927993492"><ele>5.0</ele><time>2026-04-29T15:31:34.999Z</time></trkpt><trkpt lat="43.7130532084745" lon="13.22008559312191"><ele>5.0</ele><time>2026-04-29T15:31:36.999Z</time></trkpt><trkpt lat="43.71311603039297" lon="13.220017797464457"><ele>5.0</ele><time>2026-04-29T15:31:39.999Z</time></trkpt><trkpt lat="43.71316341332159" lon="13.21996032712976"><ele>5.0</ele><time>2026-04-29T15:31:45.999Z</time></trkpt><trkpt lat="43.713223127534334" lon="13.219882341030647"><ele>5.0</ele><time>2026-04-29T15:32:01Z</time></trkpt><trkpt lat="43.71325931707048" lon="13.219803743775621"><ele>5.0</ele><time>2026-04-29T15:32:04Z</time></trkpt><trkpt lat="43.71331742096586" lon="13.219755410992066"><ele>5.0</ele><time>2026-04-29T15:32:13Z</time></trkpt><trkpt lat="43.71336797115365" lon="13.21968815133788"><ele>5.0</ele><time>2026-04-29T15:32:20Z</time></trkpt><trkpt lat="43.71341757288316" lon="13.21962215356973"><ele>5.0</ele><time>2026-04-29T15:32:26Z</time></trkpt><trkpt lat="43.71346999077724" lon="13.219552408780762"><ele>5.0</ele><time>2026-04-29T15:32:32Z</time></trkpt><trkpt lat="43.71351401786947" lon="13.21948309424773"><ele>5.0</ele><time>2026-04-29T15:32:38Z</time></trkpt><trkpt lat="43.71340336440576" lon="13.220150919414875"><ele>7.0</ele><time>2026-04-29T15:32:55Z</time></trkpt><trkpt lat="43.71356585828198" lon="13.219471737608462"><ele>7.5</ele><time>2026-04-29T15:32:57Z</time></trkpt><trkpt lat="43.713652206599065" lon="13.21942642222356"><ele>8.0</ele><time>2026-04-29T15:33:00Z</time></trkpt><trkpt lat="43.713723645972095" lon="13.219403016057102"><ele>8.5</ele><time>2026-04-29T15:33:02Z</time></trkpt><trkpt lat="43.71380055473454" lon="13.219384643965467"><ele>9.0</ele><time>2026-04-29T15:33:04Z</time></trkpt><trkpt lat="43.714038835214126" lon="13.21960651905505"><ele>9.0</ele><time>2026-04-29T15:33:06Z</time></trkpt><trkpt lat="43.71410185621172" lon="13.219565651074978"><ele>9.0</ele><time>2026-04-29T15:33:08Z</time></trkpt><trkpt lat="43.71416719323841" lon="13.219547579167424"><ele>9.0</ele><time>2026-04-29T15:33:11Z</time></trkpt><trkpt lat="43.71421909246172" lon="13.21965535826032"><ele>9.0</ele><time>2026-04-29T15:33:14Z</time></trkpt><trkpt lat="43.71425025294776" lon="13.219761471427859"><ele>9.0</ele><time>2026-04-29T15:33:16Z</time></trkpt><trkpt lat="43.714285308587094" lon="13.219848302514759"><ele>9.0</ele><time>2026-04-29T15:33:18Z</time></trkpt><trkpt lat="43.7143212714879" lon="13.219950013514326"><ele>8.666666666666666</ele><time>2026-04-29T15:33:20Z</time></trkpt><trkpt lat="43.71435958145907" lon="13.22004794538277"><ele>8.333333333333334</ele><time>2026-04-29T15:33:22Z</time></trkpt><trkpt lat="43.714397293014166" lon="13.220139930684674"><ele>8.0</ele><time>2026-04-29T15:33:24Z</time></trkpt><trkpt lat="43.71446876467309" lon="13.220153741738958"><ele>7.666666666666667</ele><time>2026-04-29T15:33:28Z</time></trkpt><trkpt lat="43.7145343751866" lon="13.220076984382553"><ele>7.333333333333334</ele><time>2026-04-29T15:33:31Z</time></trkpt><trkpt lat="43.714589759839065" lon="13.220028915137947"><ele>7.0</ele><time>2026-04-29T15:33:33Z</time></trkpt><trkpt lat="43.71468407416779" lon="13.220017510970338"><ele>5.0</ele><time>2026-04-29T15:33:35.999Z</time></trkpt><trkpt lat="43.71474166487809" lon="13.220075229983008"><ele>5.0</ele><time>2026-04-29T15:33:37.999Z</time></trkpt></trkseg></trk></gpx>